<?xml version="1.0" encoding="UTF-8" standalone="no" ?>
<gpx xmlns="http://www.topografix.com/GPX/1/1" xmlns:xsi="http://www.w3.org/2001/XMLSchema-instance" xsi:schemaLocation="http://www.topografix.com/GPX/1/1 http://www.topografix.com/GPX/1/1/gpx.xsd" version="1.1" creator="VisuGPX - https://www.visugpx.com">
  <metadata>
    <name>Augmontel Près de Castres</name>
    <desc><![CDATA[Très belle balade surtout à l'automne plein de couleurs]]></desc>
  </metadata>
  <trk>
    <name><![CDATA[Augmontel Jeudi- 20/10/2016]]></name>
    <trkseg>
      <trkpt lat="43.54588" lon="2.34977">
        <ele>327</ele>
        <time>2016-10-20T12:32:19Z</time>
      </trkpt>
      <trkpt lat="43.54588" lon="2.34977">
        <ele>327</ele>
        <time>2016-10-20T12:32:21Z</time>
      </trkpt>
      <trkpt lat="43.54588" lon="2.34977">
        <ele>327</ele>
        <time>2016-10-20T12:32:23Z</time>
      </trkpt>
      <trkpt lat="43.54588" lon="2.34977">
        <ele>327</ele>
        <time>2016-10-20T12:32:26Z</time>
      </trkpt>
      <trkpt lat="43.54588" lon="2.34978">
        <ele>327</ele>
        <time>2016-10-20T12:32:28Z</time>
      </trkpt>
      <trkpt lat="43.54588" lon="2.34977">
        <ele>327</ele>
        <time>2016-10-20T12:32:30Z</time>
      </trkpt>
      <trkpt lat="43.54588" lon="2.34977">
        <ele>327</ele>
        <time>2016-10-20T12:32:32Z</time>
      </trkpt>
      <trkpt lat="43.54588" lon="2.34977">
        <ele>327</ele>
        <time>2016-10-20T12:32:35Z</time>
      </trkpt>
      <trkpt lat="43.54588" lon="2.34977">
        <ele>327</ele>
        <time>2016-10-20T12:32:37Z</time>
      </trkpt>
      <trkpt lat="43.54587" lon="2.34977">
        <ele>327</ele>
        <time>2016-10-20T12:32:39Z</time>
      </trkpt>
      <trkpt lat="43.54587" lon="2.34978">
        <ele>327</ele>
        <time>2016-10-20T12:32:41Z</time>
      </trkpt>
      <trkpt lat="43.54587" lon="2.34978">
        <ele>327</ele>
        <time>2016-10-20T12:32:44Z</time>
      </trkpt>
      <trkpt lat="43.54587" lon="2.34978">
        <ele>327</ele>
        <time>2016-10-20T12:32:46Z</time>
      </trkpt>
      <trkpt lat="43.54586" lon="2.34978">
        <ele>327</ele>
        <time>2016-10-20T12:32:48Z</time>
      </trkpt>
      <trkpt lat="43.54586" lon="2.34978">
        <ele>327</ele>
        <time>2016-10-20T12:32:50Z</time>
      </trkpt>
      <trkpt lat="43.54586" lon="2.34978">
        <ele>327</ele>
        <time>2016-10-20T12:32:53Z</time>
      </trkpt>
      <trkpt lat="43.54586" lon="2.34978">
        <ele>327</ele>
        <time>2016-10-20T12:32:55Z</time>
      </trkpt>
      <trkpt lat="43.54586" lon="2.34978">
        <ele>327</ele>
        <time>2016-10-20T12:32:57Z</time>
      </trkpt>
      <trkpt lat="43.54586" lon="2.34978">
        <ele>327</ele>
        <time>2016-10-20T12:32:59Z</time>
      </trkpt>
      <trkpt lat="43.54586" lon="2.34978">
        <ele>327</ele>
        <time>2016-10-20T12:33:02Z</time>
      </trkpt>
      <trkpt lat="43.54586" lon="2.34978">
        <ele>327</ele>
        <time>2016-10-20T12:33:04Z</time>
      </trkpt>
      <trkpt lat="43.54586" lon="2.34979">
        <ele>327</ele>
        <time>2016-10-20T12:33:06Z</time>
      </trkpt>
      <trkpt lat="43.54587" lon="2.34979">
        <ele>327</ele>
        <time>2016-10-20T12:33:08Z</time>
      </trkpt>
      <trkpt lat="43.54587" lon="2.34979">
        <ele>327</ele>
        <time>2016-10-20T12:33:11Z</time>
      </trkpt>
      <trkpt lat="43.54587" lon="2.34979">
        <ele>327</ele>
        <time>2016-10-20T12:33:13Z</time>
      </trkpt>
      <trkpt lat="43.54587" lon="2.34979">
        <ele>327</ele>
        <time>2016-10-20T12:33:15Z</time>
      </trkpt>
      <trkpt lat="43.54587" lon="2.34979">
        <ele>327</ele>
        <time>2016-10-20T12:33:17Z</time>
      </trkpt>
      <trkpt lat="43.54587" lon="2.34979">
        <ele>327</ele>
        <time>2016-10-20T12:33:20Z</time>
      </trkpt>
      <trkpt lat="43.54587" lon="2.34979">
        <ele>327</ele>
        <time>2016-10-20T12:33:22Z</time>
      </trkpt>
      <trkpt lat="43.54587" lon="2.34979">
        <ele>327</ele>
        <time>2016-10-20T12:33:24Z</time>
      </trkpt>
      <trkpt lat="43.54588" lon="2.34979">
        <ele>327</ele>
        <time>2016-10-20T12:33:26Z</time>
      </trkpt>
      <trkpt lat="43.54588" lon="2.34979">
        <ele>327</ele>
        <time>2016-10-20T12:33:29Z</time>
      </trkpt>
      <trkpt lat="43.54588" lon="2.34979">
        <ele>327</ele>
        <time>2016-10-20T12:33:31Z</time>
      </trkpt>
      <trkpt lat="43.54588" lon="2.34979">
        <ele>327</ele>
        <time>2016-10-20T12:33:33Z</time>
      </trkpt>
      <trkpt lat="43.54588" lon="2.34978">
        <ele>327</ele>
        <time>2016-10-20T12:33:35Z</time>
      </trkpt>
      <trkpt lat="43.54588" lon="2.34978">
        <ele>327</ele>
        <time>2016-10-20T12:33:40Z</time>
      </trkpt>
      <trkpt lat="43.54588" lon="2.34978">
        <ele>327</ele>
        <time>2016-10-20T12:33:42Z</time>
      </trkpt>
      <trkpt lat="43.54588" lon="2.34978">
        <ele>327</ele>
        <time>2016-10-20T12:33:44Z</time>
      </trkpt>
      <trkpt lat="43.54588" lon="2.34978">
        <ele>327</ele>
        <time>2016-10-20T12:33:47Z</time>
      </trkpt>
      <trkpt lat="43.54587" lon="2.34978">
        <ele>327</ele>
        <time>2016-10-20T12:33:49Z</time>
      </trkpt>
      <trkpt lat="43.54587" lon="2.34977">
        <ele>327</ele>
        <time>2016-10-20T12:33:51Z</time>
      </trkpt>
      <trkpt lat="43.54587" lon="2.34977">
        <ele>327</ele>
        <time>2016-10-20T12:33:53Z</time>
      </trkpt>
      <trkpt lat="43.54588" lon="2.34977">
        <ele>327</ele>
        <time>2016-10-20T12:33:56Z</time>
      </trkpt>
      <trkpt lat="43.54587" lon="2.34977">
        <ele>327</ele>
        <time>2016-10-20T12:33:58Z</time>
      </trkpt>
      <trkpt lat="43.54587" lon="2.34976">
        <ele>327</ele>
        <time>2016-10-20T12:34:00Z</time>
      </trkpt>
      <trkpt lat="43.54587" lon="2.34976">
        <ele>327</ele>
        <time>2016-10-20T12:34:02Z</time>
      </trkpt>
      <trkpt lat="43.54586" lon="2.34976">
        <ele>327</ele>
        <time>2016-10-20T12:34:05Z</time>
      </trkpt>
      <trkpt lat="43.54586" lon="2.34976">
        <ele>327</ele>
        <time>2016-10-20T12:34:07Z</time>
      </trkpt>
      <trkpt lat="43.54586" lon="2.34976">
        <ele>327</ele>
        <time>2016-10-20T12:34:09Z</time>
      </trkpt>
      <trkpt lat="43.54585" lon="2.34976">
        <ele>327</ele>
        <time>2016-10-20T12:34:11Z</time>
      </trkpt>
      <trkpt lat="43.54585" lon="2.34976">
        <ele>327</ele>
        <time>2016-10-20T12:34:13Z</time>
      </trkpt>
      <trkpt lat="43.54585" lon="2.34975">
        <ele>327</ele>
        <time>2016-10-20T12:34:16Z</time>
      </trkpt>
      <trkpt lat="43.54585" lon="2.34975">
        <ele>327</ele>
        <time>2016-10-20T12:34:18Z</time>
      </trkpt>
      <trkpt lat="43.54585" lon="2.34975">
        <ele>327</ele>
        <time>2016-10-20T12:34:20Z</time>
      </trkpt>
      <trkpt lat="43.54585" lon="2.34975">
        <ele>327</ele>
        <time>2016-10-20T12:34:23Z</time>
      </trkpt>
      <trkpt lat="43.54585" lon="2.34975">
        <ele>327</ele>
        <time>2016-10-20T12:34:25Z</time>
      </trkpt>
      <trkpt lat="43.54585" lon="2.34974">
        <ele>327</ele>
        <time>2016-10-20T12:34:27Z</time>
      </trkpt>
      <trkpt lat="43.54585" lon="2.34974">
        <ele>327</ele>
        <time>2016-10-20T12:34:29Z</time>
      </trkpt>
      <trkpt lat="43.54586" lon="2.34974">
        <ele>327</ele>
        <time>2016-10-20T12:34:32Z</time>
      </trkpt>
      <trkpt lat="43.54586" lon="2.34974">
        <ele>327</ele>
        <time>2016-10-20T12:34:34Z</time>
      </trkpt>
      <trkpt lat="43.54586" lon="2.34974">
        <ele>327</ele>
        <time>2016-10-20T12:34:36Z</time>
      </trkpt>
      <trkpt lat="43.54586" lon="2.34974">
        <ele>327</ele>
        <time>2016-10-20T12:34:38Z</time>
      </trkpt>
      <trkpt lat="43.54586" lon="2.34974">
        <ele>327</ele>
        <time>2016-10-20T12:34:40Z</time>
      </trkpt>
      <trkpt lat="43.54586" lon="2.34975">
        <ele>327</ele>
        <time>2016-10-20T12:34:43Z</time>
      </trkpt>
      <trkpt lat="43.54586" lon="2.34975">
        <ele>327</ele>
        <time>2016-10-20T12:34:45Z</time>
      </trkpt>
      <trkpt lat="43.54587" lon="2.34976">
        <ele>327</ele>
        <time>2016-10-20T12:34:47Z</time>
      </trkpt>
      <trkpt lat="43.54588" lon="2.34976">
        <ele>327</ele>
        <time>2016-10-20T12:34:49Z</time>
      </trkpt>
      <trkpt lat="43.54588" lon="2.34976">
        <ele>327</ele>
        <time>2016-10-20T12:34:52Z</time>
      </trkpt>
      <trkpt lat="43.54588" lon="2.34976">
        <ele>327</ele>
        <time>2016-10-20T12:34:54Z</time>
      </trkpt>
      <trkpt lat="43.54589" lon="2.34976">
        <ele>327</ele>
        <time>2016-10-20T12:34:56Z</time>
      </trkpt>
      <trkpt lat="43.5459" lon="2.34978">
        <ele>327</ele>
        <time>2016-10-20T12:35:01Z</time>
      </trkpt>
      <trkpt lat="43.54591" lon="2.34979">
        <ele>327</ele>
        <time>2016-10-20T12:35:03Z</time>
      </trkpt>
      <trkpt lat="43.54592" lon="2.34981">
        <ele>327</ele>
        <time>2016-10-20T12:35:05Z</time>
      </trkpt>
      <trkpt lat="43.54592" lon="2.34984">
        <ele>327</ele>
        <time>2016-10-20T12:35:07Z</time>
      </trkpt>
      <trkpt lat="43.54593" lon="2.34985">
        <ele>327</ele>
        <time>2016-10-20T12:35:10Z</time>
      </trkpt>
      <trkpt lat="43.54593" lon="2.34988">
        <ele>327</ele>
        <time>2016-10-20T12:35:12Z</time>
      </trkpt>
      <trkpt lat="43.54592" lon="2.3499">
        <ele>327</ele>
        <time>2016-10-20T12:35:14Z</time>
      </trkpt>
      <trkpt lat="43.54592" lon="2.3499">
        <ele>327</ele>
        <time>2016-10-20T12:35:16Z</time>
      </trkpt>
      <trkpt lat="43.54592" lon="2.34991">
        <ele>327</ele>
        <time>2016-10-20T12:35:19Z</time>
      </trkpt>
      <trkpt lat="43.54592" lon="2.34991">
        <ele>327</ele>
        <time>2016-10-20T12:35:21Z</time>
      </trkpt>
      <trkpt lat="43.54592" lon="2.34991">
        <ele>327</ele>
        <time>2016-10-20T12:35:23Z</time>
      </trkpt>
      <trkpt lat="43.54592" lon="2.34991">
        <ele>327</ele>
        <time>2016-10-20T12:35:25Z</time>
      </trkpt>
      <trkpt lat="43.54591" lon="2.34991">
        <ele>327</ele>
        <time>2016-10-20T12:35:28Z</time>
      </trkpt>
      <trkpt lat="43.54591" lon="2.34991">
        <ele>327</ele>
        <time>2016-10-20T12:35:30Z</time>
      </trkpt>
      <trkpt lat="43.5459" lon="2.3499">
        <ele>327</ele>
        <time>2016-10-20T12:35:32Z</time>
      </trkpt>
      <trkpt lat="43.5459" lon="2.3499">
        <ele>327</ele>
        <time>2016-10-20T12:35:34Z</time>
      </trkpt>
      <trkpt lat="43.5459" lon="2.3499">
        <ele>327</ele>
        <time>2016-10-20T12:35:37Z</time>
      </trkpt>
      <trkpt lat="43.54589" lon="2.3499">
        <ele>327</ele>
        <time>2016-10-20T12:35:39Z</time>
      </trkpt>
      <trkpt lat="43.54589" lon="2.3499">
        <ele>327</ele>
        <time>2016-10-20T12:35:41Z</time>
      </trkpt>
      <trkpt lat="43.54589" lon="2.3499">
        <ele>327</ele>
        <time>2016-10-20T12:35:43Z</time>
      </trkpt>
      <trkpt lat="43.54588" lon="2.3499">
        <ele>327</ele>
        <time>2016-10-20T12:35:46Z</time>
      </trkpt>
      <trkpt lat="43.54588" lon="2.34989">
        <ele>327</ele>
        <time>2016-10-20T12:35:48Z</time>
      </trkpt>
      <trkpt lat="43.54587" lon="2.34989">
        <ele>327</ele>
        <time>2016-10-20T12:35:50Z</time>
      </trkpt>
      <trkpt lat="43.54587" lon="2.34989">
        <ele>327</ele>
        <time>2016-10-20T12:35:52Z</time>
      </trkpt>
      <trkpt lat="43.54586" lon="2.34988">
        <ele>327</ele>
        <time>2016-10-20T12:35:55Z</time>
      </trkpt>
      <trkpt lat="43.54586" lon="2.34987">
        <ele>327</ele>
        <time>2016-10-20T12:35:57Z</time>
      </trkpt>
      <trkpt lat="43.54586" lon="2.34986">
        <ele>327</ele>
        <time>2016-10-20T12:35:59Z</time>
      </trkpt>
      <trkpt lat="43.54586" lon="2.34986">
        <ele>327</ele>
        <time>2016-10-20T12:36:01Z</time>
      </trkpt>
      <trkpt lat="43.54586" lon="2.34986">
        <ele>327</ele>
        <time>2016-10-20T12:36:04Z</time>
      </trkpt>
      <trkpt lat="43.54586" lon="2.34986">
        <ele>327</ele>
        <time>2016-10-20T12:36:06Z</time>
      </trkpt>
      <trkpt lat="43.54585" lon="2.34985">
        <ele>327</ele>
        <time>2016-10-20T12:36:08Z</time>
      </trkpt>
      <trkpt lat="43.54585" lon="2.34985">
        <ele>327</ele>
        <time>2016-10-20T12:36:10Z</time>
      </trkpt>
      <trkpt lat="43.54585" lon="2.34985">
        <ele>327</ele>
        <time>2016-10-20T12:36:13Z</time>
      </trkpt>
      <trkpt lat="43.54584" lon="2.34984">
        <ele>327</ele>
        <time>2016-10-20T12:36:15Z</time>
      </trkpt>
      <trkpt lat="43.54584" lon="2.34983">
        <ele>327</ele>
        <time>2016-10-20T12:36:17Z</time>
      </trkpt>
      <trkpt lat="43.54584" lon="2.34982">
        <ele>327</ele>
        <time>2016-10-20T12:36:22Z</time>
      </trkpt>
      <trkpt lat="43.54584" lon="2.34982">
        <ele>327</ele>
        <time>2016-10-20T12:36:24Z</time>
      </trkpt>
      <trkpt lat="43.54584" lon="2.34981">
        <ele>327</ele>
        <time>2016-10-20T12:36:26Z</time>
      </trkpt>
      <trkpt lat="43.54583" lon="2.3498">
        <ele>327</ele>
        <time>2016-10-20T12:36:28Z</time>
      </trkpt>
      <trkpt lat="43.54583" lon="2.3498">
        <ele>327</ele>
        <time>2016-10-20T12:36:31Z</time>
      </trkpt>
      <trkpt lat="43.54583" lon="2.34979">
        <ele>327</ele>
        <time>2016-10-20T12:36:33Z</time>
      </trkpt>
      <trkpt lat="43.54582" lon="2.34979">
        <ele>327</ele>
        <time>2016-10-20T12:36:35Z</time>
      </trkpt>
      <trkpt lat="43.54582" lon="2.34978">
        <ele>327</ele>
        <time>2016-10-20T12:36:37Z</time>
      </trkpt>
      <trkpt lat="43.54582" lon="2.34978">
        <ele>327</ele>
        <time>2016-10-20T12:36:40Z</time>
      </trkpt>
      <trkpt lat="43.54582" lon="2.34977">
        <ele>327</ele>
        <time>2016-10-20T12:36:42Z</time>
      </trkpt>
      <trkpt lat="43.54581" lon="2.34977">
        <ele>327</ele>
        <time>2016-10-20T12:36:44Z</time>
      </trkpt>
      <trkpt lat="43.54581" lon="2.34977">
        <ele>327</ele>
        <time>2016-10-20T12:36:46Z</time>
      </trkpt>
      <trkpt lat="43.54582" lon="2.34977">
        <ele>327</ele>
        <time>2016-10-20T12:36:49Z</time>
      </trkpt>
      <trkpt lat="43.54581" lon="2.34976">
        <ele>327</ele>
        <time>2016-10-20T12:36:51Z</time>
      </trkpt>
      <trkpt lat="43.54581" lon="2.34976">
        <ele>327</ele>
        <time>2016-10-20T12:36:53Z</time>
      </trkpt>
      <trkpt lat="43.54581" lon="2.34976">
        <ele>327</ele>
        <time>2016-10-20T12:36:55Z</time>
      </trkpt>
      <trkpt lat="43.54581" lon="2.34976">
        <ele>327</ele>
        <time>2016-10-20T12:36:58Z</time>
      </trkpt>
      <trkpt lat="43.54581" lon="2.34975">
        <ele>327</ele>
        <time>2016-10-20T12:37:00Z</time>
      </trkpt>
      <trkpt lat="43.5458" lon="2.34974">
        <ele>327</ele>
        <time>2016-10-20T12:37:02Z</time>
      </trkpt>
      <trkpt lat="43.54581" lon="2.34974">
        <ele>327</ele>
        <time>2016-10-20T12:37:04Z</time>
      </trkpt>
      <trkpt lat="43.54581" lon="2.34974">
        <ele>327</ele>
        <time>2016-10-20T12:37:07Z</time>
      </trkpt>
      <trkpt lat="43.54581" lon="2.34975">
        <ele>327</ele>
        <time>2016-10-20T12:37:09Z</time>
      </trkpt>
      <trkpt lat="43.54581" lon="2.34975">
        <ele>327</ele>
        <time>2016-10-20T12:37:11Z</time>
      </trkpt>
      <trkpt lat="43.54581" lon="2.34975">
        <ele>327</ele>
        <time>2016-10-20T12:37:13Z</time>
      </trkpt>
      <trkpt lat="43.54582" lon="2.34975">
        <ele>327</ele>
        <time>2016-10-20T12:37:16Z</time>
      </trkpt>
      <trkpt lat="43.54582" lon="2.34975">
        <ele>327</ele>
        <time>2016-10-20T12:37:18Z</time>
      </trkpt>
      <trkpt lat="43.54582" lon="2.34974">
        <ele>327</ele>
        <time>2016-10-20T12:37:20Z</time>
      </trkpt>
      <trkpt lat="43.54582" lon="2.34975">
        <ele>327</ele>
        <time>2016-10-20T12:37:22Z</time>
      </trkpt>
      <trkpt lat="43.54582" lon="2.34976">
        <ele>327</ele>
        <time>2016-10-20T12:37:25Z</time>
      </trkpt>
      <trkpt lat="43.54582" lon="2.34976">
        <ele>327</ele>
        <time>2016-10-20T12:37:27Z</time>
      </trkpt>
      <trkpt lat="43.54583" lon="2.34978">
        <ele>327</ele>
        <time>2016-10-20T12:37:29Z</time>
      </trkpt>
      <trkpt lat="43.54583" lon="2.34979">
        <ele>327</ele>
        <time>2016-10-20T12:37:31Z</time>
      </trkpt>
      <trkpt lat="43.54583" lon="2.3498">
        <ele>327</ele>
        <time>2016-10-20T12:37:34Z</time>
      </trkpt>
      <trkpt lat="43.54583" lon="2.3498">
        <ele>327</ele>
        <time>2016-10-20T12:37:36Z</time>
      </trkpt>
      <trkpt lat="43.54584" lon="2.3498">
        <ele>327</ele>
        <time>2016-10-20T12:37:38Z</time>
      </trkpt>
      <trkpt lat="43.54585" lon="2.34982">
        <ele>327</ele>
        <time>2016-10-20T12:37:43Z</time>
      </trkpt>
      <trkpt lat="43.54586" lon="2.34983">
        <ele>327</ele>
        <time>2016-10-20T12:37:45Z</time>
      </trkpt>
      <trkpt lat="43.54587" lon="2.34982">
        <ele>327</ele>
        <time>2016-10-20T12:37:47Z</time>
      </trkpt>
      <trkpt lat="43.54588" lon="2.34981">
        <ele>327</ele>
        <time>2016-10-20T12:37:49Z</time>
      </trkpt>
      <trkpt lat="43.5459" lon="2.34981">
        <ele>327</ele>
        <time>2016-10-20T12:37:52Z</time>
      </trkpt>
      <trkpt lat="43.54592" lon="2.34979">
        <ele>327</ele>
        <time>2016-10-20T12:37:54Z</time>
      </trkpt>
      <trkpt lat="43.54594" lon="2.34977">
        <ele>327</ele>
        <time>2016-10-20T12:37:56Z</time>
      </trkpt>
      <trkpt lat="43.54595" lon="2.34976">
        <ele>327</ele>
        <time>2016-10-20T12:37:58Z</time>
      </trkpt>
      <trkpt lat="43.54597" lon="2.34976">
        <ele>327</ele>
        <time>2016-10-20T12:38:01Z</time>
      </trkpt>
      <trkpt lat="43.54599" lon="2.34974">
        <ele>327</ele>
        <time>2016-10-20T12:38:03Z</time>
      </trkpt>
      <trkpt lat="43.546" lon="2.34973">
        <ele>327</ele>
        <time>2016-10-20T12:38:05Z</time>
      </trkpt>
      <trkpt lat="43.546" lon="2.34973">
        <ele>327</ele>
        <time>2016-10-20T12:38:07Z</time>
      </trkpt>
      <trkpt lat="43.546" lon="2.34973">
        <ele>327</ele>
        <time>2016-10-20T12:38:10Z</time>
      </trkpt>
      <trkpt lat="43.546" lon="2.34973">
        <ele>327</ele>
        <time>2016-10-20T12:38:12Z</time>
      </trkpt>
      <trkpt lat="43.54601" lon="2.34972">
        <ele>327</ele>
        <time>2016-10-20T12:38:14Z</time>
      </trkpt>
      <trkpt lat="43.54603" lon="2.34971">
        <ele>327</ele>
        <time>2016-10-20T12:38:17Z</time>
      </trkpt>
      <trkpt lat="43.54604" lon="2.3497">
        <ele>327</ele>
        <time>2016-10-20T12:38:19Z</time>
      </trkpt>
      <trkpt lat="43.54606" lon="2.34968">
        <ele>327</ele>
        <time>2016-10-20T12:38:21Z</time>
      </trkpt>
      <trkpt lat="43.54607" lon="2.34967">
        <ele>327</ele>
        <time>2016-10-20T12:38:23Z</time>
      </trkpt>
      <trkpt lat="43.54608" lon="2.34966">
        <ele>327</ele>
        <time>2016-10-20T12:38:26Z</time>
      </trkpt>
      <trkpt lat="43.5461" lon="2.34965">
        <ele>327</ele>
        <time>2016-10-20T12:38:28Z</time>
      </trkpt>
      <trkpt lat="43.54612" lon="2.34963">
        <ele>327</ele>
        <time>2016-10-20T12:38:30Z</time>
      </trkpt>
      <trkpt lat="43.54613" lon="2.34962">
        <ele>327</ele>
        <time>2016-10-20T12:38:32Z</time>
      </trkpt>
      <trkpt lat="43.54615" lon="2.3496">
        <ele>327</ele>
        <time>2016-10-20T12:38:35Z</time>
      </trkpt>
      <trkpt lat="43.54616" lon="2.34959">
        <ele>328</ele>
        <time>2016-10-20T12:38:37Z</time>
      </trkpt>
      <trkpt lat="43.54615" lon="2.34959">
        <ele>327</ele>
        <time>2016-10-20T12:38:39Z</time>
      </trkpt>
      <trkpt lat="43.54615" lon="2.34959">
        <ele>327</ele>
        <time>2016-10-20T12:38:41Z</time>
      </trkpt>
      <trkpt lat="43.54615" lon="2.34958">
        <ele>327</ele>
        <time>2016-10-20T12:38:44Z</time>
      </trkpt>
      <trkpt lat="43.54617" lon="2.34956">
        <ele>328</ele>
        <time>2016-10-20T12:38:46Z</time>
      </trkpt>
      <trkpt lat="43.54619" lon="2.34953">
        <ele>328</ele>
        <time>2016-10-20T12:38:48Z</time>
      </trkpt>
      <trkpt lat="43.54621" lon="2.34951">
        <ele>328</ele>
        <time>2016-10-20T12:38:50Z</time>
      </trkpt>
      <trkpt lat="43.54623" lon="2.34949">
        <ele>328</ele>
        <time>2016-10-20T12:38:53Z</time>
      </trkpt>
      <trkpt lat="43.54625" lon="2.34945">
        <ele>328</ele>
        <time>2016-10-20T12:38:55Z</time>
      </trkpt>
      <trkpt lat="43.54626" lon="2.34943">
        <ele>328</ele>
        <time>2016-10-20T12:38:57Z</time>
      </trkpt>
      <trkpt lat="43.54628" lon="2.3494">
        <ele>329</ele>
        <time>2016-10-20T12:38:59Z</time>
      </trkpt>
      <trkpt lat="43.54632" lon="2.34934">
        <ele>329</ele>
        <time>2016-10-20T12:39:04Z</time>
      </trkpt>
      <trkpt lat="43.54633" lon="2.34932">
        <ele>329</ele>
        <time>2016-10-20T12:39:06Z</time>
      </trkpt>
      <trkpt lat="43.54635" lon="2.3493">
        <ele>330</ele>
        <time>2016-10-20T12:39:08Z</time>
      </trkpt>
      <trkpt lat="43.54637" lon="2.3493">
        <ele>330</ele>
        <time>2016-10-20T12:39:11Z</time>
      </trkpt>
      <trkpt lat="43.54641" lon="2.34928">
        <ele>330</ele>
        <time>2016-10-20T12:39:13Z</time>
      </trkpt>
      <trkpt lat="43.54643" lon="2.34928">
        <ele>330</ele>
        <time>2016-10-20T12:39:15Z</time>
      </trkpt>
      <trkpt lat="43.54645" lon="2.34928">
        <ele>330</ele>
        <time>2016-10-20T12:39:18Z</time>
      </trkpt>
      <trkpt lat="43.54647" lon="2.34928">
        <ele>330</ele>
        <time>2016-10-20T12:39:20Z</time>
      </trkpt>
      <trkpt lat="43.5465" lon="2.34927">
        <ele>330</ele>
        <time>2016-10-20T12:39:22Z</time>
      </trkpt>
      <trkpt lat="43.54652" lon="2.34927">
        <ele>330</ele>
        <time>2016-10-20T12:39:24Z</time>
      </trkpt>
      <trkpt lat="43.54654" lon="2.34927">
        <ele>330</ele>
        <time>2016-10-20T12:39:27Z</time>
      </trkpt>
      <trkpt lat="43.54656" lon="2.34927">
        <ele>330</ele>
        <time>2016-10-20T12:39:29Z</time>
      </trkpt>
      <trkpt lat="43.54658" lon="2.34926">
        <ele>330</ele>
        <time>2016-10-20T12:39:31Z</time>
      </trkpt>
      <trkpt lat="43.5466" lon="2.34926">
        <ele>330</ele>
        <time>2016-10-20T12:39:33Z</time>
      </trkpt>
      <trkpt lat="43.54661" lon="2.34926">
        <ele>330</ele>
        <time>2016-10-20T12:39:36Z</time>
      </trkpt>
      <trkpt lat="43.54662" lon="2.34926">
        <ele>330</ele>
        <time>2016-10-20T12:39:38Z</time>
      </trkpt>
      <trkpt lat="43.54663" lon="2.34927">
        <ele>330</ele>
        <time>2016-10-20T12:39:40Z</time>
      </trkpt>
      <trkpt lat="43.54665" lon="2.34927">
        <ele>330</ele>
        <time>2016-10-20T12:39:42Z</time>
      </trkpt>
      <trkpt lat="43.54667" lon="2.34926">
        <ele>330</ele>
        <time>2016-10-20T12:39:45Z</time>
      </trkpt>
      <trkpt lat="43.54669" lon="2.34924">
        <ele>330</ele>
        <time>2016-10-20T12:39:47Z</time>
      </trkpt>
      <trkpt lat="43.54671" lon="2.34923">
        <ele>330</ele>
        <time>2016-10-20T12:39:49Z</time>
      </trkpt>
      <trkpt lat="43.54673" lon="2.34923">
        <ele>330</ele>
        <time>2016-10-20T12:39:51Z</time>
      </trkpt>
      <trkpt lat="43.54675" lon="2.34923">
        <ele>330</ele>
        <time>2016-10-20T12:39:54Z</time>
      </trkpt>
      <trkpt lat="43.54677" lon="2.34922">
        <ele>330</ele>
        <time>2016-10-20T12:39:56Z</time>
      </trkpt>
      <trkpt lat="43.5468" lon="2.34922">
        <ele>330</ele>
        <time>2016-10-20T12:39:58Z</time>
      </trkpt>
      <trkpt lat="43.54681" lon="2.34922">
        <ele>330</ele>
        <time>2016-10-20T12:40:01Z</time>
      </trkpt>
      <trkpt lat="43.54683" lon="2.34923">
        <ele>330</ele>
        <time>2016-10-20T12:40:03Z</time>
      </trkpt>
      <trkpt lat="43.54686" lon="2.34923">
        <ele>330</ele>
        <time>2016-10-20T12:40:05Z</time>
      </trkpt>
      <trkpt lat="43.54689" lon="2.34923">
        <ele>330</ele>
        <time>2016-10-20T12:40:07Z</time>
      </trkpt>
      <trkpt lat="43.54691" lon="2.34921">
        <ele>330</ele>
        <time>2016-10-20T12:40:10Z</time>
      </trkpt>
      <trkpt lat="43.54693" lon="2.3492">
        <ele>330</ele>
        <time>2016-10-20T12:40:12Z</time>
      </trkpt>
      <trkpt lat="43.54695" lon="2.3492">
        <ele>331</ele>
        <time>2016-10-20T12:40:14Z</time>
      </trkpt>
      <trkpt lat="43.54697" lon="2.34919">
        <ele>331</ele>
        <time>2016-10-20T12:40:17Z</time>
      </trkpt>
      <trkpt lat="43.54701" lon="2.34918">
        <ele>331</ele>
        <time>2016-10-20T12:40:19Z</time>
      </trkpt>
      <trkpt lat="43.54703" lon="2.34917">
        <ele>331</ele>
        <time>2016-10-20T12:40:21Z</time>
      </trkpt>
      <trkpt lat="43.54707" lon="2.34914">
        <ele>331</ele>
        <time>2016-10-20T12:40:26Z</time>
      </trkpt>
      <trkpt lat="43.54711" lon="2.34912">
        <ele>331</ele>
        <time>2016-10-20T12:40:28Z</time>
      </trkpt>
      <trkpt lat="43.54713" lon="2.34911">
        <ele>331</ele>
        <time>2016-10-20T12:40:30Z</time>
      </trkpt>
      <trkpt lat="43.54715" lon="2.3491">
        <ele>331</ele>
        <time>2016-10-20T12:40:33Z</time>
      </trkpt>
      <trkpt lat="43.54719" lon="2.34909">
        <ele>331</ele>
        <time>2016-10-20T12:40:35Z</time>
      </trkpt>
      <trkpt lat="43.54721" lon="2.34908">
        <ele>331</ele>
        <time>2016-10-20T12:40:37Z</time>
      </trkpt>
      <trkpt lat="43.54723" lon="2.34907">
        <ele>331</ele>
        <time>2016-10-20T12:40:40Z</time>
      </trkpt>
      <trkpt lat="43.54727" lon="2.34905">
        <ele>331</ele>
        <time>2016-10-20T12:40:42Z</time>
      </trkpt>
      <trkpt lat="43.54728" lon="2.34904">
        <ele>331</ele>
        <time>2016-10-20T12:40:44Z</time>
      </trkpt>
      <trkpt lat="43.54731" lon="2.34903">
        <ele>331</ele>
        <time>2016-10-20T12:40:46Z</time>
      </trkpt>
      <trkpt lat="43.54733" lon="2.34902">
        <ele>331</ele>
        <time>2016-10-20T12:40:49Z</time>
      </trkpt>
      <trkpt lat="43.54736" lon="2.34899">
        <ele>331</ele>
        <time>2016-10-20T12:40:51Z</time>
      </trkpt>
      <trkpt lat="43.54739" lon="2.34898">
        <ele>331</ele>
        <time>2016-10-20T12:40:53Z</time>
      </trkpt>
      <trkpt lat="43.54741" lon="2.34897">
        <ele>331</ele>
        <time>2016-10-20T12:40:56Z</time>
      </trkpt>
      <trkpt lat="43.54744" lon="2.34895">
        <ele>331</ele>
        <time>2016-10-20T12:40:58Z</time>
      </trkpt>
      <trkpt lat="43.54746" lon="2.34893">
        <ele>331</ele>
        <time>2016-10-20T12:41:00Z</time>
      </trkpt>
      <trkpt lat="43.54748" lon="2.34891">
        <ele>331</ele>
        <time>2016-10-20T12:41:03Z</time>
      </trkpt>
      <trkpt lat="43.54749" lon="2.3489">
        <ele>331</ele>
        <time>2016-10-20T12:41:05Z</time>
      </trkpt>
      <trkpt lat="43.54752" lon="2.34888">
        <ele>331</ele>
        <time>2016-10-20T12:41:07Z</time>
      </trkpt>
      <trkpt lat="43.54754" lon="2.34886">
        <ele>332</ele>
        <time>2016-10-20T12:41:09Z</time>
      </trkpt>
      <trkpt lat="43.54756" lon="2.34883">
        <ele>332</ele>
        <time>2016-10-20T12:41:12Z</time>
      </trkpt>
      <trkpt lat="43.5476" lon="2.3488">
        <ele>332</ele>
        <time>2016-10-20T12:41:14Z</time>
      </trkpt>
      <trkpt lat="43.54762" lon="2.34878">
        <ele>333</ele>
        <time>2016-10-20T12:41:16Z</time>
      </trkpt>
      <trkpt lat="43.54764" lon="2.34875">
        <ele>333</ele>
        <time>2016-10-20T12:41:19Z</time>
      </trkpt>
      <trkpt lat="43.54766" lon="2.34873">
        <ele>333</ele>
        <time>2016-10-20T12:41:21Z</time>
      </trkpt>
      <trkpt lat="43.5477" lon="2.3487">
        <ele>334</ele>
        <time>2016-10-20T12:41:23Z</time>
      </trkpt>
      <trkpt lat="43.54772" lon="2.34869">
        <ele>334</ele>
        <time>2016-10-20T12:41:26Z</time>
      </trkpt>
      <trkpt lat="43.54774" lon="2.34867">
        <ele>334</ele>
        <time>2016-10-20T12:41:28Z</time>
      </trkpt>
      <trkpt lat="43.54776" lon="2.34863">
        <ele>335</ele>
        <time>2016-10-20T12:41:30Z</time>
      </trkpt>
      <trkpt lat="43.54778" lon="2.34861">
        <ele>335</ele>
        <time>2016-10-20T12:41:32Z</time>
      </trkpt>
      <trkpt lat="43.5478" lon="2.34859">
        <ele>335</ele>
        <time>2016-10-20T12:41:35Z</time>
      </trkpt>
      <trkpt lat="43.54783" lon="2.34856">
        <ele>335</ele>
        <time>2016-10-20T12:41:37Z</time>
      </trkpt>
      <trkpt lat="43.54784" lon="2.34854">
        <ele>335</ele>
        <time>2016-10-20T12:41:39Z</time>
      </trkpt>
      <trkpt lat="43.54786" lon="2.34852">
        <ele>336</ele>
        <time>2016-10-20T12:41:42Z</time>
      </trkpt>
      <trkpt lat="43.54787" lon="2.3485">
        <ele>336</ele>
        <time>2016-10-20T12:41:44Z</time>
      </trkpt>
      <trkpt lat="43.5479" lon="2.34845">
        <ele>336</ele>
        <time>2016-10-20T12:41:48Z</time>
      </trkpt>
      <trkpt lat="43.54791" lon="2.34843">
        <ele>337</ele>
        <time>2016-10-20T12:41:51Z</time>
      </trkpt>
      <trkpt lat="43.54794" lon="2.34841">
        <ele>337</ele>
        <time>2016-10-20T12:41:53Z</time>
      </trkpt>
      <trkpt lat="43.54795" lon="2.34838">
        <ele>337</ele>
        <time>2016-10-20T12:41:55Z</time>
      </trkpt>
      <trkpt lat="43.54796" lon="2.34837">
        <ele>337</ele>
        <time>2016-10-20T12:41:58Z</time>
      </trkpt>
      <trkpt lat="43.54798" lon="2.34835">
        <ele>338</ele>
        <time>2016-10-20T12:42:00Z</time>
      </trkpt>
      <trkpt lat="43.548" lon="2.34831">
        <ele>338</ele>
        <time>2016-10-20T12:42:02Z</time>
      </trkpt>
      <trkpt lat="43.54802" lon="2.34828">
        <ele>338</ele>
        <time>2016-10-20T12:42:04Z</time>
      </trkpt>
      <trkpt lat="43.54803" lon="2.34825">
        <ele>338</ele>
        <time>2016-10-20T12:42:07Z</time>
      </trkpt>
      <trkpt lat="43.54806" lon="2.34822">
        <ele>338</ele>
        <time>2016-10-20T12:42:09Z</time>
      </trkpt>
      <trkpt lat="43.54807" lon="2.34819">
        <ele>338</ele>
        <time>2016-10-20T12:42:11Z</time>
      </trkpt>
      <trkpt lat="43.5481" lon="2.34816">
        <ele>338</ele>
        <time>2016-10-20T12:42:14Z</time>
      </trkpt>
      <trkpt lat="43.54812" lon="2.34814">
        <ele>338</ele>
        <time>2016-10-20T12:42:16Z</time>
      </trkpt>
      <trkpt lat="43.54814" lon="2.3481">
        <ele>338</ele>
        <time>2016-10-20T12:42:18Z</time>
      </trkpt>
      <trkpt lat="43.54815" lon="2.34807">
        <ele>339</ele>
        <time>2016-10-20T12:42:20Z</time>
      </trkpt>
      <trkpt lat="43.54816" lon="2.34804">
        <ele>339</ele>
        <time>2016-10-20T12:42:23Z</time>
      </trkpt>
      <trkpt lat="43.54818" lon="2.34801">
        <ele>339</ele>
        <time>2016-10-20T12:42:25Z</time>
      </trkpt>
      <trkpt lat="43.5482" lon="2.34798">
        <ele>339</ele>
        <time>2016-10-20T12:42:27Z</time>
      </trkpt>
      <trkpt lat="43.54821" lon="2.34796">
        <ele>339</ele>
        <time>2016-10-20T12:42:30Z</time>
      </trkpt>
      <trkpt lat="43.54823" lon="2.34794">
        <ele>339</ele>
        <time>2016-10-20T12:42:32Z</time>
      </trkpt>
      <trkpt lat="43.54825" lon="2.34791">
        <ele>339</ele>
        <time>2016-10-20T12:42:34Z</time>
      </trkpt>
      <trkpt lat="43.54827" lon="2.34789">
        <ele>339</ele>
        <time>2016-10-20T12:42:36Z</time>
      </trkpt>
      <trkpt lat="43.54828" lon="2.34786">
        <ele>339</ele>
        <time>2016-10-20T12:42:39Z</time>
      </trkpt>
      <trkpt lat="43.5483" lon="2.34783">
        <ele>340</ele>
        <time>2016-10-20T12:42:41Z</time>
      </trkpt>
      <trkpt lat="43.54831" lon="2.34781">
        <ele>340</ele>
        <time>2016-10-20T12:42:43Z</time>
      </trkpt>
      <trkpt lat="43.54832" lon="2.3478">
        <ele>340</ele>
        <time>2016-10-20T12:42:46Z</time>
      </trkpt>
      <trkpt lat="43.54833" lon="2.34777">
        <ele>340</ele>
        <time>2016-10-20T12:42:48Z</time>
      </trkpt>
      <trkpt lat="43.54835" lon="2.34774">
        <ele>340</ele>
        <time>2016-10-20T12:42:50Z</time>
      </trkpt>
      <trkpt lat="43.54836" lon="2.34773">
        <ele>340</ele>
        <time>2016-10-20T12:42:52Z</time>
      </trkpt>
      <trkpt lat="43.54837" lon="2.34771">
        <ele>340</ele>
        <time>2016-10-20T12:42:55Z</time>
      </trkpt>
      <trkpt lat="43.54839" lon="2.34769">
        <ele>340</ele>
        <time>2016-10-20T12:42:57Z</time>
      </trkpt>
      <trkpt lat="43.54841" lon="2.34767">
        <ele>340</ele>
        <time>2016-10-20T12:42:59Z</time>
      </trkpt>
      <trkpt lat="43.54841" lon="2.34764">
        <ele>340</ele>
        <time>2016-10-20T12:43:02Z</time>
      </trkpt>
      <trkpt lat="43.54843" lon="2.3476">
        <ele>340</ele>
        <time>2016-10-20T12:43:04Z</time>
      </trkpt>
      <trkpt lat="43.54844" lon="2.34757">
        <ele>340</ele>
        <time>2016-10-20T12:43:06Z</time>
      </trkpt>
      <trkpt lat="43.54845" lon="2.34752">
        <ele>341</ele>
        <time>2016-10-20T12:43:11Z</time>
      </trkpt>
      <trkpt lat="43.54848" lon="2.34749">
        <ele>340</ele>
        <time>2016-10-20T12:43:13Z</time>
      </trkpt>
      <trkpt lat="43.5485" lon="2.34747">
        <ele>340</ele>
        <time>2016-10-20T12:43:15Z</time>
      </trkpt>
      <trkpt lat="43.5485" lon="2.34745">
        <ele>340</ele>
        <time>2016-10-20T12:43:18Z</time>
      </trkpt>
      <trkpt lat="43.54852" lon="2.34742">
        <ele>340</ele>
        <time>2016-10-20T12:43:20Z</time>
      </trkpt>
      <trkpt lat="43.54852" lon="2.34741">
        <ele>340</ele>
        <time>2016-10-20T12:43:22Z</time>
      </trkpt>
      <trkpt lat="43.54853" lon="2.34739">
        <ele>340</ele>
        <time>2016-10-20T12:43:25Z</time>
      </trkpt>
      <trkpt lat="43.54854" lon="2.34736">
        <ele>340</ele>
        <time>2016-10-20T12:43:27Z</time>
      </trkpt>
      <trkpt lat="43.54855" lon="2.34734">
        <ele>340</ele>
        <time>2016-10-20T12:43:29Z</time>
      </trkpt>
      <trkpt lat="43.54856" lon="2.34732">
        <ele>340</ele>
        <time>2016-10-20T12:43:31Z</time>
      </trkpt>
      <trkpt lat="43.54856" lon="2.3473">
        <ele>341</ele>
        <time>2016-10-20T12:43:34Z</time>
      </trkpt>
      <trkpt lat="43.54858" lon="2.34727">
        <ele>341</ele>
        <time>2016-10-20T12:43:36Z</time>
      </trkpt>
      <trkpt lat="43.5486" lon="2.34724">
        <ele>340</ele>
        <time>2016-10-20T12:43:38Z</time>
      </trkpt>
      <trkpt lat="43.54861" lon="2.34721">
        <ele>340</ele>
        <time>2016-10-20T12:43:41Z</time>
      </trkpt>
      <trkpt lat="43.54861" lon="2.34721">
        <ele>341</ele>
        <time>2016-10-20T12:43:43Z</time>
      </trkpt>
      <trkpt lat="43.54862" lon="2.34718">
        <ele>341</ele>
        <time>2016-10-20T12:43:45Z</time>
      </trkpt>
      <trkpt lat="43.54863" lon="2.34717">
        <ele>341</ele>
        <time>2016-10-20T12:43:47Z</time>
      </trkpt>
      <trkpt lat="43.54863" lon="2.34715">
        <ele>341</ele>
        <time>2016-10-20T12:43:50Z</time>
      </trkpt>
      <trkpt lat="43.54864" lon="2.34712">
        <ele>341</ele>
        <time>2016-10-20T12:43:52Z</time>
      </trkpt>
      <trkpt lat="43.54865" lon="2.34709">
        <ele>341</ele>
        <time>2016-10-20T12:43:54Z</time>
      </trkpt>
      <trkpt lat="43.54865" lon="2.34708">
        <ele>341</ele>
        <time>2016-10-20T12:43:57Z</time>
      </trkpt>
      <trkpt lat="43.54866" lon="2.34706">
        <ele>341</ele>
        <time>2016-10-20T12:43:59Z</time>
      </trkpt>
      <trkpt lat="43.54868" lon="2.34702">
        <ele>341</ele>
        <time>2016-10-20T12:44:01Z</time>
      </trkpt>
      <trkpt lat="43.54868" lon="2.347">
        <ele>341</ele>
        <time>2016-10-20T12:44:03Z</time>
      </trkpt>
      <trkpt lat="43.54869" lon="2.34698">
        <ele>341</ele>
        <time>2016-10-20T12:44:06Z</time>
      </trkpt>
      <trkpt lat="43.5487" lon="2.34697">
        <ele>341</ele>
        <time>2016-10-20T12:44:08Z</time>
      </trkpt>
      <trkpt lat="43.5487" lon="2.34695">
        <ele>341</ele>
        <time>2016-10-20T12:44:10Z</time>
      </trkpt>
      <trkpt lat="43.5487" lon="2.34694">
        <ele>341</ele>
        <time>2016-10-20T12:44:13Z</time>
      </trkpt>
      <trkpt lat="43.54871" lon="2.34691">
        <ele>341</ele>
        <time>2016-10-20T12:44:15Z</time>
      </trkpt>
      <trkpt lat="43.54872" lon="2.3469">
        <ele>341</ele>
        <time>2016-10-20T12:44:17Z</time>
      </trkpt>
      <trkpt lat="43.54874" lon="2.34688">
        <ele>341</ele>
        <time>2016-10-20T12:44:19Z</time>
      </trkpt>
      <trkpt lat="43.54874" lon="2.34686">
        <ele>341</ele>
        <time>2016-10-20T12:44:22Z</time>
      </trkpt>
      <trkpt lat="43.54876" lon="2.34682">
        <ele>340</ele>
        <time>2016-10-20T12:44:24Z</time>
      </trkpt>
      <trkpt lat="43.54877" lon="2.3468">
        <ele>340</ele>
        <time>2016-10-20T12:44:26Z</time>
      </trkpt>
      <trkpt lat="43.54877" lon="2.34678">
        <ele>340</ele>
        <time>2016-10-20T12:44:29Z</time>
      </trkpt>
      <trkpt lat="43.54879" lon="2.34672">
        <ele>340</ele>
        <time>2016-10-20T12:44:33Z</time>
      </trkpt>
      <trkpt lat="43.5488" lon="2.34669">
        <ele>340</ele>
        <time>2016-10-20T12:44:36Z</time>
      </trkpt>
      <trkpt lat="43.5488" lon="2.34666">
        <ele>340</ele>
        <time>2016-10-20T12:44:38Z</time>
      </trkpt>
      <trkpt lat="43.54881" lon="2.34663">
        <ele>340</ele>
        <time>2016-10-20T12:44:40Z</time>
      </trkpt>
      <trkpt lat="43.54881" lon="2.34661">
        <ele>340</ele>
        <time>2016-10-20T12:44:42Z</time>
      </trkpt>
      <trkpt lat="43.54881" lon="2.3466">
        <ele>340</ele>
        <time>2016-10-20T12:44:45Z</time>
      </trkpt>
      <trkpt lat="43.54882" lon="2.34658">
        <ele>340</ele>
        <time>2016-10-20T12:44:47Z</time>
      </trkpt>
      <trkpt lat="43.54881" lon="2.34657">
        <ele>340</ele>
        <time>2016-10-20T12:44:49Z</time>
      </trkpt>
      <trkpt lat="43.54882" lon="2.34656">
        <ele>340</ele>
        <time>2016-10-20T12:44:52Z</time>
      </trkpt>
      <trkpt lat="43.54883" lon="2.34655">
        <ele>340</ele>
        <time>2016-10-20T12:44:54Z</time>
      </trkpt>
      <trkpt lat="43.54883" lon="2.34653">
        <ele>340</ele>
        <time>2016-10-20T12:44:56Z</time>
      </trkpt>
      <trkpt lat="43.54883" lon="2.34653">
        <ele>340</ele>
        <time>2016-10-20T12:44:58Z</time>
      </trkpt>
      <trkpt lat="43.54884" lon="2.34651">
        <ele>340</ele>
        <time>2016-10-20T12:45:01Z</time>
      </trkpt>
      <trkpt lat="43.54884" lon="2.34649">
        <ele>340</ele>
        <time>2016-10-20T12:45:03Z</time>
      </trkpt>
      <trkpt lat="43.54884" lon="2.34648">
        <ele>340</ele>
        <time>2016-10-20T12:45:05Z</time>
      </trkpt>
      <trkpt lat="43.54885" lon="2.34647">
        <ele>339</ele>
        <time>2016-10-20T12:45:08Z</time>
      </trkpt>
      <trkpt lat="43.54886" lon="2.34645">
        <ele>339</ele>
        <time>2016-10-20T12:45:10Z</time>
      </trkpt>
      <trkpt lat="43.54887" lon="2.34642">
        <ele>339</ele>
        <time>2016-10-20T12:45:12Z</time>
      </trkpt>
      <trkpt lat="43.54887" lon="2.3464">
        <ele>339</ele>
        <time>2016-10-20T12:45:14Z</time>
      </trkpt>
      <trkpt lat="43.54888" lon="2.34639">
        <ele>339</ele>
        <time>2016-10-20T12:45:17Z</time>
      </trkpt>
      <trkpt lat="43.54889" lon="2.34636">
        <ele>339</ele>
        <time>2016-10-20T12:45:19Z</time>
      </trkpt>
      <trkpt lat="43.5489" lon="2.34634">
        <ele>339</ele>
        <time>2016-10-20T12:45:21Z</time>
      </trkpt>
      <trkpt lat="43.5489" lon="2.34632">
        <ele>339</ele>
        <time>2016-10-20T12:45:24Z</time>
      </trkpt>
      <trkpt lat="43.54892" lon="2.3463">
        <ele>339</ele>
        <time>2016-10-20T12:45:26Z</time>
      </trkpt>
      <trkpt lat="43.54892" lon="2.34628">
        <ele>339</ele>
        <time>2016-10-20T12:45:28Z</time>
      </trkpt>
      <trkpt lat="43.54894" lon="2.34627">
        <ele>339</ele>
        <time>2016-10-20T12:45:30Z</time>
      </trkpt>
      <trkpt lat="43.54895" lon="2.34625">
        <ele>339</ele>
        <time>2016-10-20T12:45:33Z</time>
      </trkpt>
      <trkpt lat="43.54897" lon="2.34623">
        <ele>338</ele>
        <time>2016-10-20T12:45:35Z</time>
      </trkpt>
      <trkpt lat="43.54899" lon="2.34621">
        <ele>338</ele>
        <time>2016-10-20T12:45:37Z</time>
      </trkpt>
      <trkpt lat="43.54899" lon="2.34619">
        <ele>338</ele>
        <time>2016-10-20T12:45:40Z</time>
      </trkpt>
      <trkpt lat="43.549" lon="2.34618">
        <ele>338</ele>
        <time>2016-10-20T12:45:42Z</time>
      </trkpt>
      <trkpt lat="43.54902" lon="2.34615">
        <ele>337</ele>
        <time>2016-10-20T12:45:44Z</time>
      </trkpt>
      <trkpt lat="43.54903" lon="2.34613">
        <ele>337</ele>
        <time>2016-10-20T12:45:46Z</time>
      </trkpt>
      <trkpt lat="43.54904" lon="2.34612">
        <ele>337</ele>
        <time>2016-10-20T12:45:49Z</time>
      </trkpt>
      <trkpt lat="43.54906" lon="2.3461">
        <ele>336</ele>
        <time>2016-10-20T12:45:51Z</time>
      </trkpt>
      <trkpt lat="43.54909" lon="2.34608">
        <ele>336</ele>
        <time>2016-10-20T12:45:56Z</time>
      </trkpt>
      <trkpt lat="43.54911" lon="2.34605">
        <ele>336</ele>
        <time>2016-10-20T12:45:58Z</time>
      </trkpt>
      <trkpt lat="43.54912" lon="2.34604">
        <ele>336</ele>
        <time>2016-10-20T12:46:00Z</time>
      </trkpt>
      <trkpt lat="43.54913" lon="2.34603">
        <ele>335</ele>
        <time>2016-10-20T12:46:02Z</time>
      </trkpt>
      <trkpt lat="43.54913" lon="2.34602">
        <ele>335</ele>
        <time>2016-10-20T12:46:05Z</time>
      </trkpt>
      <trkpt lat="43.54914" lon="2.34601">
        <ele>335</ele>
        <time>2016-10-20T12:46:07Z</time>
      </trkpt>
      <trkpt lat="43.54915" lon="2.34599">
        <ele>335</ele>
        <time>2016-10-20T12:46:09Z</time>
      </trkpt>
      <trkpt lat="43.54915" lon="2.34599">
        <ele>335</ele>
        <time>2016-10-20T12:46:12Z</time>
      </trkpt>
      <trkpt lat="43.54917" lon="2.34598">
        <ele>335</ele>
        <time>2016-10-20T12:46:14Z</time>
      </trkpt>
      <trkpt lat="43.54918" lon="2.34597">
        <ele>334</ele>
        <time>2016-10-20T12:46:16Z</time>
      </trkpt>
      <trkpt lat="43.54919" lon="2.34596">
        <ele>334</ele>
        <time>2016-10-20T12:46:18Z</time>
      </trkpt>
      <trkpt lat="43.54921" lon="2.34595">
        <ele>334</ele>
        <time>2016-10-20T12:46:21Z</time>
      </trkpt>
      <trkpt lat="43.54923" lon="2.34593">
        <ele>333</ele>
        <time>2016-10-20T12:46:23Z</time>
      </trkpt>
      <trkpt lat="43.54924" lon="2.34592">
        <ele>333</ele>
        <time>2016-10-20T12:46:25Z</time>
      </trkpt>
      <trkpt lat="43.54925" lon="2.34592">
        <ele>333</ele>
        <time>2016-10-20T12:46:28Z</time>
      </trkpt>
      <trkpt lat="43.54927" lon="2.34591">
        <ele>333</ele>
        <time>2016-10-20T12:46:30Z</time>
      </trkpt>
      <trkpt lat="43.54928" lon="2.3459">
        <ele>333</ele>
        <time>2016-10-20T12:46:32Z</time>
      </trkpt>
      <trkpt lat="43.54929" lon="2.34589">
        <ele>332</ele>
        <time>2016-10-20T12:46:35Z</time>
      </trkpt>
      <trkpt lat="43.54931" lon="2.34588">
        <ele>332</ele>
        <time>2016-10-20T12:46:37Z</time>
      </trkpt>
      <trkpt lat="43.54933" lon="2.34587">
        <ele>332</ele>
        <time>2016-10-20T12:46:39Z</time>
      </trkpt>
      <trkpt lat="43.54935" lon="2.34586">
        <ele>331</ele>
        <time>2016-10-20T12:46:41Z</time>
      </trkpt>
      <trkpt lat="43.54936" lon="2.34585">
        <ele>331</ele>
        <time>2016-10-20T12:46:44Z</time>
      </trkpt>
      <trkpt lat="43.54939" lon="2.34582">
        <ele>331</ele>
        <time>2016-10-20T12:46:46Z</time>
      </trkpt>
      <trkpt lat="43.54941" lon="2.34581">
        <ele>330</ele>
        <time>2016-10-20T12:46:48Z</time>
      </trkpt>
      <trkpt lat="43.54942" lon="2.3458">
        <ele>330</ele>
        <time>2016-10-20T12:46:51Z</time>
      </trkpt>
      <trkpt lat="43.54945" lon="2.34578">
        <ele>330</ele>
        <time>2016-10-20T12:46:53Z</time>
      </trkpt>
      <trkpt lat="43.54946" lon="2.34577">
        <ele>330</ele>
        <time>2016-10-20T12:46:55Z</time>
      </trkpt>
      <trkpt lat="43.54947" lon="2.34576">
        <ele>329</ele>
        <time>2016-10-20T12:46:58Z</time>
      </trkpt>
      <trkpt lat="43.54948" lon="2.34574">
        <ele>329</ele>
        <time>2016-10-20T12:47:00Z</time>
      </trkpt>
      <trkpt lat="43.5495" lon="2.34574">
        <ele>329</ele>
        <time>2016-10-20T12:47:02Z</time>
      </trkpt>
      <trkpt lat="43.54952" lon="2.34572">
        <ele>329</ele>
        <time>2016-10-20T12:47:04Z</time>
      </trkpt>
      <trkpt lat="43.54954" lon="2.34572">
        <ele>328</ele>
        <time>2016-10-20T12:47:07Z</time>
      </trkpt>
      <trkpt lat="43.54957" lon="2.3457">
        <ele>328</ele>
        <time>2016-10-20T12:47:09Z</time>
      </trkpt>
      <trkpt lat="43.54959" lon="2.3457">
        <ele>328</ele>
        <time>2016-10-20T12:47:11Z</time>
      </trkpt>
      <trkpt lat="43.54961" lon="2.3457">
        <ele>327</ele>
        <time>2016-10-20T12:47:14Z</time>
      </trkpt>
      <trkpt lat="43.54965" lon="2.34569">
        <ele>327</ele>
        <time>2016-10-20T12:47:18Z</time>
      </trkpt>
      <trkpt lat="43.54966" lon="2.34569">
        <ele>327</ele>
        <time>2016-10-20T12:47:21Z</time>
      </trkpt>
      <trkpt lat="43.54967" lon="2.34568">
        <ele>327</ele>
        <time>2016-10-20T12:47:23Z</time>
      </trkpt>
      <trkpt lat="43.54969" lon="2.34567">
        <ele>326</ele>
        <time>2016-10-20T12:47:25Z</time>
      </trkpt>
      <trkpt lat="43.54971" lon="2.34566">
        <ele>326</ele>
        <time>2016-10-20T12:47:27Z</time>
      </trkpt>
      <trkpt lat="43.54973" lon="2.34565">
        <ele>326</ele>
        <time>2016-10-20T12:47:30Z</time>
      </trkpt>
      <trkpt lat="43.54975" lon="2.34563">
        <ele>326</ele>
        <time>2016-10-20T12:47:32Z</time>
      </trkpt>
      <trkpt lat="43.54977" lon="2.34562">
        <ele>325</ele>
        <time>2016-10-20T12:47:34Z</time>
      </trkpt>
      <trkpt lat="43.54979" lon="2.3456">
        <ele>325</ele>
        <time>2016-10-20T12:47:37Z</time>
      </trkpt>
      <trkpt lat="43.54982" lon="2.34559">
        <ele>325</ele>
        <time>2016-10-20T12:47:39Z</time>
      </trkpt>
      <trkpt lat="43.54985" lon="2.34557">
        <ele>324</ele>
        <time>2016-10-20T12:47:41Z</time>
      </trkpt>
      <trkpt lat="43.54988" lon="2.34555">
        <ele>324</ele>
        <time>2016-10-20T12:47:43Z</time>
      </trkpt>
      <trkpt lat="43.5499" lon="2.34553">
        <ele>324</ele>
        <time>2016-10-20T12:47:46Z</time>
      </trkpt>
      <trkpt lat="43.54994" lon="2.34552">
        <ele>323</ele>
        <time>2016-10-20T12:47:48Z</time>
      </trkpt>
      <trkpt lat="43.54996" lon="2.34551">
        <ele>323</ele>
        <time>2016-10-20T12:47:50Z</time>
      </trkpt>
      <trkpt lat="43.54999" lon="2.3455">
        <ele>322</ele>
        <time>2016-10-20T12:47:53Z</time>
      </trkpt>
      <trkpt lat="43.55003" lon="2.34548">
        <ele>322</ele>
        <time>2016-10-20T12:47:55Z</time>
      </trkpt>
      <trkpt lat="43.55006" lon="2.34546">
        <ele>321</ele>
        <time>2016-10-20T12:47:57Z</time>
      </trkpt>
      <trkpt lat="43.55009" lon="2.34545">
        <ele>321</ele>
        <time>2016-10-20T12:48:00Z</time>
      </trkpt>
      <trkpt lat="43.55011" lon="2.34543">
        <ele>321</ele>
        <time>2016-10-20T12:48:02Z</time>
      </trkpt>
      <trkpt lat="43.55014" lon="2.34542">
        <ele>320</ele>
        <time>2016-10-20T12:48:04Z</time>
      </trkpt>
      <trkpt lat="43.55017" lon="2.34541">
        <ele>320</ele>
        <time>2016-10-20T12:48:06Z</time>
      </trkpt>
      <trkpt lat="43.55019" lon="2.34539">
        <ele>320</ele>
        <time>2016-10-20T12:48:09Z</time>
      </trkpt>
      <trkpt lat="43.55022" lon="2.34538">
        <ele>319</ele>
        <time>2016-10-20T12:48:11Z</time>
      </trkpt>
      <trkpt lat="43.55023" lon="2.34537">
        <ele>319</ele>
        <time>2016-10-20T12:48:13Z</time>
      </trkpt>
      <trkpt lat="43.55026" lon="2.34536">
        <ele>319</ele>
        <time>2016-10-20T12:48:16Z</time>
      </trkpt>
      <trkpt lat="43.55027" lon="2.34535">
        <ele>319</ele>
        <time>2016-10-20T12:48:18Z</time>
      </trkpt>
      <trkpt lat="43.5503" lon="2.34533">
        <ele>319</ele>
        <time>2016-10-20T12:48:20Z</time>
      </trkpt>
      <trkpt lat="43.55032" lon="2.34532">
        <ele>318</ele>
        <time>2016-10-20T12:48:22Z</time>
      </trkpt>
      <trkpt lat="43.55034" lon="2.34531">
        <ele>318</ele>
        <time>2016-10-20T12:48:25Z</time>
      </trkpt>
      <trkpt lat="43.55036" lon="2.34531">
        <ele>318</ele>
        <time>2016-10-20T12:48:27Z</time>
      </trkpt>
      <trkpt lat="43.55038" lon="2.3453">
        <ele>318</ele>
        <time>2016-10-20T12:48:29Z</time>
      </trkpt>
      <trkpt lat="43.5504" lon="2.34529">
        <ele>318</ele>
        <time>2016-10-20T12:48:32Z</time>
      </trkpt>
      <trkpt lat="43.55042" lon="2.34528">
        <ele>318</ele>
        <time>2016-10-20T12:48:34Z</time>
      </trkpt>
      <trkpt lat="43.55045" lon="2.34527">
        <ele>317</ele>
        <time>2016-10-20T12:48:36Z</time>
      </trkpt>
      <trkpt lat="43.55047" lon="2.34526">
        <ele>317</ele>
        <time>2016-10-20T12:48:38Z</time>
      </trkpt>
      <trkpt lat="43.55052" lon="2.34524">
        <ele>317</ele>
        <time>2016-10-20T12:48:43Z</time>
      </trkpt>
      <trkpt lat="43.55054" lon="2.34523">
        <ele>317</ele>
        <time>2016-10-20T12:48:45Z</time>
      </trkpt>
      <trkpt lat="43.55056" lon="2.34522">
        <ele>316</ele>
        <time>2016-10-20T12:48:48Z</time>
      </trkpt>
      <trkpt lat="43.55058" lon="2.34521">
        <ele>316</ele>
        <time>2016-10-20T12:48:50Z</time>
      </trkpt>
      <trkpt lat="43.5506" lon="2.3452">
        <ele>316</ele>
        <time>2016-10-20T12:48:52Z</time>
      </trkpt>
      <trkpt lat="43.55062" lon="2.3452">
        <ele>316</ele>
        <time>2016-10-20T12:48:55Z</time>
      </trkpt>
      <trkpt lat="43.55065" lon="2.34518">
        <ele>316</ele>
        <time>2016-10-20T12:48:57Z</time>
      </trkpt>
      <trkpt lat="43.55067" lon="2.34517">
        <ele>316</ele>
        <time>2016-10-20T12:48:59Z</time>
      </trkpt>
      <trkpt lat="43.5507" lon="2.34517">
        <ele>315</ele>
        <time>2016-10-20T12:49:01Z</time>
      </trkpt>
      <trkpt lat="43.55072" lon="2.34516">
        <ele>315</ele>
        <time>2016-10-20T12:49:04Z</time>
      </trkpt>
      <trkpt lat="43.55076" lon="2.34514">
        <ele>315</ele>
        <time>2016-10-20T12:49:06Z</time>
      </trkpt>
      <trkpt lat="43.55078" lon="2.34513">
        <ele>315</ele>
        <time>2016-10-20T12:49:08Z</time>
      </trkpt>
      <trkpt lat="43.5508" lon="2.34512">
        <ele>315</ele>
        <time>2016-10-20T12:49:11Z</time>
      </trkpt>
      <trkpt lat="43.55083" lon="2.34511">
        <ele>314</ele>
        <time>2016-10-20T12:49:13Z</time>
      </trkpt>
      <trkpt lat="43.55086" lon="2.3451">
        <ele>314</ele>
        <time>2016-10-20T12:49:15Z</time>
      </trkpt>
      <trkpt lat="43.55089" lon="2.34509">
        <ele>314</ele>
        <time>2016-10-20T12:49:18Z</time>
      </trkpt>
      <trkpt lat="43.55091" lon="2.34508">
        <ele>314</ele>
        <time>2016-10-20T12:49:20Z</time>
      </trkpt>
      <trkpt lat="43.55096" lon="2.34506">
        <ele>314</ele>
        <time>2016-10-20T12:49:22Z</time>
      </trkpt>
      <trkpt lat="43.55098" lon="2.34504">
        <ele>313</ele>
        <time>2016-10-20T12:49:24Z</time>
      </trkpt>
      <trkpt lat="43.55101" lon="2.34503">
        <ele>313</ele>
        <time>2016-10-20T12:49:27Z</time>
      </trkpt>
      <trkpt lat="43.55105" lon="2.34501">
        <ele>313</ele>
        <time>2016-10-20T12:49:29Z</time>
      </trkpt>
      <trkpt lat="43.55107" lon="2.345">
        <ele>313</ele>
        <time>2016-10-20T12:49:31Z</time>
      </trkpt>
      <trkpt lat="43.55109" lon="2.34499">
        <ele>313</ele>
        <time>2016-10-20T12:49:34Z</time>
      </trkpt>
      <trkpt lat="43.55112" lon="2.34497">
        <ele>313</ele>
        <time>2016-10-20T12:49:36Z</time>
      </trkpt>
      <trkpt lat="43.55115" lon="2.34494">
        <ele>313</ele>
        <time>2016-10-20T12:49:38Z</time>
      </trkpt>
      <trkpt lat="43.55118" lon="2.34492">
        <ele>313</ele>
        <time>2016-10-20T12:49:40Z</time>
      </trkpt>
      <trkpt lat="43.5512" lon="2.3449">
        <ele>313</ele>
        <time>2016-10-20T12:49:43Z</time>
      </trkpt>
      <trkpt lat="43.55124" lon="2.34488">
        <ele>312</ele>
        <time>2016-10-20T12:49:45Z</time>
      </trkpt>
      <trkpt lat="43.55126" lon="2.34486">
        <ele>312</ele>
        <time>2016-10-20T12:49:47Z</time>
      </trkpt>
      <trkpt lat="43.55129" lon="2.34484">
        <ele>312</ele>
        <time>2016-10-20T12:49:50Z</time>
      </trkpt>
      <trkpt lat="43.55132" lon="2.34482">
        <ele>312</ele>
        <time>2016-10-20T12:49:52Z</time>
      </trkpt>
      <trkpt lat="43.55135" lon="2.34481">
        <ele>311</ele>
        <time>2016-10-20T12:49:54Z</time>
      </trkpt>
      <trkpt lat="43.55137" lon="2.3448">
        <ele>311</ele>
        <time>2016-10-20T12:49:56Z</time>
      </trkpt>
      <trkpt lat="43.55139" lon="2.34478">
        <ele>311</ele>
        <time>2016-10-20T12:49:59Z</time>
      </trkpt>
      <trkpt lat="43.55142" lon="2.34477">
        <ele>311</ele>
        <time>2016-10-20T12:50:01Z</time>
      </trkpt>
      <trkpt lat="43.55147" lon="2.34474">
        <ele>310</ele>
        <time>2016-10-20T12:50:06Z</time>
      </trkpt>
      <trkpt lat="43.5515" lon="2.34472">
        <ele>310</ele>
        <time>2016-10-20T12:50:08Z</time>
      </trkpt>
      <trkpt lat="43.55152" lon="2.34471">
        <ele>310</ele>
        <time>2016-10-20T12:50:10Z</time>
      </trkpt>
      <trkpt lat="43.55154" lon="2.34469">
        <ele>310</ele>
        <time>2016-10-20T12:50:13Z</time>
      </trkpt>
      <trkpt lat="43.55158" lon="2.34468">
        <ele>310</ele>
        <time>2016-10-20T12:50:15Z</time>
      </trkpt>
      <trkpt lat="43.55161" lon="2.34467">
        <ele>309</ele>
        <time>2016-10-20T12:50:17Z</time>
      </trkpt>
      <trkpt lat="43.55163" lon="2.34466">
        <ele>309</ele>
        <time>2016-10-20T12:50:19Z</time>
      </trkpt>
      <trkpt lat="43.55165" lon="2.34465">
        <ele>309</ele>
        <time>2016-10-20T12:50:22Z</time>
      </trkpt>
      <trkpt lat="43.55169" lon="2.34464">
        <ele>309</ele>
        <time>2016-10-20T12:50:24Z</time>
      </trkpt>
      <trkpt lat="43.55171" lon="2.34464">
        <ele>309</ele>
        <time>2016-10-20T12:50:26Z</time>
      </trkpt>
      <trkpt lat="43.55174" lon="2.34463">
        <ele>309</ele>
        <time>2016-10-20T12:50:29Z</time>
      </trkpt>
      <trkpt lat="43.55177" lon="2.34461">
        <ele>308</ele>
        <time>2016-10-20T12:50:31Z</time>
      </trkpt>
      <trkpt lat="43.5518" lon="2.34459">
        <ele>308</ele>
        <time>2016-10-20T12:50:33Z</time>
      </trkpt>
      <trkpt lat="43.55183" lon="2.34458">
        <ele>308</ele>
        <time>2016-10-20T12:50:35Z</time>
      </trkpt>
      <trkpt lat="43.55185" lon="2.34456">
        <ele>308</ele>
        <time>2016-10-20T12:50:38Z</time>
      </trkpt>
      <trkpt lat="43.55188" lon="2.34454">
        <ele>308</ele>
        <time>2016-10-20T12:50:40Z</time>
      </trkpt>
      <trkpt lat="43.5519" lon="2.34452">
        <ele>308</ele>
        <time>2016-10-20T12:50:42Z</time>
      </trkpt>
      <trkpt lat="43.55193" lon="2.34451">
        <ele>308</ele>
        <time>2016-10-20T12:50:45Z</time>
      </trkpt>
      <trkpt lat="43.55196" lon="2.34449">
        <ele>308</ele>
        <time>2016-10-20T12:50:47Z</time>
      </trkpt>
      <trkpt lat="43.55197" lon="2.34447">
        <ele>307</ele>
        <time>2016-10-20T12:50:49Z</time>
      </trkpt>
      <trkpt lat="43.55198" lon="2.34445">
        <ele>307</ele>
        <time>2016-10-20T12:50:52Z</time>
      </trkpt>
      <trkpt lat="43.552" lon="2.34441">
        <ele>307</ele>
        <time>2016-10-20T12:50:54Z</time>
      </trkpt>
      <trkpt lat="43.55202" lon="2.34439">
        <ele>307</ele>
        <time>2016-10-20T12:50:56Z</time>
      </trkpt>
      <trkpt lat="43.55204" lon="2.34437">
        <ele>307</ele>
        <time>2016-10-20T12:50:58Z</time>
      </trkpt>
      <trkpt lat="43.55206" lon="2.34436">
        <ele>307</ele>
        <time>2016-10-20T12:51:01Z</time>
      </trkpt>
      <trkpt lat="43.55209" lon="2.34434">
        <ele>307</ele>
        <time>2016-10-20T12:51:03Z</time>
      </trkpt>
      <trkpt lat="43.5521" lon="2.34434">
        <ele>307</ele>
        <time>2016-10-20T12:51:05Z</time>
      </trkpt>
      <trkpt lat="43.55212" lon="2.34433">
        <ele>307</ele>
        <time>2016-10-20T12:51:08Z</time>
      </trkpt>
      <trkpt lat="43.55214" lon="2.34432">
        <ele>307</ele>
        <time>2016-10-20T12:51:10Z</time>
      </trkpt>
      <trkpt lat="43.55216" lon="2.34432">
        <ele>307</ele>
        <time>2016-10-20T12:51:12Z</time>
      </trkpt>
      <trkpt lat="43.55218" lon="2.34432">
        <ele>307</ele>
        <time>2016-10-20T12:51:15Z</time>
      </trkpt>
      <trkpt lat="43.5522" lon="2.34431">
        <ele>306</ele>
        <time>2016-10-20T12:51:17Z</time>
      </trkpt>
      <trkpt lat="43.55223" lon="2.34431">
        <ele>306</ele>
        <time>2016-10-20T12:51:19Z</time>
      </trkpt>
      <trkpt lat="43.55225" lon="2.34431">
        <ele>306</ele>
        <time>2016-10-20T12:51:21Z</time>
      </trkpt>
      <trkpt lat="43.55228" lon="2.34431">
        <ele>306</ele>
        <time>2016-10-20T12:51:24Z</time>
      </trkpt>
      <trkpt lat="43.55233" lon="2.3443">
        <ele>306</ele>
        <time>2016-10-20T12:51:28Z</time>
      </trkpt>
      <trkpt lat="43.55235" lon="2.3443">
        <ele>306</ele>
        <time>2016-10-20T12:51:31Z</time>
      </trkpt>
      <trkpt lat="43.55239" lon="2.3443">
        <ele>306</ele>
        <time>2016-10-20T12:51:33Z</time>
      </trkpt>
      <trkpt lat="43.55241" lon="2.34429">
        <ele>306</ele>
        <time>2016-10-20T12:51:35Z</time>
      </trkpt>
      <trkpt lat="43.55243" lon="2.34429">
        <ele>305</ele>
        <time>2016-10-20T12:51:37Z</time>
      </trkpt>
      <trkpt lat="43.55245" lon="2.34428">
        <ele>305</ele>
        <time>2016-10-20T12:51:40Z</time>
      </trkpt>
      <trkpt lat="43.55248" lon="2.34428">
        <ele>305</ele>
        <time>2016-10-20T12:51:42Z</time>
      </trkpt>
      <trkpt lat="43.5525" lon="2.34427">
        <ele>305</ele>
        <time>2016-10-20T12:51:44Z</time>
      </trkpt>
      <trkpt lat="43.55252" lon="2.34427">
        <ele>305</ele>
        <time>2016-10-20T12:51:47Z</time>
      </trkpt>
      <trkpt lat="43.55256" lon="2.34425">
        <ele>305</ele>
        <time>2016-10-20T12:51:49Z</time>
      </trkpt>
      <trkpt lat="43.55258" lon="2.34425">
        <ele>305</ele>
        <time>2016-10-20T12:51:51Z</time>
      </trkpt>
      <trkpt lat="43.5526" lon="2.34424">
        <ele>305</ele>
        <time>2016-10-20T12:51:53Z</time>
      </trkpt>
      <trkpt lat="43.55262" lon="2.34424">
        <ele>305</ele>
        <time>2016-10-20T12:51:56Z</time>
      </trkpt>
      <trkpt lat="43.55266" lon="2.34423">
        <ele>305</ele>
        <time>2016-10-20T12:51:58Z</time>
      </trkpt>
      <trkpt lat="43.55268" lon="2.34422">
        <ele>305</ele>
        <time>2016-10-20T12:52:00Z</time>
      </trkpt>
      <trkpt lat="43.55269" lon="2.34421">
        <ele>305</ele>
        <time>2016-10-20T12:52:03Z</time>
      </trkpt>
      <trkpt lat="43.55272" lon="2.3442">
        <ele>305</ele>
        <time>2016-10-20T12:52:05Z</time>
      </trkpt>
      <trkpt lat="43.55274" lon="2.3442">
        <ele>305</ele>
        <time>2016-10-20T12:52:07Z</time>
      </trkpt>
      <trkpt lat="43.55277" lon="2.34419">
        <ele>306</ele>
        <time>2016-10-20T12:52:10Z</time>
      </trkpt>
      <trkpt lat="43.55279" lon="2.34418">
        <ele>305</ele>
        <time>2016-10-20T12:52:12Z</time>
      </trkpt>
      <trkpt lat="43.55282" lon="2.34417">
        <ele>306</ele>
        <time>2016-10-20T12:52:14Z</time>
      </trkpt>
      <trkpt lat="43.55284" lon="2.34417">
        <ele>306</ele>
        <time>2016-10-20T12:52:16Z</time>
      </trkpt>
      <trkpt lat="43.55286" lon="2.34416">
        <ele>306</ele>
        <time>2016-10-20T12:52:19Z</time>
      </trkpt>
      <trkpt lat="43.5529" lon="2.34415">
        <ele>306</ele>
        <time>2016-10-20T12:52:21Z</time>
      </trkpt>
      <trkpt lat="43.55292" lon="2.34414">
        <ele>306</ele>
        <time>2016-10-20T12:52:23Z</time>
      </trkpt>
      <trkpt lat="43.55294" lon="2.34413">
        <ele>306</ele>
        <time>2016-10-20T12:52:26Z</time>
      </trkpt>
      <trkpt lat="43.55296" lon="2.34412">
        <ele>306</ele>
        <time>2016-10-20T12:52:28Z</time>
      </trkpt>
      <trkpt lat="43.55299" lon="2.34411">
        <ele>306</ele>
        <time>2016-10-20T12:52:30Z</time>
      </trkpt>
      <trkpt lat="43.55301" lon="2.3441">
        <ele>306</ele>
        <time>2016-10-20T12:52:32Z</time>
      </trkpt>
      <trkpt lat="43.55302" lon="2.3441">
        <ele>306</ele>
        <time>2016-10-20T12:52:35Z</time>
      </trkpt>
      <trkpt lat="43.55305" lon="2.34408">
        <ele>306</ele>
        <time>2016-10-20T12:52:37Z</time>
      </trkpt>
      <trkpt lat="43.55307" lon="2.34407">
        <ele>306</ele>
        <time>2016-10-20T12:52:39Z</time>
      </trkpt>
      <trkpt lat="43.55309" lon="2.34406">
        <ele>305</ele>
        <time>2016-10-20T12:52:42Z</time>
      </trkpt>
      <trkpt lat="43.5531" lon="2.34405">
        <ele>305</ele>
        <time>2016-10-20T12:52:44Z</time>
      </trkpt>
      <trkpt lat="43.55313" lon="2.34403">
        <ele>305</ele>
        <time>2016-10-20T12:52:46Z</time>
      </trkpt>
      <trkpt lat="43.55317" lon="2.34401">
        <ele>305</ele>
        <time>2016-10-20T12:52:51Z</time>
      </trkpt>
      <trkpt lat="43.5532" lon="2.34398">
        <ele>305</ele>
        <time>2016-10-20T12:52:53Z</time>
      </trkpt>
      <trkpt lat="43.55322" lon="2.34397">
        <ele>305</ele>
        <time>2016-10-20T12:52:55Z</time>
      </trkpt>
      <trkpt lat="43.55324" lon="2.34396">
        <ele>305</ele>
        <time>2016-10-20T12:52:57Z</time>
      </trkpt>
      <trkpt lat="43.55326" lon="2.34395">
        <ele>305</ele>
        <time>2016-10-20T12:53:00Z</time>
      </trkpt>
      <trkpt lat="43.55329" lon="2.34393">
        <ele>305</ele>
        <time>2016-10-20T12:53:02Z</time>
      </trkpt>
      <trkpt lat="43.55331" lon="2.34391">
        <ele>305</ele>
        <time>2016-10-20T12:53:04Z</time>
      </trkpt>
      <trkpt lat="43.55333" lon="2.3439">
        <ele>305</ele>
        <time>2016-10-20T12:53:07Z</time>
      </trkpt>
      <trkpt lat="43.55335" lon="2.34388">
        <ele>305</ele>
        <time>2016-10-20T12:53:09Z</time>
      </trkpt>
      <trkpt lat="43.55338" lon="2.34386">
        <ele>305</ele>
        <time>2016-10-20T12:53:11Z</time>
      </trkpt>
      <trkpt lat="43.5534" lon="2.34384">
        <ele>305</ele>
        <time>2016-10-20T12:53:13Z</time>
      </trkpt>
      <trkpt lat="43.55342" lon="2.34383">
        <ele>305</ele>
        <time>2016-10-20T12:53:16Z</time>
      </trkpt>
      <trkpt lat="43.55346" lon="2.3438">
        <ele>305</ele>
        <time>2016-10-20T12:53:18Z</time>
      </trkpt>
      <trkpt lat="43.55349" lon="2.34379">
        <ele>305</ele>
        <time>2016-10-20T12:53:20Z</time>
      </trkpt>
      <trkpt lat="43.55351" lon="2.34377">
        <ele>305</ele>
        <time>2016-10-20T12:53:23Z</time>
      </trkpt>
      <trkpt lat="43.55353" lon="2.34376">
        <ele>305</ele>
        <time>2016-10-20T12:53:25Z</time>
      </trkpt>
      <trkpt lat="43.55357" lon="2.34375">
        <ele>305</ele>
        <time>2016-10-20T12:53:27Z</time>
      </trkpt>
      <trkpt lat="43.55359" lon="2.34373">
        <ele>305</ele>
        <time>2016-10-20T12:53:29Z</time>
      </trkpt>
      <trkpt lat="43.55361" lon="2.34372">
        <ele>305</ele>
        <time>2016-10-20T12:53:32Z</time>
      </trkpt>
      <trkpt lat="43.55365" lon="2.34371">
        <ele>305</ele>
        <time>2016-10-20T12:53:34Z</time>
      </trkpt>
      <trkpt lat="43.55367" lon="2.34369">
        <ele>305</ele>
        <time>2016-10-20T12:53:36Z</time>
      </trkpt>
      <trkpt lat="43.55369" lon="2.34368">
        <ele>305</ele>
        <time>2016-10-20T12:53:39Z</time>
      </trkpt>
      <trkpt lat="43.55371" lon="2.34368">
        <ele>306</ele>
        <time>2016-10-20T12:53:41Z</time>
      </trkpt>
      <trkpt lat="43.55375" lon="2.34366">
        <ele>306</ele>
        <time>2016-10-20T12:53:43Z</time>
      </trkpt>
      <trkpt lat="43.55377" lon="2.34364">
        <ele>306</ele>
        <time>2016-10-20T12:53:45Z</time>
      </trkpt>
      <trkpt lat="43.5538" lon="2.34363">
        <ele>306</ele>
        <time>2016-10-20T12:53:48Z</time>
      </trkpt>
      <trkpt lat="43.55383" lon="2.34361">
        <ele>306</ele>
        <time>2016-10-20T12:53:50Z</time>
      </trkpt>
      <trkpt lat="43.55386" lon="2.3436">
        <ele>306</ele>
        <time>2016-10-20T12:53:52Z</time>
      </trkpt>
      <trkpt lat="43.55388" lon="2.34359">
        <ele>306</ele>
        <time>2016-10-20T12:53:55Z</time>
      </trkpt>
      <trkpt lat="43.5539" lon="2.34358">
        <ele>306</ele>
        <time>2016-10-20T12:53:57Z</time>
      </trkpt>
      <trkpt lat="43.55394" lon="2.34356">
        <ele>306</ele>
        <time>2016-10-20T12:53:59Z</time>
      </trkpt>
      <trkpt lat="43.55396" lon="2.34356">
        <ele>306</ele>
        <time>2016-10-20T12:54:01Z</time>
      </trkpt>
      <trkpt lat="43.55397" lon="2.34355">
        <ele>306</ele>
        <time>2016-10-20T12:54:04Z</time>
      </trkpt>
      <trkpt lat="43.554" lon="2.34354">
        <ele>306</ele>
        <time>2016-10-20T12:54:06Z</time>
      </trkpt>
      <trkpt lat="43.55402" lon="2.34353">
        <ele>306</ele>
        <time>2016-10-20T12:54:08Z</time>
      </trkpt>
      <trkpt lat="43.55406" lon="2.34351">
        <ele>306</ele>
        <time>2016-10-20T12:54:13Z</time>
      </trkpt>
      <trkpt lat="43.55408" lon="2.34349">
        <ele>306</ele>
        <time>2016-10-20T12:54:15Z</time>
      </trkpt>
      <trkpt lat="43.55409" lon="2.34348">
        <ele>306</ele>
        <time>2016-10-20T12:54:17Z</time>
      </trkpt>
      <trkpt lat="43.55411" lon="2.34348">
        <ele>306</ele>
        <time>2016-10-20T12:54:20Z</time>
      </trkpt>
      <trkpt lat="43.55414" lon="2.34346">
        <ele>305</ele>
        <time>2016-10-20T12:54:22Z</time>
      </trkpt>
      <trkpt lat="43.55418" lon="2.34344">
        <ele>305</ele>
        <time>2016-10-20T12:54:24Z</time>
      </trkpt>
      <trkpt lat="43.5542" lon="2.34343">
        <ele>305</ele>
        <time>2016-10-20T12:54:27Z</time>
      </trkpt>
      <trkpt lat="43.55423" lon="2.34341">
        <ele>305</ele>
        <time>2016-10-20T12:54:29Z</time>
      </trkpt>
      <trkpt lat="43.55425" lon="2.3434">
        <ele>305</ele>
        <time>2016-10-20T12:54:31Z</time>
      </trkpt>
      <trkpt lat="43.55427" lon="2.3434">
        <ele>305</ele>
        <time>2016-10-20T12:54:34Z</time>
      </trkpt>
      <trkpt lat="43.5543" lon="2.34339">
        <ele>305</ele>
        <time>2016-10-20T12:54:36Z</time>
      </trkpt>
      <trkpt lat="43.55433" lon="2.34338">
        <ele>305</ele>
        <time>2016-10-20T12:54:38Z</time>
      </trkpt>
      <trkpt lat="43.55436" lon="2.34337">
        <ele>305</ele>
        <time>2016-10-20T12:54:40Z</time>
      </trkpt>
      <trkpt lat="43.55438" lon="2.34335">
        <ele>304</ele>
        <time>2016-10-20T12:54:43Z</time>
      </trkpt>
      <trkpt lat="43.55442" lon="2.34333">
        <ele>304</ele>
        <time>2016-10-20T12:54:45Z</time>
      </trkpt>
      <trkpt lat="43.55444" lon="2.34331">
        <ele>304</ele>
        <time>2016-10-20T12:54:47Z</time>
      </trkpt>
      <trkpt lat="43.55447" lon="2.3433">
        <ele>304</ele>
        <time>2016-10-20T12:54:50Z</time>
      </trkpt>
      <trkpt lat="43.5545" lon="2.34327">
        <ele>304</ele>
        <time>2016-10-20T12:54:52Z</time>
      </trkpt>
      <trkpt lat="43.55452" lon="2.34326">
        <ele>304</ele>
        <time>2016-10-20T12:54:54Z</time>
      </trkpt>
      <trkpt lat="43.55454" lon="2.34324">
        <ele>304</ele>
        <time>2016-10-20T12:54:56Z</time>
      </trkpt>
      <trkpt lat="43.55455" lon="2.34322">
        <ele>303</ele>
        <time>2016-10-20T12:54:59Z</time>
      </trkpt>
      <trkpt lat="43.55458" lon="2.3432">
        <ele>303</ele>
        <time>2016-10-20T12:55:01Z</time>
      </trkpt>
      <trkpt lat="43.5546" lon="2.34319">
        <ele>303</ele>
        <time>2016-10-20T12:55:03Z</time>
      </trkpt>
      <trkpt lat="43.55462" lon="2.34317">
        <ele>303</ele>
        <time>2016-10-20T12:55:06Z</time>
      </trkpt>
      <trkpt lat="43.55465" lon="2.34314">
        <ele>303</ele>
        <time>2016-10-20T12:55:08Z</time>
      </trkpt>
      <trkpt lat="43.55468" lon="2.34313">
        <ele>302</ele>
        <time>2016-10-20T12:55:10Z</time>
      </trkpt>
      <trkpt lat="43.5547" lon="2.34312">
        <ele>302</ele>
        <time>2016-10-20T12:55:12Z</time>
      </trkpt>
      <trkpt lat="43.55472" lon="2.3431">
        <ele>302</ele>
        <time>2016-10-20T12:55:15Z</time>
      </trkpt>
      <trkpt lat="43.55475" lon="2.34308">
        <ele>302</ele>
        <time>2016-10-20T12:55:17Z</time>
      </trkpt>
      <trkpt lat="43.55477" lon="2.34307">
        <ele>301</ele>
        <time>2016-10-20T12:55:19Z</time>
      </trkpt>
      <trkpt lat="43.5548" lon="2.34305">
        <ele>301</ele>
        <time>2016-10-20T12:55:22Z</time>
      </trkpt>
      <trkpt lat="43.55483" lon="2.34303">
        <ele>301</ele>
        <time>2016-10-20T12:55:24Z</time>
      </trkpt>
      <trkpt lat="43.55485" lon="2.34301">
        <ele>301</ele>
        <time>2016-10-20T12:55:26Z</time>
      </trkpt>
      <trkpt lat="43.55488" lon="2.343">
        <ele>300</ele>
        <time>2016-10-20T12:55:28Z</time>
      </trkpt>
      <trkpt lat="43.5549" lon="2.34299">
        <ele>300</ele>
        <time>2016-10-20T12:55:31Z</time>
      </trkpt>
      <trkpt lat="43.55496" lon="2.34297">
        <ele>300</ele>
        <time>2016-10-20T12:55:35Z</time>
      </trkpt>
      <trkpt lat="43.55498" lon="2.34296">
        <ele>300</ele>
        <time>2016-10-20T12:55:38Z</time>
      </trkpt>
      <trkpt lat="43.55501" lon="2.34294">
        <ele>299</ele>
        <time>2016-10-20T12:55:40Z</time>
      </trkpt>
      <trkpt lat="43.55504" lon="2.34293">
        <ele>299</ele>
        <time>2016-10-20T12:55:42Z</time>
      </trkpt>
      <trkpt lat="43.55506" lon="2.34292">
        <ele>299</ele>
        <time>2016-10-20T12:55:45Z</time>
      </trkpt>
      <trkpt lat="43.5551" lon="2.3429">
        <ele>299</ele>
        <time>2016-10-20T12:55:47Z</time>
      </trkpt>
      <trkpt lat="43.55512" lon="2.34289">
        <ele>299</ele>
        <time>2016-10-20T12:55:49Z</time>
      </trkpt>
      <trkpt lat="43.55515" lon="2.34287">
        <ele>299</ele>
        <time>2016-10-20T12:55:52Z</time>
      </trkpt>
      <trkpt lat="43.55517" lon="2.34287">
        <ele>299</ele>
        <time>2016-10-20T12:55:54Z</time>
      </trkpt>
      <trkpt lat="43.55521" lon="2.34285">
        <ele>298</ele>
        <time>2016-10-20T12:55:56Z</time>
      </trkpt>
      <trkpt lat="43.55523" lon="2.34284">
        <ele>298</ele>
        <time>2016-10-20T12:55:58Z</time>
      </trkpt>
      <trkpt lat="43.55526" lon="2.34282">
        <ele>298</ele>
        <time>2016-10-20T12:56:01Z</time>
      </trkpt>
      <trkpt lat="43.55529" lon="2.34281">
        <ele>298</ele>
        <time>2016-10-20T12:56:03Z</time>
      </trkpt>
      <trkpt lat="43.55532" lon="2.3428">
        <ele>297</ele>
        <time>2016-10-20T12:56:05Z</time>
      </trkpt>
      <trkpt lat="43.55534" lon="2.3428">
        <ele>297</ele>
        <time>2016-10-20T12:56:08Z</time>
      </trkpt>
      <trkpt lat="43.55537" lon="2.34279">
        <ele>297</ele>
        <time>2016-10-20T12:56:10Z</time>
      </trkpt>
      <trkpt lat="43.5554" lon="2.34278">
        <ele>297</ele>
        <time>2016-10-20T12:56:12Z</time>
      </trkpt>
      <trkpt lat="43.55542" lon="2.34277">
        <ele>297</ele>
        <time>2016-10-20T12:56:14Z</time>
      </trkpt>
      <trkpt lat="43.55545" lon="2.34276">
        <ele>296</ele>
        <time>2016-10-20T12:56:17Z</time>
      </trkpt>
      <trkpt lat="43.55548" lon="2.34276">
        <ele>296</ele>
        <time>2016-10-20T12:56:19Z</time>
      </trkpt>
      <trkpt lat="43.5555" lon="2.34275">
        <ele>296</ele>
        <time>2016-10-20T12:56:21Z</time>
      </trkpt>
      <trkpt lat="43.55552" lon="2.34275">
        <ele>296</ele>
        <time>2016-10-20T12:56:24Z</time>
      </trkpt>
      <trkpt lat="43.55554" lon="2.34275">
        <ele>296</ele>
        <time>2016-10-20T12:56:26Z</time>
      </trkpt>
      <trkpt lat="43.55557" lon="2.34275">
        <ele>295</ele>
        <time>2016-10-20T12:56:28Z</time>
      </trkpt>
      <trkpt lat="43.55559" lon="2.34275">
        <ele>295</ele>
        <time>2016-10-20T12:56:30Z</time>
      </trkpt>
      <trkpt lat="43.5556" lon="2.34275">
        <ele>295</ele>
        <time>2016-10-20T12:56:33Z</time>
      </trkpt>
      <trkpt lat="43.55563" lon="2.34276">
        <ele>295</ele>
        <time>2016-10-20T12:56:35Z</time>
      </trkpt>
      <trkpt lat="43.55565" lon="2.34276">
        <ele>295</ele>
        <time>2016-10-20T12:56:37Z</time>
      </trkpt>
      <trkpt lat="43.55567" lon="2.34276">
        <ele>295</ele>
        <time>2016-10-20T12:56:40Z</time>
      </trkpt>
      <trkpt lat="43.55569" lon="2.34277">
        <ele>295</ele>
        <time>2016-10-20T12:56:42Z</time>
      </trkpt>
      <trkpt lat="43.55571" lon="2.34278">
        <ele>295</ele>
        <time>2016-10-20T12:56:44Z</time>
      </trkpt>
      <trkpt lat="43.55573" lon="2.34279">
        <ele>295</ele>
        <time>2016-10-20T12:56:46Z</time>
      </trkpt>
      <trkpt lat="43.55575" lon="2.34279">
        <ele>295</ele>
        <time>2016-10-20T12:56:49Z</time>
      </trkpt>
      <trkpt lat="43.55578" lon="2.3428">
        <ele>295</ele>
        <time>2016-10-20T12:56:51Z</time>
      </trkpt>
      <trkpt lat="43.5558" lon="2.34281">
        <ele>295</ele>
        <time>2016-10-20T12:56:53Z</time>
      </trkpt>
      <trkpt lat="43.55584" lon="2.34282">
        <ele>295</ele>
        <time>2016-10-20T12:56:58Z</time>
      </trkpt>
      <trkpt lat="43.55587" lon="2.34283">
        <ele>295</ele>
        <time>2016-10-20T12:57:00Z</time>
      </trkpt>
      <trkpt lat="43.55589" lon="2.34283">
        <ele>294</ele>
        <time>2016-10-20T12:57:02Z</time>
      </trkpt>
      <trkpt lat="43.55592" lon="2.34284">
        <ele>294</ele>
        <time>2016-10-20T12:57:05Z</time>
      </trkpt>
      <trkpt lat="43.55595" lon="2.34285">
        <ele>294</ele>
        <time>2016-10-20T12:57:07Z</time>
      </trkpt>
      <trkpt lat="43.55597" lon="2.34285">
        <ele>294</ele>
        <time>2016-10-20T12:57:09Z</time>
      </trkpt>
      <trkpt lat="43.55599" lon="2.34286">
        <ele>294</ele>
        <time>2016-10-20T12:57:12Z</time>
      </trkpt>
      <trkpt lat="43.55601" lon="2.34287">
        <ele>294</ele>
        <time>2016-10-20T12:57:14Z</time>
      </trkpt>
      <trkpt lat="43.55604" lon="2.34287">
        <ele>294</ele>
        <time>2016-10-20T12:57:16Z</time>
      </trkpt>
      <trkpt lat="43.55606" lon="2.34287">
        <ele>293</ele>
        <time>2016-10-20T12:57:18Z</time>
      </trkpt>
      <trkpt lat="43.55608" lon="2.34287">
        <ele>293</ele>
        <time>2016-10-20T12:57:21Z</time>
      </trkpt>
      <trkpt lat="43.55611" lon="2.34288">
        <ele>293</ele>
        <time>2016-10-20T12:57:23Z</time>
      </trkpt>
      <trkpt lat="43.55614" lon="2.34288">
        <ele>293</ele>
        <time>2016-10-20T12:57:25Z</time>
      </trkpt>
      <trkpt lat="43.55616" lon="2.34289">
        <ele>293</ele>
        <time>2016-10-20T12:57:27Z</time>
      </trkpt>
      <trkpt lat="43.55618" lon="2.34289">
        <ele>292</ele>
        <time>2016-10-20T12:57:30Z</time>
      </trkpt>
      <trkpt lat="43.55621" lon="2.34289">
        <ele>292</ele>
        <time>2016-10-20T12:57:32Z</time>
      </trkpt>
      <trkpt lat="43.55623" lon="2.34289">
        <ele>292</ele>
        <time>2016-10-20T12:57:34Z</time>
      </trkpt>
      <trkpt lat="43.55625" lon="2.34289">
        <ele>292</ele>
        <time>2016-10-20T12:57:37Z</time>
      </trkpt>
      <trkpt lat="43.55628" lon="2.34288">
        <ele>291</ele>
        <time>2016-10-20T12:57:39Z</time>
      </trkpt>
      <trkpt lat="43.5563" lon="2.34288">
        <ele>291</ele>
        <time>2016-10-20T12:57:41Z</time>
      </trkpt>
      <trkpt lat="43.55632" lon="2.34288">
        <ele>291</ele>
        <time>2016-10-20T12:57:43Z</time>
      </trkpt>
      <trkpt lat="43.55634" lon="2.34287">
        <ele>291</ele>
        <time>2016-10-20T12:57:46Z</time>
      </trkpt>
      <trkpt lat="43.55637" lon="2.34287">
        <ele>291</ele>
        <time>2016-10-20T12:57:48Z</time>
      </trkpt>
      <trkpt lat="43.55639" lon="2.34286">
        <ele>290</ele>
        <time>2016-10-20T12:57:50Z</time>
      </trkpt>
      <trkpt lat="43.55641" lon="2.34286">
        <ele>290</ele>
        <time>2016-10-20T12:57:53Z</time>
      </trkpt>
      <trkpt lat="43.55644" lon="2.34285">
        <ele>290</ele>
        <time>2016-10-20T12:57:55Z</time>
      </trkpt>
      <trkpt lat="43.55646" lon="2.34285">
        <ele>290</ele>
        <time>2016-10-20T12:57:57Z</time>
      </trkpt>
      <trkpt lat="43.55648" lon="2.34285">
        <ele>290</ele>
        <time>2016-10-20T12:57:59Z</time>
      </trkpt>
      <trkpt lat="43.5565" lon="2.34284">
        <ele>289</ele>
        <time>2016-10-20T12:58:02Z</time>
      </trkpt>
      <trkpt lat="43.55653" lon="2.34284">
        <ele>289</ele>
        <time>2016-10-20T12:58:04Z</time>
      </trkpt>
      <trkpt lat="43.55655" lon="2.34284">
        <ele>289</ele>
        <time>2016-10-20T12:58:06Z</time>
      </trkpt>
      <trkpt lat="43.55657" lon="2.34284">
        <ele>289</ele>
        <time>2016-10-20T12:58:09Z</time>
      </trkpt>
      <trkpt lat="43.5566" lon="2.34284">
        <ele>289</ele>
        <time>2016-10-20T12:58:11Z</time>
      </trkpt>
      <trkpt lat="43.55663" lon="2.34284">
        <ele>288</ele>
        <time>2016-10-20T12:58:13Z</time>
      </trkpt>
      <trkpt lat="43.55665" lon="2.34284">
        <ele>288</ele>
        <time>2016-10-20T12:58:15Z</time>
      </trkpt>
      <trkpt lat="43.55671" lon="2.34284">
        <ele>288</ele>
        <time>2016-10-20T12:58:20Z</time>
      </trkpt>
      <trkpt lat="43.55674" lon="2.34284">
        <ele>287</ele>
        <time>2016-10-20T12:58:22Z</time>
      </trkpt>
      <trkpt lat="43.55676" lon="2.34283">
        <ele>287</ele>
        <time>2016-10-20T12:58:25Z</time>
      </trkpt>
      <trkpt lat="43.5568" lon="2.34283">
        <ele>286</ele>
        <time>2016-10-20T12:58:27Z</time>
      </trkpt>
      <trkpt lat="43.55682" lon="2.34283">
        <ele>286</ele>
        <time>2016-10-20T12:58:29Z</time>
      </trkpt>
      <trkpt lat="43.55685" lon="2.34283">
        <ele>286</ele>
        <time>2016-10-20T12:58:31Z</time>
      </trkpt>
      <trkpt lat="43.55687" lon="2.34283">
        <ele>286</ele>
        <time>2016-10-20T12:58:34Z</time>
      </trkpt>
      <trkpt lat="43.55689" lon="2.34283">
        <ele>285</ele>
        <time>2016-10-20T12:58:36Z</time>
      </trkpt>
      <trkpt lat="43.55691" lon="2.34283">
        <ele>285</ele>
        <time>2016-10-20T12:58:38Z</time>
      </trkpt>
      <trkpt lat="43.55692" lon="2.34283">
        <ele>285</ele>
        <time>2016-10-20T12:58:41Z</time>
      </trkpt>
      <trkpt lat="43.55694" lon="2.34283">
        <ele>285</ele>
        <time>2016-10-20T12:58:43Z</time>
      </trkpt>
      <trkpt lat="43.55697" lon="2.34283">
        <ele>284</ele>
        <time>2016-10-20T12:58:45Z</time>
      </trkpt>
      <trkpt lat="43.55699" lon="2.34284">
        <ele>284</ele>
        <time>2016-10-20T12:58:47Z</time>
      </trkpt>
      <trkpt lat="43.55701" lon="2.34284">
        <ele>284</ele>
        <time>2016-10-20T12:58:50Z</time>
      </trkpt>
      <trkpt lat="43.55704" lon="2.34285">
        <ele>284</ele>
        <time>2016-10-20T12:58:52Z</time>
      </trkpt>
      <trkpt lat="43.55706" lon="2.34285">
        <ele>283</ele>
        <time>2016-10-20T12:58:54Z</time>
      </trkpt>
      <trkpt lat="43.55708" lon="2.34285">
        <ele>283</ele>
        <time>2016-10-20T12:58:57Z</time>
      </trkpt>
      <trkpt lat="43.5571" lon="2.34286">
        <ele>283</ele>
        <time>2016-10-20T12:58:59Z</time>
      </trkpt>
      <trkpt lat="43.55714" lon="2.34286">
        <ele>283</ele>
        <time>2016-10-20T12:59:01Z</time>
      </trkpt>
      <trkpt lat="43.55716" lon="2.34286">
        <ele>282</ele>
        <time>2016-10-20T12:59:03Z</time>
      </trkpt>
      <trkpt lat="43.55719" lon="2.34286">
        <ele>282</ele>
        <time>2016-10-20T12:59:06Z</time>
      </trkpt>
      <trkpt lat="43.55723" lon="2.34286">
        <ele>281</ele>
        <time>2016-10-20T12:59:08Z</time>
      </trkpt>
      <trkpt lat="43.55725" lon="2.34286">
        <ele>281</ele>
        <time>2016-10-20T12:59:10Z</time>
      </trkpt>
      <trkpt lat="43.55727" lon="2.34286">
        <ele>281</ele>
        <time>2016-10-20T12:59:12Z</time>
      </trkpt>
      <trkpt lat="43.55729" lon="2.34286">
        <ele>281</ele>
        <time>2016-10-20T12:59:15Z</time>
      </trkpt>
      <trkpt lat="43.55733" lon="2.34287">
        <ele>280</ele>
        <time>2016-10-20T12:59:17Z</time>
      </trkpt>
      <trkpt lat="43.55735" lon="2.34287">
        <ele>280</ele>
        <time>2016-10-20T12:59:19Z</time>
      </trkpt>
      <trkpt lat="43.55737" lon="2.34287">
        <ele>280</ele>
        <time>2016-10-20T12:59:22Z</time>
      </trkpt>
      <trkpt lat="43.55741" lon="2.34287">
        <ele>279</ele>
        <time>2016-10-20T12:59:24Z</time>
      </trkpt>
      <trkpt lat="43.55743" lon="2.34288">
        <ele>279</ele>
        <time>2016-10-20T12:59:26Z</time>
      </trkpt>
      <trkpt lat="43.55745" lon="2.34288">
        <ele>279</ele>
        <time>2016-10-20T12:59:28Z</time>
      </trkpt>
      <trkpt lat="43.55747" lon="2.34288">
        <ele>279</ele>
        <time>2016-10-20T12:59:31Z</time>
      </trkpt>
      <trkpt lat="43.55749" lon="2.34291">
        <ele>279</ele>
        <time>2016-10-20T12:59:33Z</time>
      </trkpt>
      <trkpt lat="43.5575" lon="2.34293">
        <ele>279</ele>
        <time>2016-10-20T12:59:35Z</time>
      </trkpt>
      <trkpt lat="43.55752" lon="2.34294">
        <ele>278</ele>
        <time>2016-10-20T12:59:38Z</time>
      </trkpt>
      <trkpt lat="43.55754" lon="2.34299">
        <ele>278</ele>
        <time>2016-10-20T12:59:42Z</time>
      </trkpt>
      <trkpt lat="43.55755" lon="2.34301">
        <ele>278</ele>
        <time>2016-10-20T12:59:44Z</time>
      </trkpt>
      <trkpt lat="43.55756" lon="2.34302">
        <ele>278</ele>
        <time>2016-10-20T12:59:47Z</time>
      </trkpt>
      <trkpt lat="43.55757" lon="2.34306">
        <ele>278</ele>
        <time>2016-10-20T12:59:49Z</time>
      </trkpt>
      <trkpt lat="43.55759" lon="2.34308">
        <ele>277</ele>
        <time>2016-10-20T12:59:51Z</time>
      </trkpt>
      <trkpt lat="43.5576" lon="2.3431">
        <ele>277</ele>
        <time>2016-10-20T12:59:54Z</time>
      </trkpt>
      <trkpt lat="43.55761" lon="2.34314">
        <ele>277</ele>
        <time>2016-10-20T12:59:56Z</time>
      </trkpt>
      <trkpt lat="43.55763" lon="2.34316">
        <ele>277</ele>
        <time>2016-10-20T12:59:58Z</time>
      </trkpt>
      <trkpt lat="43.55763" lon="2.34318">
        <ele>277</ele>
        <time>2016-10-20T13:00:00Z</time>
      </trkpt>
      <trkpt lat="43.55764" lon="2.3432">
        <ele>277</ele>
        <time>2016-10-20T13:00:03Z</time>
      </trkpt>
      <trkpt lat="43.55765" lon="2.34323">
        <ele>276</ele>
        <time>2016-10-20T13:00:05Z</time>
      </trkpt>
      <trkpt lat="43.55766" lon="2.34325">
        <ele>276</ele>
        <time>2016-10-20T13:00:07Z</time>
      </trkpt>
      <trkpt lat="43.55766" lon="2.34328">
        <ele>276</ele>
        <time>2016-10-20T13:00:10Z</time>
      </trkpt>
      <trkpt lat="43.55767" lon="2.3433">
        <ele>276</ele>
        <time>2016-10-20T13:00:12Z</time>
      </trkpt>
      <trkpt lat="43.55768" lon="2.34332">
        <ele>276</ele>
        <time>2016-10-20T13:00:14Z</time>
      </trkpt>
      <trkpt lat="43.55768" lon="2.34334">
        <ele>276</ele>
        <time>2016-10-20T13:00:16Z</time>
      </trkpt>
      <trkpt lat="43.55769" lon="2.34337">
        <ele>276</ele>
        <time>2016-10-20T13:00:19Z</time>
      </trkpt>
      <trkpt lat="43.55771" lon="2.34341">
        <ele>275</ele>
        <time>2016-10-20T13:00:21Z</time>
      </trkpt>
      <trkpt lat="43.55772" lon="2.34343">
        <ele>275</ele>
        <time>2016-10-20T13:00:23Z</time>
      </trkpt>
      <trkpt lat="43.55774" lon="2.34346">
        <ele>275</ele>
        <time>2016-10-20T13:00:26Z</time>
      </trkpt>
      <trkpt lat="43.55777" lon="2.3435">
        <ele>274</ele>
        <time>2016-10-20T13:00:28Z</time>
      </trkpt>
      <trkpt lat="43.55777" lon="2.34352">
        <ele>274</ele>
        <time>2016-10-20T13:00:30Z</time>
      </trkpt>
      <trkpt lat="43.55779" lon="2.34354">
        <ele>274</ele>
        <time>2016-10-20T13:00:32Z</time>
      </trkpt>
      <trkpt lat="43.5578" lon="2.34357">
        <ele>273</ele>
        <time>2016-10-20T13:00:35Z</time>
      </trkpt>
      <trkpt lat="43.55781" lon="2.3436">
        <ele>273</ele>
        <time>2016-10-20T13:00:37Z</time>
      </trkpt>
      <trkpt lat="43.55782" lon="2.34363">
        <ele>273</ele>
        <time>2016-10-20T13:00:39Z</time>
      </trkpt>
      <trkpt lat="43.55783" lon="2.34365">
        <ele>272</ele>
        <time>2016-10-20T13:00:42Z</time>
      </trkpt>
      <trkpt lat="43.55785" lon="2.34367">
        <ele>272</ele>
        <time>2016-10-20T13:00:44Z</time>
      </trkpt>
      <trkpt lat="43.55787" lon="2.34371">
        <ele>271</ele>
        <time>2016-10-20T13:00:46Z</time>
      </trkpt>
      <trkpt lat="43.55789" lon="2.34373">
        <ele>271</ele>
        <time>2016-10-20T13:00:48Z</time>
      </trkpt>
      <trkpt lat="43.5579" lon="2.34375">
        <ele>270</ele>
        <time>2016-10-20T13:00:51Z</time>
      </trkpt>
      <trkpt lat="43.55792" lon="2.34379">
        <ele>270</ele>
        <time>2016-10-20T13:00:53Z</time>
      </trkpt>
      <trkpt lat="43.55793" lon="2.34382">
        <ele>269</ele>
        <time>2016-10-20T13:00:55Z</time>
      </trkpt>
      <trkpt lat="43.55794" lon="2.34384">
        <ele>269</ele>
        <time>2016-10-20T13:00:58Z</time>
      </trkpt>
      <trkpt lat="43.55795" lon="2.34387">
        <ele>268</ele>
        <time>2016-10-20T13:01:00Z</time>
      </trkpt>
      <trkpt lat="43.55799" lon="2.34394">
        <ele>268</ele>
        <time>2016-10-20T13:01:04Z</time>
      </trkpt>
      <trkpt lat="43.558" lon="2.34396">
        <ele>267</ele>
        <time>2016-10-20T13:01:07Z</time>
      </trkpt>
      <trkpt lat="43.55803" lon="2.344">
        <ele>266</ele>
        <time>2016-10-20T13:01:09Z</time>
      </trkpt>
      <trkpt lat="43.55804" lon="2.34403">
        <ele>266</ele>
        <time>2016-10-20T13:01:11Z</time>
      </trkpt>
      <trkpt lat="43.55805" lon="2.34406">
        <ele>265</ele>
        <time>2016-10-20T13:01:14Z</time>
      </trkpt>
      <trkpt lat="43.55807" lon="2.3441">
        <ele>265</ele>
        <time>2016-10-20T13:01:16Z</time>
      </trkpt>
      <trkpt lat="43.55808" lon="2.34413">
        <ele>264</ele>
        <time>2016-10-20T13:01:18Z</time>
      </trkpt>
      <trkpt lat="43.5581" lon="2.34416">
        <ele>264</ele>
        <time>2016-10-20T13:01:21Z</time>
      </trkpt>
      <trkpt lat="43.55811" lon="2.34419">
        <ele>263</ele>
        <time>2016-10-20T13:01:23Z</time>
      </trkpt>
      <trkpt lat="43.55813" lon="2.34424">
        <ele>263</ele>
        <time>2016-10-20T13:01:25Z</time>
      </trkpt>
      <trkpt lat="43.55814" lon="2.34427">
        <ele>262</ele>
        <time>2016-10-20T13:01:27Z</time>
      </trkpt>
      <trkpt lat="43.55816" lon="2.34429">
        <ele>262</ele>
        <time>2016-10-20T13:01:30Z</time>
      </trkpt>
      <trkpt lat="43.55817" lon="2.34432">
        <ele>261</ele>
        <time>2016-10-20T13:01:32Z</time>
      </trkpt>
      <trkpt lat="43.55818" lon="2.34436">
        <ele>261</ele>
        <time>2016-10-20T13:01:34Z</time>
      </trkpt>
      <trkpt lat="43.55819" lon="2.34438">
        <ele>260</ele>
        <time>2016-10-20T13:01:37Z</time>
      </trkpt>
      <trkpt lat="43.5582" lon="2.3444">
        <ele>260</ele>
        <time>2016-10-20T13:01:39Z</time>
      </trkpt>
      <trkpt lat="43.55821" lon="2.34444">
        <ele>260</ele>
        <time>2016-10-20T13:01:41Z</time>
      </trkpt>
      <trkpt lat="43.55823" lon="2.34447">
        <ele>259</ele>
        <time>2016-10-20T13:01:43Z</time>
      </trkpt>
      <trkpt lat="43.55823" lon="2.3445">
        <ele>259</ele>
        <time>2016-10-20T13:01:46Z</time>
      </trkpt>
      <trkpt lat="43.55824" lon="2.34453">
        <ele>258</ele>
        <time>2016-10-20T13:01:48Z</time>
      </trkpt>
      <trkpt lat="43.55825" lon="2.34456">
        <ele>258</ele>
        <time>2016-10-20T13:01:50Z</time>
      </trkpt>
      <trkpt lat="43.55827" lon="2.34459">
        <ele>258</ele>
        <time>2016-10-20T13:01:53Z</time>
      </trkpt>
      <trkpt lat="43.55828" lon="2.34462">
        <ele>257</ele>
        <time>2016-10-20T13:01:55Z</time>
      </trkpt>
      <trkpt lat="43.55829" lon="2.34466">
        <ele>257</ele>
        <time>2016-10-20T13:01:57Z</time>
      </trkpt>
      <trkpt lat="43.5583" lon="2.34469">
        <ele>257</ele>
        <time>2016-10-20T13:01:59Z</time>
      </trkpt>
      <trkpt lat="43.55831" lon="2.34471">
        <ele>256</ele>
        <time>2016-10-20T13:02:02Z</time>
      </trkpt>
      <trkpt lat="43.55833" lon="2.34476">
        <ele>256</ele>
        <time>2016-10-20T13:02:04Z</time>
      </trkpt>
      <trkpt lat="43.55833" lon="2.34478">
        <ele>255</ele>
        <time>2016-10-20T13:02:06Z</time>
      </trkpt>
      <trkpt lat="43.55834" lon="2.34481">
        <ele>255</ele>
        <time>2016-10-20T13:02:09Z</time>
      </trkpt>
      <trkpt lat="43.55835" lon="2.34483">
        <ele>255</ele>
        <time>2016-10-20T13:02:11Z</time>
      </trkpt>
      <trkpt lat="43.55837" lon="2.34486">
        <ele>254</ele>
        <time>2016-10-20T13:02:13Z</time>
      </trkpt>
      <trkpt lat="43.55837" lon="2.34488">
        <ele>254</ele>
        <time>2016-10-20T13:02:15Z</time>
      </trkpt>
      <trkpt lat="43.55839" lon="2.3449">
        <ele>254</ele>
        <time>2016-10-20T13:02:18Z</time>
      </trkpt>
      <trkpt lat="43.55841" lon="2.34494">
        <ele>254</ele>
        <time>2016-10-20T13:02:20Z</time>
      </trkpt>
      <trkpt lat="43.55842" lon="2.34496">
        <ele>254</ele>
        <time>2016-10-20T13:02:22Z</time>
      </trkpt>
      <trkpt lat="43.55844" lon="2.345">
        <ele>253</ele>
        <time>2016-10-20T13:02:27Z</time>
      </trkpt>
      <trkpt lat="43.55847" lon="2.34505">
        <ele>253</ele>
        <time>2016-10-20T13:02:29Z</time>
      </trkpt>
      <trkpt lat="43.55849" lon="2.34508">
        <ele>253</ele>
        <time>2016-10-20T13:02:31Z</time>
      </trkpt>
      <trkpt lat="43.5585" lon="2.3451">
        <ele>253</ele>
        <time>2016-10-20T13:02:34Z</time>
      </trkpt>
      <trkpt lat="43.55852" lon="2.34513">
        <ele>253</ele>
        <time>2016-10-20T13:02:36Z</time>
      </trkpt>
      <trkpt lat="43.55853" lon="2.34515">
        <ele>252</ele>
        <time>2016-10-20T13:02:38Z</time>
      </trkpt>
      <trkpt lat="43.55854" lon="2.34518">
        <ele>252</ele>
        <time>2016-10-20T13:02:41Z</time>
      </trkpt>
      <trkpt lat="43.55855" lon="2.34521">
        <ele>252</ele>
        <time>2016-10-20T13:02:43Z</time>
      </trkpt>
      <trkpt lat="43.55857" lon="2.34525">
        <ele>252</ele>
        <time>2016-10-20T13:02:45Z</time>
      </trkpt>
      <trkpt lat="43.55859" lon="2.34529">
        <ele>252</ele>
        <time>2016-10-20T13:02:47Z</time>
      </trkpt>
      <trkpt lat="43.5586" lon="2.34531">
        <ele>252</ele>
        <time>2016-10-20T13:02:50Z</time>
      </trkpt>
      <trkpt lat="43.55863" lon="2.34535">
        <ele>252</ele>
        <time>2016-10-20T13:02:52Z</time>
      </trkpt>
      <trkpt lat="43.55864" lon="2.34535">
        <ele>251</ele>
        <time>2016-10-20T13:02:54Z</time>
      </trkpt>
      <trkpt lat="43.55866" lon="2.34535">
        <ele>251</ele>
        <time>2016-10-20T13:02:56Z</time>
      </trkpt>
      <trkpt lat="43.55868" lon="2.34534">
        <ele>251</ele>
        <time>2016-10-20T13:02:59Z</time>
      </trkpt>
      <trkpt lat="43.55871" lon="2.34531">
        <ele>251</ele>
        <time>2016-10-20T13:03:01Z</time>
      </trkpt>
      <trkpt lat="43.55873" lon="2.3453">
        <ele>251</ele>
        <time>2016-10-20T13:03:03Z</time>
      </trkpt>
      <trkpt lat="43.55875" lon="2.34528">
        <ele>251</ele>
        <time>2016-10-20T13:03:06Z</time>
      </trkpt>
      <trkpt lat="43.55878" lon="2.34525">
        <ele>251</ele>
        <time>2016-10-20T13:03:08Z</time>
      </trkpt>
      <trkpt lat="43.5588" lon="2.34524">
        <ele>251</ele>
        <time>2016-10-20T13:03:10Z</time>
      </trkpt>
      <trkpt lat="43.55883" lon="2.34522">
        <ele>251</ele>
        <time>2016-10-20T13:03:12Z</time>
      </trkpt>
      <trkpt lat="43.55885" lon="2.3452">
        <ele>251</ele>
        <time>2016-10-20T13:03:15Z</time>
      </trkpt>
      <trkpt lat="43.55888" lon="2.34517">
        <ele>251</ele>
        <time>2016-10-20T13:03:17Z</time>
      </trkpt>
      <trkpt lat="43.5589" lon="2.34514">
        <ele>251</ele>
        <time>2016-10-20T13:03:19Z</time>
      </trkpt>
      <trkpt lat="43.55892" lon="2.34513">
        <ele>251</ele>
        <time>2016-10-20T13:03:22Z</time>
      </trkpt>
      <trkpt lat="43.55893" lon="2.3451">
        <ele>251</ele>
        <time>2016-10-20T13:03:24Z</time>
      </trkpt>
      <trkpt lat="43.55897" lon="2.34505">
        <ele>251</ele>
        <time>2016-10-20T13:03:26Z</time>
      </trkpt>
      <trkpt lat="43.55898" lon="2.34503">
        <ele>250</ele>
        <time>2016-10-20T13:03:29Z</time>
      </trkpt>
      <trkpt lat="43.55901" lon="2.345">
        <ele>250</ele>
        <time>2016-10-20T13:03:31Z</time>
      </trkpt>
      <trkpt lat="43.55903" lon="2.34498">
        <ele>250</ele>
        <time>2016-10-20T13:03:33Z</time>
      </trkpt>
      <trkpt lat="43.55906" lon="2.34497">
        <ele>250</ele>
        <time>2016-10-20T13:03:35Z</time>
      </trkpt>
      <trkpt lat="43.55907" lon="2.34496">
        <ele>250</ele>
        <time>2016-10-20T13:03:38Z</time>
      </trkpt>
      <trkpt lat="43.5591" lon="2.34493">
        <ele>250</ele>
        <time>2016-10-20T13:03:40Z</time>
      </trkpt>
      <trkpt lat="43.55912" lon="2.34491">
        <ele>250</ele>
        <time>2016-10-20T13:03:42Z</time>
      </trkpt>
      <trkpt lat="43.55914" lon="2.3449">
        <ele>250</ele>
        <time>2016-10-20T13:03:45Z</time>
      </trkpt>
      <trkpt lat="43.55917" lon="2.34485">
        <ele>250</ele>
        <time>2016-10-20T13:03:47Z</time>
      </trkpt>
      <trkpt lat="43.55922" lon="2.34481">
        <ele>250</ele>
        <time>2016-10-20T13:03:51Z</time>
      </trkpt>
      <trkpt lat="43.55923" lon="2.34478">
        <ele>250</ele>
        <time>2016-10-20T13:03:54Z</time>
      </trkpt>
      <trkpt lat="43.55926" lon="2.34475">
        <ele>249</ele>
        <time>2016-10-20T13:03:56Z</time>
      </trkpt>
      <trkpt lat="43.55927" lon="2.34472">
        <ele>249</ele>
        <time>2016-10-20T13:03:58Z</time>
      </trkpt>
      <trkpt lat="43.55929" lon="2.3447">
        <ele>249</ele>
        <time>2016-10-20T13:04:01Z</time>
      </trkpt>
      <trkpt lat="43.55931" lon="2.34465">
        <ele>249</ele>
        <time>2016-10-20T13:04:03Z</time>
      </trkpt>
      <trkpt lat="43.55933" lon="2.34463">
        <ele>249</ele>
        <time>2016-10-20T13:04:05Z</time>
      </trkpt>
      <trkpt lat="43.55933" lon="2.34459">
        <ele>249</ele>
        <time>2016-10-20T13:04:07Z</time>
      </trkpt>
      <trkpt lat="43.55933" lon="2.34456">
        <ele>249</ele>
        <time>2016-10-20T13:04:10Z</time>
      </trkpt>
      <trkpt lat="43.55935" lon="2.34451">
        <ele>249</ele>
        <time>2016-10-20T13:04:12Z</time>
      </trkpt>
      <trkpt lat="43.55936" lon="2.34449">
        <ele>249</ele>
        <time>2016-10-20T13:04:14Z</time>
      </trkpt>
      <trkpt lat="43.55938" lon="2.34446">
        <ele>249</ele>
        <time>2016-10-20T13:04:17Z</time>
      </trkpt>
      <trkpt lat="43.5594" lon="2.34442">
        <ele>248</ele>
        <time>2016-10-20T13:04:19Z</time>
      </trkpt>
      <trkpt lat="43.55942" lon="2.3444">
        <ele>248</ele>
        <time>2016-10-20T13:04:21Z</time>
      </trkpt>
      <trkpt lat="43.55943" lon="2.34436">
        <ele>248</ele>
        <time>2016-10-20T13:04:23Z</time>
      </trkpt>
      <trkpt lat="43.55945" lon="2.34434">
        <ele>248</ele>
        <time>2016-10-20T13:04:26Z</time>
      </trkpt>
      <trkpt lat="43.55948" lon="2.34429">
        <ele>248</ele>
        <time>2016-10-20T13:04:28Z</time>
      </trkpt>
      <trkpt lat="43.5595" lon="2.34427">
        <ele>248</ele>
        <time>2016-10-20T13:04:30Z</time>
      </trkpt>
      <trkpt lat="43.55952" lon="2.34424">
        <ele>248</ele>
        <time>2016-10-20T13:04:33Z</time>
      </trkpt>
      <trkpt lat="43.55955" lon="2.34419">
        <ele>248</ele>
        <time>2016-10-20T13:04:35Z</time>
      </trkpt>
      <trkpt lat="43.55956" lon="2.34416">
        <ele>248</ele>
        <time>2016-10-20T13:04:37Z</time>
      </trkpt>
      <trkpt lat="43.55958" lon="2.34414">
        <ele>248</ele>
        <time>2016-10-20T13:04:40Z</time>
      </trkpt>
      <trkpt lat="43.5596" lon="2.3441">
        <ele>248</ele>
        <time>2016-10-20T13:04:42Z</time>
      </trkpt>
      <trkpt lat="43.55962" lon="2.34408">
        <ele>248</ele>
        <time>2016-10-20T13:04:44Z</time>
      </trkpt>
      <trkpt lat="43.55963" lon="2.34406">
        <ele>248</ele>
        <time>2016-10-20T13:04:47Z</time>
      </trkpt>
      <trkpt lat="43.55965" lon="2.34403">
        <ele>248</ele>
        <time>2016-10-20T13:04:49Z</time>
      </trkpt>
      <trkpt lat="43.55967" lon="2.344">
        <ele>248</ele>
        <time>2016-10-20T13:04:51Z</time>
      </trkpt>
      <trkpt lat="43.55969" lon="2.34398">
        <ele>248</ele>
        <time>2016-10-20T13:04:53Z</time>
      </trkpt>
      <trkpt lat="43.5597" lon="2.34396">
        <ele>248</ele>
        <time>2016-10-20T13:04:56Z</time>
      </trkpt>
      <trkpt lat="43.55973" lon="2.34392">
        <ele>248</ele>
        <time>2016-10-20T13:04:58Z</time>
      </trkpt>
      <trkpt lat="43.55974" lon="2.34388">
        <ele>248</ele>
        <time>2016-10-20T13:05:00Z</time>
      </trkpt>
      <trkpt lat="43.55975" lon="2.34386">
        <ele>248</ele>
        <time>2016-10-20T13:05:03Z</time>
      </trkpt>
      <trkpt lat="43.55976" lon="2.34383">
        <ele>248</ele>
        <time>2016-10-20T13:05:05Z</time>
      </trkpt>
      <trkpt lat="43.55977" lon="2.34378">
        <ele>248</ele>
        <time>2016-10-20T13:05:07Z</time>
      </trkpt>
      <trkpt lat="43.55978" lon="2.34375">
        <ele>248</ele>
        <time>2016-10-20T13:05:09Z</time>
      </trkpt>
      <trkpt lat="43.5598" lon="2.34367">
        <ele>248</ele>
        <time>2016-10-20T13:05:14Z</time>
      </trkpt>
      <trkpt lat="43.55982" lon="2.34363">
        <ele>248</ele>
        <time>2016-10-20T13:05:16Z</time>
      </trkpt>
      <trkpt lat="43.55983" lon="2.3436">
        <ele>248</ele>
        <time>2016-10-20T13:05:19Z</time>
      </trkpt>
      <trkpt lat="43.55984" lon="2.34359">
        <ele>248</ele>
        <time>2016-10-20T13:05:21Z</time>
      </trkpt>
      <trkpt lat="43.55986" lon="2.3436">
        <ele>247</ele>
        <time>2016-10-20T13:05:23Z</time>
      </trkpt>
      <trkpt lat="43.55988" lon="2.34361">
        <ele>247</ele>
        <time>2016-10-20T13:05:25Z</time>
      </trkpt>
      <trkpt lat="43.55989" lon="2.34363">
        <ele>247</ele>
        <time>2016-10-20T13:05:28Z</time>
      </trkpt>
      <trkpt lat="43.55991" lon="2.34364">
        <ele>247</ele>
        <time>2016-10-20T13:05:30Z</time>
      </trkpt>
      <trkpt lat="43.55993" lon="2.34365">
        <ele>247</ele>
        <time>2016-10-20T13:05:32Z</time>
      </trkpt>
      <trkpt lat="43.55996" lon="2.34365">
        <ele>247</ele>
        <time>2016-10-20T13:05:35Z</time>
      </trkpt>
      <trkpt lat="43.55999" lon="2.34363">
        <ele>247</ele>
        <time>2016-10-20T13:05:37Z</time>
      </trkpt>
      <trkpt lat="43.56002" lon="2.34361">
        <ele>247</ele>
        <time>2016-10-20T13:05:39Z</time>
      </trkpt>
      <trkpt lat="43.56004" lon="2.34358">
        <ele>246</ele>
        <time>2016-10-20T13:05:41Z</time>
      </trkpt>
      <trkpt lat="43.56006" lon="2.34356">
        <ele>246</ele>
        <time>2016-10-20T13:05:44Z</time>
      </trkpt>
      <trkpt lat="43.56009" lon="2.34352">
        <ele>246</ele>
        <time>2016-10-20T13:05:46Z</time>
      </trkpt>
      <trkpt lat="43.56011" lon="2.34349">
        <ele>246</ele>
        <time>2016-10-20T13:05:48Z</time>
      </trkpt>
      <trkpt lat="43.56013" lon="2.34347">
        <ele>246</ele>
        <time>2016-10-20T13:05:51Z</time>
      </trkpt>
      <trkpt lat="43.56016" lon="2.34345">
        <ele>246</ele>
        <time>2016-10-20T13:05:53Z</time>
      </trkpt>
      <trkpt lat="43.56019" lon="2.34343">
        <ele>246</ele>
        <time>2016-10-20T13:05:55Z</time>
      </trkpt>
      <trkpt lat="43.56021" lon="2.34341">
        <ele>247</ele>
        <time>2016-10-20T13:05:58Z</time>
      </trkpt>
      <trkpt lat="43.56023" lon="2.3434">
        <ele>247</ele>
        <time>2016-10-20T13:06:00Z</time>
      </trkpt>
      <trkpt lat="43.56026" lon="2.34337">
        <ele>247</ele>
        <time>2016-10-20T13:06:02Z</time>
      </trkpt>
      <trkpt lat="43.56027" lon="2.34335">
        <ele>247</ele>
        <time>2016-10-20T13:06:04Z</time>
      </trkpt>
      <trkpt lat="43.56029" lon="2.34333">
        <ele>247</ele>
        <time>2016-10-20T13:06:07Z</time>
      </trkpt>
      <trkpt lat="43.56032" lon="2.3433">
        <ele>247</ele>
        <time>2016-10-20T13:06:09Z</time>
      </trkpt>
      <trkpt lat="43.56033" lon="2.3433">
        <ele>247</ele>
        <time>2016-10-20T13:06:11Z</time>
      </trkpt>
      <trkpt lat="43.56033" lon="2.34329">
        <ele>247</ele>
        <time>2016-10-20T13:06:14Z</time>
      </trkpt>
      <trkpt lat="43.56034" lon="2.34329">
        <ele>247</ele>
        <time>2016-10-20T13:06:16Z</time>
      </trkpt>
      <trkpt lat="43.56034" lon="2.34329">
        <ele>247</ele>
        <time>2016-10-20T13:06:18Z</time>
      </trkpt>
      <trkpt lat="43.56035" lon="2.34329">
        <ele>247</ele>
        <time>2016-10-20T13:06:20Z</time>
      </trkpt>
      <trkpt lat="43.56036" lon="2.34328">
        <ele>247</ele>
        <time>2016-10-20T13:06:23Z</time>
      </trkpt>
      <trkpt lat="43.56036" lon="2.34328">
        <ele>247</ele>
        <time>2016-10-20T13:06:25Z</time>
      </trkpt>
      <trkpt lat="43.56036" lon="2.34328">
        <ele>247</ele>
        <time>2016-10-20T13:06:27Z</time>
      </trkpt>
      <trkpt lat="43.56036" lon="2.34328">
        <ele>247</ele>
        <time>2016-10-20T13:06:30Z</time>
      </trkpt>
      <trkpt lat="43.56037" lon="2.34329">
        <ele>247</ele>
        <time>2016-10-20T13:06:32Z</time>
      </trkpt>
      <trkpt lat="43.56038" lon="2.34328">
        <ele>247</ele>
        <time>2016-10-20T13:06:36Z</time>
      </trkpt>
      <trkpt lat="43.56039" lon="2.34328">
        <ele>247</ele>
        <time>2016-10-20T13:06:39Z</time>
      </trkpt>
      <trkpt lat="43.56041" lon="2.34329">
        <ele>247</ele>
        <time>2016-10-20T13:06:41Z</time>
      </trkpt>
      <trkpt lat="43.56041" lon="2.34329">
        <ele>247</ele>
        <time>2016-10-20T13:06:43Z</time>
      </trkpt>
      <trkpt lat="43.56042" lon="2.34329">
        <ele>248</ele>
        <time>2016-10-20T13:06:46Z</time>
      </trkpt>
      <trkpt lat="43.56042" lon="2.34329">
        <ele>248</ele>
        <time>2016-10-20T13:06:48Z</time>
      </trkpt>
      <trkpt lat="43.56043" lon="2.34329">
        <ele>248</ele>
        <time>2016-10-20T13:06:50Z</time>
      </trkpt>
      <trkpt lat="43.56043" lon="2.3433">
        <ele>248</ele>
        <time>2016-10-20T13:06:52Z</time>
      </trkpt>
      <trkpt lat="43.56043" lon="2.3433">
        <ele>248</ele>
        <time>2016-10-20T13:06:55Z</time>
      </trkpt>
      <trkpt lat="43.56043" lon="2.3433">
        <ele>248</ele>
        <time>2016-10-20T13:06:57Z</time>
      </trkpt>
      <trkpt lat="43.56043" lon="2.34329">
        <ele>248</ele>
        <time>2016-10-20T13:06:59Z</time>
      </trkpt>
      <trkpt lat="43.56044" lon="2.34329">
        <ele>248</ele>
        <time>2016-10-20T13:07:02Z</time>
      </trkpt>
      <trkpt lat="43.56044" lon="2.34328">
        <ele>248</ele>
        <time>2016-10-20T13:07:04Z</time>
      </trkpt>
      <trkpt lat="43.56044" lon="2.34328">
        <ele>248</ele>
        <time>2016-10-20T13:07:06Z</time>
      </trkpt>
      <trkpt lat="43.56045" lon="2.34328">
        <ele>248</ele>
        <time>2016-10-20T13:07:08Z</time>
      </trkpt>
      <trkpt lat="43.56045" lon="2.34328">
        <ele>248</ele>
        <time>2016-10-20T13:07:11Z</time>
      </trkpt>
      <trkpt lat="43.56045" lon="2.34327">
        <ele>248</ele>
        <time>2016-10-20T13:07:13Z</time>
      </trkpt>
      <trkpt lat="43.56045" lon="2.34327">
        <ele>248</ele>
        <time>2016-10-20T13:07:15Z</time>
      </trkpt>
      <trkpt lat="43.56045" lon="2.34327">
        <ele>248</ele>
        <time>2016-10-20T13:07:18Z</time>
      </trkpt>
      <trkpt lat="43.56045" lon="2.34328">
        <ele>248</ele>
        <time>2016-10-20T13:07:20Z</time>
      </trkpt>
      <trkpt lat="43.56045" lon="2.34328">
        <ele>248</ele>
        <time>2016-10-20T13:07:22Z</time>
      </trkpt>
      <trkpt lat="43.56044" lon="2.34328">
        <ele>248</ele>
        <time>2016-10-20T13:07:25Z</time>
      </trkpt>
      <trkpt lat="43.56044" lon="2.34327">
        <ele>248</ele>
        <time>2016-10-20T13:07:27Z</time>
      </trkpt>
      <trkpt lat="43.56043" lon="2.34327">
        <ele>248</ele>
        <time>2016-10-20T13:07:29Z</time>
      </trkpt>
      <trkpt lat="43.56043" lon="2.34327">
        <ele>248</ele>
        <time>2016-10-20T13:07:31Z</time>
      </trkpt>
      <trkpt lat="43.56043" lon="2.34327">
        <ele>248</ele>
        <time>2016-10-20T13:07:34Z</time>
      </trkpt>
      <trkpt lat="43.56043" lon="2.34327">
        <ele>248</ele>
        <time>2016-10-20T13:07:36Z</time>
      </trkpt>
      <trkpt lat="43.56043" lon="2.34327">
        <ele>248</ele>
        <time>2016-10-20T13:07:38Z</time>
      </trkpt>
      <trkpt lat="43.56043" lon="2.34327">
        <ele>248</ele>
        <time>2016-10-20T13:07:41Z</time>
      </trkpt>
      <trkpt lat="43.56043" lon="2.34326">
        <ele>248</ele>
        <time>2016-10-20T13:07:43Z</time>
      </trkpt>
      <trkpt lat="43.56043" lon="2.34327">
        <ele>248</ele>
        <time>2016-10-20T13:07:45Z</time>
      </trkpt>
      <trkpt lat="43.56043" lon="2.34326">
        <ele>248</ele>
        <time>2016-10-20T13:07:47Z</time>
      </trkpt>
      <trkpt lat="43.56043" lon="2.34326">
        <ele>248</ele>
        <time>2016-10-20T13:07:50Z</time>
      </trkpt>
      <trkpt lat="43.56042" lon="2.34327">
        <ele>248</ele>
        <time>2016-10-20T13:07:52Z</time>
      </trkpt>
      <trkpt lat="43.56042" lon="2.34327">
        <ele>248</ele>
        <time>2016-10-20T13:07:54Z</time>
      </trkpt>
      <trkpt lat="43.56042" lon="2.34327">
        <ele>248</ele>
        <time>2016-10-20T13:07:59Z</time>
      </trkpt>
      <trkpt lat="43.56042" lon="2.34328">
        <ele>248</ele>
        <time>2016-10-20T13:08:01Z</time>
      </trkpt>
      <trkpt lat="43.56042" lon="2.34328">
        <ele>248</ele>
        <time>2016-10-20T13:08:03Z</time>
      </trkpt>
      <trkpt lat="43.56042" lon="2.34328">
        <ele>248</ele>
        <time>2016-10-20T13:08:06Z</time>
      </trkpt>
      <trkpt lat="43.56042" lon="2.34329">
        <ele>248</ele>
        <time>2016-10-20T13:08:08Z</time>
      </trkpt>
      <trkpt lat="43.56042" lon="2.34329">
        <ele>248</ele>
        <time>2016-10-20T13:08:10Z</time>
      </trkpt>
      <trkpt lat="43.56043" lon="2.34328">
        <ele>248</ele>
        <time>2016-10-20T13:08:13Z</time>
      </trkpt>
      <trkpt lat="43.56043" lon="2.34328">
        <ele>248</ele>
        <time>2016-10-20T13:08:15Z</time>
      </trkpt>
      <trkpt lat="43.56043" lon="2.34328">
        <ele>248</ele>
        <time>2016-10-20T13:08:17Z</time>
      </trkpt>
      <trkpt lat="43.56043" lon="2.34328">
        <ele>248</ele>
        <time>2016-10-20T13:08:19Z</time>
      </trkpt>
      <trkpt lat="43.56043" lon="2.34328">
        <ele>248</ele>
        <time>2016-10-20T13:08:22Z</time>
      </trkpt>
      <trkpt lat="43.56043" lon="2.34328">
        <ele>248</ele>
        <time>2016-10-20T13:08:24Z</time>
      </trkpt>
      <trkpt lat="43.56042" lon="2.34329">
        <ele>248</ele>
        <time>2016-10-20T13:08:26Z</time>
      </trkpt>
      <trkpt lat="43.56042" lon="2.34328">
        <ele>248</ele>
        <time>2016-10-20T13:08:29Z</time>
      </trkpt>
      <trkpt lat="43.56042" lon="2.34328">
        <ele>248</ele>
        <time>2016-10-20T13:08:31Z</time>
      </trkpt>
      <trkpt lat="43.56042" lon="2.34327">
        <ele>247</ele>
        <time>2016-10-20T13:08:33Z</time>
      </trkpt>
      <trkpt lat="43.56043" lon="2.34325">
        <ele>248</ele>
        <time>2016-10-20T13:08:35Z</time>
      </trkpt>
      <trkpt lat="43.56043" lon="2.34324">
        <ele>248</ele>
        <time>2016-10-20T13:08:38Z</time>
      </trkpt>
      <trkpt lat="43.56043" lon="2.34324">
        <ele>248</ele>
        <time>2016-10-20T13:08:40Z</time>
      </trkpt>
      <trkpt lat="43.56043" lon="2.34324">
        <ele>248</ele>
        <time>2016-10-20T13:08:42Z</time>
      </trkpt>
      <trkpt lat="43.56043" lon="2.34324">
        <ele>248</ele>
        <time>2016-10-20T13:08:45Z</time>
      </trkpt>
      <trkpt lat="43.56043" lon="2.34323">
        <ele>248</ele>
        <time>2016-10-20T13:08:47Z</time>
      </trkpt>
      <trkpt lat="43.56045" lon="2.34323">
        <ele>248</ele>
        <time>2016-10-20T13:08:49Z</time>
      </trkpt>
      <trkpt lat="43.56046" lon="2.34322">
        <ele>248</ele>
        <time>2016-10-20T13:08:51Z</time>
      </trkpt>
      <trkpt lat="43.56048" lon="2.34321">
        <ele>248</ele>
        <time>2016-10-20T13:08:54Z</time>
      </trkpt>
      <trkpt lat="43.56049" lon="2.34318">
        <ele>248</ele>
        <time>2016-10-20T13:08:56Z</time>
      </trkpt>
      <trkpt lat="43.56049" lon="2.34316">
        <ele>248</ele>
        <time>2016-10-20T13:08:58Z</time>
      </trkpt>
      <trkpt lat="43.56049" lon="2.34314">
        <ele>248</ele>
        <time>2016-10-20T13:09:01Z</time>
      </trkpt>
      <trkpt lat="43.56049" lon="2.34311">
        <ele>248</ele>
        <time>2016-10-20T13:09:03Z</time>
      </trkpt>
      <trkpt lat="43.56049" lon="2.34307">
        <ele>248</ele>
        <time>2016-10-20T13:09:05Z</time>
      </trkpt>
      <trkpt lat="43.56049" lon="2.34303">
        <ele>247</ele>
        <time>2016-10-20T13:09:07Z</time>
      </trkpt>
      <trkpt lat="43.56049" lon="2.343">
        <ele>247</ele>
        <time>2016-10-20T13:09:10Z</time>
      </trkpt>
      <trkpt lat="43.56049" lon="2.34294">
        <ele>247</ele>
        <time>2016-10-20T13:09:12Z</time>
      </trkpt>
      <trkpt lat="43.56049" lon="2.34291">
        <ele>247</ele>
        <time>2016-10-20T13:09:14Z</time>
      </trkpt>
      <trkpt lat="43.56049" lon="2.34288">
        <ele>247</ele>
        <time>2016-10-20T13:09:17Z</time>
      </trkpt>
      <trkpt lat="43.56051" lon="2.34281">
        <ele>247</ele>
        <time>2016-10-20T13:09:21Z</time>
      </trkpt>
      <trkpt lat="43.56052" lon="2.34278">
        <ele>247</ele>
        <time>2016-10-20T13:09:23Z</time>
      </trkpt>
      <trkpt lat="43.56052" lon="2.34275">
        <ele>247</ele>
        <time>2016-10-20T13:09:26Z</time>
      </trkpt>
      <trkpt lat="43.56054" lon="2.34271">
        <ele>247</ele>
        <time>2016-10-20T13:09:28Z</time>
      </trkpt>
      <trkpt lat="43.56055" lon="2.34268">
        <ele>247</ele>
        <time>2016-10-20T13:09:30Z</time>
      </trkpt>
      <trkpt lat="43.56056" lon="2.34264">
        <ele>247</ele>
        <time>2016-10-20T13:09:33Z</time>
      </trkpt>
      <trkpt lat="43.56056" lon="2.34261">
        <ele>247</ele>
        <time>2016-10-20T13:09:35Z</time>
      </trkpt>
      <trkpt lat="43.56058" lon="2.34256">
        <ele>247</ele>
        <time>2016-10-20T13:09:37Z</time>
      </trkpt>
      <trkpt lat="43.56058" lon="2.34254">
        <ele>247</ele>
        <time>2016-10-20T13:09:39Z</time>
      </trkpt>
      <trkpt lat="43.56058" lon="2.34251">
        <ele>247</ele>
        <time>2016-10-20T13:09:42Z</time>
      </trkpt>
      <trkpt lat="43.56059" lon="2.34247">
        <ele>247</ele>
        <time>2016-10-20T13:09:44Z</time>
      </trkpt>
      <trkpt lat="43.5606" lon="2.34244">
        <ele>247</ele>
        <time>2016-10-20T13:09:46Z</time>
      </trkpt>
      <trkpt lat="43.56061" lon="2.34241">
        <ele>246</ele>
        <time>2016-10-20T13:09:49Z</time>
      </trkpt>
      <trkpt lat="43.56062" lon="2.34238">
        <ele>246</ele>
        <time>2016-10-20T13:09:51Z</time>
      </trkpt>
      <trkpt lat="43.56063" lon="2.34233">
        <ele>246</ele>
        <time>2016-10-20T13:09:53Z</time>
      </trkpt>
      <trkpt lat="43.56064" lon="2.3423">
        <ele>246</ele>
        <time>2016-10-20T13:09:55Z</time>
      </trkpt>
      <trkpt lat="43.56065" lon="2.34227">
        <ele>246</ele>
        <time>2016-10-20T13:09:58Z</time>
      </trkpt>
      <trkpt lat="43.56067" lon="2.34224">
        <ele>246</ele>
        <time>2016-10-20T13:10:00Z</time>
      </trkpt>
      <trkpt lat="43.56069" lon="2.34221">
        <ele>246</ele>
        <time>2016-10-20T13:10:02Z</time>
      </trkpt>
      <trkpt lat="43.5607" lon="2.34219">
        <ele>246</ele>
        <time>2016-10-20T13:10:05Z</time>
      </trkpt>
      <trkpt lat="43.56073" lon="2.34216">
        <ele>245</ele>
        <time>2016-10-20T13:10:07Z</time>
      </trkpt>
      <trkpt lat="43.56074" lon="2.34214">
        <ele>245</ele>
        <time>2016-10-20T13:10:09Z</time>
      </trkpt>
      <trkpt lat="43.56076" lon="2.34211">
        <ele>245</ele>
        <time>2016-10-20T13:10:12Z</time>
      </trkpt>
      <trkpt lat="43.56077" lon="2.34209">
        <ele>245</ele>
        <time>2016-10-20T13:10:14Z</time>
      </trkpt>
      <trkpt lat="43.56079" lon="2.34204">
        <ele>245</ele>
        <time>2016-10-20T13:10:16Z</time>
      </trkpt>
      <trkpt lat="43.5608" lon="2.34201">
        <ele>245</ele>
        <time>2016-10-20T13:10:18Z</time>
      </trkpt>
      <trkpt lat="43.56081" lon="2.34198">
        <ele>245</ele>
        <time>2016-10-20T13:10:21Z</time>
      </trkpt>
      <trkpt lat="43.56083" lon="2.34193">
        <ele>246</ele>
        <time>2016-10-20T13:10:23Z</time>
      </trkpt>
      <trkpt lat="43.56084" lon="2.34191">
        <ele>246</ele>
        <time>2016-10-20T13:10:25Z</time>
      </trkpt>
      <trkpt lat="43.56085" lon="2.34187">
        <ele>246</ele>
        <time>2016-10-20T13:10:28Z</time>
      </trkpt>
      <trkpt lat="43.56087" lon="2.34184">
        <ele>246</ele>
        <time>2016-10-20T13:10:30Z</time>
      </trkpt>
      <trkpt lat="43.56088" lon="2.3418">
        <ele>246</ele>
        <time>2016-10-20T13:10:32Z</time>
      </trkpt>
      <trkpt lat="43.5609" lon="2.34177">
        <ele>246</ele>
        <time>2016-10-20T13:10:34Z</time>
      </trkpt>
      <trkpt lat="43.56091" lon="2.34173">
        <ele>246</ele>
        <time>2016-10-20T13:10:37Z</time>
      </trkpt>
      <trkpt lat="43.56093" lon="2.34169">
        <ele>246</ele>
        <time>2016-10-20T13:10:39Z</time>
      </trkpt>
      <trkpt lat="43.56097" lon="2.34163">
        <ele>247</ele>
        <time>2016-10-20T13:10:44Z</time>
      </trkpt>
      <trkpt lat="43.56099" lon="2.34161">
        <ele>247</ele>
        <time>2016-10-20T13:10:46Z</time>
      </trkpt>
      <trkpt lat="43.56101" lon="2.34157">
        <ele>247</ele>
        <time>2016-10-20T13:10:48Z</time>
      </trkpt>
      <trkpt lat="43.56103" lon="2.34154">
        <ele>247</ele>
        <time>2016-10-20T13:10:50Z</time>
      </trkpt>
      <trkpt lat="43.56104" lon="2.34152">
        <ele>247</ele>
        <time>2016-10-20T13:10:53Z</time>
      </trkpt>
      <trkpt lat="43.56106" lon="2.34148">
        <ele>247</ele>
        <time>2016-10-20T13:10:55Z</time>
      </trkpt>
      <trkpt lat="43.56107" lon="2.34146">
        <ele>247</ele>
        <time>2016-10-20T13:10:57Z</time>
      </trkpt>
      <trkpt lat="43.56108" lon="2.34143">
        <ele>247</ele>
        <time>2016-10-20T13:11:00Z</time>
      </trkpt>
      <trkpt lat="43.5611" lon="2.34139">
        <ele>247</ele>
        <time>2016-10-20T13:11:02Z</time>
      </trkpt>
      <trkpt lat="43.56111" lon="2.34137">
        <ele>247</ele>
        <time>2016-10-20T13:11:04Z</time>
      </trkpt>
      <trkpt lat="43.56112" lon="2.34134">
        <ele>247</ele>
        <time>2016-10-20T13:11:06Z</time>
      </trkpt>
      <trkpt lat="43.56113" lon="2.34132">
        <ele>247</ele>
        <time>2016-10-20T13:11:09Z</time>
      </trkpt>
      <trkpt lat="43.56115" lon="2.34129">
        <ele>248</ele>
        <time>2016-10-20T13:11:11Z</time>
      </trkpt>
      <trkpt lat="43.56117" lon="2.34127">
        <ele>248</ele>
        <time>2016-10-20T13:11:13Z</time>
      </trkpt>
      <trkpt lat="43.56118" lon="2.34125">
        <ele>248</ele>
        <time>2016-10-20T13:11:16Z</time>
      </trkpt>
      <trkpt lat="43.56119" lon="2.34122">
        <ele>248</ele>
        <time>2016-10-20T13:11:18Z</time>
      </trkpt>
      <trkpt lat="43.5612" lon="2.34119">
        <ele>248</ele>
        <time>2016-10-20T13:11:20Z</time>
      </trkpt>
      <trkpt lat="43.56122" lon="2.34117">
        <ele>248</ele>
        <time>2016-10-20T13:11:23Z</time>
      </trkpt>
      <trkpt lat="43.56123" lon="2.34115">
        <ele>248</ele>
        <time>2016-10-20T13:11:25Z</time>
      </trkpt>
      <trkpt lat="43.56125" lon="2.34111">
        <ele>248</ele>
        <time>2016-10-20T13:11:27Z</time>
      </trkpt>
      <trkpt lat="43.56126" lon="2.34108">
        <ele>248</ele>
        <time>2016-10-20T13:11:29Z</time>
      </trkpt>
      <trkpt lat="43.56128" lon="2.34105">
        <ele>248</ele>
        <time>2016-10-20T13:11:32Z</time>
      </trkpt>
      <trkpt lat="43.56129" lon="2.34102">
        <ele>248</ele>
        <time>2016-10-20T13:11:34Z</time>
      </trkpt>
      <trkpt lat="43.56131" lon="2.341">
        <ele>248</ele>
        <time>2016-10-20T13:11:36Z</time>
      </trkpt>
      <trkpt lat="43.56132" lon="2.34098">
        <ele>248</ele>
        <time>2016-10-20T13:11:39Z</time>
      </trkpt>
      <trkpt lat="43.56135" lon="2.34094">
        <ele>248</ele>
        <time>2016-10-20T13:11:41Z</time>
      </trkpt>
      <trkpt lat="43.56136" lon="2.34092">
        <ele>248</ele>
        <time>2016-10-20T13:11:43Z</time>
      </trkpt>
      <trkpt lat="43.56137" lon="2.3409">
        <ele>248</ele>
        <time>2016-10-20T13:11:45Z</time>
      </trkpt>
      <trkpt lat="43.56139" lon="2.34088">
        <ele>248</ele>
        <time>2016-10-20T13:11:48Z</time>
      </trkpt>
      <trkpt lat="43.56142" lon="2.34085">
        <ele>247</ele>
        <time>2016-10-20T13:11:50Z</time>
      </trkpt>
      <trkpt lat="43.56144" lon="2.34083">
        <ele>247</ele>
        <time>2016-10-20T13:11:52Z</time>
      </trkpt>
      <trkpt lat="43.56146" lon="2.34081">
        <ele>247</ele>
        <time>2016-10-20T13:11:55Z</time>
      </trkpt>
      <trkpt lat="43.56149" lon="2.34079">
        <ele>247</ele>
        <time>2016-10-20T13:11:57Z</time>
      </trkpt>
      <trkpt lat="43.56151" lon="2.34077">
        <ele>247</ele>
        <time>2016-10-20T13:11:59Z</time>
      </trkpt>
      <trkpt lat="43.56154" lon="2.34076">
        <ele>247</ele>
        <time>2016-10-20T13:12:01Z</time>
      </trkpt>
      <trkpt lat="43.5616" lon="2.34073">
        <ele>247</ele>
        <time>2016-10-20T13:12:06Z</time>
      </trkpt>
      <trkpt lat="43.56162" lon="2.34072">
        <ele>247</ele>
        <time>2016-10-20T13:12:08Z</time>
      </trkpt>
      <trkpt lat="43.56164" lon="2.3407">
        <ele>247</ele>
        <time>2016-10-20T13:12:11Z</time>
      </trkpt>
      <trkpt lat="43.56166" lon="2.34069">
        <ele>247</ele>
        <time>2016-10-20T13:12:13Z</time>
      </trkpt>
      <trkpt lat="43.56168" lon="2.34068">
        <ele>247</ele>
        <time>2016-10-20T13:12:15Z</time>
      </trkpt>
      <trkpt lat="43.56171" lon="2.34066">
        <ele>247</ele>
        <time>2016-10-20T13:12:18Z</time>
      </trkpt>
      <trkpt lat="43.56173" lon="2.34065">
        <ele>247</ele>
        <time>2016-10-20T13:12:20Z</time>
      </trkpt>
      <trkpt lat="43.56176" lon="2.34064">
        <ele>247</ele>
        <time>2016-10-20T13:12:22Z</time>
      </trkpt>
      <trkpt lat="43.56178" lon="2.34063">
        <ele>247</ele>
        <time>2016-10-20T13:12:24Z</time>
      </trkpt>
      <trkpt lat="43.5618" lon="2.34061">
        <ele>247</ele>
        <time>2016-10-20T13:12:27Z</time>
      </trkpt>
      <trkpt lat="43.56183" lon="2.34059">
        <ele>247</ele>
        <time>2016-10-20T13:12:29Z</time>
      </trkpt>
      <trkpt lat="43.56185" lon="2.34058">
        <ele>247</ele>
        <time>2016-10-20T13:12:31Z</time>
      </trkpt>
      <trkpt lat="43.56187" lon="2.34057">
        <ele>247</ele>
        <time>2016-10-20T13:12:34Z</time>
      </trkpt>
      <trkpt lat="43.56191" lon="2.34056">
        <ele>247</ele>
        <time>2016-10-20T13:12:36Z</time>
      </trkpt>
      <trkpt lat="43.56193" lon="2.34055">
        <ele>247</ele>
        <time>2016-10-20T13:12:38Z</time>
      </trkpt>
      <trkpt lat="43.56195" lon="2.34053">
        <ele>247</ele>
        <time>2016-10-20T13:12:40Z</time>
      </trkpt>
      <trkpt lat="43.56197" lon="2.34051">
        <ele>247</ele>
        <time>2016-10-20T13:12:43Z</time>
      </trkpt>
      <trkpt lat="43.562" lon="2.34048">
        <ele>247</ele>
        <time>2016-10-20T13:12:45Z</time>
      </trkpt>
      <trkpt lat="43.56202" lon="2.34046">
        <ele>247</ele>
        <time>2016-10-20T13:12:47Z</time>
      </trkpt>
      <trkpt lat="43.56204" lon="2.34045">
        <ele>247</ele>
        <time>2016-10-20T13:12:50Z</time>
      </trkpt>
      <trkpt lat="43.56207" lon="2.34043">
        <ele>246</ele>
        <time>2016-10-20T13:12:52Z</time>
      </trkpt>
      <trkpt lat="43.56208" lon="2.34042">
        <ele>246</ele>
        <time>2016-10-20T13:12:54Z</time>
      </trkpt>
      <trkpt lat="43.5621" lon="2.34041">
        <ele>246</ele>
        <time>2016-10-20T13:12:57Z</time>
      </trkpt>
      <trkpt lat="43.56212" lon="2.34039">
        <ele>246</ele>
        <time>2016-10-20T13:12:59Z</time>
      </trkpt>
      <trkpt lat="43.56214" lon="2.34037">
        <ele>246</ele>
        <time>2016-10-20T13:13:01Z</time>
      </trkpt>
      <trkpt lat="43.56215" lon="2.34036">
        <ele>246</ele>
        <time>2016-10-20T13:13:03Z</time>
      </trkpt>
      <trkpt lat="43.56218" lon="2.34034">
        <ele>246</ele>
        <time>2016-10-20T13:13:06Z</time>
      </trkpt>
      <trkpt lat="43.56221" lon="2.34033">
        <ele>246</ele>
        <time>2016-10-20T13:13:08Z</time>
      </trkpt>
      <trkpt lat="43.56224" lon="2.34033">
        <ele>246</ele>
        <time>2016-10-20T13:13:10Z</time>
      </trkpt>
      <trkpt lat="43.56225" lon="2.34034">
        <ele>246</ele>
        <time>2016-10-20T13:13:13Z</time>
      </trkpt>
      <trkpt lat="43.56226" lon="2.34036">
        <ele>246</ele>
        <time>2016-10-20T13:13:15Z</time>
      </trkpt>
      <trkpt lat="43.56227" lon="2.3404">
        <ele>246</ele>
        <time>2016-10-20T13:13:17Z</time>
      </trkpt>
      <trkpt lat="43.56229" lon="2.34041">
        <ele>246</ele>
        <time>2016-10-20T13:13:19Z</time>
      </trkpt>
      <trkpt lat="43.5623" lon="2.34043">
        <ele>246</ele>
        <time>2016-10-20T13:13:22Z</time>
      </trkpt>
      <trkpt lat="43.56233" lon="2.34046">
        <ele>245</ele>
        <time>2016-10-20T13:13:24Z</time>
      </trkpt>
      <trkpt lat="43.56236" lon="2.34051">
        <ele>245</ele>
        <time>2016-10-20T13:13:29Z</time>
      </trkpt>
      <trkpt lat="43.56237" lon="2.34054">
        <ele>245</ele>
        <time>2016-10-20T13:13:31Z</time>
      </trkpt>
      <trkpt lat="43.56239" lon="2.34057">
        <ele>245</ele>
        <time>2016-10-20T13:13:33Z</time>
      </trkpt>
      <trkpt lat="43.5624" lon="2.34059">
        <ele>245</ele>
        <time>2016-10-20T13:13:35Z</time>
      </trkpt>
      <trkpt lat="43.56241" lon="2.34062">
        <ele>245</ele>
        <time>2016-10-20T13:13:38Z</time>
      </trkpt>
      <trkpt lat="43.56243" lon="2.34064">
        <ele>245</ele>
        <time>2016-10-20T13:13:40Z</time>
      </trkpt>
      <trkpt lat="43.56244" lon="2.34066">
        <ele>245</ele>
        <time>2016-10-20T13:13:42Z</time>
      </trkpt>
      <trkpt lat="43.56245" lon="2.34067">
        <ele>245</ele>
        <time>2016-10-20T13:13:45Z</time>
      </trkpt>
      <trkpt lat="43.56246" lon="2.3407">
        <ele>245</ele>
        <time>2016-10-20T13:13:47Z</time>
      </trkpt>
      <trkpt lat="43.56247" lon="2.34072">
        <ele>245</ele>
        <time>2016-10-20T13:13:49Z</time>
      </trkpt>
      <trkpt lat="43.56248" lon="2.34074">
        <ele>245</ele>
        <time>2016-10-20T13:13:52Z</time>
      </trkpt>
      <trkpt lat="43.56249" lon="2.34076">
        <ele>245</ele>
        <time>2016-10-20T13:13:54Z</time>
      </trkpt>
      <trkpt lat="43.56251" lon="2.3408">
        <ele>245</ele>
        <time>2016-10-20T13:13:56Z</time>
      </trkpt>
      <trkpt lat="43.56252" lon="2.34081">
        <ele>245</ele>
        <time>2016-10-20T13:13:58Z</time>
      </trkpt>
      <trkpt lat="43.56253" lon="2.34084">
        <ele>245</ele>
        <time>2016-10-20T13:14:01Z</time>
      </trkpt>
      <trkpt lat="43.56255" lon="2.34086">
        <ele>246</ele>
        <time>2016-10-20T13:14:03Z</time>
      </trkpt>
      <trkpt lat="43.56256" lon="2.34089">
        <ele>246</ele>
        <time>2016-10-20T13:14:05Z</time>
      </trkpt>
      <trkpt lat="43.56258" lon="2.3409">
        <ele>246</ele>
        <time>2016-10-20T13:14:08Z</time>
      </trkpt>
      <trkpt lat="43.56259" lon="2.34092">
        <ele>246</ele>
        <time>2016-10-20T13:14:10Z</time>
      </trkpt>
      <trkpt lat="43.5626" lon="2.34095">
        <ele>246</ele>
        <time>2016-10-20T13:14:12Z</time>
      </trkpt>
      <trkpt lat="43.56261" lon="2.34097">
        <ele>246</ele>
        <time>2016-10-20T13:14:14Z</time>
      </trkpt>
      <trkpt lat="43.56262" lon="2.34099">
        <ele>246</ele>
        <time>2016-10-20T13:14:17Z</time>
      </trkpt>
      <trkpt lat="43.56264" lon="2.34102">
        <ele>246</ele>
        <time>2016-10-20T13:14:19Z</time>
      </trkpt>
      <trkpt lat="43.56265" lon="2.34104">
        <ele>246</ele>
        <time>2016-10-20T13:14:21Z</time>
      </trkpt>
      <trkpt lat="43.56267" lon="2.34106">
        <ele>247</ele>
        <time>2016-10-20T13:14:24Z</time>
      </trkpt>
      <trkpt lat="43.56268" lon="2.34109">
        <ele>247</ele>
        <time>2016-10-20T13:14:26Z</time>
      </trkpt>
      <trkpt lat="43.56268" lon="2.34112">
        <ele>247</ele>
        <time>2016-10-20T13:14:28Z</time>
      </trkpt>
      <trkpt lat="43.56269" lon="2.34113">
        <ele>247</ele>
        <time>2016-10-20T13:14:30Z</time>
      </trkpt>
      <trkpt lat="43.56269" lon="2.34116">
        <ele>247</ele>
        <time>2016-10-20T13:14:33Z</time>
      </trkpt>
      <trkpt lat="43.56271" lon="2.34119">
        <ele>247</ele>
        <time>2016-10-20T13:14:35Z</time>
      </trkpt>
      <trkpt lat="43.56271" lon="2.34122">
        <ele>248</ele>
        <time>2016-10-20T13:14:37Z</time>
      </trkpt>
      <trkpt lat="43.56272" lon="2.34124">
        <ele>248</ele>
        <time>2016-10-20T13:14:40Z</time>
      </trkpt>
      <trkpt lat="43.56273" lon="2.34127">
        <ele>248</ele>
        <time>2016-10-20T13:14:42Z</time>
      </trkpt>
      <trkpt lat="43.56274" lon="2.34129">
        <ele>248</ele>
        <time>2016-10-20T13:14:44Z</time>
      </trkpt>
      <trkpt lat="43.56274" lon="2.34131">
        <ele>248</ele>
        <time>2016-10-20T13:14:47Z</time>
      </trkpt>
      <trkpt lat="43.56276" lon="2.34137">
        <ele>249</ele>
        <time>2016-10-20T13:14:51Z</time>
      </trkpt>
      <trkpt lat="43.56276" lon="2.34139">
        <ele>249</ele>
        <time>2016-10-20T13:14:53Z</time>
      </trkpt>
      <trkpt lat="43.56277" lon="2.34142">
        <ele>249</ele>
        <time>2016-10-20T13:14:56Z</time>
      </trkpt>
      <trkpt lat="43.56278" lon="2.34144">
        <ele>249</ele>
        <time>2016-10-20T13:14:58Z</time>
      </trkpt>
      <trkpt lat="43.56279" lon="2.34146">
        <ele>249</ele>
        <time>2016-10-20T13:15:00Z</time>
      </trkpt>
      <trkpt lat="43.5628" lon="2.34149">
        <ele>249</ele>
        <time>2016-10-20T13:15:03Z</time>
      </trkpt>
      <trkpt lat="43.5628" lon="2.34151">
        <ele>250</ele>
        <time>2016-10-20T13:15:05Z</time>
      </trkpt>
      <trkpt lat="43.56282" lon="2.34155">
        <ele>250</ele>
        <time>2016-10-20T13:15:07Z</time>
      </trkpt>
      <trkpt lat="43.56282" lon="2.34156">
        <ele>250</ele>
        <time>2016-10-20T13:15:09Z</time>
      </trkpt>
      <trkpt lat="43.56283" lon="2.34159">
        <ele>250</ele>
        <time>2016-10-20T13:15:12Z</time>
      </trkpt>
      <trkpt lat="43.56284" lon="2.34162">
        <ele>251</ele>
        <time>2016-10-20T13:15:14Z</time>
      </trkpt>
      <trkpt lat="43.56285" lon="2.34164">
        <ele>251</ele>
        <time>2016-10-20T13:15:16Z</time>
      </trkpt>
      <trkpt lat="43.56286" lon="2.34166">
        <ele>251</ele>
        <time>2016-10-20T13:15:19Z</time>
      </trkpt>
      <trkpt lat="43.56287" lon="2.34169">
        <ele>251</ele>
        <time>2016-10-20T13:15:21Z</time>
      </trkpt>
      <trkpt lat="43.56288" lon="2.34172">
        <ele>251</ele>
        <time>2016-10-20T13:15:23Z</time>
      </trkpt>
      <trkpt lat="43.56289" lon="2.34174">
        <ele>252</ele>
        <time>2016-10-20T13:15:25Z</time>
      </trkpt>
      <trkpt lat="43.56289" lon="2.34177">
        <ele>252</ele>
        <time>2016-10-20T13:15:28Z</time>
      </trkpt>
      <trkpt lat="43.56291" lon="2.34181">
        <ele>252</ele>
        <time>2016-10-20T13:15:30Z</time>
      </trkpt>
      <trkpt lat="43.56292" lon="2.34184">
        <ele>252</ele>
        <time>2016-10-20T13:15:32Z</time>
      </trkpt>
      <trkpt lat="43.56293" lon="2.34186">
        <ele>252</ele>
        <time>2016-10-20T13:15:35Z</time>
      </trkpt>
      <trkpt lat="43.56293" lon="2.3419">
        <ele>253</ele>
        <time>2016-10-20T13:15:37Z</time>
      </trkpt>
      <trkpt lat="43.56294" lon="2.34192">
        <ele>253</ele>
        <time>2016-10-20T13:15:39Z</time>
      </trkpt>
      <trkpt lat="43.56294" lon="2.34195">
        <ele>253</ele>
        <time>2016-10-20T13:15:41Z</time>
      </trkpt>
      <trkpt lat="43.56294" lon="2.34198">
        <ele>253</ele>
        <time>2016-10-20T13:15:44Z</time>
      </trkpt>
      <trkpt lat="43.56294" lon="2.34202">
        <ele>254</ele>
        <time>2016-10-20T13:15:46Z</time>
      </trkpt>
      <trkpt lat="43.56294" lon="2.34204">
        <ele>254</ele>
        <time>2016-10-20T13:15:48Z</time>
      </trkpt>
      <trkpt lat="43.56294" lon="2.34208">
        <ele>254</ele>
        <time>2016-10-20T13:15:51Z</time>
      </trkpt>
      <trkpt lat="43.56295" lon="2.34212">
        <ele>255</ele>
        <time>2016-10-20T13:15:53Z</time>
      </trkpt>
      <trkpt lat="43.56294" lon="2.34215">
        <ele>255</ele>
        <time>2016-10-20T13:15:55Z</time>
      </trkpt>
      <trkpt lat="43.56294" lon="2.34218">
        <ele>255</ele>
        <time>2016-10-20T13:15:57Z</time>
      </trkpt>
      <trkpt lat="43.56294" lon="2.34221">
        <ele>256</ele>
        <time>2016-10-20T13:16:00Z</time>
      </trkpt>
      <trkpt lat="43.56293" lon="2.34225">
        <ele>256</ele>
        <time>2016-10-20T13:16:02Z</time>
      </trkpt>
      <trkpt lat="43.56292" lon="2.34228">
        <ele>256</ele>
        <time>2016-10-20T13:16:04Z</time>
      </trkpt>
      <trkpt lat="43.56292" lon="2.34231">
        <ele>257</ele>
        <time>2016-10-20T13:16:07Z</time>
      </trkpt>
      <trkpt lat="43.56291" lon="2.34235">
        <ele>257</ele>
        <time>2016-10-20T13:16:09Z</time>
      </trkpt>
      <trkpt lat="43.5629" lon="2.34241">
        <ele>258</ele>
        <time>2016-10-20T13:16:14Z</time>
      </trkpt>
      <trkpt lat="43.5629" lon="2.34244">
        <ele>258</ele>
        <time>2016-10-20T13:16:16Z</time>
      </trkpt>
      <trkpt lat="43.56289" lon="2.34247">
        <ele>258</ele>
        <time>2016-10-20T13:16:18Z</time>
      </trkpt>
      <trkpt lat="43.56288" lon="2.34249">
        <ele>259</ele>
        <time>2016-10-20T13:16:20Z</time>
      </trkpt>
      <trkpt lat="43.56288" lon="2.34252">
        <ele>259</ele>
        <time>2016-10-20T13:16:23Z</time>
      </trkpt>
      <trkpt lat="43.56288" lon="2.34256">
        <ele>259</ele>
        <time>2016-10-20T13:16:25Z</time>
      </trkpt>
      <trkpt lat="43.56287" lon="2.34259">
        <ele>259</ele>
        <time>2016-10-20T13:16:27Z</time>
      </trkpt>
      <trkpt lat="43.56287" lon="2.34262">
        <ele>260</ele>
        <time>2016-10-20T13:16:30Z</time>
      </trkpt>
      <trkpt lat="43.56287" lon="2.34265">
        <ele>260</ele>
        <time>2016-10-20T13:16:32Z</time>
      </trkpt>
      <trkpt lat="43.56285" lon="2.34269">
        <ele>261</ele>
        <time>2016-10-20T13:16:34Z</time>
      </trkpt>
      <trkpt lat="43.56285" lon="2.34271">
        <ele>261</ele>
        <time>2016-10-20T13:16:36Z</time>
      </trkpt>
      <trkpt lat="43.56284" lon="2.34274">
        <ele>261</ele>
        <time>2016-10-20T13:16:39Z</time>
      </trkpt>
      <trkpt lat="43.56283" lon="2.34277">
        <ele>261</ele>
        <time>2016-10-20T13:16:41Z</time>
      </trkpt>
      <trkpt lat="43.56283" lon="2.3428">
        <ele>262</ele>
        <time>2016-10-20T13:16:43Z</time>
      </trkpt>
      <trkpt lat="43.56282" lon="2.34282">
        <ele>262</ele>
        <time>2016-10-20T13:16:46Z</time>
      </trkpt>
      <trkpt lat="43.56281" lon="2.34285">
        <ele>262</ele>
        <time>2016-10-20T13:16:48Z</time>
      </trkpt>
      <trkpt lat="43.5628" lon="2.34287">
        <ele>262</ele>
        <time>2016-10-20T13:16:50Z</time>
      </trkpt>
      <trkpt lat="43.5628" lon="2.3429">
        <ele>263</ele>
        <time>2016-10-20T13:16:52Z</time>
      </trkpt>
      <trkpt lat="43.5628" lon="2.34292">
        <ele>263</ele>
        <time>2016-10-20T13:16:55Z</time>
      </trkpt>
      <trkpt lat="43.5628" lon="2.34294">
        <ele>263</ele>
        <time>2016-10-20T13:16:57Z</time>
      </trkpt>
      <trkpt lat="43.5628" lon="2.34297">
        <ele>263</ele>
        <time>2016-10-20T13:16:59Z</time>
      </trkpt>
      <trkpt lat="43.5628" lon="2.343">
        <ele>263</ele>
        <time>2016-10-20T13:17:02Z</time>
      </trkpt>
      <trkpt lat="43.56279" lon="2.34303">
        <ele>264</ele>
        <time>2016-10-20T13:17:04Z</time>
      </trkpt>
      <trkpt lat="43.56278" lon="2.34305">
        <ele>264</ele>
        <time>2016-10-20T13:17:06Z</time>
      </trkpt>
      <trkpt lat="43.56278" lon="2.34307">
        <ele>264</ele>
        <time>2016-10-20T13:17:09Z</time>
      </trkpt>
      <trkpt lat="43.56277" lon="2.34308">
        <ele>264</ele>
        <time>2016-10-20T13:17:11Z</time>
      </trkpt>
      <trkpt lat="43.56275" lon="2.34312">
        <ele>264</ele>
        <time>2016-10-20T13:17:13Z</time>
      </trkpt>
      <trkpt lat="43.56275" lon="2.34314">
        <ele>264</ele>
        <time>2016-10-20T13:17:15Z</time>
      </trkpt>
      <trkpt lat="43.56274" lon="2.34316">
        <ele>265</ele>
        <time>2016-10-20T13:17:18Z</time>
      </trkpt>
      <trkpt lat="43.56274" lon="2.3432">
        <ele>265</ele>
        <time>2016-10-20T13:17:20Z</time>
      </trkpt>
      <trkpt lat="43.56274" lon="2.34322">
        <ele>265</ele>
        <time>2016-10-20T13:17:22Z</time>
      </trkpt>
      <trkpt lat="43.56274" lon="2.34325">
        <ele>265</ele>
        <time>2016-10-20T13:17:25Z</time>
      </trkpt>
      <trkpt lat="43.56274" lon="2.34328">
        <ele>265</ele>
        <time>2016-10-20T13:17:27Z</time>
      </trkpt>
      <trkpt lat="43.56274" lon="2.34332">
        <ele>266</ele>
        <time>2016-10-20T13:17:29Z</time>
      </trkpt>
      <trkpt lat="43.56274" lon="2.34334">
        <ele>266</ele>
        <time>2016-10-20T13:17:31Z</time>
      </trkpt>
      <trkpt lat="43.56273" lon="2.34339">
        <ele>266</ele>
        <time>2016-10-20T13:17:36Z</time>
      </trkpt>
      <trkpt lat="43.56273" lon="2.34341">
        <ele>266</ele>
        <time>2016-10-20T13:17:38Z</time>
      </trkpt>
      <trkpt lat="43.56273" lon="2.34343">
        <ele>267</ele>
        <time>2016-10-20T13:17:41Z</time>
      </trkpt>
      <trkpt lat="43.56273" lon="2.34346">
        <ele>267</ele>
        <time>2016-10-20T13:17:43Z</time>
      </trkpt>
      <trkpt lat="43.56272" lon="2.34348">
        <ele>267</ele>
        <time>2016-10-20T13:17:45Z</time>
      </trkpt>
      <trkpt lat="43.56272" lon="2.3435">
        <ele>267</ele>
        <time>2016-10-20T13:17:47Z</time>
      </trkpt>
      <trkpt lat="43.56272" lon="2.34352">
        <ele>267</ele>
        <time>2016-10-20T13:17:50Z</time>
      </trkpt>
      <trkpt lat="43.56272" lon="2.34354">
        <ele>267</ele>
        <time>2016-10-20T13:17:52Z</time>
      </trkpt>
      <trkpt lat="43.56272" lon="2.34355">
        <ele>267</ele>
        <time>2016-10-20T13:17:54Z</time>
      </trkpt>
      <trkpt lat="43.56272" lon="2.34356">
        <ele>267</ele>
        <time>2016-10-20T13:17:57Z</time>
      </trkpt>
      <trkpt lat="43.56272" lon="2.34357">
        <ele>268</ele>
        <time>2016-10-20T13:17:59Z</time>
      </trkpt>
      <trkpt lat="43.56272" lon="2.34358">
        <ele>268</ele>
        <time>2016-10-20T13:18:01Z</time>
      </trkpt>
      <trkpt lat="43.56272" lon="2.34359">
        <ele>268</ele>
        <time>2016-10-20T13:18:03Z</time>
      </trkpt>
      <trkpt lat="43.56273" lon="2.3436">
        <ele>268</ele>
        <time>2016-10-20T13:18:06Z</time>
      </trkpt>
      <trkpt lat="43.56273" lon="2.34361">
        <ele>268</ele>
        <time>2016-10-20T13:18:08Z</time>
      </trkpt>
      <trkpt lat="43.56274" lon="2.34361">
        <ele>268</ele>
        <time>2016-10-20T13:18:10Z</time>
      </trkpt>
      <trkpt lat="43.56275" lon="2.34361">
        <ele>268</ele>
        <time>2016-10-20T13:18:13Z</time>
      </trkpt>
      <trkpt lat="43.56275" lon="2.34361">
        <ele>268</ele>
        <time>2016-10-20T13:18:15Z</time>
      </trkpt>
      <trkpt lat="43.56276" lon="2.34361">
        <ele>268</ele>
        <time>2016-10-20T13:18:17Z</time>
      </trkpt>
      <trkpt lat="43.56276" lon="2.34362">
        <ele>268</ele>
        <time>2016-10-20T13:18:19Z</time>
      </trkpt>
      <trkpt lat="43.56276" lon="2.34362">
        <ele>268</ele>
        <time>2016-10-20T13:18:22Z</time>
      </trkpt>
      <trkpt lat="43.56276" lon="2.34363">
        <ele>268</ele>
        <time>2016-10-20T13:18:24Z</time>
      </trkpt>
      <trkpt lat="43.56276" lon="2.34364">
        <ele>268</ele>
        <time>2016-10-20T13:18:26Z</time>
      </trkpt>
      <trkpt lat="43.56275" lon="2.34365">
        <ele>268</ele>
        <time>2016-10-20T13:18:29Z</time>
      </trkpt>
      <trkpt lat="43.56275" lon="2.34365">
        <ele>268</ele>
        <time>2016-10-20T13:18:31Z</time>
      </trkpt>
      <trkpt lat="43.56276" lon="2.34366">
        <ele>268</ele>
        <time>2016-10-20T13:18:33Z</time>
      </trkpt>
      <trkpt lat="43.56276" lon="2.34367">
        <ele>268</ele>
        <time>2016-10-20T13:18:35Z</time>
      </trkpt>
      <trkpt lat="43.56276" lon="2.34367">
        <ele>268</ele>
        <time>2016-10-20T13:18:38Z</time>
      </trkpt>
      <trkpt lat="43.56277" lon="2.34366">
        <ele>268</ele>
        <time>2016-10-20T13:18:40Z</time>
      </trkpt>
      <trkpt lat="43.56276" lon="2.34366">
        <ele>268</ele>
        <time>2016-10-20T13:18:42Z</time>
      </trkpt>
      <trkpt lat="43.56276" lon="2.34366">
        <ele>268</ele>
        <time>2016-10-20T13:18:45Z</time>
      </trkpt>
      <trkpt lat="43.56276" lon="2.34366">
        <ele>268</ele>
        <time>2016-10-20T13:18:47Z</time>
      </trkpt>
      <trkpt lat="43.56276" lon="2.34366">
        <ele>268</ele>
        <time>2016-10-20T13:18:49Z</time>
      </trkpt>
      <trkpt lat="43.56276" lon="2.34367">
        <ele>268</ele>
        <time>2016-10-20T13:18:51Z</time>
      </trkpt>
      <trkpt lat="43.56276" lon="2.34367">
        <ele>268</ele>
        <time>2016-10-20T13:18:54Z</time>
      </trkpt>
      <trkpt lat="43.56276" lon="2.34369">
        <ele>268</ele>
        <time>2016-10-20T13:18:58Z</time>
      </trkpt>
      <trkpt lat="43.56276" lon="2.3437">
        <ele>268</ele>
        <time>2016-10-20T13:19:01Z</time>
      </trkpt>
      <trkpt lat="43.56276" lon="2.34372">
        <ele>269</ele>
        <time>2016-10-20T13:19:03Z</time>
      </trkpt>
      <trkpt lat="43.56276" lon="2.34374">
        <ele>269</ele>
        <time>2016-10-20T13:19:05Z</time>
      </trkpt>
      <trkpt lat="43.56276" lon="2.34375">
        <ele>269</ele>
        <time>2016-10-20T13:19:08Z</time>
      </trkpt>
      <trkpt lat="43.56276" lon="2.34376">
        <ele>269</ele>
        <time>2016-10-20T13:19:10Z</time>
      </trkpt>
      <trkpt lat="43.56276" lon="2.34378">
        <ele>269</ele>
        <time>2016-10-20T13:19:12Z</time>
      </trkpt>
      <trkpt lat="43.56276" lon="2.3438">
        <ele>269</ele>
        <time>2016-10-20T13:19:15Z</time>
      </trkpt>
      <trkpt lat="43.56276" lon="2.34382">
        <ele>269</ele>
        <time>2016-10-20T13:19:17Z</time>
      </trkpt>
      <trkpt lat="43.56276" lon="2.34386">
        <ele>270</ele>
        <time>2016-10-20T13:19:19Z</time>
      </trkpt>
      <trkpt lat="43.56276" lon="2.34389">
        <ele>270</ele>
        <time>2016-10-20T13:19:21Z</time>
      </trkpt>
      <trkpt lat="43.56276" lon="2.34391">
        <ele>270</ele>
        <time>2016-10-20T13:19:24Z</time>
      </trkpt>
      <trkpt lat="43.56276" lon="2.34396">
        <ele>270</ele>
        <time>2016-10-20T13:19:26Z</time>
      </trkpt>
      <trkpt lat="43.56276" lon="2.344">
        <ele>271</ele>
        <time>2016-10-20T13:19:28Z</time>
      </trkpt>
      <trkpt lat="43.56275" lon="2.34402">
        <ele>271</ele>
        <time>2016-10-20T13:19:31Z</time>
      </trkpt>
      <trkpt lat="43.56275" lon="2.34405">
        <ele>271</ele>
        <time>2016-10-20T13:19:33Z</time>
      </trkpt>
      <trkpt lat="43.56274" lon="2.34409">
        <ele>271</ele>
        <time>2016-10-20T13:19:35Z</time>
      </trkpt>
      <trkpt lat="43.56274" lon="2.34412">
        <ele>271</ele>
        <time>2016-10-20T13:19:37Z</time>
      </trkpt>
      <trkpt lat="43.56273" lon="2.34415">
        <ele>272</ele>
        <time>2016-10-20T13:19:40Z</time>
      </trkpt>
      <trkpt lat="43.56273" lon="2.34419">
        <ele>272</ele>
        <time>2016-10-20T13:19:42Z</time>
      </trkpt>
      <trkpt lat="43.56272" lon="2.34423">
        <ele>272</ele>
        <time>2016-10-20T13:19:44Z</time>
      </trkpt>
      <trkpt lat="43.56271" lon="2.34426">
        <ele>272</ele>
        <time>2016-10-20T13:19:47Z</time>
      </trkpt>
      <trkpt lat="43.56271" lon="2.34429">
        <ele>273</ele>
        <time>2016-10-20T13:19:49Z</time>
      </trkpt>
      <trkpt lat="43.5627" lon="2.34432">
        <ele>273</ele>
        <time>2016-10-20T13:19:51Z</time>
      </trkpt>
      <trkpt lat="43.5627" lon="2.34435">
        <ele>273</ele>
        <time>2016-10-20T13:19:53Z</time>
      </trkpt>
      <trkpt lat="43.5627" lon="2.34438">
        <ele>273</ele>
        <time>2016-10-20T13:19:56Z</time>
      </trkpt>
      <trkpt lat="43.5627" lon="2.34442">
        <ele>273</ele>
        <time>2016-10-20T13:19:58Z</time>
      </trkpt>
      <trkpt lat="43.56271" lon="2.34445">
        <ele>273</ele>
        <time>2016-10-20T13:20:00Z</time>
      </trkpt>
      <trkpt lat="43.56271" lon="2.34448">
        <ele>274</ele>
        <time>2016-10-20T13:20:03Z</time>
      </trkpt>
      <trkpt lat="43.56271" lon="2.34452">
        <ele>274</ele>
        <time>2016-10-20T13:20:05Z</time>
      </trkpt>
      <trkpt lat="43.56271" lon="2.34456">
        <ele>274</ele>
        <time>2016-10-20T13:20:07Z</time>
      </trkpt>
      <trkpt lat="43.5627" lon="2.3446">
        <ele>274</ele>
        <time>2016-10-20T13:20:09Z</time>
      </trkpt>
      <trkpt lat="43.56269" lon="2.34464">
        <ele>275</ele>
        <time>2016-10-20T13:20:12Z</time>
      </trkpt>
      <trkpt lat="43.56268" lon="2.34469">
        <ele>275</ele>
        <time>2016-10-20T13:20:14Z</time>
      </trkpt>
      <trkpt lat="43.56267" lon="2.34472">
        <ele>275</ele>
        <time>2016-10-20T13:20:16Z</time>
      </trkpt>
      <trkpt lat="43.56267" lon="2.34475">
        <ele>275</ele>
        <time>2016-10-20T13:20:19Z</time>
      </trkpt>
      <trkpt lat="43.56266" lon="2.34482">
        <ele>276</ele>
        <time>2016-10-20T13:20:23Z</time>
      </trkpt>
      <trkpt lat="43.56266" lon="2.34484">
        <ele>276</ele>
        <time>2016-10-20T13:20:26Z</time>
      </trkpt>
      <trkpt lat="43.56266" lon="2.34486">
        <ele>276</ele>
        <time>2016-10-20T13:20:28Z</time>
      </trkpt>
      <trkpt lat="43.56266" lon="2.3449">
        <ele>276</ele>
        <time>2016-10-20T13:20:30Z</time>
      </trkpt>
      <trkpt lat="43.56266" lon="2.34492">
        <ele>276</ele>
        <time>2016-10-20T13:20:32Z</time>
      </trkpt>
      <trkpt lat="43.56265" lon="2.34495">
        <ele>277</ele>
        <time>2016-10-20T13:20:35Z</time>
      </trkpt>
      <trkpt lat="43.56265" lon="2.34498">
        <ele>277</ele>
        <time>2016-10-20T13:20:37Z</time>
      </trkpt>
      <trkpt lat="43.56265" lon="2.345">
        <ele>277</ele>
        <time>2016-10-20T13:20:39Z</time>
      </trkpt>
      <trkpt lat="43.56266" lon="2.34504">
        <ele>277</ele>
        <time>2016-10-20T13:20:42Z</time>
      </trkpt>
      <trkpt lat="43.56266" lon="2.34507">
        <ele>277</ele>
        <time>2016-10-20T13:20:44Z</time>
      </trkpt>
      <trkpt lat="43.56266" lon="2.34512">
        <ele>277</ele>
        <time>2016-10-20T13:20:46Z</time>
      </trkpt>
      <trkpt lat="43.56265" lon="2.34515">
        <ele>277</ele>
        <time>2016-10-20T13:20:48Z</time>
      </trkpt>
      <trkpt lat="43.56265" lon="2.34519">
        <ele>278</ele>
        <time>2016-10-20T13:20:51Z</time>
      </trkpt>
      <trkpt lat="43.56266" lon="2.34524">
        <ele>278</ele>
        <time>2016-10-20T13:20:53Z</time>
      </trkpt>
      <trkpt lat="43.56266" lon="2.34527">
        <ele>278</ele>
        <time>2016-10-20T13:20:55Z</time>
      </trkpt>
      <trkpt lat="43.56266" lon="2.34531">
        <ele>278</ele>
        <time>2016-10-20T13:20:58Z</time>
      </trkpt>
      <trkpt lat="43.56267" lon="2.34535">
        <ele>278</ele>
        <time>2016-10-20T13:21:00Z</time>
      </trkpt>
      <trkpt lat="43.56267" lon="2.3454">
        <ele>278</ele>
        <time>2016-10-20T13:21:02Z</time>
      </trkpt>
      <trkpt lat="43.56266" lon="2.34543">
        <ele>279</ele>
        <time>2016-10-20T13:21:04Z</time>
      </trkpt>
      <trkpt lat="43.56266" lon="2.34546">
        <ele>279</ele>
        <time>2016-10-20T13:21:07Z</time>
      </trkpt>
      <trkpt lat="43.56265" lon="2.34549">
        <ele>279</ele>
        <time>2016-10-20T13:21:09Z</time>
      </trkpt>
      <trkpt lat="43.56265" lon="2.34551">
        <ele>279</ele>
        <time>2016-10-20T13:21:11Z</time>
      </trkpt>
      <trkpt lat="43.56264" lon="2.34552">
        <ele>279</ele>
        <time>2016-10-20T13:21:14Z</time>
      </trkpt>
      <trkpt lat="43.56263" lon="2.34553">
        <ele>279</ele>
        <time>2016-10-20T13:21:16Z</time>
      </trkpt>
      <trkpt lat="43.56262" lon="2.34554">
        <ele>279</ele>
        <time>2016-10-20T13:21:18Z</time>
      </trkpt>
      <trkpt lat="43.56261" lon="2.34556">
        <ele>279</ele>
        <time>2016-10-20T13:21:20Z</time>
      </trkpt>
      <trkpt lat="43.5626" lon="2.34556">
        <ele>279</ele>
        <time>2016-10-20T13:21:23Z</time>
      </trkpt>
      <trkpt lat="43.56258" lon="2.34557">
        <ele>279</ele>
        <time>2016-10-20T13:21:25Z</time>
      </trkpt>
      <trkpt lat="43.56258" lon="2.34557">
        <ele>279</ele>
        <time>2016-10-20T13:21:27Z</time>
      </trkpt>
      <trkpt lat="43.56258" lon="2.34558">
        <ele>279</ele>
        <time>2016-10-20T13:21:30Z</time>
      </trkpt>
      <trkpt lat="43.56258" lon="2.34558">
        <ele>279</ele>
        <time>2016-10-20T13:21:32Z</time>
      </trkpt>
      <trkpt lat="43.56261" lon="2.34559">
        <ele>279</ele>
        <time>2016-10-20T13:21:34Z</time>
      </trkpt>
      <trkpt lat="43.5626" lon="2.34559">
        <ele>279</ele>
        <time>2016-10-20T13:21:36Z</time>
      </trkpt>
      <trkpt lat="43.5626" lon="2.34558">
        <ele>279</ele>
        <time>2016-10-20T13:21:39Z</time>
      </trkpt>
      <trkpt lat="43.56259" lon="2.34556">
        <ele>279</ele>
        <time>2016-10-20T13:21:41Z</time>
      </trkpt>
      <trkpt lat="43.56258" lon="2.34555">
        <ele>279</ele>
        <time>2016-10-20T13:21:46Z</time>
      </trkpt>
      <trkpt lat="43.56258" lon="2.34555">
        <ele>279</ele>
        <time>2016-10-20T13:21:48Z</time>
      </trkpt>
      <trkpt lat="43.56257" lon="2.34554">
        <ele>279</ele>
        <time>2016-10-20T13:21:50Z</time>
      </trkpt>
      <trkpt lat="43.56257" lon="2.34553">
        <ele>279</ele>
        <time>2016-10-20T13:21:52Z</time>
      </trkpt>
      <trkpt lat="43.56256" lon="2.34553">
        <ele>279</ele>
        <time>2016-10-20T13:21:55Z</time>
      </trkpt>
      <trkpt lat="43.56256" lon="2.34555">
        <ele>279</ele>
        <time>2016-10-20T13:21:57Z</time>
      </trkpt>
      <trkpt lat="43.56256" lon="2.34556">
        <ele>279</ele>
        <time>2016-10-20T13:21:59Z</time>
      </trkpt>
      <trkpt lat="43.56255" lon="2.34556">
        <ele>279</ele>
        <time>2016-10-20T13:22:02Z</time>
      </trkpt>
      <trkpt lat="43.56255" lon="2.34557">
        <ele>279</ele>
        <time>2016-10-20T13:22:04Z</time>
      </trkpt>
      <trkpt lat="43.56254" lon="2.34558">
        <ele>279</ele>
        <time>2016-10-20T13:22:06Z</time>
      </trkpt>
      <trkpt lat="43.56255" lon="2.34559">
        <ele>279</ele>
        <time>2016-10-20T13:22:08Z</time>
      </trkpt>
      <trkpt lat="43.56255" lon="2.34561">
        <ele>280</ele>
        <time>2016-10-20T13:22:11Z</time>
      </trkpt>
      <trkpt lat="43.56256" lon="2.34562">
        <ele>280</ele>
        <time>2016-10-20T13:22:13Z</time>
      </trkpt>
      <trkpt lat="43.56255" lon="2.34562">
        <ele>280</ele>
        <time>2016-10-20T13:22:15Z</time>
      </trkpt>
      <trkpt lat="43.56256" lon="2.34562">
        <ele>280</ele>
        <time>2016-10-20T13:22:18Z</time>
      </trkpt>
      <trkpt lat="43.56256" lon="2.34563">
        <ele>280</ele>
        <time>2016-10-20T13:22:20Z</time>
      </trkpt>
      <trkpt lat="43.56256" lon="2.34563">
        <ele>280</ele>
        <time>2016-10-20T13:22:22Z</time>
      </trkpt>
      <trkpt lat="43.56256" lon="2.34563">
        <ele>280</ele>
        <time>2016-10-20T13:22:25Z</time>
      </trkpt>
      <trkpt lat="43.56256" lon="2.34564">
        <ele>280</ele>
        <time>2016-10-20T13:22:27Z</time>
      </trkpt>
      <trkpt lat="43.56257" lon="2.34563">
        <ele>280</ele>
        <time>2016-10-20T13:22:29Z</time>
      </trkpt>
      <trkpt lat="43.56256" lon="2.34563">
        <ele>280</ele>
        <time>2016-10-20T13:22:31Z</time>
      </trkpt>
      <trkpt lat="43.56256" lon="2.34562">
        <ele>280</ele>
        <time>2016-10-20T13:22:34Z</time>
      </trkpt>
      <trkpt lat="43.56256" lon="2.34562">
        <ele>280</ele>
        <time>2016-10-20T13:22:36Z</time>
      </trkpt>
      <trkpt lat="43.56257" lon="2.34561">
        <ele>280</ele>
        <time>2016-10-20T13:22:38Z</time>
      </trkpt>
      <trkpt lat="43.56256" lon="2.34561">
        <ele>280</ele>
        <time>2016-10-20T13:22:41Z</time>
      </trkpt>
      <trkpt lat="43.56257" lon="2.34561">
        <ele>280</ele>
        <time>2016-10-20T13:22:43Z</time>
      </trkpt>
      <trkpt lat="43.56257" lon="2.3456">
        <ele>280</ele>
        <time>2016-10-20T13:22:45Z</time>
      </trkpt>
      <trkpt lat="43.56256" lon="2.3456">
        <ele>280</ele>
        <time>2016-10-20T13:22:47Z</time>
      </trkpt>
      <trkpt lat="43.56257" lon="2.3456">
        <ele>280</ele>
        <time>2016-10-20T13:22:50Z</time>
      </trkpt>
      <trkpt lat="43.56258" lon="2.3456">
        <ele>280</ele>
        <time>2016-10-20T13:22:52Z</time>
      </trkpt>
      <trkpt lat="43.56258" lon="2.34562">
        <ele>280</ele>
        <time>2016-10-20T13:22:54Z</time>
      </trkpt>
      <trkpt lat="43.56257" lon="2.34563">
        <ele>280</ele>
        <time>2016-10-20T13:22:57Z</time>
      </trkpt>
      <trkpt lat="43.56258" lon="2.34563">
        <ele>280</ele>
        <time>2016-10-20T13:22:59Z</time>
      </trkpt>
      <trkpt lat="43.56258" lon="2.34564">
        <ele>280</ele>
        <time>2016-10-20T13:23:01Z</time>
      </trkpt>
      <trkpt lat="43.56258" lon="2.34563">
        <ele>280</ele>
        <time>2016-10-20T13:23:03Z</time>
      </trkpt>
      <trkpt lat="43.56256" lon="2.34565">
        <ele>280</ele>
        <time>2016-10-20T13:23:08Z</time>
      </trkpt>
      <trkpt lat="43.56256" lon="2.34566">
        <ele>280</ele>
        <time>2016-10-20T13:23:10Z</time>
      </trkpt>
      <trkpt lat="43.56256" lon="2.34566">
        <ele>280</ele>
        <time>2016-10-20T13:23:13Z</time>
      </trkpt>
      <trkpt lat="43.56256" lon="2.34566">
        <ele>280</ele>
        <time>2016-10-20T13:23:15Z</time>
      </trkpt>
      <trkpt lat="43.56256" lon="2.34566">
        <ele>280</ele>
        <time>2016-10-20T13:23:17Z</time>
      </trkpt>
      <trkpt lat="43.56256" lon="2.34567">
        <ele>280</ele>
        <time>2016-10-20T13:23:19Z</time>
      </trkpt>
      <trkpt lat="43.56256" lon="2.34569">
        <ele>280</ele>
        <time>2016-10-20T13:23:22Z</time>
      </trkpt>
      <trkpt lat="43.56255" lon="2.34572">
        <ele>280</ele>
        <time>2016-10-20T13:23:24Z</time>
      </trkpt>
      <trkpt lat="43.56255" lon="2.34573">
        <ele>280</ele>
        <time>2016-10-20T13:23:26Z</time>
      </trkpt>
      <trkpt lat="43.56256" lon="2.34574">
        <ele>280</ele>
        <time>2016-10-20T13:23:29Z</time>
      </trkpt>
      <trkpt lat="43.56256" lon="2.34577">
        <ele>281</ele>
        <time>2016-10-20T13:23:31Z</time>
      </trkpt>
      <trkpt lat="43.56257" lon="2.34578">
        <ele>281</ele>
        <time>2016-10-20T13:23:33Z</time>
      </trkpt>
      <trkpt lat="43.56257" lon="2.3458">
        <ele>281</ele>
        <time>2016-10-20T13:23:36Z</time>
      </trkpt>
      <trkpt lat="43.56258" lon="2.34583">
        <ele>281</ele>
        <time>2016-10-20T13:23:38Z</time>
      </trkpt>
      <trkpt lat="43.56258" lon="2.34586">
        <ele>281</ele>
        <time>2016-10-20T13:23:40Z</time>
      </trkpt>
      <trkpt lat="43.56258" lon="2.34587">
        <ele>281</ele>
        <time>2016-10-20T13:23:42Z</time>
      </trkpt>
      <trkpt lat="43.56259" lon="2.34589">
        <ele>281</ele>
        <time>2016-10-20T13:23:45Z</time>
      </trkpt>
      <trkpt lat="43.56259" lon="2.34591">
        <ele>281</ele>
        <time>2016-10-20T13:23:47Z</time>
      </trkpt>
      <trkpt lat="43.5626" lon="2.34594">
        <ele>282</ele>
        <time>2016-10-20T13:23:49Z</time>
      </trkpt>
      <trkpt lat="43.5626" lon="2.34596">
        <ele>282</ele>
        <time>2016-10-20T13:23:52Z</time>
      </trkpt>
      <trkpt lat="43.56259" lon="2.34599">
        <ele>282</ele>
        <time>2016-10-20T13:23:54Z</time>
      </trkpt>
      <trkpt lat="43.56259" lon="2.34603">
        <ele>282</ele>
        <time>2016-10-20T13:23:56Z</time>
      </trkpt>
      <trkpt lat="43.56259" lon="2.34606">
        <ele>282</ele>
        <time>2016-10-20T13:23:58Z</time>
      </trkpt>
      <trkpt lat="43.56258" lon="2.34609">
        <ele>283</ele>
        <time>2016-10-20T13:24:01Z</time>
      </trkpt>
      <trkpt lat="43.56257" lon="2.34614">
        <ele>283</ele>
        <time>2016-10-20T13:24:03Z</time>
      </trkpt>
      <trkpt lat="43.56257" lon="2.34617">
        <ele>283</ele>
        <time>2016-10-20T13:24:05Z</time>
      </trkpt>
      <trkpt lat="43.56257" lon="2.34619">
        <ele>283</ele>
        <time>2016-10-20T13:24:08Z</time>
      </trkpt>
      <trkpt lat="43.56257" lon="2.34622">
        <ele>283</ele>
        <time>2016-10-20T13:24:10Z</time>
      </trkpt>
      <trkpt lat="43.56258" lon="2.34627">
        <ele>284</ele>
        <time>2016-10-20T13:24:12Z</time>
      </trkpt>
      <trkpt lat="43.56259" lon="2.3463">
        <ele>284</ele>
        <time>2016-10-20T13:24:14Z</time>
      </trkpt>
      <trkpt lat="43.5626" lon="2.34633">
        <ele>284</ele>
        <time>2016-10-20T13:24:17Z</time>
      </trkpt>
      <trkpt lat="43.5626" lon="2.34638">
        <ele>284</ele>
        <time>2016-10-20T13:24:19Z</time>
      </trkpt>
      <trkpt lat="43.5626" lon="2.34641">
        <ele>285</ele>
        <time>2016-10-20T13:24:21Z</time>
      </trkpt>
      <trkpt lat="43.56259" lon="2.34644">
        <ele>285</ele>
        <time>2016-10-20T13:24:24Z</time>
      </trkpt>
      <trkpt lat="43.5626" lon="2.34647">
        <ele>285</ele>
        <time>2016-10-20T13:24:26Z</time>
      </trkpt>
      <trkpt lat="43.56258" lon="2.34657">
        <ele>286</ele>
        <time>2016-10-20T13:24:30Z</time>
      </trkpt>
      <trkpt lat="43.56258" lon="2.3466">
        <ele>286</ele>
        <time>2016-10-20T13:24:33Z</time>
      </trkpt>
      <trkpt lat="43.56258" lon="2.34665">
        <ele>286</ele>
        <time>2016-10-20T13:24:35Z</time>
      </trkpt>
      <trkpt lat="43.56258" lon="2.34668">
        <ele>286</ele>
        <time>2016-10-20T13:24:37Z</time>
      </trkpt>
      <trkpt lat="43.56258" lon="2.34672">
        <ele>287</ele>
        <time>2016-10-20T13:24:40Z</time>
      </trkpt>
      <trkpt lat="43.56258" lon="2.34676">
        <ele>287</ele>
        <time>2016-10-20T13:24:42Z</time>
      </trkpt>
      <trkpt lat="43.56258" lon="2.34679">
        <ele>287</ele>
        <time>2016-10-20T13:24:44Z</time>
      </trkpt>
      <trkpt lat="43.56257" lon="2.34681">
        <ele>287</ele>
        <time>2016-10-20T13:24:46Z</time>
      </trkpt>
      <trkpt lat="43.56257" lon="2.34683">
        <ele>287</ele>
        <time>2016-10-20T13:24:49Z</time>
      </trkpt>
      <trkpt lat="43.56257" lon="2.34687">
        <ele>288</ele>
        <time>2016-10-20T13:24:51Z</time>
      </trkpt>
      <trkpt lat="43.56258" lon="2.3469">
        <ele>288</ele>
        <time>2016-10-20T13:24:53Z</time>
      </trkpt>
      <trkpt lat="43.56258" lon="2.34694">
        <ele>288</ele>
        <time>2016-10-20T13:24:56Z</time>
      </trkpt>
      <trkpt lat="43.56258" lon="2.34699">
        <ele>288</ele>
        <time>2016-10-20T13:24:58Z</time>
      </trkpt>
      <trkpt lat="43.56258" lon="2.34701">
        <ele>288</ele>
        <time>2016-10-20T13:25:00Z</time>
      </trkpt>
      <trkpt lat="43.56258" lon="2.34703">
        <ele>289</ele>
        <time>2016-10-20T13:25:02Z</time>
      </trkpt>
      <trkpt lat="43.56258" lon="2.34705">
        <ele>289</ele>
        <time>2016-10-20T13:25:05Z</time>
      </trkpt>
      <trkpt lat="43.56257" lon="2.34709">
        <ele>289</ele>
        <time>2016-10-20T13:25:07Z</time>
      </trkpt>
      <trkpt lat="43.56256" lon="2.34713">
        <ele>289</ele>
        <time>2016-10-20T13:25:09Z</time>
      </trkpt>
      <trkpt lat="43.56256" lon="2.34716">
        <ele>289</ele>
        <time>2016-10-20T13:25:12Z</time>
      </trkpt>
      <trkpt lat="43.56255" lon="2.34722">
        <ele>289</ele>
        <time>2016-10-20T13:25:14Z</time>
      </trkpt>
      <trkpt lat="43.56255" lon="2.34725">
        <ele>290</ele>
        <time>2016-10-20T13:25:16Z</time>
      </trkpt>
      <trkpt lat="43.56255" lon="2.34728">
        <ele>290</ele>
        <time>2016-10-20T13:25:19Z</time>
      </trkpt>
      <trkpt lat="43.56255" lon="2.34732">
        <ele>290</ele>
        <time>2016-10-20T13:25:21Z</time>
      </trkpt>
      <trkpt lat="43.56254" lon="2.34736">
        <ele>290</ele>
        <time>2016-10-20T13:25:23Z</time>
      </trkpt>
      <trkpt lat="43.56254" lon="2.34738">
        <ele>290</ele>
        <time>2016-10-20T13:25:25Z</time>
      </trkpt>
      <trkpt lat="43.56254" lon="2.34741">
        <ele>290</ele>
        <time>2016-10-20T13:25:28Z</time>
      </trkpt>
      <trkpt lat="43.56253" lon="2.34746">
        <ele>291</ele>
        <time>2016-10-20T13:25:30Z</time>
      </trkpt>
      <trkpt lat="43.56252" lon="2.34748">
        <ele>291</ele>
        <time>2016-10-20T13:25:32Z</time>
      </trkpt>
      <trkpt lat="43.56251" lon="2.3475">
        <ele>291</ele>
        <time>2016-10-20T13:25:34Z</time>
      </trkpt>
      <trkpt lat="43.56251" lon="2.34753">
        <ele>291</ele>
        <time>2016-10-20T13:25:37Z</time>
      </trkpt>
      <trkpt lat="43.56251" lon="2.34757">
        <ele>291</ele>
        <time>2016-10-20T13:25:39Z</time>
      </trkpt>
      <trkpt lat="43.56251" lon="2.3476">
        <ele>291</ele>
        <time>2016-10-20T13:25:41Z</time>
      </trkpt>
      <trkpt lat="43.5625" lon="2.34761">
        <ele>291</ele>
        <time>2016-10-20T13:25:44Z</time>
      </trkpt>
      <trkpt lat="43.56249" lon="2.34765">
        <ele>292</ele>
        <time>2016-10-20T13:25:46Z</time>
      </trkpt>
      <trkpt lat="43.56248" lon="2.34767">
        <ele>292</ele>
        <time>2016-10-20T13:25:48Z</time>
      </trkpt>
      <trkpt lat="43.56246" lon="2.34773">
        <ele>292</ele>
        <time>2016-10-20T13:25:53Z</time>
      </trkpt>
      <trkpt lat="43.56247" lon="2.34779">
        <ele>292</ele>
        <time>2016-10-20T13:25:55Z</time>
      </trkpt>
      <trkpt lat="43.56246" lon="2.34782">
        <ele>292</ele>
        <time>2016-10-20T13:25:57Z</time>
      </trkpt>
      <trkpt lat="43.56245" lon="2.34785">
        <ele>292</ele>
        <time>2016-10-20T13:26:00Z</time>
      </trkpt>
      <trkpt lat="43.56245" lon="2.34789">
        <ele>293</ele>
        <time>2016-10-20T13:26:02Z</time>
      </trkpt>
      <trkpt lat="43.56245" lon="2.34792">
        <ele>293</ele>
        <time>2016-10-20T13:26:04Z</time>
      </trkpt>
      <trkpt lat="43.56244" lon="2.34795">
        <ele>293</ele>
        <time>2016-10-20T13:26:07Z</time>
      </trkpt>
      <trkpt lat="43.56244" lon="2.34798">
        <ele>293</ele>
        <time>2016-10-20T13:26:09Z</time>
      </trkpt>
      <trkpt lat="43.56244" lon="2.34802">
        <ele>293</ele>
        <time>2016-10-20T13:26:11Z</time>
      </trkpt>
      <trkpt lat="43.56244" lon="2.34805">
        <ele>293</ele>
        <time>2016-10-20T13:26:13Z</time>
      </trkpt>
      <trkpt lat="43.56244" lon="2.34808">
        <ele>293</ele>
        <time>2016-10-20T13:26:16Z</time>
      </trkpt>
      <trkpt lat="43.56245" lon="2.34812">
        <ele>294</ele>
        <time>2016-10-20T13:26:18Z</time>
      </trkpt>
      <trkpt lat="43.56246" lon="2.34815">
        <ele>294</ele>
        <time>2016-10-20T13:26:20Z</time>
      </trkpt>
      <trkpt lat="43.56246" lon="2.34817">
        <ele>294</ele>
        <time>2016-10-20T13:26:23Z</time>
      </trkpt>
      <trkpt lat="43.56246" lon="2.3482">
        <ele>294</ele>
        <time>2016-10-20T13:26:25Z</time>
      </trkpt>
      <trkpt lat="43.56247" lon="2.34824">
        <ele>294</ele>
        <time>2016-10-20T13:26:27Z</time>
      </trkpt>
      <trkpt lat="43.56247" lon="2.34827">
        <ele>294</ele>
        <time>2016-10-20T13:26:29Z</time>
      </trkpt>
      <trkpt lat="43.56247" lon="2.34829">
        <ele>294</ele>
        <time>2016-10-20T13:26:32Z</time>
      </trkpt>
      <trkpt lat="43.56247" lon="2.34833">
        <ele>295</ele>
        <time>2016-10-20T13:26:34Z</time>
      </trkpt>
      <trkpt lat="43.56247" lon="2.34836">
        <ele>295</ele>
        <time>2016-10-20T13:26:36Z</time>
      </trkpt>
      <trkpt lat="43.56246" lon="2.34839">
        <ele>295</ele>
        <time>2016-10-20T13:26:38Z</time>
      </trkpt>
      <trkpt lat="43.56245" lon="2.34842">
        <ele>295</ele>
        <time>2016-10-20T13:26:41Z</time>
      </trkpt>
      <trkpt lat="43.56245" lon="2.34846">
        <ele>295</ele>
        <time>2016-10-20T13:26:43Z</time>
      </trkpt>
      <trkpt lat="43.56245" lon="2.34849">
        <ele>295</ele>
        <time>2016-10-20T13:26:45Z</time>
      </trkpt>
      <trkpt lat="43.56245" lon="2.34852">
        <ele>295</ele>
        <time>2016-10-20T13:26:48Z</time>
      </trkpt>
      <trkpt lat="43.56244" lon="2.34855">
        <ele>296</ele>
        <time>2016-10-20T13:26:50Z</time>
      </trkpt>
      <trkpt lat="43.56244" lon="2.3486">
        <ele>296</ele>
        <time>2016-10-20T13:26:52Z</time>
      </trkpt>
      <trkpt lat="43.56244" lon="2.34863">
        <ele>296</ele>
        <time>2016-10-20T13:26:55Z</time>
      </trkpt>
      <trkpt lat="43.56243" lon="2.34866">
        <ele>296</ele>
        <time>2016-10-20T13:26:57Z</time>
      </trkpt>
      <trkpt lat="43.56244" lon="2.34871">
        <ele>296</ele>
        <time>2016-10-20T13:26:59Z</time>
      </trkpt>
      <trkpt lat="43.56243" lon="2.34873">
        <ele>296</ele>
        <time>2016-10-20T13:27:01Z</time>
      </trkpt>
      <trkpt lat="43.56243" lon="2.34876">
        <ele>297</ele>
        <time>2016-10-20T13:27:04Z</time>
      </trkpt>
      <trkpt lat="43.56243" lon="2.34881">
        <ele>297</ele>
        <time>2016-10-20T13:27:06Z</time>
      </trkpt>
      <trkpt lat="43.56243" lon="2.34884">
        <ele>297</ele>
        <time>2016-10-20T13:27:08Z</time>
      </trkpt>
      <trkpt lat="43.56243" lon="2.34887">
        <ele>297</ele>
        <time>2016-10-20T13:27:11Z</time>
      </trkpt>
      <trkpt lat="43.56243" lon="2.34894">
        <ele>297</ele>
        <time>2016-10-20T13:27:15Z</time>
      </trkpt>
      <trkpt lat="43.56242" lon="2.34897">
        <ele>297</ele>
        <time>2016-10-20T13:27:17Z</time>
      </trkpt>
      <trkpt lat="43.56242" lon="2.34899">
        <ele>298</ele>
        <time>2016-10-20T13:27:20Z</time>
      </trkpt>
      <trkpt lat="43.56242" lon="2.34903">
        <ele>298</ele>
        <time>2016-10-20T13:27:22Z</time>
      </trkpt>
      <trkpt lat="43.56242" lon="2.34906">
        <ele>298</ele>
        <time>2016-10-20T13:27:24Z</time>
      </trkpt>
      <trkpt lat="43.56242" lon="2.34909">
        <ele>298</ele>
        <time>2016-10-20T13:27:27Z</time>
      </trkpt>
      <trkpt lat="43.56242" lon="2.34912">
        <ele>298</ele>
        <time>2016-10-20T13:27:29Z</time>
      </trkpt>
      <trkpt lat="43.56242" lon="2.34916">
        <ele>299</ele>
        <time>2016-10-20T13:27:31Z</time>
      </trkpt>
      <trkpt lat="43.56242" lon="2.34919">
        <ele>299</ele>
        <time>2016-10-20T13:27:33Z</time>
      </trkpt>
      <trkpt lat="43.56242" lon="2.34922">
        <ele>299</ele>
        <time>2016-10-20T13:27:36Z</time>
      </trkpt>
      <trkpt lat="43.56242" lon="2.34926">
        <ele>299</ele>
        <time>2016-10-20T13:27:38Z</time>
      </trkpt>
      <trkpt lat="43.56241" lon="2.34928">
        <ele>300</ele>
        <time>2016-10-20T13:27:40Z</time>
      </trkpt>
      <trkpt lat="43.56241" lon="2.34931">
        <ele>300</ele>
        <time>2016-10-20T13:27:43Z</time>
      </trkpt>
      <trkpt lat="43.56241" lon="2.34933">
        <ele>300</ele>
        <time>2016-10-20T13:27:45Z</time>
      </trkpt>
      <trkpt lat="43.56241" lon="2.34937">
        <ele>300</ele>
        <time>2016-10-20T13:27:47Z</time>
      </trkpt>
      <trkpt lat="43.5624" lon="2.34938">
        <ele>300</ele>
        <time>2016-10-20T13:27:49Z</time>
      </trkpt>
      <trkpt lat="43.5624" lon="2.3494">
        <ele>300</ele>
        <time>2016-10-20T13:27:52Z</time>
      </trkpt>
      <trkpt lat="43.56239" lon="2.34942">
        <ele>301</ele>
        <time>2016-10-20T13:27:54Z</time>
      </trkpt>
      <trkpt lat="43.56238" lon="2.34943">
        <ele>301</ele>
        <time>2016-10-20T13:27:56Z</time>
      </trkpt>
      <trkpt lat="43.56238" lon="2.34944">
        <ele>301</ele>
        <time>2016-10-20T13:27:59Z</time>
      </trkpt>
      <trkpt lat="43.56238" lon="2.34944">
        <ele>301</ele>
        <time>2016-10-20T13:28:01Z</time>
      </trkpt>
      <trkpt lat="43.56238" lon="2.34945">
        <ele>301</ele>
        <time>2016-10-20T13:28:03Z</time>
      </trkpt>
      <trkpt lat="43.56238" lon="2.34946">
        <ele>301</ele>
        <time>2016-10-20T13:28:05Z</time>
      </trkpt>
      <trkpt lat="43.56238" lon="2.34946">
        <ele>301</ele>
        <time>2016-10-20T13:28:08Z</time>
      </trkpt>
      <trkpt lat="43.56237" lon="2.34947">
        <ele>301</ele>
        <time>2016-10-20T13:28:10Z</time>
      </trkpt>
      <trkpt lat="43.56237" lon="2.34948">
        <ele>301</ele>
        <time>2016-10-20T13:28:12Z</time>
      </trkpt>
      <trkpt lat="43.56237" lon="2.34948">
        <ele>301</ele>
        <time>2016-10-20T13:28:15Z</time>
      </trkpt>
      <trkpt lat="43.56236" lon="2.34949">
        <ele>301</ele>
        <time>2016-10-20T13:28:17Z</time>
      </trkpt>
      <trkpt lat="43.56236" lon="2.34949">
        <ele>301</ele>
        <time>2016-10-20T13:28:19Z</time>
      </trkpt>
      <trkpt lat="43.56235" lon="2.34948">
        <ele>301</ele>
        <time>2016-10-20T13:28:21Z</time>
      </trkpt>
      <trkpt lat="43.56234" lon="2.34948">
        <ele>301</ele>
        <time>2016-10-20T13:28:24Z</time>
      </trkpt>
      <trkpt lat="43.56235" lon="2.34949">
        <ele>301</ele>
        <time>2016-10-20T13:28:26Z</time>
      </trkpt>
      <trkpt lat="43.56234" lon="2.34949">
        <ele>301</ele>
        <time>2016-10-20T13:28:28Z</time>
      </trkpt>
      <trkpt lat="43.56234" lon="2.34949">
        <ele>301</ele>
        <time>2016-10-20T13:28:31Z</time>
      </trkpt>
      <trkpt lat="43.56234" lon="2.34949">
        <ele>301</ele>
        <time>2016-10-20T13:28:33Z</time>
      </trkpt>
      <trkpt lat="43.56233" lon="2.34952">
        <ele>301</ele>
        <time>2016-10-20T13:28:37Z</time>
      </trkpt>
      <trkpt lat="43.56233" lon="2.34954">
        <ele>302</ele>
        <time>2016-10-20T13:28:40Z</time>
      </trkpt>
      <trkpt lat="43.56234" lon="2.34955">
        <ele>302</ele>
        <time>2016-10-20T13:28:42Z</time>
      </trkpt>
      <trkpt lat="43.56235" lon="2.34956">
        <ele>302</ele>
        <time>2016-10-20T13:28:44Z</time>
      </trkpt>
      <trkpt lat="43.56235" lon="2.34959">
        <ele>302</ele>
        <time>2016-10-20T13:28:47Z</time>
      </trkpt>
      <trkpt lat="43.56235" lon="2.34961">
        <ele>302</ele>
        <time>2016-10-20T13:28:49Z</time>
      </trkpt>
      <trkpt lat="43.56234" lon="2.34966">
        <ele>302</ele>
        <time>2016-10-20T13:28:51Z</time>
      </trkpt>
      <trkpt lat="43.56233" lon="2.34968">
        <ele>303</ele>
        <time>2016-10-20T13:28:53Z</time>
      </trkpt>
      <trkpt lat="43.56233" lon="2.3497">
        <ele>303</ele>
        <time>2016-10-20T13:28:56Z</time>
      </trkpt>
      <trkpt lat="43.56232" lon="2.34974">
        <ele>303</ele>
        <time>2016-10-20T13:28:58Z</time>
      </trkpt>
      <trkpt lat="43.56232" lon="2.34978">
        <ele>303</ele>
        <time>2016-10-20T13:29:00Z</time>
      </trkpt>
      <trkpt lat="43.56231" lon="2.3498">
        <ele>304</ele>
        <time>2016-10-20T13:29:03Z</time>
      </trkpt>
      <trkpt lat="43.5623" lon="2.34982">
        <ele>304</ele>
        <time>2016-10-20T13:29:05Z</time>
      </trkpt>
      <trkpt lat="43.56228" lon="2.34986">
        <ele>304</ele>
        <time>2016-10-20T13:29:07Z</time>
      </trkpt>
      <trkpt lat="43.56227" lon="2.34989">
        <ele>304</ele>
        <time>2016-10-20T13:29:09Z</time>
      </trkpt>
      <trkpt lat="43.56226" lon="2.34991">
        <ele>305</ele>
        <time>2016-10-20T13:29:12Z</time>
      </trkpt>
      <trkpt lat="43.56224" lon="2.34995">
        <ele>305</ele>
        <time>2016-10-20T13:29:14Z</time>
      </trkpt>
      <trkpt lat="43.56223" lon="2.34997">
        <ele>305</ele>
        <time>2016-10-20T13:29:16Z</time>
      </trkpt>
      <trkpt lat="43.56222" lon="2.34999">
        <ele>305</ele>
        <time>2016-10-20T13:29:19Z</time>
      </trkpt>
      <trkpt lat="43.56221" lon="2.35002">
        <ele>306</ele>
        <time>2016-10-20T13:29:21Z</time>
      </trkpt>
      <trkpt lat="43.56219" lon="2.35005">
        <ele>306</ele>
        <time>2016-10-20T13:29:23Z</time>
      </trkpt>
      <trkpt lat="43.56218" lon="2.35007">
        <ele>306</ele>
        <time>2016-10-20T13:29:25Z</time>
      </trkpt>
      <trkpt lat="43.56217" lon="2.3501">
        <ele>306</ele>
        <time>2016-10-20T13:29:28Z</time>
      </trkpt>
      <trkpt lat="43.56215" lon="2.35013">
        <ele>307</ele>
        <time>2016-10-20T13:29:30Z</time>
      </trkpt>
      <trkpt lat="43.56215" lon="2.35015">
        <ele>307</ele>
        <time>2016-10-20T13:29:32Z</time>
      </trkpt>
      <trkpt lat="43.56213" lon="2.35018">
        <ele>307</ele>
        <time>2016-10-20T13:29:35Z</time>
      </trkpt>
      <trkpt lat="43.56212" lon="2.3502">
        <ele>307</ele>
        <time>2016-10-20T13:29:37Z</time>
      </trkpt>
      <trkpt lat="43.56211" lon="2.35024">
        <ele>307</ele>
        <time>2016-10-20T13:29:39Z</time>
      </trkpt>
      <trkpt lat="43.56209" lon="2.35027">
        <ele>307</ele>
        <time>2016-10-20T13:29:41Z</time>
      </trkpt>
      <trkpt lat="43.56209" lon="2.35029">
        <ele>307</ele>
        <time>2016-10-20T13:29:44Z</time>
      </trkpt>
      <trkpt lat="43.56207" lon="2.35033">
        <ele>307</ele>
        <time>2016-10-20T13:29:46Z</time>
      </trkpt>
      <trkpt lat="43.56206" lon="2.35036">
        <ele>308</ele>
        <time>2016-10-20T13:29:48Z</time>
      </trkpt>
      <trkpt lat="43.56206" lon="2.35039">
        <ele>308</ele>
        <time>2016-10-20T13:29:51Z</time>
      </trkpt>
      <trkpt lat="43.56204" lon="2.35043">
        <ele>308</ele>
        <time>2016-10-20T13:29:53Z</time>
      </trkpt>
      <trkpt lat="43.56204" lon="2.35045">
        <ele>308</ele>
        <time>2016-10-20T13:29:55Z</time>
      </trkpt>
      <trkpt lat="43.56202" lon="2.35051">
        <ele>308</ele>
        <time>2016-10-20T13:30:00Z</time>
      </trkpt>
      <trkpt lat="43.562" lon="2.35055">
        <ele>308</ele>
        <time>2016-10-20T13:30:02Z</time>
      </trkpt>
      <trkpt lat="43.562" lon="2.35057">
        <ele>308</ele>
        <time>2016-10-20T13:30:04Z</time>
      </trkpt>
      <trkpt lat="43.562" lon="2.3506">
        <ele>309</ele>
        <time>2016-10-20T13:30:07Z</time>
      </trkpt>
      <trkpt lat="43.56199" lon="2.35063">
        <ele>309</ele>
        <time>2016-10-20T13:30:09Z</time>
      </trkpt>
      <trkpt lat="43.56198" lon="2.35066">
        <ele>309</ele>
        <time>2016-10-20T13:30:11Z</time>
      </trkpt>
      <trkpt lat="43.56197" lon="2.35068">
        <ele>309</ele>
        <time>2016-10-20T13:30:14Z</time>
      </trkpt>
      <trkpt lat="43.56196" lon="2.35072">
        <ele>309</ele>
        <time>2016-10-20T13:30:16Z</time>
      </trkpt>
      <trkpt lat="43.56195" lon="2.35074">
        <ele>309</ele>
        <time>2016-10-20T13:30:18Z</time>
      </trkpt>
      <trkpt lat="43.56194" lon="2.35076">
        <ele>309</ele>
        <time>2016-10-20T13:30:20Z</time>
      </trkpt>
      <trkpt lat="43.56193" lon="2.35078">
        <ele>309</ele>
        <time>2016-10-20T13:30:23Z</time>
      </trkpt>
      <trkpt lat="43.56192" lon="2.35082">
        <ele>309</ele>
        <time>2016-10-20T13:30:25Z</time>
      </trkpt>
      <trkpt lat="43.56191" lon="2.35084">
        <ele>309</ele>
        <time>2016-10-20T13:30:27Z</time>
      </trkpt>
      <trkpt lat="43.56191" lon="2.35087">
        <ele>310</ele>
        <time>2016-10-20T13:30:30Z</time>
      </trkpt>
      <trkpt lat="43.5619" lon="2.3509">
        <ele>310</ele>
        <time>2016-10-20T13:30:32Z</time>
      </trkpt>
      <trkpt lat="43.56189" lon="2.35092">
        <ele>310</ele>
        <time>2016-10-20T13:30:34Z</time>
      </trkpt>
      <trkpt lat="43.56189" lon="2.35094">
        <ele>310</ele>
        <time>2016-10-20T13:30:37Z</time>
      </trkpt>
      <trkpt lat="43.56188" lon="2.35096">
        <ele>310</ele>
        <time>2016-10-20T13:30:39Z</time>
      </trkpt>
      <trkpt lat="43.56188" lon="2.351">
        <ele>310</ele>
        <time>2016-10-20T13:30:41Z</time>
      </trkpt>
      <trkpt lat="43.56186" lon="2.35103">
        <ele>310</ele>
        <time>2016-10-20T13:30:43Z</time>
      </trkpt>
      <trkpt lat="43.56185" lon="2.35106">
        <ele>311</ele>
        <time>2016-10-20T13:30:46Z</time>
      </trkpt>
      <trkpt lat="43.56184" lon="2.3511">
        <ele>311</ele>
        <time>2016-10-20T13:30:48Z</time>
      </trkpt>
      <trkpt lat="43.56183" lon="2.35113">
        <ele>311</ele>
        <time>2016-10-20T13:30:50Z</time>
      </trkpt>
      <trkpt lat="43.56182" lon="2.35116">
        <ele>311</ele>
        <time>2016-10-20T13:30:53Z</time>
      </trkpt>
      <trkpt lat="43.56181" lon="2.3512">
        <ele>311</ele>
        <time>2016-10-20T13:30:55Z</time>
      </trkpt>
      <trkpt lat="43.56181" lon="2.35123">
        <ele>311</ele>
        <time>2016-10-20T13:30:57Z</time>
      </trkpt>
      <trkpt lat="43.5618" lon="2.35126">
        <ele>311</ele>
        <time>2016-10-20T13:30:59Z</time>
      </trkpt>
      <trkpt lat="43.56179" lon="2.3513">
        <ele>311</ele>
        <time>2016-10-20T13:31:02Z</time>
      </trkpt>
      <trkpt lat="43.56177" lon="2.35135">
        <ele>312</ele>
        <time>2016-10-20T13:31:04Z</time>
      </trkpt>
      <trkpt lat="43.56176" lon="2.35138">
        <ele>312</ele>
        <time>2016-10-20T13:31:06Z</time>
      </trkpt>
      <trkpt lat="43.56175" lon="2.3514">
        <ele>312</ele>
        <time>2016-10-20T13:31:09Z</time>
      </trkpt>
      <trkpt lat="43.56173" lon="2.35145">
        <ele>312</ele>
        <time>2016-10-20T13:31:11Z</time>
      </trkpt>
      <trkpt lat="43.56173" lon="2.35147">
        <ele>312</ele>
        <time>2016-10-20T13:31:13Z</time>
      </trkpt>
      <trkpt lat="43.56172" lon="2.35149">
        <ele>312</ele>
        <time>2016-10-20T13:31:16Z</time>
      </trkpt>
      <trkpt lat="43.56171" lon="2.35152">
        <ele>312</ele>
        <time>2016-10-20T13:31:18Z</time>
      </trkpt>
      <trkpt lat="43.56169" lon="2.35159">
        <ele>313</ele>
        <time>2016-10-20T13:31:22Z</time>
      </trkpt>
      <trkpt lat="43.56168" lon="2.35162">
        <ele>313</ele>
        <time>2016-10-20T13:31:25Z</time>
      </trkpt>
      <trkpt lat="43.56166" lon="2.35166">
        <ele>313</ele>
        <time>2016-10-20T13:31:27Z</time>
      </trkpt>
      <trkpt lat="43.56166" lon="2.35169">
        <ele>314</ele>
        <time>2016-10-20T13:31:29Z</time>
      </trkpt>
      <trkpt lat="43.56164" lon="2.35171">
        <ele>314</ele>
        <time>2016-10-20T13:31:32Z</time>
      </trkpt>
      <trkpt lat="43.56164" lon="2.35174">
        <ele>314</ele>
        <time>2016-10-20T13:31:34Z</time>
      </trkpt>
      <trkpt lat="43.56163" lon="2.35178">
        <ele>314</ele>
        <time>2016-10-20T13:31:36Z</time>
      </trkpt>
      <trkpt lat="43.56162" lon="2.35182">
        <ele>314</ele>
        <time>2016-10-20T13:31:38Z</time>
      </trkpt>
      <trkpt lat="43.56162" lon="2.35184">
        <ele>314</ele>
        <time>2016-10-20T13:31:41Z</time>
      </trkpt>
      <trkpt lat="43.5616" lon="2.35188">
        <ele>315</ele>
        <time>2016-10-20T13:31:43Z</time>
      </trkpt>
      <trkpt lat="43.56159" lon="2.35191">
        <ele>315</ele>
        <time>2016-10-20T13:31:45Z</time>
      </trkpt>
      <trkpt lat="43.56158" lon="2.35194">
        <ele>315</ele>
        <time>2016-10-20T13:31:48Z</time>
      </trkpt>
      <trkpt lat="43.56158" lon="2.35196">
        <ele>315</ele>
        <time>2016-10-20T13:31:50Z</time>
      </trkpt>
      <trkpt lat="43.56157" lon="2.352">
        <ele>315</ele>
        <time>2016-10-20T13:31:52Z</time>
      </trkpt>
      <trkpt lat="43.56156" lon="2.35204">
        <ele>316</ele>
        <time>2016-10-20T13:31:54Z</time>
      </trkpt>
      <trkpt lat="43.56155" lon="2.35207">
        <ele>316</ele>
        <time>2016-10-20T13:31:57Z</time>
      </trkpt>
      <trkpt lat="43.56154" lon="2.35211">
        <ele>316</ele>
        <time>2016-10-20T13:31:59Z</time>
      </trkpt>
      <trkpt lat="43.56153" lon="2.35213">
        <ele>316</ele>
        <time>2016-10-20T13:32:01Z</time>
      </trkpt>
      <trkpt lat="43.56152" lon="2.35216">
        <ele>316</ele>
        <time>2016-10-20T13:32:04Z</time>
      </trkpt>
      <trkpt lat="43.56151" lon="2.35221">
        <ele>317</ele>
        <time>2016-10-20T13:32:06Z</time>
      </trkpt>
      <trkpt lat="43.5615" lon="2.35224">
        <ele>317</ele>
        <time>2016-10-20T13:32:08Z</time>
      </trkpt>
      <trkpt lat="43.5615" lon="2.35227">
        <ele>317</ele>
        <time>2016-10-20T13:32:10Z</time>
      </trkpt>
      <trkpt lat="43.56149" lon="2.3523">
        <ele>317</ele>
        <time>2016-10-20T13:32:13Z</time>
      </trkpt>
      <trkpt lat="43.56148" lon="2.35235">
        <ele>317</ele>
        <time>2016-10-20T13:32:15Z</time>
      </trkpt>
      <trkpt lat="43.56146" lon="2.35237">
        <ele>317</ele>
        <time>2016-10-20T13:32:17Z</time>
      </trkpt>
      <trkpt lat="43.56146" lon="2.35241">
        <ele>318</ele>
        <time>2016-10-20T13:32:20Z</time>
      </trkpt>
      <trkpt lat="43.56145" lon="2.35246">
        <ele>318</ele>
        <time>2016-10-20T13:32:22Z</time>
      </trkpt>
      <trkpt lat="43.56143" lon="2.35249">
        <ele>317</ele>
        <time>2016-10-20T13:32:24Z</time>
      </trkpt>
      <trkpt lat="43.56143" lon="2.35251">
        <ele>317</ele>
        <time>2016-10-20T13:32:27Z</time>
      </trkpt>
      <trkpt lat="43.56142" lon="2.35255">
        <ele>317</ele>
        <time>2016-10-20T13:32:29Z</time>
      </trkpt>
      <trkpt lat="43.56141" lon="2.35259">
        <ele>317</ele>
        <time>2016-10-20T13:32:31Z</time>
      </trkpt>
      <trkpt lat="43.5614" lon="2.35262">
        <ele>317</ele>
        <time>2016-10-20T13:32:33Z</time>
      </trkpt>
      <trkpt lat="43.56139" lon="2.35264">
        <ele>317</ele>
        <time>2016-10-20T13:32:36Z</time>
      </trkpt>
      <trkpt lat="43.56137" lon="2.35268">
        <ele>317</ele>
        <time>2016-10-20T13:32:38Z</time>
      </trkpt>
      <trkpt lat="43.56137" lon="2.35271">
        <ele>317</ele>
        <time>2016-10-20T13:32:40Z</time>
      </trkpt>
      <trkpt lat="43.56135" lon="2.35277">
        <ele>317</ele>
        <time>2016-10-20T13:32:45Z</time>
      </trkpt>
      <trkpt lat="43.56134" lon="2.3528">
        <ele>317</ele>
        <time>2016-10-20T13:32:47Z</time>
      </trkpt>
      <trkpt lat="43.56132" lon="2.35283">
        <ele>317</ele>
        <time>2016-10-20T13:32:49Z</time>
      </trkpt>
      <trkpt lat="43.56132" lon="2.35286">
        <ele>317</ele>
        <time>2016-10-20T13:32:52Z</time>
      </trkpt>
      <trkpt lat="43.56131" lon="2.3529">
        <ele>317</ele>
        <time>2016-10-20T13:32:54Z</time>
      </trkpt>
      <trkpt lat="43.5613" lon="2.35292">
        <ele>317</ele>
        <time>2016-10-20T13:32:56Z</time>
      </trkpt>
      <trkpt lat="43.56129" lon="2.35295">
        <ele>317</ele>
        <time>2016-10-20T13:32:59Z</time>
      </trkpt>
      <trkpt lat="43.56127" lon="2.353">
        <ele>317</ele>
        <time>2016-10-20T13:33:01Z</time>
      </trkpt>
      <trkpt lat="43.56126" lon="2.35303">
        <ele>317</ele>
        <time>2016-10-20T13:33:03Z</time>
      </trkpt>
      <trkpt lat="43.56126" lon="2.35306">
        <ele>317</ele>
        <time>2016-10-20T13:33:05Z</time>
      </trkpt>
      <trkpt lat="43.56124" lon="2.35309">
        <ele>317</ele>
        <time>2016-10-20T13:33:08Z</time>
      </trkpt>
      <trkpt lat="43.56123" lon="2.35313">
        <ele>317</ele>
        <time>2016-10-20T13:33:10Z</time>
      </trkpt>
      <trkpt lat="43.56122" lon="2.35317">
        <ele>317</ele>
        <time>2016-10-20T13:33:12Z</time>
      </trkpt>
      <trkpt lat="43.56121" lon="2.35319">
        <ele>317</ele>
        <time>2016-10-20T13:33:15Z</time>
      </trkpt>
      <trkpt lat="43.56121" lon="2.35324">
        <ele>317</ele>
        <time>2016-10-20T13:33:17Z</time>
      </trkpt>
      <trkpt lat="43.5612" lon="2.35326">
        <ele>317</ele>
        <time>2016-10-20T13:33:19Z</time>
      </trkpt>
      <trkpt lat="43.5612" lon="2.3533">
        <ele>317</ele>
        <time>2016-10-20T13:33:22Z</time>
      </trkpt>
      <trkpt lat="43.56119" lon="2.35332">
        <ele>317</ele>
        <time>2016-10-20T13:33:24Z</time>
      </trkpt>
      <trkpt lat="43.56118" lon="2.35337">
        <ele>317</ele>
        <time>2016-10-20T13:33:26Z</time>
      </trkpt>
      <trkpt lat="43.56117" lon="2.3534">
        <ele>317</ele>
        <time>2016-10-20T13:33:28Z</time>
      </trkpt>
      <trkpt lat="43.56117" lon="2.35343">
        <ele>317</ele>
        <time>2016-10-20T13:33:31Z</time>
      </trkpt>
      <trkpt lat="43.56117" lon="2.35347">
        <ele>317</ele>
        <time>2016-10-20T13:33:33Z</time>
      </trkpt>
      <trkpt lat="43.56115" lon="2.3535">
        <ele>317</ele>
        <time>2016-10-20T13:33:35Z</time>
      </trkpt>
      <trkpt lat="43.56115" lon="2.35353">
        <ele>317</ele>
        <time>2016-10-20T13:33:38Z</time>
      </trkpt>
      <trkpt lat="43.56114" lon="2.35356">
        <ele>317</ele>
        <time>2016-10-20T13:33:40Z</time>
      </trkpt>
      <trkpt lat="43.56112" lon="2.35359">
        <ele>317</ele>
        <time>2016-10-20T13:33:42Z</time>
      </trkpt>
      <trkpt lat="43.5611" lon="2.35361">
        <ele>317</ele>
        <time>2016-10-20T13:33:44Z</time>
      </trkpt>
      <trkpt lat="43.5611" lon="2.3536">
        <ele>317</ele>
        <time>2016-10-20T13:33:47Z</time>
      </trkpt>
      <trkpt lat="43.56109" lon="2.3536">
        <ele>317</ele>
        <time>2016-10-20T13:33:49Z</time>
      </trkpt>
      <trkpt lat="43.56109" lon="2.35361">
        <ele>317</ele>
        <time>2016-10-20T13:33:51Z</time>
      </trkpt>
      <trkpt lat="43.56109" lon="2.3536">
        <ele>317</ele>
        <time>2016-10-20T13:33:54Z</time>
      </trkpt>
      <trkpt lat="43.56109" lon="2.35362">
        <ele>317</ele>
        <time>2016-10-20T13:33:56Z</time>
      </trkpt>
      <trkpt lat="43.56108" lon="2.35363">
        <ele>317</ele>
        <time>2016-10-20T13:33:58Z</time>
      </trkpt>
      <trkpt lat="43.56108" lon="2.35363">
        <ele>317</ele>
        <time>2016-10-20T13:34:00Z</time>
      </trkpt>
      <trkpt lat="43.56108" lon="2.35363">
        <ele>317</ele>
        <time>2016-10-20T13:34:03Z</time>
      </trkpt>
      <trkpt lat="43.56108" lon="2.35364">
        <ele>317</ele>
        <time>2016-10-20T13:34:07Z</time>
      </trkpt>
      <trkpt lat="43.56108" lon="2.35364">
        <ele>317</ele>
        <time>2016-10-20T13:34:10Z</time>
      </trkpt>
      <trkpt lat="43.56107" lon="2.35364">
        <ele>317</ele>
        <time>2016-10-20T13:34:12Z</time>
      </trkpt>
      <trkpt lat="43.56107" lon="2.35364">
        <ele>317</ele>
        <time>2016-10-20T13:34:14Z</time>
      </trkpt>
      <trkpt lat="43.56107" lon="2.35364">
        <ele>317</ele>
        <time>2016-10-20T13:34:16Z</time>
      </trkpt>
      <trkpt lat="43.56107" lon="2.35364">
        <ele>317</ele>
        <time>2016-10-20T13:34:19Z</time>
      </trkpt>
      <trkpt lat="43.56107" lon="2.35364">
        <ele>317</ele>
        <time>2016-10-20T13:34:21Z</time>
      </trkpt>
      <trkpt lat="43.56107" lon="2.35364">
        <ele>317</ele>
        <time>2016-10-20T13:34:23Z</time>
      </trkpt>
      <trkpt lat="43.56107" lon="2.35364">
        <ele>317</ele>
        <time>2016-10-20T13:34:26Z</time>
      </trkpt>
      <trkpt lat="43.56107" lon="2.35364">
        <ele>317</ele>
        <time>2016-10-20T13:34:28Z</time>
      </trkpt>
      <trkpt lat="43.56107" lon="2.35363">
        <ele>317</ele>
        <time>2016-10-20T13:34:30Z</time>
      </trkpt>
      <trkpt lat="43.56107" lon="2.35363">
        <ele>317</ele>
        <time>2016-10-20T13:34:32Z</time>
      </trkpt>
      <trkpt lat="43.56107" lon="2.35363">
        <ele>317</ele>
        <time>2016-10-20T13:34:35Z</time>
      </trkpt>
      <trkpt lat="43.56107" lon="2.35363">
        <ele>317</ele>
        <time>2016-10-20T13:34:37Z</time>
      </trkpt>
      <trkpt lat="43.56107" lon="2.35363">
        <ele>317</ele>
        <time>2016-10-20T13:34:39Z</time>
      </trkpt>
      <trkpt lat="43.56107" lon="2.35364">
        <ele>317</ele>
        <time>2016-10-20T13:34:42Z</time>
      </trkpt>
      <trkpt lat="43.56107" lon="2.35364">
        <ele>317</ele>
        <time>2016-10-20T13:34:44Z</time>
      </trkpt>
      <trkpt lat="43.56107" lon="2.35364">
        <ele>317</ele>
        <time>2016-10-20T13:34:46Z</time>
      </trkpt>
      <trkpt lat="43.56107" lon="2.35364">
        <ele>317</ele>
        <time>2016-10-20T13:34:49Z</time>
      </trkpt>
      <trkpt lat="43.56107" lon="2.35364">
        <ele>317</ele>
        <time>2016-10-20T13:34:51Z</time>
      </trkpt>
      <trkpt lat="43.56106" lon="2.35365">
        <ele>317</ele>
        <time>2016-10-20T13:34:53Z</time>
      </trkpt>
      <trkpt lat="43.56106" lon="2.35365">
        <ele>317</ele>
        <time>2016-10-20T13:34:55Z</time>
      </trkpt>
      <trkpt lat="43.56106" lon="2.35365">
        <ele>317</ele>
        <time>2016-10-20T13:34:58Z</time>
      </trkpt>
      <trkpt lat="43.56106" lon="2.35365">
        <ele>317</ele>
        <time>2016-10-20T13:35:00Z</time>
      </trkpt>
      <trkpt lat="43.56106" lon="2.35365">
        <ele>317</ele>
        <time>2016-10-20T13:35:02Z</time>
      </trkpt>
      <trkpt lat="43.56106" lon="2.35365">
        <ele>317</ele>
        <time>2016-10-20T13:35:05Z</time>
      </trkpt>
      <trkpt lat="43.56106" lon="2.35365">
        <ele>317</ele>
        <time>2016-10-20T13:35:07Z</time>
      </trkpt>
      <trkpt lat="43.56106" lon="2.35364">
        <ele>317</ele>
        <time>2016-10-20T13:35:09Z</time>
      </trkpt>
      <trkpt lat="43.56107" lon="2.35364">
        <ele>317</ele>
        <time>2016-10-20T13:35:11Z</time>
      </trkpt>
      <trkpt lat="43.56106" lon="2.35363">
        <ele>317</ele>
        <time>2016-10-20T13:35:14Z</time>
      </trkpt>
      <trkpt lat="43.56106" lon="2.35363">
        <ele>317</ele>
        <time>2016-10-20T13:35:16Z</time>
      </trkpt>
      <trkpt lat="43.56106" lon="2.35362">
        <ele>317</ele>
        <time>2016-10-20T13:35:18Z</time>
      </trkpt>
      <trkpt lat="43.56106" lon="2.35362">
        <ele>317</ele>
        <time>2016-10-20T13:35:21Z</time>
      </trkpt>
      <trkpt lat="43.56106" lon="2.35362">
        <ele>317</ele>
        <time>2016-10-20T13:35:23Z</time>
      </trkpt>
      <trkpt lat="43.56107" lon="2.35362">
        <ele>317</ele>
        <time>2016-10-20T13:35:25Z</time>
      </trkpt>
      <trkpt lat="43.56107" lon="2.35361">
        <ele>317</ele>
        <time>2016-10-20T13:35:27Z</time>
      </trkpt>
      <trkpt lat="43.56108" lon="2.35362">
        <ele>317</ele>
        <time>2016-10-20T13:35:32Z</time>
      </trkpt>
      <trkpt lat="43.56109" lon="2.35361">
        <ele>317</ele>
        <time>2016-10-20T13:35:34Z</time>
      </trkpt>
      <trkpt lat="43.56109" lon="2.35361">
        <ele>317</ele>
        <time>2016-10-20T13:35:37Z</time>
      </trkpt>
      <trkpt lat="43.5611" lon="2.35361">
        <ele>317</ele>
        <time>2016-10-20T13:35:39Z</time>
      </trkpt>
      <trkpt lat="43.5611" lon="2.35361">
        <ele>317</ele>
        <time>2016-10-20T13:35:41Z</time>
      </trkpt>
      <trkpt lat="43.5611" lon="2.3536">
        <ele>317</ele>
        <time>2016-10-20T13:35:43Z</time>
      </trkpt>
      <trkpt lat="43.5611" lon="2.3536">
        <ele>317</ele>
        <time>2016-10-20T13:35:46Z</time>
      </trkpt>
      <trkpt lat="43.5611" lon="2.3536">
        <ele>317</ele>
        <time>2016-10-20T13:35:48Z</time>
      </trkpt>
      <trkpt lat="43.56111" lon="2.3536">
        <ele>317</ele>
        <time>2016-10-20T13:35:50Z</time>
      </trkpt>
      <trkpt lat="43.56111" lon="2.3536">
        <ele>317</ele>
        <time>2016-10-20T13:35:53Z</time>
      </trkpt>
      <trkpt lat="43.56112" lon="2.3536">
        <ele>317</ele>
        <time>2016-10-20T13:35:55Z</time>
      </trkpt>
      <trkpt lat="43.56112" lon="2.3536">
        <ele>317</ele>
        <time>2016-10-20T13:35:57Z</time>
      </trkpt>
      <trkpt lat="43.56112" lon="2.3536">
        <ele>317</ele>
        <time>2016-10-20T13:35:59Z</time>
      </trkpt>
      <trkpt lat="43.56112" lon="2.35359">
        <ele>317</ele>
        <time>2016-10-20T13:36:02Z</time>
      </trkpt>
      <trkpt lat="43.56112" lon="2.35359">
        <ele>317</ele>
        <time>2016-10-20T13:36:04Z</time>
      </trkpt>
      <trkpt lat="43.56112" lon="2.35359">
        <ele>317</ele>
        <time>2016-10-20T13:36:06Z</time>
      </trkpt>
      <trkpt lat="43.56112" lon="2.35359">
        <ele>317</ele>
        <time>2016-10-20T13:36:09Z</time>
      </trkpt>
      <trkpt lat="43.56111" lon="2.35359">
        <ele>317</ele>
        <time>2016-10-20T13:36:11Z</time>
      </trkpt>
      <trkpt lat="43.56111" lon="2.35359">
        <ele>317</ele>
        <time>2016-10-20T13:36:13Z</time>
      </trkpt>
      <trkpt lat="43.56111" lon="2.35359">
        <ele>317</ele>
        <time>2016-10-20T13:36:15Z</time>
      </trkpt>
      <trkpt lat="43.56111" lon="2.35359">
        <ele>317</ele>
        <time>2016-10-20T13:36:18Z</time>
      </trkpt>
      <trkpt lat="43.5611" lon="2.35358">
        <ele>317</ele>
        <time>2016-10-20T13:36:20Z</time>
      </trkpt>
      <trkpt lat="43.5611" lon="2.35358">
        <ele>317</ele>
        <time>2016-10-20T13:36:22Z</time>
      </trkpt>
      <trkpt lat="43.5611" lon="2.35358">
        <ele>317</ele>
        <time>2016-10-20T13:36:24Z</time>
      </trkpt>
      <trkpt lat="43.5611" lon="2.35358">
        <ele>317</ele>
        <time>2016-10-20T13:36:27Z</time>
      </trkpt>
      <trkpt lat="43.5611" lon="2.35358">
        <ele>317</ele>
        <time>2016-10-20T13:36:29Z</time>
      </trkpt>
      <trkpt lat="43.5611" lon="2.35358">
        <ele>317</ele>
        <time>2016-10-20T13:36:31Z</time>
      </trkpt>
      <trkpt lat="43.5611" lon="2.35358">
        <ele>317</ele>
        <time>2016-10-20T13:36:34Z</time>
      </trkpt>
      <trkpt lat="43.5611" lon="2.35358">
        <ele>317</ele>
        <time>2016-10-20T13:36:36Z</time>
      </trkpt>
      <trkpt lat="43.5611" lon="2.35358">
        <ele>317</ele>
        <time>2016-10-20T13:36:38Z</time>
      </trkpt>
      <trkpt lat="43.5611" lon="2.35358">
        <ele>317</ele>
        <time>2016-10-20T13:36:40Z</time>
      </trkpt>
      <trkpt lat="43.5611" lon="2.35358">
        <ele>317</ele>
        <time>2016-10-20T13:36:43Z</time>
      </trkpt>
      <trkpt lat="43.5611" lon="2.35359">
        <ele>317</ele>
        <time>2016-10-20T13:36:45Z</time>
      </trkpt>
      <trkpt lat="43.56109" lon="2.35359">
        <ele>317</ele>
        <time>2016-10-20T13:36:47Z</time>
      </trkpt>
      <trkpt lat="43.56109" lon="2.35358">
        <ele>317</ele>
        <time>2016-10-20T13:36:50Z</time>
      </trkpt>
      <trkpt lat="43.56109" lon="2.35359">
        <ele>317</ele>
        <time>2016-10-20T13:36:54Z</time>
      </trkpt>
      <trkpt lat="43.56109" lon="2.35359">
        <ele>317</ele>
        <time>2016-10-20T13:36:56Z</time>
      </trkpt>
      <trkpt lat="43.56109" lon="2.35359">
        <ele>317</ele>
        <time>2016-10-20T13:36:59Z</time>
      </trkpt>
      <trkpt lat="43.56109" lon="2.35359">
        <ele>317</ele>
        <time>2016-10-20T13:37:01Z</time>
      </trkpt>
      <trkpt lat="43.56109" lon="2.3536">
        <ele>317</ele>
        <time>2016-10-20T13:37:03Z</time>
      </trkpt>
      <trkpt lat="43.56109" lon="2.35359">
        <ele>317</ele>
        <time>2016-10-20T13:37:05Z</time>
      </trkpt>
      <trkpt lat="43.56109" lon="2.35359">
        <ele>317</ele>
        <time>2016-10-20T13:37:08Z</time>
      </trkpt>
      <trkpt lat="43.56109" lon="2.35359">
        <ele>317</ele>
        <time>2016-10-20T13:37:10Z</time>
      </trkpt>
      <trkpt lat="43.56108" lon="2.35359">
        <ele>317</ele>
        <time>2016-10-20T13:37:12Z</time>
      </trkpt>
      <trkpt lat="43.56109" lon="2.35359">
        <ele>317</ele>
        <time>2016-10-20T13:37:15Z</time>
      </trkpt>
      <trkpt lat="43.56109" lon="2.35358">
        <ele>317</ele>
        <time>2016-10-20T13:37:17Z</time>
      </trkpt>
      <trkpt lat="43.56109" lon="2.35359">
        <ele>317</ele>
        <time>2016-10-20T13:37:19Z</time>
      </trkpt>
      <trkpt lat="43.56109" lon="2.35359">
        <ele>317</ele>
        <time>2016-10-20T13:37:21Z</time>
      </trkpt>
      <trkpt lat="43.5611" lon="2.35359">
        <ele>317</ele>
        <time>2016-10-20T13:37:24Z</time>
      </trkpt>
      <trkpt lat="43.56109" lon="2.35362">
        <ele>317</ele>
        <time>2016-10-20T13:37:26Z</time>
      </trkpt>
      <trkpt lat="43.56108" lon="2.35364">
        <ele>317</ele>
        <time>2016-10-20T13:37:28Z</time>
      </trkpt>
      <trkpt lat="43.56107" lon="2.35365">
        <ele>317</ele>
        <time>2016-10-20T13:37:31Z</time>
      </trkpt>
      <trkpt lat="43.56106" lon="2.35366">
        <ele>317</ele>
        <time>2016-10-20T13:37:33Z</time>
      </trkpt>
      <trkpt lat="43.56105" lon="2.35369">
        <ele>317</ele>
        <time>2016-10-20T13:37:35Z</time>
      </trkpt>
      <trkpt lat="43.56104" lon="2.35371">
        <ele>317</ele>
        <time>2016-10-20T13:37:37Z</time>
      </trkpt>
      <trkpt lat="43.56103" lon="2.35373">
        <ele>317</ele>
        <time>2016-10-20T13:37:40Z</time>
      </trkpt>
      <trkpt lat="43.56101" lon="2.35376">
        <ele>317</ele>
        <time>2016-10-20T13:37:42Z</time>
      </trkpt>
      <trkpt lat="43.56101" lon="2.35378">
        <ele>317</ele>
        <time>2016-10-20T13:37:44Z</time>
      </trkpt>
      <trkpt lat="43.561" lon="2.35381">
        <ele>317</ele>
        <time>2016-10-20T13:37:47Z</time>
      </trkpt>
      <trkpt lat="43.56099" lon="2.35384">
        <ele>317</ele>
        <time>2016-10-20T13:37:49Z</time>
      </trkpt>
      <trkpt lat="43.56098" lon="2.35387">
        <ele>317</ele>
        <time>2016-10-20T13:37:51Z</time>
      </trkpt>
      <trkpt lat="43.56097" lon="2.3539">
        <ele>317</ele>
        <time>2016-10-20T13:37:53Z</time>
      </trkpt>
      <trkpt lat="43.56097" lon="2.35393">
        <ele>317</ele>
        <time>2016-10-20T13:37:56Z</time>
      </trkpt>
      <trkpt lat="43.56097" lon="2.35398">
        <ele>318</ele>
        <time>2016-10-20T13:37:58Z</time>
      </trkpt>
      <trkpt lat="43.56097" lon="2.354">
        <ele>318</ele>
        <time>2016-10-20T13:38:00Z</time>
      </trkpt>
      <trkpt lat="43.56096" lon="2.35401">
        <ele>318</ele>
        <time>2016-10-20T13:38:03Z</time>
      </trkpt>
      <trkpt lat="43.56096" lon="2.35405">
        <ele>318</ele>
        <time>2016-10-20T13:38:05Z</time>
      </trkpt>
      <trkpt lat="43.56096" lon="2.35407">
        <ele>318</ele>
        <time>2016-10-20T13:38:07Z</time>
      </trkpt>
      <trkpt lat="43.56095" lon="2.35411">
        <ele>318</ele>
        <time>2016-10-20T13:38:09Z</time>
      </trkpt>
      <trkpt lat="43.56095" lon="2.35413">
        <ele>318</ele>
        <time>2016-10-20T13:38:12Z</time>
      </trkpt>
      <trkpt lat="43.56093" lon="2.35421">
        <ele>318</ele>
        <time>2016-10-20T13:38:16Z</time>
      </trkpt>
      <trkpt lat="43.56092" lon="2.35424">
        <ele>318</ele>
        <time>2016-10-20T13:38:19Z</time>
      </trkpt>
      <trkpt lat="43.56091" lon="2.35428">
        <ele>319</ele>
        <time>2016-10-20T13:38:21Z</time>
      </trkpt>
      <trkpt lat="43.56091" lon="2.35431">
        <ele>319</ele>
        <time>2016-10-20T13:38:23Z</time>
      </trkpt>
      <trkpt lat="43.5609" lon="2.35434">
        <ele>319</ele>
        <time>2016-10-20T13:38:26Z</time>
      </trkpt>
      <trkpt lat="43.56089" lon="2.35437">
        <ele>319</ele>
        <time>2016-10-20T13:38:28Z</time>
      </trkpt>
      <trkpt lat="43.56087" lon="2.3544">
        <ele>319</ele>
        <time>2016-10-20T13:38:30Z</time>
      </trkpt>
      <trkpt lat="43.56086" lon="2.35442">
        <ele>319</ele>
        <time>2016-10-20T13:38:32Z</time>
      </trkpt>
      <trkpt lat="43.56085" lon="2.35444">
        <ele>319</ele>
        <time>2016-10-20T13:38:35Z</time>
      </trkpt>
      <trkpt lat="43.56083" lon="2.35446">
        <ele>320</ele>
        <time>2016-10-20T13:38:37Z</time>
      </trkpt>
      <trkpt lat="43.56081" lon="2.35448">
        <ele>320</ele>
        <time>2016-10-20T13:38:39Z</time>
      </trkpt>
      <trkpt lat="43.5608" lon="2.3545">
        <ele>320</ele>
        <time>2016-10-20T13:38:42Z</time>
      </trkpt>
      <trkpt lat="43.56079" lon="2.35452">
        <ele>320</ele>
        <time>2016-10-20T13:38:44Z</time>
      </trkpt>
      <trkpt lat="43.56077" lon="2.35455">
        <ele>320</ele>
        <time>2016-10-20T13:38:46Z</time>
      </trkpt>
      <trkpt lat="43.56076" lon="2.35457">
        <ele>320</ele>
        <time>2016-10-20T13:38:48Z</time>
      </trkpt>
      <trkpt lat="43.56074" lon="2.35459">
        <ele>321</ele>
        <time>2016-10-20T13:38:51Z</time>
      </trkpt>
      <trkpt lat="43.56073" lon="2.35462">
        <ele>321</ele>
        <time>2016-10-20T13:38:53Z</time>
      </trkpt>
      <trkpt lat="43.56072" lon="2.35464">
        <ele>321</ele>
        <time>2016-10-20T13:38:55Z</time>
      </trkpt>
      <trkpt lat="43.5607" lon="2.35466">
        <ele>321</ele>
        <time>2016-10-20T13:38:58Z</time>
      </trkpt>
      <trkpt lat="43.56069" lon="2.35468">
        <ele>321</ele>
        <time>2016-10-20T13:39:00Z</time>
      </trkpt>
      <trkpt lat="43.56067" lon="2.35471">
        <ele>321</ele>
        <time>2016-10-20T13:39:02Z</time>
      </trkpt>
      <trkpt lat="43.56066" lon="2.35473">
        <ele>321</ele>
        <time>2016-10-20T13:39:04Z</time>
      </trkpt>
      <trkpt lat="43.56065" lon="2.35474">
        <ele>322</ele>
        <time>2016-10-20T13:39:07Z</time>
      </trkpt>
      <trkpt lat="43.56062" lon="2.35477">
        <ele>322</ele>
        <time>2016-10-20T13:39:09Z</time>
      </trkpt>
      <trkpt lat="43.56061" lon="2.35478">
        <ele>322</ele>
        <time>2016-10-20T13:39:11Z</time>
      </trkpt>
      <trkpt lat="43.56059" lon="2.3548">
        <ele>322</ele>
        <time>2016-10-20T13:39:14Z</time>
      </trkpt>
      <trkpt lat="43.56058" lon="2.35482">
        <ele>322</ele>
        <time>2016-10-20T13:39:16Z</time>
      </trkpt>
      <trkpt lat="43.56055" lon="2.35486">
        <ele>323</ele>
        <time>2016-10-20T13:39:18Z</time>
      </trkpt>
      <trkpt lat="43.56054" lon="2.35488">
        <ele>323</ele>
        <time>2016-10-20T13:39:20Z</time>
      </trkpt>
      <trkpt lat="43.56052" lon="2.35489">
        <ele>323</ele>
        <time>2016-10-20T13:39:23Z</time>
      </trkpt>
      <trkpt lat="43.56049" lon="2.35492">
        <ele>323</ele>
        <time>2016-10-20T13:39:25Z</time>
      </trkpt>
      <trkpt lat="43.56047" lon="2.35494">
        <ele>323</ele>
        <time>2016-10-20T13:39:27Z</time>
      </trkpt>
      <trkpt lat="43.56046" lon="2.35495">
        <ele>324</ele>
        <time>2016-10-20T13:39:30Z</time>
      </trkpt>
      <trkpt lat="43.56043" lon="2.35498">
        <ele>324</ele>
        <time>2016-10-20T13:39:32Z</time>
      </trkpt>
      <trkpt lat="43.56042" lon="2.35499">
        <ele>324</ele>
        <time>2016-10-20T13:39:34Z</time>
      </trkpt>
      <trkpt lat="43.56038" lon="2.35502">
        <ele>324</ele>
        <time>2016-10-20T13:39:39Z</time>
      </trkpt>
      <trkpt lat="43.56035" lon="2.35504">
        <ele>325</ele>
        <time>2016-10-20T13:39:41Z</time>
      </trkpt>
      <trkpt lat="43.56033" lon="2.35506">
        <ele>325</ele>
        <time>2016-10-20T13:39:43Z</time>
      </trkpt>
      <trkpt lat="43.56031" lon="2.35508">
        <ele>325</ele>
        <time>2016-10-20T13:39:46Z</time>
      </trkpt>
      <trkpt lat="43.56028" lon="2.35511">
        <ele>325</ele>
        <time>2016-10-20T13:39:48Z</time>
      </trkpt>
      <trkpt lat="43.56026" lon="2.35512">
        <ele>326</ele>
        <time>2016-10-20T13:39:50Z</time>
      </trkpt>
      <trkpt lat="43.56024" lon="2.35514">
        <ele>326</ele>
        <time>2016-10-20T13:39:53Z</time>
      </trkpt>
      <trkpt lat="43.56022" lon="2.35516">
        <ele>326</ele>
        <time>2016-10-20T13:39:55Z</time>
      </trkpt>
      <trkpt lat="43.56019" lon="2.35518">
        <ele>326</ele>
        <time>2016-10-20T13:39:57Z</time>
      </trkpt>
      <trkpt lat="43.56017" lon="2.35519">
        <ele>327</ele>
        <time>2016-10-20T13:39:59Z</time>
      </trkpt>
      <trkpt lat="43.56015" lon="2.3552">
        <ele>327</ele>
        <time>2016-10-20T13:40:02Z</time>
      </trkpt>
      <trkpt lat="43.56012" lon="2.35521">
        <ele>327</ele>
        <time>2016-10-20T13:40:04Z</time>
      </trkpt>
      <trkpt lat="43.56011" lon="2.35523">
        <ele>327</ele>
        <time>2016-10-20T13:40:06Z</time>
      </trkpt>
      <trkpt lat="43.56009" lon="2.35523">
        <ele>327</ele>
        <time>2016-10-20T13:40:09Z</time>
      </trkpt>
      <trkpt lat="43.56007" lon="2.35525">
        <ele>328</ele>
        <time>2016-10-20T13:40:11Z</time>
      </trkpt>
      <trkpt lat="43.56004" lon="2.35527">
        <ele>328</ele>
        <time>2016-10-20T13:40:13Z</time>
      </trkpt>
      <trkpt lat="43.56002" lon="2.35528">
        <ele>328</ele>
        <time>2016-10-20T13:40:15Z</time>
      </trkpt>
      <trkpt lat="43.56" lon="2.3553">
        <ele>328</ele>
        <time>2016-10-20T13:40:18Z</time>
      </trkpt>
      <trkpt lat="43.55998" lon="2.35532">
        <ele>328</ele>
        <time>2016-10-20T13:40:20Z</time>
      </trkpt>
      <trkpt lat="43.55996" lon="2.35533">
        <ele>328</ele>
        <time>2016-10-20T13:40:22Z</time>
      </trkpt>
      <trkpt lat="43.55994" lon="2.35535">
        <ele>329</ele>
        <time>2016-10-20T13:40:24Z</time>
      </trkpt>
      <trkpt lat="43.55992" lon="2.35536">
        <ele>329</ele>
        <time>2016-10-20T13:40:27Z</time>
      </trkpt>
      <trkpt lat="43.5599" lon="2.35538">
        <ele>329</ele>
        <time>2016-10-20T13:40:29Z</time>
      </trkpt>
      <trkpt lat="43.55988" lon="2.3554">
        <ele>329</ele>
        <time>2016-10-20T13:40:31Z</time>
      </trkpt>
      <trkpt lat="43.55986" lon="2.35541">
        <ele>329</ele>
        <time>2016-10-20T13:40:34Z</time>
      </trkpt>
      <trkpt lat="43.55984" lon="2.35542">
        <ele>329</ele>
        <time>2016-10-20T13:40:36Z</time>
      </trkpt>
      <trkpt lat="43.55982" lon="2.35544">
        <ele>329</ele>
        <time>2016-10-20T13:40:38Z</time>
      </trkpt>
      <trkpt lat="43.5598" lon="2.35546">
        <ele>330</ele>
        <time>2016-10-20T13:40:40Z</time>
      </trkpt>
      <trkpt lat="43.55979" lon="2.35548">
        <ele>330</ele>
        <time>2016-10-20T13:40:43Z</time>
      </trkpt>
      <trkpt lat="43.55976" lon="2.3555">
        <ele>330</ele>
        <time>2016-10-20T13:40:45Z</time>
      </trkpt>
      <trkpt lat="43.55975" lon="2.35553">
        <ele>330</ele>
        <time>2016-10-20T13:40:47Z</time>
      </trkpt>
      <trkpt lat="43.55973" lon="2.35555">
        <ele>330</ele>
        <time>2016-10-20T13:40:50Z</time>
      </trkpt>
      <trkpt lat="43.55972" lon="2.35557">
        <ele>331</ele>
        <time>2016-10-20T13:40:52Z</time>
      </trkpt>
      <trkpt lat="43.5597" lon="2.35561">
        <ele>331</ele>
        <time>2016-10-20T13:40:54Z</time>
      </trkpt>
      <trkpt lat="43.55968" lon="2.35562">
        <ele>331</ele>
        <time>2016-10-20T13:40:56Z</time>
      </trkpt>
      <trkpt lat="43.55965" lon="2.35568">
        <ele>331</ele>
        <time>2016-10-20T13:41:01Z</time>
      </trkpt>
      <trkpt lat="43.55964" lon="2.3557">
        <ele>332</ele>
        <time>2016-10-20T13:41:03Z</time>
      </trkpt>
      <trkpt lat="43.55962" lon="2.35573">
        <ele>332</ele>
        <time>2016-10-20T13:41:06Z</time>
      </trkpt>
      <trkpt lat="43.55961" lon="2.35575">
        <ele>332</ele>
        <time>2016-10-20T13:41:08Z</time>
      </trkpt>
      <trkpt lat="43.5596" lon="2.35579">
        <ele>332</ele>
        <time>2016-10-20T13:41:10Z</time>
      </trkpt>
      <trkpt lat="43.55959" lon="2.35581">
        <ele>332</ele>
        <time>2016-10-20T13:41:12Z</time>
      </trkpt>
      <trkpt lat="43.55958" lon="2.35583">
        <ele>333</ele>
        <time>2016-10-20T13:41:15Z</time>
      </trkpt>
      <trkpt lat="43.55957" lon="2.35587">
        <ele>333</ele>
        <time>2016-10-20T13:41:17Z</time>
      </trkpt>
      <trkpt lat="43.55956" lon="2.35589">
        <ele>333</ele>
        <time>2016-10-20T13:41:19Z</time>
      </trkpt>
      <trkpt lat="43.55955" lon="2.35592">
        <ele>333</ele>
        <time>2016-10-20T13:41:22Z</time>
      </trkpt>
      <trkpt lat="43.55954" lon="2.35595">
        <ele>333</ele>
        <time>2016-10-20T13:41:24Z</time>
      </trkpt>
      <trkpt lat="43.55952" lon="2.35599">
        <ele>333</ele>
        <time>2016-10-20T13:41:26Z</time>
      </trkpt>
      <trkpt lat="43.55951" lon="2.35602">
        <ele>333</ele>
        <time>2016-10-20T13:41:28Z</time>
      </trkpt>
      <trkpt lat="43.5595" lon="2.35605">
        <ele>333</ele>
        <time>2016-10-20T13:41:31Z</time>
      </trkpt>
      <trkpt lat="43.55949" lon="2.35609">
        <ele>333</ele>
        <time>2016-10-20T13:41:33Z</time>
      </trkpt>
      <trkpt lat="43.55948" lon="2.35612">
        <ele>333</ele>
        <time>2016-10-20T13:41:35Z</time>
      </trkpt>
      <trkpt lat="43.55947" lon="2.35615">
        <ele>333</ele>
        <time>2016-10-20T13:41:38Z</time>
      </trkpt>
      <trkpt lat="43.55946" lon="2.35617">
        <ele>333</ele>
        <time>2016-10-20T13:41:40Z</time>
      </trkpt>
      <trkpt lat="43.55945" lon="2.35622">
        <ele>334</ele>
        <time>2016-10-20T13:41:42Z</time>
      </trkpt>
      <trkpt lat="43.55944" lon="2.35625">
        <ele>334</ele>
        <time>2016-10-20T13:41:44Z</time>
      </trkpt>
      <trkpt lat="43.55943" lon="2.35628">
        <ele>334</ele>
        <time>2016-10-20T13:41:47Z</time>
      </trkpt>
      <trkpt lat="43.55942" lon="2.35633">
        <ele>334</ele>
        <time>2016-10-20T13:41:49Z</time>
      </trkpt>
      <trkpt lat="43.55941" lon="2.35636">
        <ele>334</ele>
        <time>2016-10-20T13:41:51Z</time>
      </trkpt>
      <trkpt lat="43.5594" lon="2.35638">
        <ele>334</ele>
        <time>2016-10-20T13:41:54Z</time>
      </trkpt>
      <trkpt lat="43.55939" lon="2.35641">
        <ele>334</ele>
        <time>2016-10-20T13:41:56Z</time>
      </trkpt>
      <trkpt lat="43.55938" lon="2.35645">
        <ele>333</ele>
        <time>2016-10-20T13:41:58Z</time>
      </trkpt>
      <trkpt lat="43.55937" lon="2.35648">
        <ele>333</ele>
        <time>2016-10-20T13:42:00Z</time>
      </trkpt>
      <trkpt lat="43.55936" lon="2.35651">
        <ele>333</ele>
        <time>2016-10-20T13:42:03Z</time>
      </trkpt>
      <trkpt lat="43.55935" lon="2.35655">
        <ele>333</ele>
        <time>2016-10-20T13:42:05Z</time>
      </trkpt>
      <trkpt lat="43.55934" lon="2.35657">
        <ele>333</ele>
        <time>2016-10-20T13:42:07Z</time>
      </trkpt>
      <trkpt lat="43.55934" lon="2.3566">
        <ele>333</ele>
        <time>2016-10-20T13:42:10Z</time>
      </trkpt>
      <trkpt lat="43.55933" lon="2.35662">
        <ele>333</ele>
        <time>2016-10-20T13:42:12Z</time>
      </trkpt>
      <trkpt lat="43.55931" lon="2.35666">
        <ele>333</ele>
        <time>2016-10-20T13:42:14Z</time>
      </trkpt>
      <trkpt lat="43.55931" lon="2.35669">
        <ele>333</ele>
        <time>2016-10-20T13:42:16Z</time>
      </trkpt>
      <trkpt lat="43.5593" lon="2.35672">
        <ele>333</ele>
        <time>2016-10-20T13:42:19Z</time>
      </trkpt>
      <trkpt lat="43.55927" lon="2.35678">
        <ele>333</ele>
        <time>2016-10-20T13:42:23Z</time>
      </trkpt>
      <trkpt lat="43.55927" lon="2.35681">
        <ele>333</ele>
        <time>2016-10-20T13:42:26Z</time>
      </trkpt>
      <trkpt lat="43.55926" lon="2.35685">
        <ele>333</ele>
        <time>2016-10-20T13:42:28Z</time>
      </trkpt>
      <trkpt lat="43.55925" lon="2.35689">
        <ele>333</ele>
        <time>2016-10-20T13:42:30Z</time>
      </trkpt>
      <trkpt lat="43.55924" lon="2.35691">
        <ele>333</ele>
        <time>2016-10-20T13:42:33Z</time>
      </trkpt>
      <trkpt lat="43.55924" lon="2.35696">
        <ele>333</ele>
        <time>2016-10-20T13:42:35Z</time>
      </trkpt>
      <trkpt lat="43.55923" lon="2.35699">
        <ele>333</ele>
        <time>2016-10-20T13:42:37Z</time>
      </trkpt>
      <trkpt lat="43.55923" lon="2.35702">
        <ele>333</ele>
        <time>2016-10-20T13:42:40Z</time>
      </trkpt>
      <trkpt lat="43.55923" lon="2.35705">
        <ele>333</ele>
        <time>2016-10-20T13:42:42Z</time>
      </trkpt>
      <trkpt lat="43.55923" lon="2.35709">
        <ele>333</ele>
        <time>2016-10-20T13:42:44Z</time>
      </trkpt>
      <trkpt lat="43.55923" lon="2.35712">
        <ele>334</ele>
        <time>2016-10-20T13:42:46Z</time>
      </trkpt>
      <trkpt lat="43.55922" lon="2.35715">
        <ele>334</ele>
        <time>2016-10-20T13:42:49Z</time>
      </trkpt>
      <trkpt lat="43.55922" lon="2.3572">
        <ele>334</ele>
        <time>2016-10-20T13:42:51Z</time>
      </trkpt>
      <trkpt lat="43.55922" lon="2.35723">
        <ele>334</ele>
        <time>2016-10-20T13:42:53Z</time>
      </trkpt>
      <trkpt lat="43.55922" lon="2.35726">
        <ele>334</ele>
        <time>2016-10-20T13:42:56Z</time>
      </trkpt>
      <trkpt lat="43.55922" lon="2.35729">
        <ele>334</ele>
        <time>2016-10-20T13:42:58Z</time>
      </trkpt>
      <trkpt lat="43.55922" lon="2.35734">
        <ele>334</ele>
        <time>2016-10-20T13:43:00Z</time>
      </trkpt>
      <trkpt lat="43.55922" lon="2.35737">
        <ele>334</ele>
        <time>2016-10-20T13:43:02Z</time>
      </trkpt>
      <trkpt lat="43.55922" lon="2.3574">
        <ele>334</ele>
        <time>2016-10-20T13:43:05Z</time>
      </trkpt>
      <trkpt lat="43.55922" lon="2.35745">
        <ele>334</ele>
        <time>2016-10-20T13:43:07Z</time>
      </trkpt>
      <trkpt lat="43.55922" lon="2.35748">
        <ele>334</ele>
        <time>2016-10-20T13:43:09Z</time>
      </trkpt>
      <trkpt lat="43.55922" lon="2.35751">
        <ele>334</ele>
        <time>2016-10-20T13:43:12Z</time>
      </trkpt>
      <trkpt lat="43.55922" lon="2.35754">
        <ele>334</ele>
        <time>2016-10-20T13:43:14Z</time>
      </trkpt>
      <trkpt lat="43.55922" lon="2.35759">
        <ele>334</ele>
        <time>2016-10-20T13:43:16Z</time>
      </trkpt>
      <trkpt lat="43.55922" lon="2.35761">
        <ele>334</ele>
        <time>2016-10-20T13:43:18Z</time>
      </trkpt>
      <trkpt lat="43.55922" lon="2.35765">
        <ele>334</ele>
        <time>2016-10-20T13:43:21Z</time>
      </trkpt>
      <trkpt lat="43.55922" lon="2.35769">
        <ele>334</ele>
        <time>2016-10-20T13:43:23Z</time>
      </trkpt>
      <trkpt lat="43.55922" lon="2.35771">
        <ele>334</ele>
        <time>2016-10-20T13:43:25Z</time>
      </trkpt>
      <trkpt lat="43.55922" lon="2.35774">
        <ele>334</ele>
        <time>2016-10-20T13:43:28Z</time>
      </trkpt>
      <trkpt lat="43.55922" lon="2.35776">
        <ele>334</ele>
        <time>2016-10-20T13:43:30Z</time>
      </trkpt>
      <trkpt lat="43.55922" lon="2.35779">
        <ele>334</ele>
        <time>2016-10-20T13:43:32Z</time>
      </trkpt>
      <trkpt lat="43.55922" lon="2.35782">
        <ele>334</ele>
        <time>2016-10-20T13:43:34Z</time>
      </trkpt>
      <trkpt lat="43.55923" lon="2.35785">
        <ele>334</ele>
        <time>2016-10-20T13:43:37Z</time>
      </trkpt>
      <trkpt lat="43.55922" lon="2.35788">
        <ele>334</ele>
        <time>2016-10-20T13:43:39Z</time>
      </trkpt>
      <trkpt lat="43.55922" lon="2.35792">
        <ele>334</ele>
        <time>2016-10-20T13:43:41Z</time>
      </trkpt>
      <trkpt lat="43.55922" lon="2.35798">
        <ele>334</ele>
        <time>2016-10-20T13:43:46Z</time>
      </trkpt>
      <trkpt lat="43.55922" lon="2.35803">
        <ele>335</ele>
        <time>2016-10-20T13:43:48Z</time>
      </trkpt>
      <trkpt lat="43.55922" lon="2.35806">
        <ele>335</ele>
        <time>2016-10-20T13:43:50Z</time>
      </trkpt>
      <trkpt lat="43.55921" lon="2.35809">
        <ele>335</ele>
        <time>2016-10-20T13:43:53Z</time>
      </trkpt>
      <trkpt lat="43.5592" lon="2.35812">
        <ele>335</ele>
        <time>2016-10-20T13:43:55Z</time>
      </trkpt>
      <trkpt lat="43.5592" lon="2.35815">
        <ele>335</ele>
        <time>2016-10-20T13:43:57Z</time>
      </trkpt>
      <trkpt lat="43.5592" lon="2.35817">
        <ele>335</ele>
        <time>2016-10-20T13:43:59Z</time>
      </trkpt>
      <trkpt lat="43.5592" lon="2.3582">
        <ele>335</ele>
        <time>2016-10-20T13:44:02Z</time>
      </trkpt>
      <trkpt lat="43.5592" lon="2.35824">
        <ele>335</ele>
        <time>2016-10-20T13:44:04Z</time>
      </trkpt>
      <trkpt lat="43.55921" lon="2.35827">
        <ele>335</ele>
        <time>2016-10-20T13:44:06Z</time>
      </trkpt>
      <trkpt lat="43.55921" lon="2.3583">
        <ele>335</ele>
        <time>2016-10-20T13:44:09Z</time>
      </trkpt>
      <trkpt lat="43.5592" lon="2.35833">
        <ele>335</ele>
        <time>2016-10-20T13:44:11Z</time>
      </trkpt>
      <trkpt lat="43.5592" lon="2.35838">
        <ele>335</ele>
        <time>2016-10-20T13:44:13Z</time>
      </trkpt>
      <trkpt lat="43.5592" lon="2.3584">
        <ele>335</ele>
        <time>2016-10-20T13:44:15Z</time>
      </trkpt>
      <trkpt lat="43.5592" lon="2.35843">
        <ele>335</ele>
        <time>2016-10-20T13:44:18Z</time>
      </trkpt>
      <trkpt lat="43.5592" lon="2.35848">
        <ele>335</ele>
        <time>2016-10-20T13:44:20Z</time>
      </trkpt>
      <trkpt lat="43.5592" lon="2.35851">
        <ele>336</ele>
        <time>2016-10-20T13:44:22Z</time>
      </trkpt>
      <trkpt lat="43.5592" lon="2.35854">
        <ele>336</ele>
        <time>2016-10-20T13:44:25Z</time>
      </trkpt>
      <trkpt lat="43.5592" lon="2.35857">
        <ele>336</ele>
        <time>2016-10-20T13:44:27Z</time>
      </trkpt>
      <trkpt lat="43.5592" lon="2.35862">
        <ele>336</ele>
        <time>2016-10-20T13:44:29Z</time>
      </trkpt>
      <trkpt lat="43.5592" lon="2.35865">
        <ele>336</ele>
        <time>2016-10-20T13:44:31Z</time>
      </trkpt>
      <trkpt lat="43.5592" lon="2.35868">
        <ele>336</ele>
        <time>2016-10-20T13:44:34Z</time>
      </trkpt>
      <trkpt lat="43.5592" lon="2.35872">
        <ele>336</ele>
        <time>2016-10-20T13:44:36Z</time>
      </trkpt>
      <trkpt lat="43.5592" lon="2.35874">
        <ele>336</ele>
        <time>2016-10-20T13:44:38Z</time>
      </trkpt>
      <trkpt lat="43.5592" lon="2.35879">
        <ele>336</ele>
        <time>2016-10-20T13:44:41Z</time>
      </trkpt>
      <trkpt lat="43.55919" lon="2.35882">
        <ele>336</ele>
        <time>2016-10-20T13:44:43Z</time>
      </trkpt>
      <trkpt lat="43.55919" lon="2.35887">
        <ele>336</ele>
        <time>2016-10-20T13:44:45Z</time>
      </trkpt>
      <trkpt lat="43.55918" lon="2.3589">
        <ele>336</ele>
        <time>2016-10-20T13:44:47Z</time>
      </trkpt>
      <trkpt lat="43.55918" lon="2.35894">
        <ele>337</ele>
        <time>2016-10-20T13:44:50Z</time>
      </trkpt>
      <trkpt lat="43.55918" lon="2.35899">
        <ele>337</ele>
        <time>2016-10-20T13:44:52Z</time>
      </trkpt>
      <trkpt lat="43.55918" lon="2.35902">
        <ele>337</ele>
        <time>2016-10-20T13:44:54Z</time>
      </trkpt>
      <trkpt lat="43.55918" lon="2.35905">
        <ele>337</ele>
        <time>2016-10-20T13:44:57Z</time>
      </trkpt>
      <trkpt lat="43.55918" lon="2.35908">
        <ele>337</ele>
        <time>2016-10-20T13:44:59Z</time>
      </trkpt>
      <trkpt lat="43.55919" lon="2.35914">
        <ele>337</ele>
        <time>2016-10-20T13:45:01Z</time>
      </trkpt>
      <trkpt lat="43.55918" lon="2.35917">
        <ele>337</ele>
        <time>2016-10-20T13:45:03Z</time>
      </trkpt>
      <trkpt lat="43.55918" lon="2.35924">
        <ele>337</ele>
        <time>2016-10-20T13:45:08Z</time>
      </trkpt>
      <trkpt lat="43.55918" lon="2.35927">
        <ele>337</ele>
        <time>2016-10-20T13:45:10Z</time>
      </trkpt>
      <trkpt lat="43.55917" lon="2.35931">
        <ele>338</ele>
        <time>2016-10-20T13:45:13Z</time>
      </trkpt>
      <trkpt lat="43.55917" lon="2.35934">
        <ele>337</ele>
        <time>2016-10-20T13:45:15Z</time>
      </trkpt>
      <trkpt lat="43.55917" lon="2.3594">
        <ele>337</ele>
        <time>2016-10-20T13:45:17Z</time>
      </trkpt>
      <trkpt lat="43.55916" lon="2.35943">
        <ele>337</ele>
        <time>2016-10-20T13:45:19Z</time>
      </trkpt>
      <trkpt lat="43.55916" lon="2.35947">
        <ele>337</ele>
        <time>2016-10-20T13:45:22Z</time>
      </trkpt>
      <trkpt lat="43.55915" lon="2.35952">
        <ele>337</ele>
        <time>2016-10-20T13:45:24Z</time>
      </trkpt>
      <trkpt lat="43.55915" lon="2.35955">
        <ele>337</ele>
        <time>2016-10-20T13:45:26Z</time>
      </trkpt>
      <trkpt lat="43.55913" lon="2.35958">
        <ele>337</ele>
        <time>2016-10-20T13:45:29Z</time>
      </trkpt>
      <trkpt lat="43.55913" lon="2.35961">
        <ele>337</ele>
        <time>2016-10-20T13:45:31Z</time>
      </trkpt>
      <trkpt lat="43.55912" lon="2.35966">
        <ele>337</ele>
        <time>2016-10-20T13:45:33Z</time>
      </trkpt>
      <trkpt lat="43.55911" lon="2.35969">
        <ele>337</ele>
        <time>2016-10-20T13:45:35Z</time>
      </trkpt>
      <trkpt lat="43.55911" lon="2.35973">
        <ele>336</ele>
        <time>2016-10-20T13:45:38Z</time>
      </trkpt>
      <trkpt lat="43.5591" lon="2.35977">
        <ele>336</ele>
        <time>2016-10-20T13:45:40Z</time>
      </trkpt>
      <trkpt lat="43.55909" lon="2.3598">
        <ele>336</ele>
        <time>2016-10-20T13:45:42Z</time>
      </trkpt>
      <trkpt lat="43.55908" lon="2.35982">
        <ele>336</ele>
        <time>2016-10-20T13:45:45Z</time>
      </trkpt>
      <trkpt lat="43.55908" lon="2.35985">
        <ele>336</ele>
        <time>2016-10-20T13:45:47Z</time>
      </trkpt>
      <trkpt lat="43.55906" lon="2.35989">
        <ele>336</ele>
        <time>2016-10-20T13:45:49Z</time>
      </trkpt>
      <trkpt lat="43.55906" lon="2.35992">
        <ele>336</ele>
        <time>2016-10-20T13:45:51Z</time>
      </trkpt>
      <trkpt lat="43.55905" lon="2.35995">
        <ele>336</ele>
        <time>2016-10-20T13:45:54Z</time>
      </trkpt>
      <trkpt lat="43.55904" lon="2.35998">
        <ele>336</ele>
        <time>2016-10-20T13:45:56Z</time>
      </trkpt>
      <trkpt lat="43.55903" lon="2.36001">
        <ele>336</ele>
        <time>2016-10-20T13:45:58Z</time>
      </trkpt>
      <trkpt lat="43.55902" lon="2.36004">
        <ele>336</ele>
        <time>2016-10-20T13:46:01Z</time>
      </trkpt>
      <trkpt lat="43.559" lon="2.36006">
        <ele>336</ele>
        <time>2016-10-20T13:46:03Z</time>
      </trkpt>
      <trkpt lat="43.55899" lon="2.3601">
        <ele>336</ele>
        <time>2016-10-20T13:46:05Z</time>
      </trkpt>
      <trkpt lat="43.55898" lon="2.36013">
        <ele>336</ele>
        <time>2016-10-20T13:46:07Z</time>
      </trkpt>
      <trkpt lat="43.55897" lon="2.36017">
        <ele>336</ele>
        <time>2016-10-20T13:46:10Z</time>
      </trkpt>
      <trkpt lat="43.55895" lon="2.36022">
        <ele>336</ele>
        <time>2016-10-20T13:46:12Z</time>
      </trkpt>
      <trkpt lat="43.55894" lon="2.36024">
        <ele>336</ele>
        <time>2016-10-20T13:46:14Z</time>
      </trkpt>
      <trkpt lat="43.55893" lon="2.36027">
        <ele>336</ele>
        <time>2016-10-20T13:46:17Z</time>
      </trkpt>
      <trkpt lat="43.55893" lon="2.3603">
        <ele>336</ele>
        <time>2016-10-20T13:46:19Z</time>
      </trkpt>
      <trkpt lat="43.55891" lon="2.36034">
        <ele>336</ele>
        <time>2016-10-20T13:46:21Z</time>
      </trkpt>
      <trkpt lat="43.55891" lon="2.36038">
        <ele>336</ele>
        <time>2016-10-20T13:46:23Z</time>
      </trkpt>
      <trkpt lat="43.55889" lon="2.36041">
        <ele>336</ele>
        <time>2016-10-20T13:46:26Z</time>
      </trkpt>
      <trkpt lat="43.55886" lon="2.36047">
        <ele>336</ele>
        <time>2016-10-20T13:46:30Z</time>
      </trkpt>
      <trkpt lat="43.55884" lon="2.3605">
        <ele>336</ele>
        <time>2016-10-20T13:46:33Z</time>
      </trkpt>
      <trkpt lat="43.55882" lon="2.36054">
        <ele>336</ele>
        <time>2016-10-20T13:46:35Z</time>
      </trkpt>
      <trkpt lat="43.5588" lon="2.36057">
        <ele>337</ele>
        <time>2016-10-20T13:46:37Z</time>
      </trkpt>
      <trkpt lat="43.55878" lon="2.3606">
        <ele>337</ele>
        <time>2016-10-20T13:46:39Z</time>
      </trkpt>
      <trkpt lat="43.55876" lon="2.36063">
        <ele>337</ele>
        <time>2016-10-20T13:46:42Z</time>
      </trkpt>
      <trkpt lat="43.55873" lon="2.36066">
        <ele>337</ele>
        <time>2016-10-20T13:46:44Z</time>
      </trkpt>
      <trkpt lat="43.55872" lon="2.36069">
        <ele>337</ele>
        <time>2016-10-20T13:46:46Z</time>
      </trkpt>
      <trkpt lat="43.5587" lon="2.36071">
        <ele>337</ele>
        <time>2016-10-20T13:46:49Z</time>
      </trkpt>
      <trkpt lat="43.55868" lon="2.36074">
        <ele>337</ele>
        <time>2016-10-20T13:46:51Z</time>
      </trkpt>
      <trkpt lat="43.55866" lon="2.36078">
        <ele>338</ele>
        <time>2016-10-20T13:46:53Z</time>
      </trkpt>
      <trkpt lat="43.55864" lon="2.36081">
        <ele>338</ele>
        <time>2016-10-20T13:46:55Z</time>
      </trkpt>
      <trkpt lat="43.55863" lon="2.36084">
        <ele>338</ele>
        <time>2016-10-20T13:46:58Z</time>
      </trkpt>
      <trkpt lat="43.55861" lon="2.36088">
        <ele>338</ele>
        <time>2016-10-20T13:47:00Z</time>
      </trkpt>
      <trkpt lat="43.5586" lon="2.3609">
        <ele>338</ele>
        <time>2016-10-20T13:47:02Z</time>
      </trkpt>
      <trkpt lat="43.55859" lon="2.36093">
        <ele>338</ele>
        <time>2016-10-20T13:47:05Z</time>
      </trkpt>
      <trkpt lat="43.55856" lon="2.36097">
        <ele>339</ele>
        <time>2016-10-20T13:47:07Z</time>
      </trkpt>
      <trkpt lat="43.55855" lon="2.361">
        <ele>339</ele>
        <time>2016-10-20T13:47:09Z</time>
      </trkpt>
      <trkpt lat="43.55853" lon="2.36102">
        <ele>339</ele>
        <time>2016-10-20T13:47:12Z</time>
      </trkpt>
      <trkpt lat="43.55851" lon="2.36104">
        <ele>339</ele>
        <time>2016-10-20T13:47:14Z</time>
      </trkpt>
      <trkpt lat="43.55848" lon="2.36108">
        <ele>340</ele>
        <time>2016-10-20T13:47:16Z</time>
      </trkpt>
      <trkpt lat="43.55846" lon="2.36109">
        <ele>340</ele>
        <time>2016-10-20T13:47:18Z</time>
      </trkpt>
      <trkpt lat="43.55844" lon="2.36111">
        <ele>340</ele>
        <time>2016-10-20T13:47:21Z</time>
      </trkpt>
      <trkpt lat="43.55841" lon="2.36113">
        <ele>340</ele>
        <time>2016-10-20T13:47:23Z</time>
      </trkpt>
      <trkpt lat="43.55838" lon="2.36114">
        <ele>341</ele>
        <time>2016-10-20T13:47:25Z</time>
      </trkpt>
      <trkpt lat="43.55836" lon="2.36116">
        <ele>341</ele>
        <time>2016-10-20T13:47:28Z</time>
      </trkpt>
      <trkpt lat="43.55834" lon="2.36117">
        <ele>341</ele>
        <time>2016-10-20T13:47:30Z</time>
      </trkpt>
      <trkpt lat="43.5583" lon="2.3612">
        <ele>342</ele>
        <time>2016-10-20T13:47:32Z</time>
      </trkpt>
      <trkpt lat="43.55828" lon="2.36122">
        <ele>342</ele>
        <time>2016-10-20T13:47:34Z</time>
      </trkpt>
      <trkpt lat="43.55826" lon="2.36123">
        <ele>342</ele>
        <time>2016-10-20T13:47:37Z</time>
      </trkpt>
      <trkpt lat="43.55823" lon="2.36126">
        <ele>342</ele>
        <time>2016-10-20T13:47:39Z</time>
      </trkpt>
      <trkpt lat="43.55821" lon="2.36128">
        <ele>343</ele>
        <time>2016-10-20T13:47:41Z</time>
      </trkpt>
      <trkpt lat="43.55819" lon="2.36129">
        <ele>343</ele>
        <time>2016-10-20T13:47:44Z</time>
      </trkpt>
      <trkpt lat="43.55817" lon="2.36131">
        <ele>343</ele>
        <time>2016-10-20T13:47:46Z</time>
      </trkpt>
      <trkpt lat="43.55815" lon="2.36132">
        <ele>344</ele>
        <time>2016-10-20T13:47:48Z</time>
      </trkpt>
      <trkpt lat="43.55811" lon="2.36134">
        <ele>344</ele>
        <time>2016-10-20T13:47:53Z</time>
      </trkpt>
      <trkpt lat="43.55808" lon="2.36135">
        <ele>344</ele>
        <time>2016-10-20T13:47:55Z</time>
      </trkpt>
      <trkpt lat="43.55806" lon="2.36136">
        <ele>345</ele>
        <time>2016-10-20T13:47:57Z</time>
      </trkpt>
      <trkpt lat="43.55803" lon="2.36137">
        <ele>345</ele>
        <time>2016-10-20T13:48:00Z</time>
      </trkpt>
      <trkpt lat="43.55801" lon="2.36137">
        <ele>345</ele>
        <time>2016-10-20T13:48:02Z</time>
      </trkpt>
      <trkpt lat="43.55798" lon="2.36139">
        <ele>346</ele>
        <time>2016-10-20T13:48:04Z</time>
      </trkpt>
      <trkpt lat="43.55796" lon="2.36139">
        <ele>346</ele>
        <time>2016-10-20T13:48:06Z</time>
      </trkpt>
      <trkpt lat="43.55794" lon="2.3614">
        <ele>346</ele>
        <time>2016-10-20T13:48:09Z</time>
      </trkpt>
      <trkpt lat="43.5579" lon="2.36142">
        <ele>346</ele>
        <time>2016-10-20T13:48:11Z</time>
      </trkpt>
      <trkpt lat="43.55788" lon="2.36143">
        <ele>347</ele>
        <time>2016-10-20T13:48:13Z</time>
      </trkpt>
      <trkpt lat="43.55787" lon="2.36144">
        <ele>347</ele>
        <time>2016-10-20T13:48:16Z</time>
      </trkpt>
      <trkpt lat="43.55784" lon="2.36145">
        <ele>347</ele>
        <time>2016-10-20T13:48:18Z</time>
      </trkpt>
      <trkpt lat="43.55782" lon="2.36146">
        <ele>347</ele>
        <time>2016-10-20T13:48:20Z</time>
      </trkpt>
      <trkpt lat="43.5578" lon="2.36147">
        <ele>348</ele>
        <time>2016-10-20T13:48:23Z</time>
      </trkpt>
      <trkpt lat="43.55778" lon="2.36148">
        <ele>348</ele>
        <time>2016-10-20T13:48:25Z</time>
      </trkpt>
      <trkpt lat="43.55775" lon="2.36149">
        <ele>348</ele>
        <time>2016-10-20T13:48:27Z</time>
      </trkpt>
      <trkpt lat="43.55773" lon="2.3615">
        <ele>348</ele>
        <time>2016-10-20T13:48:29Z</time>
      </trkpt>
      <trkpt lat="43.55771" lon="2.36151">
        <ele>349</ele>
        <time>2016-10-20T13:48:32Z</time>
      </trkpt>
      <trkpt lat="43.55768" lon="2.36153">
        <ele>349</ele>
        <time>2016-10-20T13:48:34Z</time>
      </trkpt>
      <trkpt lat="43.55767" lon="2.36155">
        <ele>349</ele>
        <time>2016-10-20T13:48:36Z</time>
      </trkpt>
      <trkpt lat="43.55765" lon="2.36156">
        <ele>350</ele>
        <time>2016-10-20T13:48:39Z</time>
      </trkpt>
      <trkpt lat="43.55763" lon="2.36158">
        <ele>350</ele>
        <time>2016-10-20T13:48:41Z</time>
      </trkpt>
      <trkpt lat="43.55761" lon="2.36161">
        <ele>350</ele>
        <time>2016-10-20T13:48:43Z</time>
      </trkpt>
      <trkpt lat="43.5576" lon="2.36163">
        <ele>351</ele>
        <time>2016-10-20T13:48:45Z</time>
      </trkpt>
      <trkpt lat="43.55759" lon="2.36164">
        <ele>351</ele>
        <time>2016-10-20T13:48:48Z</time>
      </trkpt>
      <trkpt lat="43.55757" lon="2.36167">
        <ele>351</ele>
        <time>2016-10-20T13:48:50Z</time>
      </trkpt>
      <trkpt lat="43.55756" lon="2.3617">
        <ele>352</ele>
        <time>2016-10-20T13:48:52Z</time>
      </trkpt>
      <trkpt lat="43.55754" lon="2.36172">
        <ele>352</ele>
        <time>2016-10-20T13:48:55Z</time>
      </trkpt>
      <trkpt lat="43.55753" lon="2.36174">
        <ele>352</ele>
        <time>2016-10-20T13:48:57Z</time>
      </trkpt>
      <trkpt lat="43.5575" lon="2.36177">
        <ele>353</ele>
        <time>2016-10-20T13:48:59Z</time>
      </trkpt>
      <trkpt lat="43.55749" lon="2.36178">
        <ele>353</ele>
        <time>2016-10-20T13:49:01Z</time>
      </trkpt>
      <trkpt lat="43.55747" lon="2.36179">
        <ele>353</ele>
        <time>2016-10-20T13:49:04Z</time>
      </trkpt>
      <trkpt lat="43.55745" lon="2.36181">
        <ele>354</ele>
        <time>2016-10-20T13:49:06Z</time>
      </trkpt>
      <trkpt lat="43.55744" lon="2.36182">
        <ele>354</ele>
        <time>2016-10-20T13:49:08Z</time>
      </trkpt>
      <trkpt lat="43.55743" lon="2.36184">
        <ele>354</ele>
        <time>2016-10-20T13:49:11Z</time>
      </trkpt>
      <trkpt lat="43.5574" lon="2.36187">
        <ele>355</ele>
        <time>2016-10-20T13:49:15Z</time>
      </trkpt>
      <trkpt lat="43.55739" lon="2.36188">
        <ele>355</ele>
        <time>2016-10-20T13:49:17Z</time>
      </trkpt>
      <trkpt lat="43.55738" lon="2.3619">
        <ele>355</ele>
        <time>2016-10-20T13:49:20Z</time>
      </trkpt>
      <trkpt lat="43.55736" lon="2.36192">
        <ele>356</ele>
        <time>2016-10-20T13:49:22Z</time>
      </trkpt>
      <trkpt lat="43.55735" lon="2.36194">
        <ele>356</ele>
        <time>2016-10-20T13:49:24Z</time>
      </trkpt>
      <trkpt lat="43.55734" lon="2.36196">
        <ele>356</ele>
        <time>2016-10-20T13:49:27Z</time>
      </trkpt>
      <trkpt lat="43.55732" lon="2.36199">
        <ele>357</ele>
        <time>2016-10-20T13:49:29Z</time>
      </trkpt>
      <trkpt lat="43.55731" lon="2.36201">
        <ele>357</ele>
        <time>2016-10-20T13:49:31Z</time>
      </trkpt>
      <trkpt lat="43.5573" lon="2.36203">
        <ele>357</ele>
        <time>2016-10-20T13:49:34Z</time>
      </trkpt>
      <trkpt lat="43.55729" lon="2.36205">
        <ele>357</ele>
        <time>2016-10-20T13:49:36Z</time>
      </trkpt>
      <trkpt lat="43.55727" lon="2.36207">
        <ele>358</ele>
        <time>2016-10-20T13:49:38Z</time>
      </trkpt>
      <trkpt lat="43.55726" lon="2.36209">
        <ele>358</ele>
        <time>2016-10-20T13:49:40Z</time>
      </trkpt>
      <trkpt lat="43.55725" lon="2.36211">
        <ele>358</ele>
        <time>2016-10-20T13:49:43Z</time>
      </trkpt>
      <trkpt lat="43.55724" lon="2.36213">
        <ele>358</ele>
        <time>2016-10-20T13:49:45Z</time>
      </trkpt>
      <trkpt lat="43.55723" lon="2.36216">
        <ele>359</ele>
        <time>2016-10-20T13:49:47Z</time>
      </trkpt>
      <trkpt lat="43.55722" lon="2.36218">
        <ele>359</ele>
        <time>2016-10-20T13:49:50Z</time>
      </trkpt>
      <trkpt lat="43.55721" lon="2.3622">
        <ele>359</ele>
        <time>2016-10-20T13:49:52Z</time>
      </trkpt>
      <trkpt lat="43.5572" lon="2.36223">
        <ele>360</ele>
        <time>2016-10-20T13:49:54Z</time>
      </trkpt>
      <trkpt lat="43.55719" lon="2.36225">
        <ele>360</ele>
        <time>2016-10-20T13:49:56Z</time>
      </trkpt>
      <trkpt lat="43.55718" lon="2.36227">
        <ele>360</ele>
        <time>2016-10-20T13:49:59Z</time>
      </trkpt>
      <trkpt lat="43.55717" lon="2.3623">
        <ele>361</ele>
        <time>2016-10-20T13:50:01Z</time>
      </trkpt>
      <trkpt lat="43.55717" lon="2.36232">
        <ele>361</ele>
        <time>2016-10-20T13:50:03Z</time>
      </trkpt>
      <trkpt lat="43.55716" lon="2.36234">
        <ele>361</ele>
        <time>2016-10-20T13:50:05Z</time>
      </trkpt>
      <trkpt lat="43.55716" lon="2.36236">
        <ele>361</ele>
        <time>2016-10-20T13:50:08Z</time>
      </trkpt>
      <trkpt lat="43.55715" lon="2.3624">
        <ele>362</ele>
        <time>2016-10-20T13:50:10Z</time>
      </trkpt>
      <trkpt lat="43.55714" lon="2.36242">
        <ele>362</ele>
        <time>2016-10-20T13:50:12Z</time>
      </trkpt>
      <trkpt lat="43.55714" lon="2.36245">
        <ele>362</ele>
        <time>2016-10-20T13:50:15Z</time>
      </trkpt>
      <trkpt lat="43.55714" lon="2.36247">
        <ele>362</ele>
        <time>2016-10-20T13:50:17Z</time>
      </trkpt>
      <trkpt lat="43.55713" lon="2.36251">
        <ele>363</ele>
        <time>2016-10-20T13:50:19Z</time>
      </trkpt>
      <trkpt lat="43.55713" lon="2.36253">
        <ele>363</ele>
        <time>2016-10-20T13:50:21Z</time>
      </trkpt>
      <trkpt lat="43.55712" lon="2.36255">
        <ele>363</ele>
        <time>2016-10-20T13:50:24Z</time>
      </trkpt>
      <trkpt lat="43.55712" lon="2.36259">
        <ele>364</ele>
        <time>2016-10-20T13:50:26Z</time>
      </trkpt>
      <trkpt lat="43.55712" lon="2.36261">
        <ele>364</ele>
        <time>2016-10-20T13:50:28Z</time>
      </trkpt>
      <trkpt lat="43.55712" lon="2.36264">
        <ele>364</ele>
        <time>2016-10-20T13:50:31Z</time>
      </trkpt>
      <trkpt lat="43.55712" lon="2.36266">
        <ele>364</ele>
        <time>2016-10-20T13:50:33Z</time>
      </trkpt>
      <trkpt lat="43.55712" lon="2.36269">
        <ele>365</ele>
        <time>2016-10-20T13:50:35Z</time>
      </trkpt>
      <trkpt lat="43.55711" lon="2.36273">
        <ele>365</ele>
        <time>2016-10-20T13:50:40Z</time>
      </trkpt>
      <trkpt lat="43.55712" lon="2.36276">
        <ele>365</ele>
        <time>2016-10-20T13:50:42Z</time>
      </trkpt>
      <trkpt lat="43.55712" lon="2.36278">
        <ele>366</ele>
        <time>2016-10-20T13:50:44Z</time>
      </trkpt>
      <trkpt lat="43.55712" lon="2.3628">
        <ele>366</ele>
        <time>2016-10-20T13:50:47Z</time>
      </trkpt>
      <trkpt lat="43.55712" lon="2.36282">
        <ele>366</ele>
        <time>2016-10-20T13:50:49Z</time>
      </trkpt>
      <trkpt lat="43.55712" lon="2.36286">
        <ele>366</ele>
        <time>2016-10-20T13:50:51Z</time>
      </trkpt>
      <trkpt lat="43.55713" lon="2.36288">
        <ele>367</ele>
        <time>2016-10-20T13:50:53Z</time>
      </trkpt>
      <trkpt lat="43.55713" lon="2.36289">
        <ele>367</ele>
        <time>2016-10-20T13:50:56Z</time>
      </trkpt>
      <trkpt lat="43.55713" lon="2.36293">
        <ele>367</ele>
        <time>2016-10-20T13:50:58Z</time>
      </trkpt>
      <trkpt lat="43.55713" lon="2.36294">
        <ele>367</ele>
        <time>2016-10-20T13:51:00Z</time>
      </trkpt>
      <trkpt lat="43.55713" lon="2.36296">
        <ele>367</ele>
        <time>2016-10-20T13:51:03Z</time>
      </trkpt>
      <trkpt lat="43.55712" lon="2.36298">
        <ele>368</ele>
        <time>2016-10-20T13:51:05Z</time>
      </trkpt>
      <trkpt lat="43.55712" lon="2.36301">
        <ele>368</ele>
        <time>2016-10-20T13:51:07Z</time>
      </trkpt>
      <trkpt lat="43.55712" lon="2.36303">
        <ele>368</ele>
        <time>2016-10-20T13:51:09Z</time>
      </trkpt>
      <trkpt lat="43.55712" lon="2.36305">
        <ele>368</ele>
        <time>2016-10-20T13:51:12Z</time>
      </trkpt>
      <trkpt lat="43.55712" lon="2.36308">
        <ele>369</ele>
        <time>2016-10-20T13:51:14Z</time>
      </trkpt>
      <trkpt lat="43.55712" lon="2.36309">
        <ele>369</ele>
        <time>2016-10-20T13:51:16Z</time>
      </trkpt>
      <trkpt lat="43.55711" lon="2.3631">
        <ele>369</ele>
        <time>2016-10-20T13:51:19Z</time>
      </trkpt>
      <trkpt lat="43.55711" lon="2.3631">
        <ele>369</ele>
        <time>2016-10-20T13:51:21Z</time>
      </trkpt>
      <trkpt lat="43.55711" lon="2.36312">
        <ele>369</ele>
        <time>2016-10-20T13:51:23Z</time>
      </trkpt>
      <trkpt lat="43.55711" lon="2.36313">
        <ele>369</ele>
        <time>2016-10-20T13:51:25Z</time>
      </trkpt>
      <trkpt lat="43.5571" lon="2.36315">
        <ele>369</ele>
        <time>2016-10-20T13:51:28Z</time>
      </trkpt>
      <trkpt lat="43.55711" lon="2.36316">
        <ele>369</ele>
        <time>2016-10-20T13:51:30Z</time>
      </trkpt>
      <trkpt lat="43.55711" lon="2.36317">
        <ele>369</ele>
        <time>2016-10-20T13:51:32Z</time>
      </trkpt>
      <trkpt lat="43.55711" lon="2.36319">
        <ele>370</ele>
        <time>2016-10-20T13:51:35Z</time>
      </trkpt>
      <trkpt lat="43.5571" lon="2.3632">
        <ele>370</ele>
        <time>2016-10-20T13:51:37Z</time>
      </trkpt>
      <trkpt lat="43.55711" lon="2.36321">
        <ele>370</ele>
        <time>2016-10-20T13:51:39Z</time>
      </trkpt>
      <trkpt lat="43.55711" lon="2.36322">
        <ele>370</ele>
        <time>2016-10-20T13:51:41Z</time>
      </trkpt>
      <trkpt lat="43.55711" lon="2.36322">
        <ele>370</ele>
        <time>2016-10-20T13:51:44Z</time>
      </trkpt>
      <trkpt lat="43.55711" lon="2.36323">
        <ele>370</ele>
        <time>2016-10-20T13:51:46Z</time>
      </trkpt>
      <trkpt lat="43.55711" lon="2.36323">
        <ele>370</ele>
        <time>2016-10-20T13:51:48Z</time>
      </trkpt>
      <trkpt lat="43.55711" lon="2.36323">
        <ele>370</ele>
        <time>2016-10-20T13:51:51Z</time>
      </trkpt>
      <trkpt lat="43.55711" lon="2.36323">
        <ele>370</ele>
        <time>2016-10-20T13:51:53Z</time>
      </trkpt>
      <trkpt lat="43.55711" lon="2.36324">
        <ele>370</ele>
        <time>2016-10-20T13:51:55Z</time>
      </trkpt>
      <trkpt lat="43.55711" lon="2.36324">
        <ele>370</ele>
        <time>2016-10-20T13:51:57Z</time>
      </trkpt>
      <trkpt lat="43.55711" lon="2.36323">
        <ele>370</ele>
        <time>2016-10-20T13:52:02Z</time>
      </trkpt>
      <trkpt lat="43.55711" lon="2.36324">
        <ele>370</ele>
        <time>2016-10-20T13:52:04Z</time>
      </trkpt>
      <trkpt lat="43.55711" lon="2.36323">
        <ele>370</ele>
        <time>2016-10-20T13:52:06Z</time>
      </trkpt>
      <trkpt lat="43.55711" lon="2.36323">
        <ele>370</ele>
        <time>2016-10-20T13:52:09Z</time>
      </trkpt>
      <trkpt lat="43.5571" lon="2.36323">
        <ele>370</ele>
        <time>2016-10-20T13:52:11Z</time>
      </trkpt>
      <trkpt lat="43.5571" lon="2.36322">
        <ele>370</ele>
        <time>2016-10-20T13:52:13Z</time>
      </trkpt>
      <trkpt lat="43.55711" lon="2.36322">
        <ele>370</ele>
        <time>2016-10-20T13:52:16Z</time>
      </trkpt>
      <trkpt lat="43.55712" lon="2.36323">
        <ele>370</ele>
        <time>2016-10-20T13:52:18Z</time>
      </trkpt>
      <trkpt lat="43.55712" lon="2.36325">
        <ele>370</ele>
        <time>2016-10-20T13:52:20Z</time>
      </trkpt>
      <trkpt lat="43.55712" lon="2.36327">
        <ele>370</ele>
        <time>2016-10-20T13:52:22Z</time>
      </trkpt>
      <trkpt lat="43.55712" lon="2.36328">
        <ele>371</ele>
        <time>2016-10-20T13:52:25Z</time>
      </trkpt>
      <trkpt lat="43.55712" lon="2.36331">
        <ele>371</ele>
        <time>2016-10-20T13:52:27Z</time>
      </trkpt>
      <trkpt lat="43.55712" lon="2.36333">
        <ele>371</ele>
        <time>2016-10-20T13:52:29Z</time>
      </trkpt>
      <trkpt lat="43.55712" lon="2.36334">
        <ele>371</ele>
        <time>2016-10-20T13:52:32Z</time>
      </trkpt>
      <trkpt lat="43.55712" lon="2.36337">
        <ele>371</ele>
        <time>2016-10-20T13:52:34Z</time>
      </trkpt>
      <trkpt lat="43.55711" lon="2.36339">
        <ele>372</ele>
        <time>2016-10-20T13:52:36Z</time>
      </trkpt>
      <trkpt lat="43.55711" lon="2.3634">
        <ele>372</ele>
        <time>2016-10-20T13:52:38Z</time>
      </trkpt>
      <trkpt lat="43.55711" lon="2.36341">
        <ele>372</ele>
        <time>2016-10-20T13:52:41Z</time>
      </trkpt>
      <trkpt lat="43.55711" lon="2.36341">
        <ele>372</ele>
        <time>2016-10-20T13:52:43Z</time>
      </trkpt>
      <trkpt lat="43.55711" lon="2.36342">
        <ele>372</ele>
        <time>2016-10-20T13:52:45Z</time>
      </trkpt>
      <trkpt lat="43.55711" lon="2.36343">
        <ele>372</ele>
        <time>2016-10-20T13:52:48Z</time>
      </trkpt>
      <trkpt lat="43.55711" lon="2.36343">
        <ele>372</ele>
        <time>2016-10-20T13:52:50Z</time>
      </trkpt>
      <trkpt lat="43.5571" lon="2.36343">
        <ele>372</ele>
        <time>2016-10-20T13:52:52Z</time>
      </trkpt>
      <trkpt lat="43.5571" lon="2.36344">
        <ele>372</ele>
        <time>2016-10-20T13:52:54Z</time>
      </trkpt>
      <trkpt lat="43.5571" lon="2.36345">
        <ele>372</ele>
        <time>2016-10-20T13:52:57Z</time>
      </trkpt>
      <trkpt lat="43.5571" lon="2.36345">
        <ele>372</ele>
        <time>2016-10-20T13:52:59Z</time>
      </trkpt>
      <trkpt lat="43.5571" lon="2.36345">
        <ele>372</ele>
        <time>2016-10-20T13:53:01Z</time>
      </trkpt>
      <trkpt lat="43.5571" lon="2.36345">
        <ele>372</ele>
        <time>2016-10-20T13:53:04Z</time>
      </trkpt>
      <trkpt lat="43.5571" lon="2.36345">
        <ele>372</ele>
        <time>2016-10-20T13:53:06Z</time>
      </trkpt>
      <trkpt lat="43.5571" lon="2.36345">
        <ele>372</ele>
        <time>2016-10-20T13:53:08Z</time>
      </trkpt>
      <trkpt lat="43.5571" lon="2.36344">
        <ele>372</ele>
        <time>2016-10-20T13:53:10Z</time>
      </trkpt>
      <trkpt lat="43.5571" lon="2.36344">
        <ele>372</ele>
        <time>2016-10-20T13:53:13Z</time>
      </trkpt>
      <trkpt lat="43.5571" lon="2.36344">
        <ele>372</ele>
        <time>2016-10-20T13:53:15Z</time>
      </trkpt>
      <trkpt lat="43.5571" lon="2.36343">
        <ele>372</ele>
        <time>2016-10-20T13:53:17Z</time>
      </trkpt>
      <trkpt lat="43.5571" lon="2.36343">
        <ele>372</ele>
        <time>2016-10-20T13:53:19Z</time>
      </trkpt>
      <trkpt lat="43.55709" lon="2.36343">
        <ele>372</ele>
        <time>2016-10-20T13:53:24Z</time>
      </trkpt>
      <trkpt lat="43.55709" lon="2.36343">
        <ele>372</ele>
        <time>2016-10-20T13:53:26Z</time>
      </trkpt>
      <trkpt lat="43.55709" lon="2.36343">
        <ele>372</ele>
        <time>2016-10-20T13:53:29Z</time>
      </trkpt>
      <trkpt lat="43.55709" lon="2.36343">
        <ele>372</ele>
        <time>2016-10-20T13:53:31Z</time>
      </trkpt>
      <trkpt lat="43.55709" lon="2.36343">
        <ele>372</ele>
        <time>2016-10-20T13:53:33Z</time>
      </trkpt>
      <trkpt lat="43.55709" lon="2.36343">
        <ele>372</ele>
        <time>2016-10-20T13:53:35Z</time>
      </trkpt>
      <trkpt lat="43.55709" lon="2.36342">
        <ele>372</ele>
        <time>2016-10-20T13:53:38Z</time>
      </trkpt>
      <trkpt lat="43.55709" lon="2.36343">
        <ele>372</ele>
        <time>2016-10-20T13:53:40Z</time>
      </trkpt>
      <trkpt lat="43.55709" lon="2.36342">
        <ele>372</ele>
        <time>2016-10-20T13:53:42Z</time>
      </trkpt>
      <trkpt lat="43.55709" lon="2.36343">
        <ele>372</ele>
        <time>2016-10-20T13:53:44Z</time>
      </trkpt>
      <trkpt lat="43.55709" lon="2.36343">
        <ele>372</ele>
        <time>2016-10-20T13:53:47Z</time>
      </trkpt>
      <trkpt lat="43.55709" lon="2.36343">
        <ele>372</ele>
        <time>2016-10-20T13:53:49Z</time>
      </trkpt>
      <trkpt lat="43.55709" lon="2.36344">
        <ele>372</ele>
        <time>2016-10-20T13:53:51Z</time>
      </trkpt>
      <trkpt lat="43.55709" lon="2.36344">
        <ele>372</ele>
        <time>2016-10-20T13:53:54Z</time>
      </trkpt>
      <trkpt lat="43.55709" lon="2.36345">
        <ele>372</ele>
        <time>2016-10-20T13:53:56Z</time>
      </trkpt>
      <trkpt lat="43.55709" lon="2.36345">
        <ele>372</ele>
        <time>2016-10-20T13:53:58Z</time>
      </trkpt>
      <trkpt lat="43.55709" lon="2.36346">
        <ele>372</ele>
        <time>2016-10-20T13:54:00Z</time>
      </trkpt>
      <trkpt lat="43.55709" lon="2.36346">
        <ele>372</ele>
        <time>2016-10-20T13:54:03Z</time>
      </trkpt>
      <trkpt lat="43.55709" lon="2.36346">
        <ele>372</ele>
        <time>2016-10-20T13:54:05Z</time>
      </trkpt>
      <trkpt lat="43.55709" lon="2.36347">
        <ele>372</ele>
        <time>2016-10-20T13:54:07Z</time>
      </trkpt>
      <trkpt lat="43.55709" lon="2.36347">
        <ele>372</ele>
        <time>2016-10-20T13:54:10Z</time>
      </trkpt>
      <trkpt lat="43.55709" lon="2.36347">
        <ele>372</ele>
        <time>2016-10-20T13:54:12Z</time>
      </trkpt>
      <trkpt lat="43.55709" lon="2.36348">
        <ele>372</ele>
        <time>2016-10-20T13:54:14Z</time>
      </trkpt>
      <trkpt lat="43.55709" lon="2.36348">
        <ele>372</ele>
        <time>2016-10-20T13:54:16Z</time>
      </trkpt>
      <trkpt lat="43.55709" lon="2.36349">
        <ele>372</ele>
        <time>2016-10-20T13:54:19Z</time>
      </trkpt>
      <trkpt lat="43.55709" lon="2.3635">
        <ele>373</ele>
        <time>2016-10-20T13:54:21Z</time>
      </trkpt>
      <trkpt lat="43.55709" lon="2.36354">
        <ele>373</ele>
        <time>2016-10-20T13:54:23Z</time>
      </trkpt>
      <trkpt lat="43.55709" lon="2.36355">
        <ele>373</ele>
        <time>2016-10-20T13:54:25Z</time>
      </trkpt>
      <trkpt lat="43.55709" lon="2.36357">
        <ele>373</ele>
        <time>2016-10-20T13:54:28Z</time>
      </trkpt>
      <trkpt lat="43.55709" lon="2.36359">
        <ele>373</ele>
        <time>2016-10-20T13:54:30Z</time>
      </trkpt>
      <trkpt lat="43.55709" lon="2.36361">
        <ele>373</ele>
        <time>2016-10-20T13:54:32Z</time>
      </trkpt>
      <trkpt lat="43.5571" lon="2.36363">
        <ele>374</ele>
        <time>2016-10-20T13:54:35Z</time>
      </trkpt>
      <trkpt lat="43.5571" lon="2.36365">
        <ele>374</ele>
        <time>2016-10-20T13:54:37Z</time>
      </trkpt>
      <trkpt lat="43.55709" lon="2.36369">
        <ele>374</ele>
        <time>2016-10-20T13:54:39Z</time>
      </trkpt>
      <trkpt lat="43.55709" lon="2.36372">
        <ele>374</ele>
        <time>2016-10-20T13:54:41Z</time>
      </trkpt>
      <trkpt lat="43.55709" lon="2.36378">
        <ele>375</ele>
        <time>2016-10-20T13:54:46Z</time>
      </trkpt>
      <trkpt lat="43.55708" lon="2.3638">
        <ele>375</ele>
        <time>2016-10-20T13:54:48Z</time>
      </trkpt>
      <trkpt lat="43.55708" lon="2.36383">
        <ele>375</ele>
        <time>2016-10-20T13:54:51Z</time>
      </trkpt>
      <trkpt lat="43.55708" lon="2.36386">
        <ele>375</ele>
        <time>2016-10-20T13:54:53Z</time>
      </trkpt>
      <trkpt lat="43.55707" lon="2.36389">
        <ele>376</ele>
        <time>2016-10-20T13:54:55Z</time>
      </trkpt>
      <trkpt lat="43.55707" lon="2.36393">
        <ele>376</ele>
        <time>2016-10-20T13:54:57Z</time>
      </trkpt>
      <trkpt lat="43.55707" lon="2.36395">
        <ele>376</ele>
        <time>2016-10-20T13:55:00Z</time>
      </trkpt>
      <trkpt lat="43.55706" lon="2.36399">
        <ele>376</ele>
        <time>2016-10-20T13:55:02Z</time>
      </trkpt>
      <trkpt lat="43.55706" lon="2.36402">
        <ele>377</ele>
        <time>2016-10-20T13:55:04Z</time>
      </trkpt>
      <trkpt lat="43.55706" lon="2.36404">
        <ele>377</ele>
        <time>2016-10-20T13:55:07Z</time>
      </trkpt>
      <trkpt lat="43.55706" lon="2.36407">
        <ele>377</ele>
        <time>2016-10-20T13:55:09Z</time>
      </trkpt>
      <trkpt lat="43.55705" lon="2.3641">
        <ele>377</ele>
        <time>2016-10-20T13:55:11Z</time>
      </trkpt>
      <trkpt lat="43.55705" lon="2.36413">
        <ele>378</ele>
        <time>2016-10-20T13:55:13Z</time>
      </trkpt>
      <trkpt lat="43.55704" lon="2.36415">
        <ele>378</ele>
        <time>2016-10-20T13:55:16Z</time>
      </trkpt>
      <trkpt lat="43.55703" lon="2.36421">
        <ele>378</ele>
        <time>2016-10-20T13:55:18Z</time>
      </trkpt>
      <trkpt lat="43.55703" lon="2.36424">
        <ele>379</ele>
        <time>2016-10-20T13:55:20Z</time>
      </trkpt>
      <trkpt lat="43.55703" lon="2.36427">
        <ele>379</ele>
        <time>2016-10-20T13:55:23Z</time>
      </trkpt>
      <trkpt lat="43.55702" lon="2.3643">
        <ele>380</ele>
        <time>2016-10-20T13:55:25Z</time>
      </trkpt>
      <trkpt lat="43.55701" lon="2.36435">
        <ele>380</ele>
        <time>2016-10-20T13:55:27Z</time>
      </trkpt>
      <trkpt lat="43.55701" lon="2.36438">
        <ele>381</ele>
        <time>2016-10-20T13:55:29Z</time>
      </trkpt>
      <trkpt lat="43.55701" lon="2.36441">
        <ele>381</ele>
        <time>2016-10-20T13:55:32Z</time>
      </trkpt>
      <trkpt lat="43.557" lon="2.36444">
        <ele>381</ele>
        <time>2016-10-20T13:55:34Z</time>
      </trkpt>
      <trkpt lat="43.557" lon="2.36447">
        <ele>382</ele>
        <time>2016-10-20T13:55:36Z</time>
      </trkpt>
      <trkpt lat="43.557" lon="2.36449">
        <ele>382</ele>
        <time>2016-10-20T13:55:39Z</time>
      </trkpt>
      <trkpt lat="43.55699" lon="2.36453">
        <ele>382</ele>
        <time>2016-10-20T13:55:41Z</time>
      </trkpt>
      <trkpt lat="43.55698" lon="2.36456">
        <ele>383</ele>
        <time>2016-10-20T13:55:43Z</time>
      </trkpt>
      <trkpt lat="43.55698" lon="2.36459">
        <ele>383</ele>
        <time>2016-10-20T13:55:46Z</time>
      </trkpt>
      <trkpt lat="43.55698" lon="2.36462">
        <ele>383</ele>
        <time>2016-10-20T13:55:48Z</time>
      </trkpt>
      <trkpt lat="43.55696" lon="2.36465">
        <ele>384</ele>
        <time>2016-10-20T13:55:50Z</time>
      </trkpt>
      <trkpt lat="43.55696" lon="2.36468">
        <ele>384</ele>
        <time>2016-10-20T13:55:52Z</time>
      </trkpt>
      <trkpt lat="43.55695" lon="2.3647">
        <ele>385</ele>
        <time>2016-10-20T13:55:55Z</time>
      </trkpt>
      <trkpt lat="43.55694" lon="2.36474">
        <ele>385</ele>
        <time>2016-10-20T13:55:57Z</time>
      </trkpt>
      <trkpt lat="43.55692" lon="2.36477">
        <ele>385</ele>
        <time>2016-10-20T13:55:59Z</time>
      </trkpt>
      <trkpt lat="43.55691" lon="2.36479">
        <ele>386</ele>
        <time>2016-10-20T13:56:02Z</time>
      </trkpt>
      <trkpt lat="43.55691" lon="2.36483">
        <ele>386</ele>
        <time>2016-10-20T13:56:04Z</time>
      </trkpt>
      <trkpt lat="43.55689" lon="2.36488">
        <ele>387</ele>
        <time>2016-10-20T13:56:09Z</time>
      </trkpt>
      <trkpt lat="43.55689" lon="2.3649">
        <ele>387</ele>
        <time>2016-10-20T13:56:11Z</time>
      </trkpt>
      <trkpt lat="43.55689" lon="2.36492">
        <ele>387</ele>
        <time>2016-10-20T13:56:13Z</time>
      </trkpt>
      <trkpt lat="43.55689" lon="2.36494">
        <ele>387</ele>
        <time>2016-10-20T13:56:15Z</time>
      </trkpt>
      <trkpt lat="43.55689" lon="2.36496">
        <ele>388</ele>
        <time>2016-10-20T13:56:18Z</time>
      </trkpt>
      <trkpt lat="43.55689" lon="2.36497">
        <ele>388</ele>
        <time>2016-10-20T13:56:20Z</time>
      </trkpt>
      <trkpt lat="43.55689" lon="2.36497">
        <ele>388</ele>
        <time>2016-10-20T13:56:22Z</time>
      </trkpt>
      <trkpt lat="43.55689" lon="2.36497">
        <ele>388</ele>
        <time>2016-10-20T13:56:25Z</time>
      </trkpt>
      <trkpt lat="43.55689" lon="2.36497">
        <ele>388</ele>
        <time>2016-10-20T13:56:27Z</time>
      </trkpt>
      <trkpt lat="43.55688" lon="2.36498">
        <ele>388</ele>
        <time>2016-10-20T13:56:29Z</time>
      </trkpt>
      <trkpt lat="43.55688" lon="2.36498">
        <ele>388</ele>
        <time>2016-10-20T13:56:31Z</time>
      </trkpt>
      <trkpt lat="43.55688" lon="2.36498">
        <ele>388</ele>
        <time>2016-10-20T13:56:34Z</time>
      </trkpt>
      <trkpt lat="43.55688" lon="2.36498">
        <ele>388</ele>
        <time>2016-10-20T13:56:36Z</time>
      </trkpt>
      <trkpt lat="43.55688" lon="2.36498">
        <ele>388</ele>
        <time>2016-10-20T13:56:38Z</time>
      </trkpt>
      <trkpt lat="43.55688" lon="2.36498">
        <ele>388</ele>
        <time>2016-10-20T13:56:41Z</time>
      </trkpt>
      <trkpt lat="43.55688" lon="2.36499">
        <ele>388</ele>
        <time>2016-10-20T13:56:43Z</time>
      </trkpt>
      <trkpt lat="43.55688" lon="2.36499">
        <ele>388</ele>
        <time>2016-10-20T13:56:45Z</time>
      </trkpt>
      <trkpt lat="43.55689" lon="2.36499">
        <ele>388</ele>
        <time>2016-10-20T13:56:47Z</time>
      </trkpt>
      <trkpt lat="43.55689" lon="2.365">
        <ele>388</ele>
        <time>2016-10-20T13:56:50Z</time>
      </trkpt>
      <trkpt lat="43.55689" lon="2.36501">
        <ele>388</ele>
        <time>2016-10-20T13:56:52Z</time>
      </trkpt>
      <trkpt lat="43.55689" lon="2.36501">
        <ele>388</ele>
        <time>2016-10-20T13:56:54Z</time>
      </trkpt>
      <trkpt lat="43.55689" lon="2.36502">
        <ele>388</ele>
        <time>2016-10-20T13:56:57Z</time>
      </trkpt>
      <trkpt lat="43.55689" lon="2.36502">
        <ele>388</ele>
        <time>2016-10-20T13:56:59Z</time>
      </trkpt>
      <trkpt lat="43.55689" lon="2.36502">
        <ele>388</ele>
        <time>2016-10-20T13:57:01Z</time>
      </trkpt>
      <trkpt lat="43.55689" lon="2.36502">
        <ele>388</ele>
        <time>2016-10-20T13:57:03Z</time>
      </trkpt>
      <trkpt lat="43.5569" lon="2.36502">
        <ele>388</ele>
        <time>2016-10-20T13:57:06Z</time>
      </trkpt>
      <trkpt lat="43.5569" lon="2.36502">
        <ele>388</ele>
        <time>2016-10-20T13:57:08Z</time>
      </trkpt>
      <trkpt lat="43.5569" lon="2.36502">
        <ele>388</ele>
        <time>2016-10-20T13:57:10Z</time>
      </trkpt>
      <trkpt lat="43.5569" lon="2.36502">
        <ele>388</ele>
        <time>2016-10-20T13:57:13Z</time>
      </trkpt>
      <trkpt lat="43.55689" lon="2.36501">
        <ele>388</ele>
        <time>2016-10-20T13:57:15Z</time>
      </trkpt>
      <trkpt lat="43.55689" lon="2.36501">
        <ele>388</ele>
        <time>2016-10-20T13:57:17Z</time>
      </trkpt>
      <trkpt lat="43.5569" lon="2.36501">
        <ele>388</ele>
        <time>2016-10-20T13:57:19Z</time>
      </trkpt>
      <trkpt lat="43.5569" lon="2.36501">
        <ele>388</ele>
        <time>2016-10-20T13:57:22Z</time>
      </trkpt>
      <trkpt lat="43.5569" lon="2.365">
        <ele>388</ele>
        <time>2016-10-20T13:57:24Z</time>
      </trkpt>
      <trkpt lat="43.5569" lon="2.365">
        <ele>388</ele>
        <time>2016-10-20T13:57:26Z</time>
      </trkpt>
      <trkpt lat="43.5569" lon="2.365">
        <ele>388</ele>
        <time>2016-10-20T13:57:31Z</time>
      </trkpt>
      <trkpt lat="43.5569" lon="2.365">
        <ele>388</ele>
        <time>2016-10-20T13:57:33Z</time>
      </trkpt>
      <trkpt lat="43.5569" lon="2.36499">
        <ele>388</ele>
        <time>2016-10-20T13:57:36Z</time>
      </trkpt>
      <trkpt lat="43.5569" lon="2.36499">
        <ele>388</ele>
        <time>2016-10-20T13:57:38Z</time>
      </trkpt>
      <trkpt lat="43.5569" lon="2.36499">
        <ele>388</ele>
        <time>2016-10-20T13:57:40Z</time>
      </trkpt>
      <trkpt lat="43.5569" lon="2.36499">
        <ele>388</ele>
        <time>2016-10-20T13:57:42Z</time>
      </trkpt>
      <trkpt lat="43.5569" lon="2.36499">
        <ele>388</ele>
        <time>2016-10-20T13:57:45Z</time>
      </trkpt>
      <trkpt lat="43.5569" lon="2.365">
        <ele>388</ele>
        <time>2016-10-20T13:57:47Z</time>
      </trkpt>
      <trkpt lat="43.5569" lon="2.36501">
        <ele>388</ele>
        <time>2016-10-20T13:57:49Z</time>
      </trkpt>
      <trkpt lat="43.5569" lon="2.36501">
        <ele>388</ele>
        <time>2016-10-20T13:57:52Z</time>
      </trkpt>
      <trkpt lat="43.5569" lon="2.36501">
        <ele>388</ele>
        <time>2016-10-20T13:57:54Z</time>
      </trkpt>
      <trkpt lat="43.5569" lon="2.36501">
        <ele>388</ele>
        <time>2016-10-20T13:57:56Z</time>
      </trkpt>
      <trkpt lat="43.55689" lon="2.36501">
        <ele>388</ele>
        <time>2016-10-20T13:57:58Z</time>
      </trkpt>
      <trkpt lat="43.55689" lon="2.36501">
        <ele>388</ele>
        <time>2016-10-20T13:58:01Z</time>
      </trkpt>
      <trkpt lat="43.55689" lon="2.36501">
        <ele>388</ele>
        <time>2016-10-20T13:58:03Z</time>
      </trkpt>
      <trkpt lat="43.55689" lon="2.36501">
        <ele>388</ele>
        <time>2016-10-20T13:58:05Z</time>
      </trkpt>
      <trkpt lat="43.55689" lon="2.36501">
        <ele>388</ele>
        <time>2016-10-20T13:58:08Z</time>
      </trkpt>
      <trkpt lat="43.55689" lon="2.36501">
        <ele>388</ele>
        <time>2016-10-20T13:58:10Z</time>
      </trkpt>
      <trkpt lat="43.55688" lon="2.36502">
        <ele>388</ele>
        <time>2016-10-20T13:58:12Z</time>
      </trkpt>
      <trkpt lat="43.55688" lon="2.36502">
        <ele>388</ele>
        <time>2016-10-20T13:58:15Z</time>
      </trkpt>
      <trkpt lat="43.55688" lon="2.36502">
        <ele>388</ele>
        <time>2016-10-20T13:58:17Z</time>
      </trkpt>
      <trkpt lat="43.55688" lon="2.36502">
        <ele>388</ele>
        <time>2016-10-20T13:58:19Z</time>
      </trkpt>
      <trkpt lat="43.55687" lon="2.36502">
        <ele>388</ele>
        <time>2016-10-20T13:58:21Z</time>
      </trkpt>
      <trkpt lat="43.55687" lon="2.36502">
        <ele>388</ele>
        <time>2016-10-20T13:58:24Z</time>
      </trkpt>
      <trkpt lat="43.55687" lon="2.36502">
        <ele>388</ele>
        <time>2016-10-20T13:58:26Z</time>
      </trkpt>
      <trkpt lat="43.55687" lon="2.36503">
        <ele>388</ele>
        <time>2016-10-20T13:58:28Z</time>
      </trkpt>
      <trkpt lat="43.55687" lon="2.36503">
        <ele>388</ele>
        <time>2016-10-20T13:58:31Z</time>
      </trkpt>
      <trkpt lat="43.55687" lon="2.36503">
        <ele>388</ele>
        <time>2016-10-20T13:58:33Z</time>
      </trkpt>
      <trkpt lat="43.55687" lon="2.36503">
        <ele>388</ele>
        <time>2016-10-20T13:58:35Z</time>
      </trkpt>
      <trkpt lat="43.55687" lon="2.36504">
        <ele>388</ele>
        <time>2016-10-20T13:58:37Z</time>
      </trkpt>
      <trkpt lat="43.55687" lon="2.36504">
        <ele>388</ele>
        <time>2016-10-20T13:58:40Z</time>
      </trkpt>
      <trkpt lat="43.55687" lon="2.36504">
        <ele>388</ele>
        <time>2016-10-20T13:58:42Z</time>
      </trkpt>
      <trkpt lat="43.55687" lon="2.36504">
        <ele>389</ele>
        <time>2016-10-20T13:58:44Z</time>
      </trkpt>
      <trkpt lat="43.55687" lon="2.36505">
        <ele>389</ele>
        <time>2016-10-20T13:58:47Z</time>
      </trkpt>
      <trkpt lat="43.55687" lon="2.36505">
        <ele>389</ele>
        <time>2016-10-20T13:58:49Z</time>
      </trkpt>
      <trkpt lat="43.55687" lon="2.36506">
        <ele>389</ele>
        <time>2016-10-20T13:58:53Z</time>
      </trkpt>
      <trkpt lat="43.55687" lon="2.36506">
        <ele>389</ele>
        <time>2016-10-20T13:58:56Z</time>
      </trkpt>
      <trkpt lat="43.55687" lon="2.36506">
        <ele>389</ele>
        <time>2016-10-20T13:58:58Z</time>
      </trkpt>
      <trkpt lat="43.55686" lon="2.36506">
        <ele>389</ele>
        <time>2016-10-20T13:59:00Z</time>
      </trkpt>
      <trkpt lat="43.55686" lon="2.36506">
        <ele>389</ele>
        <time>2016-10-20T13:59:03Z</time>
      </trkpt>
      <trkpt lat="43.55687" lon="2.36506">
        <ele>389</ele>
        <time>2016-10-20T13:59:05Z</time>
      </trkpt>
      <trkpt lat="43.55686" lon="2.36506">
        <ele>389</ele>
        <time>2016-10-20T13:59:07Z</time>
      </trkpt>
      <trkpt lat="43.55686" lon="2.36506">
        <ele>389</ele>
        <time>2016-10-20T13:59:09Z</time>
      </trkpt>
      <trkpt lat="43.55686" lon="2.36505">
        <ele>389</ele>
        <time>2016-10-20T13:59:12Z</time>
      </trkpt>
      <trkpt lat="43.55685" lon="2.36505">
        <ele>389</ele>
        <time>2016-10-20T13:59:14Z</time>
      </trkpt>
      <trkpt lat="43.55685" lon="2.36505">
        <ele>389</ele>
        <time>2016-10-20T13:59:16Z</time>
      </trkpt>
      <trkpt lat="43.55686" lon="2.36505">
        <ele>389</ele>
        <time>2016-10-20T13:59:19Z</time>
      </trkpt>
      <trkpt lat="43.55686" lon="2.36505">
        <ele>389</ele>
        <time>2016-10-20T13:59:21Z</time>
      </trkpt>
      <trkpt lat="43.55686" lon="2.36505">
        <ele>389</ele>
        <time>2016-10-20T13:59:23Z</time>
      </trkpt>
      <trkpt lat="43.55686" lon="2.36505">
        <ele>389</ele>
        <time>2016-10-20T13:59:25Z</time>
      </trkpt>
      <trkpt lat="43.55685" lon="2.36505">
        <ele>389</ele>
        <time>2016-10-20T13:59:28Z</time>
      </trkpt>
      <trkpt lat="43.55685" lon="2.36506">
        <ele>389</ele>
        <time>2016-10-20T13:59:30Z</time>
      </trkpt>
      <trkpt lat="43.55685" lon="2.36506">
        <ele>389</ele>
        <time>2016-10-20T13:59:32Z</time>
      </trkpt>
      <trkpt lat="43.55685" lon="2.36506">
        <ele>389</ele>
        <time>2016-10-20T13:59:35Z</time>
      </trkpt>
      <trkpt lat="43.55685" lon="2.36507">
        <ele>389</ele>
        <time>2016-10-20T13:59:37Z</time>
      </trkpt>
      <trkpt lat="43.55685" lon="2.36506">
        <ele>389</ele>
        <time>2016-10-20T13:59:39Z</time>
      </trkpt>
      <trkpt lat="43.55685" lon="2.36506">
        <ele>389</ele>
        <time>2016-10-20T13:59:41Z</time>
      </trkpt>
      <trkpt lat="43.55685" lon="2.36506">
        <ele>389</ele>
        <time>2016-10-20T13:59:44Z</time>
      </trkpt>
      <trkpt lat="43.55685" lon="2.36506">
        <ele>389</ele>
        <time>2016-10-20T13:59:46Z</time>
      </trkpt>
      <trkpt lat="43.55686" lon="2.36506">
        <ele>389</ele>
        <time>2016-10-20T13:59:48Z</time>
      </trkpt>
      <trkpt lat="43.55686" lon="2.36506">
        <ele>389</ele>
        <time>2016-10-20T13:59:51Z</time>
      </trkpt>
      <trkpt lat="43.55686" lon="2.36505">
        <ele>389</ele>
        <time>2016-10-20T13:59:53Z</time>
      </trkpt>
      <trkpt lat="43.55686" lon="2.36505">
        <ele>389</ele>
        <time>2016-10-20T13:59:55Z</time>
      </trkpt>
      <trkpt lat="43.55686" lon="2.36505">
        <ele>389</ele>
        <time>2016-10-20T13:59:57Z</time>
      </trkpt>
      <trkpt lat="43.55686" lon="2.36505">
        <ele>389</ele>
        <time>2016-10-20T14:00:00Z</time>
      </trkpt>
      <trkpt lat="43.55686" lon="2.36504">
        <ele>389</ele>
        <time>2016-10-20T14:00:02Z</time>
      </trkpt>
      <trkpt lat="43.55686" lon="2.36504">
        <ele>389</ele>
        <time>2016-10-20T14:00:04Z</time>
      </trkpt>
      <trkpt lat="43.55686" lon="2.36504">
        <ele>389</ele>
        <time>2016-10-20T14:00:07Z</time>
      </trkpt>
      <trkpt lat="43.55686" lon="2.36504">
        <ele>389</ele>
        <time>2016-10-20T14:00:09Z</time>
      </trkpt>
      <trkpt lat="43.55686" lon="2.36504">
        <ele>389</ele>
        <time>2016-10-20T14:00:11Z</time>
      </trkpt>
      <trkpt lat="43.55686" lon="2.36504">
        <ele>389</ele>
        <time>2016-10-20T14:00:16Z</time>
      </trkpt>
      <trkpt lat="43.55686" lon="2.36504">
        <ele>389</ele>
        <time>2016-10-20T14:00:18Z</time>
      </trkpt>
      <trkpt lat="43.55686" lon="2.36504">
        <ele>389</ele>
        <time>2016-10-20T14:00:20Z</time>
      </trkpt>
      <trkpt lat="43.55686" lon="2.36504">
        <ele>389</ele>
        <time>2016-10-20T14:00:23Z</time>
      </trkpt>
      <trkpt lat="43.55686" lon="2.36503">
        <ele>388</ele>
        <time>2016-10-20T14:00:25Z</time>
      </trkpt>
      <trkpt lat="43.55686" lon="2.36503">
        <ele>388</ele>
        <time>2016-10-20T14:00:27Z</time>
      </trkpt>
      <trkpt lat="43.55686" lon="2.36503">
        <ele>388</ele>
        <time>2016-10-20T14:00:29Z</time>
      </trkpt>
      <trkpt lat="43.55686" lon="2.36503">
        <ele>388</ele>
        <time>2016-10-20T14:00:32Z</time>
      </trkpt>
      <trkpt lat="43.55686" lon="2.36503">
        <ele>388</ele>
        <time>2016-10-20T14:00:34Z</time>
      </trkpt>
      <trkpt lat="43.55686" lon="2.36503">
        <ele>388</ele>
        <time>2016-10-20T14:00:36Z</time>
      </trkpt>
      <trkpt lat="43.55686" lon="2.36503">
        <ele>388</ele>
        <time>2016-10-20T14:00:39Z</time>
      </trkpt>
      <trkpt lat="43.55686" lon="2.36503">
        <ele>388</ele>
        <time>2016-10-20T14:00:41Z</time>
      </trkpt>
      <trkpt lat="43.55686" lon="2.36503">
        <ele>388</ele>
        <time>2016-10-20T14:00:43Z</time>
      </trkpt>
      <trkpt lat="43.55686" lon="2.36503">
        <ele>388</ele>
        <time>2016-10-20T14:00:45Z</time>
      </trkpt>
      <trkpt lat="43.55686" lon="2.36502">
        <ele>388</ele>
        <time>2016-10-20T14:00:48Z</time>
      </trkpt>
      <trkpt lat="43.55686" lon="2.36504">
        <ele>389</ele>
        <time>2016-10-20T14:00:50Z</time>
      </trkpt>
      <trkpt lat="43.55685" lon="2.36505">
        <ele>389</ele>
        <time>2016-10-20T14:00:52Z</time>
      </trkpt>
      <trkpt lat="43.55685" lon="2.36507">
        <ele>389</ele>
        <time>2016-10-20T14:00:55Z</time>
      </trkpt>
      <trkpt lat="43.55684" lon="2.3651">
        <ele>389</ele>
        <time>2016-10-20T14:00:57Z</time>
      </trkpt>
      <trkpt lat="43.55683" lon="2.36513">
        <ele>390</ele>
        <time>2016-10-20T14:00:59Z</time>
      </trkpt>
      <trkpt lat="43.55681" lon="2.36515">
        <ele>390</ele>
        <time>2016-10-20T14:01:01Z</time>
      </trkpt>
      <trkpt lat="43.5568" lon="2.36517">
        <ele>390</ele>
        <time>2016-10-20T14:01:04Z</time>
      </trkpt>
      <trkpt lat="43.55679" lon="2.3652">
        <ele>391</ele>
        <time>2016-10-20T14:01:06Z</time>
      </trkpt>
      <trkpt lat="43.55678" lon="2.36522">
        <ele>391</ele>
        <time>2016-10-20T14:01:08Z</time>
      </trkpt>
      <trkpt lat="43.55677" lon="2.36524">
        <ele>391</ele>
        <time>2016-10-20T14:01:11Z</time>
      </trkpt>
      <trkpt lat="43.55676" lon="2.36527">
        <ele>392</ele>
        <time>2016-10-20T14:01:13Z</time>
      </trkpt>
      <trkpt lat="43.55674" lon="2.3653">
        <ele>392</ele>
        <time>2016-10-20T14:01:15Z</time>
      </trkpt>
      <trkpt lat="43.55673" lon="2.36532">
        <ele>392</ele>
        <time>2016-10-20T14:01:17Z</time>
      </trkpt>
      <trkpt lat="43.55672" lon="2.36533">
        <ele>393</ele>
        <time>2016-10-20T14:01:20Z</time>
      </trkpt>
      <trkpt lat="43.5567" lon="2.36537">
        <ele>393</ele>
        <time>2016-10-20T14:01:22Z</time>
      </trkpt>
      <trkpt lat="43.55669" lon="2.36539">
        <ele>394</ele>
        <time>2016-10-20T14:01:24Z</time>
      </trkpt>
      <trkpt lat="43.55667" lon="2.3654">
        <ele>394</ele>
        <time>2016-10-20T14:01:27Z</time>
      </trkpt>
      <trkpt lat="43.55667" lon="2.36543">
        <ele>394</ele>
        <time>2016-10-20T14:01:29Z</time>
      </trkpt>
      <trkpt lat="43.55665" lon="2.36546">
        <ele>394</ele>
        <time>2016-10-20T14:01:31Z</time>
      </trkpt>
      <trkpt lat="43.55664" lon="2.36548">
        <ele>395</ele>
        <time>2016-10-20T14:01:33Z</time>
      </trkpt>
      <trkpt lat="43.5566" lon="2.36552">
        <ele>395</ele>
        <time>2016-10-20T14:01:38Z</time>
      </trkpt>
      <trkpt lat="43.55659" lon="2.36554">
        <ele>395</ele>
        <time>2016-10-20T14:01:40Z</time>
      </trkpt>
      <trkpt lat="43.55658" lon="2.36557">
        <ele>395</ele>
        <time>2016-10-20T14:01:43Z</time>
      </trkpt>
      <trkpt lat="43.55656" lon="2.3656">
        <ele>395</ele>
        <time>2016-10-20T14:01:45Z</time>
      </trkpt>
      <trkpt lat="43.55654" lon="2.36562">
        <ele>395</ele>
        <time>2016-10-20T14:01:47Z</time>
      </trkpt>
      <trkpt lat="43.55653" lon="2.36564">
        <ele>395</ele>
        <time>2016-10-20T14:01:49Z</time>
      </trkpt>
      <trkpt lat="43.55651" lon="2.36566">
        <ele>395</ele>
        <time>2016-10-20T14:01:52Z</time>
      </trkpt>
      <trkpt lat="43.5565" lon="2.36571">
        <ele>395</ele>
        <time>2016-10-20T14:01:54Z</time>
      </trkpt>
      <trkpt lat="43.55648" lon="2.36572">
        <ele>395</ele>
        <time>2016-10-20T14:01:56Z</time>
      </trkpt>
      <trkpt lat="43.55647" lon="2.36575">
        <ele>395</ele>
        <time>2016-10-20T14:01:59Z</time>
      </trkpt>
      <trkpt lat="43.55645" lon="2.36578">
        <ele>395</ele>
        <time>2016-10-20T14:02:01Z</time>
      </trkpt>
      <trkpt lat="43.55643" lon="2.36581">
        <ele>395</ele>
        <time>2016-10-20T14:02:03Z</time>
      </trkpt>
      <trkpt lat="43.55642" lon="2.36584">
        <ele>395</ele>
        <time>2016-10-20T14:02:06Z</time>
      </trkpt>
      <trkpt lat="43.55641" lon="2.36586">
        <ele>395</ele>
        <time>2016-10-20T14:02:08Z</time>
      </trkpt>
      <trkpt lat="43.55639" lon="2.3659">
        <ele>395</ele>
        <time>2016-10-20T14:02:10Z</time>
      </trkpt>
      <trkpt lat="43.55637" lon="2.36593">
        <ele>396</ele>
        <time>2016-10-20T14:02:12Z</time>
      </trkpt>
      <trkpt lat="43.55635" lon="2.36597">
        <ele>396</ele>
        <time>2016-10-20T14:02:15Z</time>
      </trkpt>
      <trkpt lat="43.55633" lon="2.36601">
        <ele>396</ele>
        <time>2016-10-20T14:02:17Z</time>
      </trkpt>
      <trkpt lat="43.55632" lon="2.36604">
        <ele>396</ele>
        <time>2016-10-20T14:02:19Z</time>
      </trkpt>
      <trkpt lat="43.55631" lon="2.36606">
        <ele>396</ele>
        <time>2016-10-20T14:02:22Z</time>
      </trkpt>
      <trkpt lat="43.55628" lon="2.36609">
        <ele>396</ele>
        <time>2016-10-20T14:02:24Z</time>
      </trkpt>
      <trkpt lat="43.55627" lon="2.36612">
        <ele>396</ele>
        <time>2016-10-20T14:02:26Z</time>
      </trkpt>
      <trkpt lat="43.55626" lon="2.36614">
        <ele>397</ele>
        <time>2016-10-20T14:02:28Z</time>
      </trkpt>
      <trkpt lat="43.55624" lon="2.36617">
        <ele>397</ele>
        <time>2016-10-20T14:02:31Z</time>
      </trkpt>
      <trkpt lat="43.55623" lon="2.3662">
        <ele>397</ele>
        <time>2016-10-20T14:02:33Z</time>
      </trkpt>
      <trkpt lat="43.55621" lon="2.36623">
        <ele>397</ele>
        <time>2016-10-20T14:02:35Z</time>
      </trkpt>
      <trkpt lat="43.5562" lon="2.36626">
        <ele>397</ele>
        <time>2016-10-20T14:02:38Z</time>
      </trkpt>
      <trkpt lat="43.55618" lon="2.36628">
        <ele>397</ele>
        <time>2016-10-20T14:02:40Z</time>
      </trkpt>
      <trkpt lat="43.55617" lon="2.36631">
        <ele>397</ele>
        <time>2016-10-20T14:02:42Z</time>
      </trkpt>
      <trkpt lat="43.55615" lon="2.36632">
        <ele>397</ele>
        <time>2016-10-20T14:02:45Z</time>
      </trkpt>
      <trkpt lat="43.55613" lon="2.36635">
        <ele>397</ele>
        <time>2016-10-20T14:02:47Z</time>
      </trkpt>
      <trkpt lat="43.55611" lon="2.36637">
        <ele>397</ele>
        <time>2016-10-20T14:02:49Z</time>
      </trkpt>
      <trkpt lat="43.5561" lon="2.36639">
        <ele>397</ele>
        <time>2016-10-20T14:02:52Z</time>
      </trkpt>
      <trkpt lat="43.55609" lon="2.36642">
        <ele>398</ele>
        <time>2016-10-20T14:02:54Z</time>
      </trkpt>
      <trkpt lat="43.55608" lon="2.36647">
        <ele>398</ele>
        <time>2016-10-20T14:02:56Z</time>
      </trkpt>
      <trkpt lat="43.55606" lon="2.36654">
        <ele>398</ele>
        <time>2016-10-20T14:03:01Z</time>
      </trkpt>
      <trkpt lat="43.55606" lon="2.36659">
        <ele>398</ele>
        <time>2016-10-20T14:03:03Z</time>
      </trkpt>
      <trkpt lat="43.55604" lon="2.36662">
        <ele>399</ele>
        <time>2016-10-20T14:03:05Z</time>
      </trkpt>
      <trkpt lat="43.55603" lon="2.36665">
        <ele>399</ele>
        <time>2016-10-20T14:03:08Z</time>
      </trkpt>
      <trkpt lat="43.55602" lon="2.36667">
        <ele>399</ele>
        <time>2016-10-20T14:03:10Z</time>
      </trkpt>
      <trkpt lat="43.556" lon="2.3667">
        <ele>399</ele>
        <time>2016-10-20T14:03:12Z</time>
      </trkpt>
      <trkpt lat="43.55599" lon="2.36673">
        <ele>399</ele>
        <time>2016-10-20T14:03:14Z</time>
      </trkpt>
      <trkpt lat="43.55598" lon="2.36676">
        <ele>399</ele>
        <time>2016-10-20T14:03:17Z</time>
      </trkpt>
      <trkpt lat="43.55597" lon="2.36681">
        <ele>399</ele>
        <time>2016-10-20T14:03:19Z</time>
      </trkpt>
      <trkpt lat="43.55595" lon="2.36683">
        <ele>399</ele>
        <time>2016-10-20T14:03:21Z</time>
      </trkpt>
      <trkpt lat="43.55594" lon="2.36686">
        <ele>399</ele>
        <time>2016-10-20T14:03:24Z</time>
      </trkpt>
      <trkpt lat="43.55593" lon="2.36688">
        <ele>399</ele>
        <time>2016-10-20T14:03:26Z</time>
      </trkpt>
      <trkpt lat="43.55591" lon="2.36691">
        <ele>399</ele>
        <time>2016-10-20T14:03:28Z</time>
      </trkpt>
      <trkpt lat="43.5559" lon="2.36694">
        <ele>399</ele>
        <time>2016-10-20T14:03:30Z</time>
      </trkpt>
      <trkpt lat="43.55589" lon="2.36696">
        <ele>399</ele>
        <time>2016-10-20T14:03:33Z</time>
      </trkpt>
      <trkpt lat="43.55587" lon="2.36699">
        <ele>399</ele>
        <time>2016-10-20T14:03:35Z</time>
      </trkpt>
      <trkpt lat="43.55586" lon="2.36702">
        <ele>400</ele>
        <time>2016-10-20T14:03:37Z</time>
      </trkpt>
      <trkpt lat="43.55584" lon="2.36704">
        <ele>400</ele>
        <time>2016-10-20T14:03:40Z</time>
      </trkpt>
      <trkpt lat="43.55584" lon="2.36707">
        <ele>400</ele>
        <time>2016-10-20T14:03:42Z</time>
      </trkpt>
      <trkpt lat="43.55583" lon="2.36712">
        <ele>400</ele>
        <time>2016-10-20T14:03:44Z</time>
      </trkpt>
      <trkpt lat="43.55582" lon="2.36715">
        <ele>400</ele>
        <time>2016-10-20T14:03:46Z</time>
      </trkpt>
      <trkpt lat="43.55582" lon="2.36718">
        <ele>400</ele>
        <time>2016-10-20T14:03:49Z</time>
      </trkpt>
      <trkpt lat="43.5558" lon="2.36722">
        <ele>400</ele>
        <time>2016-10-20T14:03:51Z</time>
      </trkpt>
      <trkpt lat="43.5558" lon="2.36725">
        <ele>401</ele>
        <time>2016-10-20T14:03:53Z</time>
      </trkpt>
      <trkpt lat="43.5558" lon="2.36728">
        <ele>401</ele>
        <time>2016-10-20T14:03:56Z</time>
      </trkpt>
      <trkpt lat="43.55579" lon="2.36732">
        <ele>401</ele>
        <time>2016-10-20T14:03:58Z</time>
      </trkpt>
      <trkpt lat="43.55578" lon="2.36735">
        <ele>401</ele>
        <time>2016-10-20T14:04:00Z</time>
      </trkpt>
      <trkpt lat="43.55577" lon="2.36738">
        <ele>401</ele>
        <time>2016-10-20T14:04:03Z</time>
      </trkpt>
      <trkpt lat="43.55575" lon="2.36741">
        <ele>401</ele>
        <time>2016-10-20T14:04:05Z</time>
      </trkpt>
      <trkpt lat="43.55574" lon="2.36743">
        <ele>401</ele>
        <time>2016-10-20T14:04:07Z</time>
      </trkpt>
      <trkpt lat="43.55573" lon="2.36745">
        <ele>401</ele>
        <time>2016-10-20T14:04:10Z</time>
      </trkpt>
      <trkpt lat="43.55572" lon="2.36748">
        <ele>402</ele>
        <time>2016-10-20T14:04:12Z</time>
      </trkpt>
      <trkpt lat="43.5557" lon="2.36751">
        <ele>402</ele>
        <time>2016-10-20T14:04:14Z</time>
      </trkpt>
      <trkpt lat="43.55569" lon="2.36754">
        <ele>402</ele>
        <time>2016-10-20T14:04:16Z</time>
      </trkpt>
      <trkpt lat="43.55568" lon="2.36756">
        <ele>402</ele>
        <time>2016-10-20T14:04:19Z</time>
      </trkpt>
      <trkpt lat="43.55566" lon="2.36762">
        <ele>402</ele>
        <time>2016-10-20T14:04:23Z</time>
      </trkpt>
      <trkpt lat="43.55564" lon="2.36765">
        <ele>402</ele>
        <time>2016-10-20T14:04:26Z</time>
      </trkpt>
      <trkpt lat="43.55563" lon="2.36768">
        <ele>402</ele>
        <time>2016-10-20T14:04:28Z</time>
      </trkpt>
      <trkpt lat="43.55562" lon="2.3677">
        <ele>402</ele>
        <time>2016-10-20T14:04:30Z</time>
      </trkpt>
      <trkpt lat="43.55561" lon="2.36772">
        <ele>402</ele>
        <time>2016-10-20T14:04:33Z</time>
      </trkpt>
      <trkpt lat="43.5556" lon="2.36774">
        <ele>402</ele>
        <time>2016-10-20T14:04:35Z</time>
      </trkpt>
      <trkpt lat="43.55559" lon="2.36778">
        <ele>402</ele>
        <time>2016-10-20T14:04:37Z</time>
      </trkpt>
      <trkpt lat="43.55557" lon="2.3678">
        <ele>401</ele>
        <time>2016-10-20T14:04:39Z</time>
      </trkpt>
      <trkpt lat="43.55556" lon="2.36782">
        <ele>401</ele>
        <time>2016-10-20T14:04:42Z</time>
      </trkpt>
      <trkpt lat="43.55555" lon="2.36786">
        <ele>402</ele>
        <time>2016-10-20T14:04:44Z</time>
      </trkpt>
      <trkpt lat="43.55554" lon="2.36788">
        <ele>402</ele>
        <time>2016-10-20T14:04:46Z</time>
      </trkpt>
      <trkpt lat="43.55553" lon="2.3679">
        <ele>402</ele>
        <time>2016-10-20T14:04:49Z</time>
      </trkpt>
      <trkpt lat="43.55552" lon="2.36795">
        <ele>402</ele>
        <time>2016-10-20T14:04:51Z</time>
      </trkpt>
      <trkpt lat="43.55551" lon="2.36797">
        <ele>402</ele>
        <time>2016-10-20T14:04:53Z</time>
      </trkpt>
      <trkpt lat="43.55551" lon="2.36797">
        <ele>402</ele>
        <time>2016-10-20T14:04:56Z</time>
      </trkpt>
      <trkpt lat="43.55551" lon="2.36798">
        <ele>402</ele>
        <time>2016-10-20T14:04:58Z</time>
      </trkpt>
      <trkpt lat="43.5555" lon="2.36798">
        <ele>402</ele>
        <time>2016-10-20T14:05:00Z</time>
      </trkpt>
      <trkpt lat="43.5555" lon="2.36799">
        <ele>402</ele>
        <time>2016-10-20T14:05:02Z</time>
      </trkpt>
      <trkpt lat="43.5555" lon="2.36799">
        <ele>402</ele>
        <time>2016-10-20T14:05:05Z</time>
      </trkpt>
      <trkpt lat="43.5555" lon="2.36799">
        <ele>402</ele>
        <time>2016-10-20T14:05:07Z</time>
      </trkpt>
      <trkpt lat="43.5555" lon="2.36799">
        <ele>402</ele>
        <time>2016-10-20T14:05:09Z</time>
      </trkpt>
      <trkpt lat="43.5555" lon="2.36799">
        <ele>402</ele>
        <time>2016-10-20T14:05:12Z</time>
      </trkpt>
      <trkpt lat="43.5555" lon="2.36799">
        <ele>402</ele>
        <time>2016-10-20T14:05:14Z</time>
      </trkpt>
      <trkpt lat="43.5555" lon="2.36799">
        <ele>402</ele>
        <time>2016-10-20T14:05:16Z</time>
      </trkpt>
      <trkpt lat="43.5555" lon="2.36799">
        <ele>402</ele>
        <time>2016-10-20T14:05:18Z</time>
      </trkpt>
      <trkpt lat="43.5555" lon="2.36799">
        <ele>402</ele>
        <time>2016-10-20T14:05:21Z</time>
      </trkpt>
      <trkpt lat="43.5555" lon="2.368">
        <ele>402</ele>
        <time>2016-10-20T14:05:23Z</time>
      </trkpt>
      <trkpt lat="43.55549" lon="2.36801">
        <ele>402</ele>
        <time>2016-10-20T14:05:25Z</time>
      </trkpt>
      <trkpt lat="43.55549" lon="2.36804">
        <ele>402</ele>
        <time>2016-10-20T14:05:28Z</time>
      </trkpt>
      <trkpt lat="43.55547" lon="2.36808">
        <ele>402</ele>
        <time>2016-10-20T14:05:30Z</time>
      </trkpt>
      <trkpt lat="43.55546" lon="2.3681">
        <ele>402</ele>
        <time>2016-10-20T14:05:32Z</time>
      </trkpt>
      <trkpt lat="43.55545" lon="2.36812">
        <ele>402</ele>
        <time>2016-10-20T14:05:35Z</time>
      </trkpt>
      <trkpt lat="43.55543" lon="2.36815">
        <ele>402</ele>
        <time>2016-10-20T14:05:37Z</time>
      </trkpt>
      <trkpt lat="43.55541" lon="2.3682">
        <ele>402</ele>
        <time>2016-10-20T14:05:39Z</time>
      </trkpt>
      <trkpt lat="43.5554" lon="2.36823">
        <ele>402</ele>
        <time>2016-10-20T14:05:41Z</time>
      </trkpt>
      <trkpt lat="43.55538" lon="2.3683">
        <ele>402</ele>
        <time>2016-10-20T14:05:46Z</time>
      </trkpt>
      <trkpt lat="43.55537" lon="2.36834">
        <ele>402</ele>
        <time>2016-10-20T14:05:48Z</time>
      </trkpt>
      <trkpt lat="43.55537" lon="2.36836">
        <ele>402</ele>
        <time>2016-10-20T14:05:51Z</time>
      </trkpt>
      <trkpt lat="43.55536" lon="2.36839">
        <ele>402</ele>
        <time>2016-10-20T14:05:53Z</time>
      </trkpt>
      <trkpt lat="43.55535" lon="2.36843">
        <ele>402</ele>
        <time>2016-10-20T14:05:55Z</time>
      </trkpt>
      <trkpt lat="43.55534" lon="2.36847">
        <ele>402</ele>
        <time>2016-10-20T14:05:58Z</time>
      </trkpt>
      <trkpt lat="43.55533" lon="2.36851">
        <ele>402</ele>
        <time>2016-10-20T14:06:00Z</time>
      </trkpt>
      <trkpt lat="43.55532" lon="2.36854">
        <ele>402</ele>
        <time>2016-10-20T14:06:02Z</time>
      </trkpt>
      <trkpt lat="43.55531" lon="2.36857">
        <ele>402</ele>
        <time>2016-10-20T14:06:05Z</time>
      </trkpt>
      <trkpt lat="43.5553" lon="2.3686">
        <ele>402</ele>
        <time>2016-10-20T14:06:07Z</time>
      </trkpt>
      <trkpt lat="43.55529" lon="2.36864">
        <ele>402</ele>
        <time>2016-10-20T14:06:09Z</time>
      </trkpt>
      <trkpt lat="43.55528" lon="2.36867">
        <ele>402</ele>
        <time>2016-10-20T14:06:11Z</time>
      </trkpt>
      <trkpt lat="43.55527" lon="2.36869">
        <ele>402</ele>
        <time>2016-10-20T14:06:14Z</time>
      </trkpt>
      <trkpt lat="43.55526" lon="2.36873">
        <ele>402</ele>
        <time>2016-10-20T14:06:16Z</time>
      </trkpt>
      <trkpt lat="43.55525" lon="2.36876">
        <ele>402</ele>
        <time>2016-10-20T14:06:18Z</time>
      </trkpt>
      <trkpt lat="43.55524" lon="2.36879">
        <ele>402</ele>
        <time>2016-10-20T14:06:21Z</time>
      </trkpt>
      <trkpt lat="43.55524" lon="2.36883">
        <ele>401</ele>
        <time>2016-10-20T14:06:23Z</time>
      </trkpt>
      <trkpt lat="43.55522" lon="2.36888">
        <ele>401</ele>
        <time>2016-10-20T14:06:25Z</time>
      </trkpt>
      <trkpt lat="43.55521" lon="2.3689">
        <ele>401</ele>
        <time>2016-10-20T14:06:27Z</time>
      </trkpt>
      <trkpt lat="43.55521" lon="2.36894">
        <ele>401</ele>
        <time>2016-10-20T14:06:30Z</time>
      </trkpt>
      <trkpt lat="43.55519" lon="2.36897">
        <ele>401</ele>
        <time>2016-10-20T14:06:32Z</time>
      </trkpt>
      <trkpt lat="43.55519" lon="2.369">
        <ele>401</ele>
        <time>2016-10-20T14:06:34Z</time>
      </trkpt>
      <trkpt lat="43.55517" lon="2.36903">
        <ele>400</ele>
        <time>2016-10-20T14:06:37Z</time>
      </trkpt>
      <trkpt lat="43.55517" lon="2.36905">
        <ele>400</ele>
        <time>2016-10-20T14:06:39Z</time>
      </trkpt>
      <trkpt lat="43.55515" lon="2.3691">
        <ele>400</ele>
        <time>2016-10-20T14:06:41Z</time>
      </trkpt>
      <trkpt lat="43.55514" lon="2.36913">
        <ele>400</ele>
        <time>2016-10-20T14:06:43Z</time>
      </trkpt>
      <trkpt lat="43.55513" lon="2.36916">
        <ele>400</ele>
        <time>2016-10-20T14:06:46Z</time>
      </trkpt>
      <trkpt lat="43.55513" lon="2.36921">
        <ele>399</ele>
        <time>2016-10-20T14:06:48Z</time>
      </trkpt>
      <trkpt lat="43.55512" lon="2.36925">
        <ele>399</ele>
        <time>2016-10-20T14:06:50Z</time>
      </trkpt>
      <trkpt lat="43.55511" lon="2.36929">
        <ele>399</ele>
        <time>2016-10-20T14:06:53Z</time>
      </trkpt>
      <trkpt lat="43.55509" lon="2.36933">
        <ele>399</ele>
        <time>2016-10-20T14:06:55Z</time>
      </trkpt>
      <trkpt lat="43.55509" lon="2.36937">
        <ele>399</ele>
        <time>2016-10-20T14:06:57Z</time>
      </trkpt>
      <trkpt lat="43.55508" lon="2.3694">
        <ele>398</ele>
        <time>2016-10-20T14:07:00Z</time>
      </trkpt>
      <trkpt lat="43.55507" lon="2.36943">
        <ele>398</ele>
        <time>2016-10-20T14:07:02Z</time>
      </trkpt>
      <trkpt lat="43.55506" lon="2.36948">
        <ele>398</ele>
        <time>2016-10-20T14:07:04Z</time>
      </trkpt>
      <trkpt lat="43.55504" lon="2.36951">
        <ele>398</ele>
        <time>2016-10-20T14:07:06Z</time>
      </trkpt>
      <trkpt lat="43.55502" lon="2.36958">
        <ele>398</ele>
        <time>2016-10-20T14:07:11Z</time>
      </trkpt>
      <trkpt lat="43.55501" lon="2.36961">
        <ele>398</ele>
        <time>2016-10-20T14:07:13Z</time>
      </trkpt>
      <trkpt lat="43.555" lon="2.36963">
        <ele>398</ele>
        <time>2016-10-20T14:07:16Z</time>
      </trkpt>
      <trkpt lat="43.55499" lon="2.36967">
        <ele>398</ele>
        <time>2016-10-20T14:07:18Z</time>
      </trkpt>
      <trkpt lat="43.55497" lon="2.3697">
        <ele>398</ele>
        <time>2016-10-20T14:07:20Z</time>
      </trkpt>
      <trkpt lat="43.55496" lon="2.36973">
        <ele>398</ele>
        <time>2016-10-20T14:07:22Z</time>
      </trkpt>
      <trkpt lat="43.55494" lon="2.36976">
        <ele>398</ele>
        <time>2016-10-20T14:07:25Z</time>
      </trkpt>
      <trkpt lat="43.55492" lon="2.3698">
        <ele>397</ele>
        <time>2016-10-20T14:07:27Z</time>
      </trkpt>
      <trkpt lat="43.55491" lon="2.36983">
        <ele>397</ele>
        <time>2016-10-20T14:07:29Z</time>
      </trkpt>
      <trkpt lat="43.55489" lon="2.36986">
        <ele>397</ele>
        <time>2016-10-20T14:07:32Z</time>
      </trkpt>
      <trkpt lat="43.55487" lon="2.36991">
        <ele>397</ele>
        <time>2016-10-20T14:07:34Z</time>
      </trkpt>
      <trkpt lat="43.55486" lon="2.36994">
        <ele>397</ele>
        <time>2016-10-20T14:07:36Z</time>
      </trkpt>
      <trkpt lat="43.55485" lon="2.36997">
        <ele>397</ele>
        <time>2016-10-20T14:07:39Z</time>
      </trkpt>
      <trkpt lat="43.55483" lon="2.37">
        <ele>397</ele>
        <time>2016-10-20T14:07:41Z</time>
      </trkpt>
      <trkpt lat="43.55481" lon="2.37005">
        <ele>397</ele>
        <time>2016-10-20T14:07:43Z</time>
      </trkpt>
      <trkpt lat="43.5548" lon="2.37008">
        <ele>398</ele>
        <time>2016-10-20T14:07:45Z</time>
      </trkpt>
      <trkpt lat="43.55479" lon="2.37011">
        <ele>398</ele>
        <time>2016-10-20T14:07:48Z</time>
      </trkpt>
      <trkpt lat="43.55477" lon="2.37015">
        <ele>398</ele>
        <time>2016-10-20T14:07:50Z</time>
      </trkpt>
      <trkpt lat="43.55475" lon="2.37018">
        <ele>398</ele>
        <time>2016-10-20T14:07:52Z</time>
      </trkpt>
      <trkpt lat="43.55474" lon="2.37021">
        <ele>398</ele>
        <time>2016-10-20T14:07:55Z</time>
      </trkpt>
      <trkpt lat="43.55472" lon="2.37023">
        <ele>398</ele>
        <time>2016-10-20T14:07:57Z</time>
      </trkpt>
      <trkpt lat="43.5547" lon="2.37027">
        <ele>398</ele>
        <time>2016-10-20T14:07:59Z</time>
      </trkpt>
      <trkpt lat="43.5547" lon="2.3703">
        <ele>398</ele>
        <time>2016-10-20T14:08:01Z</time>
      </trkpt>
      <trkpt lat="43.55468" lon="2.37032">
        <ele>398</ele>
        <time>2016-10-20T14:08:04Z</time>
      </trkpt>
      <trkpt lat="43.55466" lon="2.37035">
        <ele>398</ele>
        <time>2016-10-20T14:08:06Z</time>
      </trkpt>
      <trkpt lat="43.55466" lon="2.37038">
        <ele>398</ele>
        <time>2016-10-20T14:08:08Z</time>
      </trkpt>
      <trkpt lat="43.55465" lon="2.3704">
        <ele>398</ele>
        <time>2016-10-20T14:08:11Z</time>
      </trkpt>
      <trkpt lat="43.55463" lon="2.37044">
        <ele>398</ele>
        <time>2016-10-20T14:08:13Z</time>
      </trkpt>
      <trkpt lat="43.55461" lon="2.37047">
        <ele>399</ele>
        <time>2016-10-20T14:08:15Z</time>
      </trkpt>
      <trkpt lat="43.5546" lon="2.37049">
        <ele>398</ele>
        <time>2016-10-20T14:08:18Z</time>
      </trkpt>
      <trkpt lat="43.55459" lon="2.37052">
        <ele>398</ele>
        <time>2016-10-20T14:08:20Z</time>
      </trkpt>
      <trkpt lat="43.55457" lon="2.37055">
        <ele>398</ele>
        <time>2016-10-20T14:08:22Z</time>
      </trkpt>
      <trkpt lat="43.55456" lon="2.37057">
        <ele>398</ele>
        <time>2016-10-20T14:08:24Z</time>
      </trkpt>
      <trkpt lat="43.55455" lon="2.37059">
        <ele>398</ele>
        <time>2016-10-20T14:08:27Z</time>
      </trkpt>
      <trkpt lat="43.55454" lon="2.37063">
        <ele>398</ele>
        <time>2016-10-20T14:08:29Z</time>
      </trkpt>
      <trkpt lat="43.55451" lon="2.37067">
        <ele>398</ele>
        <time>2016-10-20T14:08:34Z</time>
      </trkpt>
      <trkpt lat="43.55449" lon="2.37071">
        <ele>398</ele>
        <time>2016-10-20T14:08:36Z</time>
      </trkpt>
      <trkpt lat="43.55448" lon="2.37074">
        <ele>398</ele>
        <time>2016-10-20T14:08:38Z</time>
      </trkpt>
      <trkpt lat="43.55447" lon="2.37077">
        <ele>398</ele>
        <time>2016-10-20T14:08:41Z</time>
      </trkpt>
      <trkpt lat="43.55445" lon="2.3708">
        <ele>398</ele>
        <time>2016-10-20T14:08:43Z</time>
      </trkpt>
      <trkpt lat="43.55443" lon="2.37084">
        <ele>398</ele>
        <time>2016-10-20T14:08:45Z</time>
      </trkpt>
      <trkpt lat="43.55442" lon="2.37086">
        <ele>398</ele>
        <time>2016-10-20T14:08:47Z</time>
      </trkpt>
      <trkpt lat="43.5544" lon="2.37089">
        <ele>398</ele>
        <time>2016-10-20T14:08:50Z</time>
      </trkpt>
      <trkpt lat="43.55438" lon="2.37092">
        <ele>398</ele>
        <time>2016-10-20T14:08:52Z</time>
      </trkpt>
      <trkpt lat="43.55436" lon="2.37094">
        <ele>398</ele>
        <time>2016-10-20T14:08:54Z</time>
      </trkpt>
      <trkpt lat="43.55434" lon="2.37097">
        <ele>398</ele>
        <time>2016-10-20T14:08:57Z</time>
      </trkpt>
      <trkpt lat="43.55432" lon="2.371">
        <ele>398</ele>
        <time>2016-10-20T14:08:59Z</time>
      </trkpt>
      <trkpt lat="43.5543" lon="2.37104">
        <ele>398</ele>
        <time>2016-10-20T14:09:01Z</time>
      </trkpt>
      <trkpt lat="43.55428" lon="2.37107">
        <ele>399</ele>
        <time>2016-10-20T14:09:03Z</time>
      </trkpt>
      <trkpt lat="43.55427" lon="2.37109">
        <ele>399</ele>
        <time>2016-10-20T14:09:06Z</time>
      </trkpt>
      <trkpt lat="43.55425" lon="2.37113">
        <ele>399</ele>
        <time>2016-10-20T14:09:08Z</time>
      </trkpt>
      <trkpt lat="43.55424" lon="2.37116">
        <ele>399</ele>
        <time>2016-10-20T14:09:10Z</time>
      </trkpt>
      <trkpt lat="43.55423" lon="2.37119">
        <ele>399</ele>
        <time>2016-10-20T14:09:13Z</time>
      </trkpt>
      <trkpt lat="43.5542" lon="2.37122">
        <ele>399</ele>
        <time>2016-10-20T14:09:15Z</time>
      </trkpt>
      <trkpt lat="43.55419" lon="2.37125">
        <ele>400</ele>
        <time>2016-10-20T14:09:17Z</time>
      </trkpt>
      <trkpt lat="43.55418" lon="2.37128">
        <ele>400</ele>
        <time>2016-10-20T14:09:20Z</time>
      </trkpt>
      <trkpt lat="43.55416" lon="2.3713">
        <ele>400</ele>
        <time>2016-10-20T14:09:22Z</time>
      </trkpt>
      <trkpt lat="43.55415" lon="2.37134">
        <ele>400</ele>
        <time>2016-10-20T14:09:24Z</time>
      </trkpt>
      <trkpt lat="43.55414" lon="2.37137">
        <ele>400</ele>
        <time>2016-10-20T14:09:26Z</time>
      </trkpt>
      <trkpt lat="43.55412" lon="2.3714">
        <ele>401</ele>
        <time>2016-10-20T14:09:29Z</time>
      </trkpt>
      <trkpt lat="43.5541" lon="2.37143">
        <ele>401</ele>
        <time>2016-10-20T14:09:31Z</time>
      </trkpt>
      <trkpt lat="43.55409" lon="2.37146">
        <ele>401</ele>
        <time>2016-10-20T14:09:33Z</time>
      </trkpt>
      <trkpt lat="43.55408" lon="2.37149">
        <ele>401</ele>
        <time>2016-10-20T14:09:36Z</time>
      </trkpt>
      <trkpt lat="43.55406" lon="2.37153">
        <ele>402</ele>
        <time>2016-10-20T14:09:38Z</time>
      </trkpt>
      <trkpt lat="43.55404" lon="2.37156">
        <ele>402</ele>
        <time>2016-10-20T14:09:40Z</time>
      </trkpt>
      <trkpt lat="43.55403" lon="2.37158">
        <ele>402</ele>
        <time>2016-10-20T14:09:43Z</time>
      </trkpt>
      <trkpt lat="43.55402" lon="2.37161">
        <ele>403</ele>
        <time>2016-10-20T14:09:45Z</time>
      </trkpt>
      <trkpt lat="43.554" lon="2.37163">
        <ele>403</ele>
        <time>2016-10-20T14:09:47Z</time>
      </trkpt>
      <trkpt lat="43.55399" lon="2.37166">
        <ele>403</ele>
        <time>2016-10-20T14:09:49Z</time>
      </trkpt>
      <trkpt lat="43.55397" lon="2.37168">
        <ele>403</ele>
        <time>2016-10-20T14:09:52Z</time>
      </trkpt>
      <trkpt lat="43.55394" lon="2.37175">
        <ele>404</ele>
        <time>2016-10-20T14:09:56Z</time>
      </trkpt>
      <trkpt lat="43.55393" lon="2.37177">
        <ele>404</ele>
        <time>2016-10-20T14:09:59Z</time>
      </trkpt>
      <trkpt lat="43.55391" lon="2.37182">
        <ele>405</ele>
        <time>2016-10-20T14:10:01Z</time>
      </trkpt>
      <trkpt lat="43.55389" lon="2.37184">
        <ele>405</ele>
        <time>2016-10-20T14:10:03Z</time>
      </trkpt>
      <trkpt lat="43.55388" lon="2.37187">
        <ele>405</ele>
        <time>2016-10-20T14:10:06Z</time>
      </trkpt>
      <trkpt lat="43.55386" lon="2.3719">
        <ele>405</ele>
        <time>2016-10-20T14:10:08Z</time>
      </trkpt>
      <trkpt lat="43.55384" lon="2.37193">
        <ele>405</ele>
        <time>2016-10-20T14:10:10Z</time>
      </trkpt>
      <trkpt lat="43.55383" lon="2.37196">
        <ele>405</ele>
        <time>2016-10-20T14:10:12Z</time>
      </trkpt>
      <trkpt lat="43.55381" lon="2.37198">
        <ele>405</ele>
        <time>2016-10-20T14:10:15Z</time>
      </trkpt>
      <trkpt lat="43.55378" lon="2.37202">
        <ele>405</ele>
        <time>2016-10-20T14:10:17Z</time>
      </trkpt>
      <trkpt lat="43.55377" lon="2.37204">
        <ele>405</ele>
        <time>2016-10-20T14:10:19Z</time>
      </trkpt>
      <trkpt lat="43.55376" lon="2.37206">
        <ele>405</ele>
        <time>2016-10-20T14:10:22Z</time>
      </trkpt>
      <trkpt lat="43.55374" lon="2.37209">
        <ele>405</ele>
        <time>2016-10-20T14:10:24Z</time>
      </trkpt>
      <trkpt lat="43.55372" lon="2.37212">
        <ele>405</ele>
        <time>2016-10-20T14:10:26Z</time>
      </trkpt>
      <trkpt lat="43.5537" lon="2.37214">
        <ele>405</ele>
        <time>2016-10-20T14:10:28Z</time>
      </trkpt>
      <trkpt lat="43.55368" lon="2.37217">
        <ele>405</ele>
        <time>2016-10-20T14:10:31Z</time>
      </trkpt>
      <trkpt lat="43.55366" lon="2.3722">
        <ele>405</ele>
        <time>2016-10-20T14:10:33Z</time>
      </trkpt>
      <trkpt lat="43.55365" lon="2.37222">
        <ele>405</ele>
        <time>2016-10-20T14:10:35Z</time>
      </trkpt>
      <trkpt lat="43.55363" lon="2.37223">
        <ele>406</ele>
        <time>2016-10-20T14:10:38Z</time>
      </trkpt>
      <trkpt lat="43.55361" lon="2.37226">
        <ele>406</ele>
        <time>2016-10-20T14:10:40Z</time>
      </trkpt>
      <trkpt lat="43.55359" lon="2.37228">
        <ele>406</ele>
        <time>2016-10-20T14:10:42Z</time>
      </trkpt>
      <trkpt lat="43.55357" lon="2.37229">
        <ele>406</ele>
        <time>2016-10-20T14:10:45Z</time>
      </trkpt>
      <trkpt lat="43.55356" lon="2.37231">
        <ele>406</ele>
        <time>2016-10-20T14:10:47Z</time>
      </trkpt>
      <trkpt lat="43.55354" lon="2.37234">
        <ele>406</ele>
        <time>2016-10-20T14:10:49Z</time>
      </trkpt>
      <trkpt lat="43.55353" lon="2.37235">
        <ele>406</ele>
        <time>2016-10-20T14:10:51Z</time>
      </trkpt>
      <trkpt lat="43.55351" lon="2.37237">
        <ele>406</ele>
        <time>2016-10-20T14:10:54Z</time>
      </trkpt>
      <trkpt lat="43.55349" lon="2.37239">
        <ele>407</ele>
        <time>2016-10-20T14:10:56Z</time>
      </trkpt>
      <trkpt lat="43.55347" lon="2.3724">
        <ele>407</ele>
        <time>2016-10-20T14:10:58Z</time>
      </trkpt>
      <trkpt lat="43.55345" lon="2.37242">
        <ele>407</ele>
        <time>2016-10-20T14:11:01Z</time>
      </trkpt>
      <trkpt lat="43.55342" lon="2.37245">
        <ele>407</ele>
        <time>2016-10-20T14:11:03Z</time>
      </trkpt>
      <trkpt lat="43.55341" lon="2.37248">
        <ele>407</ele>
        <time>2016-10-20T14:11:05Z</time>
      </trkpt>
      <trkpt lat="43.55339" lon="2.37249">
        <ele>407</ele>
        <time>2016-10-20T14:11:08Z</time>
      </trkpt>
      <trkpt lat="43.55338" lon="2.37251">
        <ele>407</ele>
        <time>2016-10-20T14:11:10Z</time>
      </trkpt>
      <trkpt lat="43.55335" lon="2.37255">
        <ele>408</ele>
        <time>2016-10-20T14:11:12Z</time>
      </trkpt>
      <trkpt lat="43.55334" lon="2.37257">
        <ele>408</ele>
        <time>2016-10-20T14:11:14Z</time>
      </trkpt>
      <trkpt lat="43.55331" lon="2.37263">
        <ele>409</ele>
        <time>2016-10-20T14:11:19Z</time>
      </trkpt>
      <trkpt lat="43.55329" lon="2.37266">
        <ele>409</ele>
        <time>2016-10-20T14:11:21Z</time>
      </trkpt>
      <trkpt lat="43.55328" lon="2.37268">
        <ele>409</ele>
        <time>2016-10-20T14:11:24Z</time>
      </trkpt>
      <trkpt lat="43.55326" lon="2.37271">
        <ele>409</ele>
        <time>2016-10-20T14:11:26Z</time>
      </trkpt>
      <trkpt lat="43.55324" lon="2.37275">
        <ele>410</ele>
        <time>2016-10-20T14:11:28Z</time>
      </trkpt>
      <trkpt lat="43.55322" lon="2.37278">
        <ele>410</ele>
        <time>2016-10-20T14:11:30Z</time>
      </trkpt>
      <trkpt lat="43.55321" lon="2.3728">
        <ele>410</ele>
        <time>2016-10-20T14:11:33Z</time>
      </trkpt>
      <trkpt lat="43.55319" lon="2.37284">
        <ele>410</ele>
        <time>2016-10-20T14:11:35Z</time>
      </trkpt>
      <trkpt lat="43.55318" lon="2.37287">
        <ele>410</ele>
        <time>2016-10-20T14:11:37Z</time>
      </trkpt>
      <trkpt lat="43.55316" lon="2.37289">
        <ele>410</ele>
        <time>2016-10-20T14:11:40Z</time>
      </trkpt>
      <trkpt lat="43.55315" lon="2.37291">
        <ele>410</ele>
        <time>2016-10-20T14:11:42Z</time>
      </trkpt>
      <trkpt lat="43.55313" lon="2.37296">
        <ele>411</ele>
        <time>2016-10-20T14:11:44Z</time>
      </trkpt>
      <trkpt lat="43.55311" lon="2.37298">
        <ele>411</ele>
        <time>2016-10-20T14:11:46Z</time>
      </trkpt>
      <trkpt lat="43.55309" lon="2.37301">
        <ele>411</ele>
        <time>2016-10-20T14:11:49Z</time>
      </trkpt>
      <trkpt lat="43.55307" lon="2.37305">
        <ele>411</ele>
        <time>2016-10-20T14:11:51Z</time>
      </trkpt>
      <trkpt lat="43.55306" lon="2.37308">
        <ele>411</ele>
        <time>2016-10-20T14:11:53Z</time>
      </trkpt>
      <trkpt lat="43.55305" lon="2.37311">
        <ele>411</ele>
        <time>2016-10-20T14:11:56Z</time>
      </trkpt>
      <trkpt lat="43.55303" lon="2.37314">
        <ele>411</ele>
        <time>2016-10-20T14:11:58Z</time>
      </trkpt>
      <trkpt lat="43.55301" lon="2.37317">
        <ele>411</ele>
        <time>2016-10-20T14:12:00Z</time>
      </trkpt>
      <trkpt lat="43.553" lon="2.37319">
        <ele>411</ele>
        <time>2016-10-20T14:12:03Z</time>
      </trkpt>
      <trkpt lat="43.55299" lon="2.37322">
        <ele>411</ele>
        <time>2016-10-20T14:12:05Z</time>
      </trkpt>
      <trkpt lat="43.55297" lon="2.37325">
        <ele>411</ele>
        <time>2016-10-20T14:12:07Z</time>
      </trkpt>
      <trkpt lat="43.55295" lon="2.37328">
        <ele>411</ele>
        <time>2016-10-20T14:12:09Z</time>
      </trkpt>
      <trkpt lat="43.55293" lon="2.3733">
        <ele>411</ele>
        <time>2016-10-20T14:12:12Z</time>
      </trkpt>
      <trkpt lat="43.55291" lon="2.37333">
        <ele>411</ele>
        <time>2016-10-20T14:12:14Z</time>
      </trkpt>
      <trkpt lat="43.5529" lon="2.37335">
        <ele>411</ele>
        <time>2016-10-20T14:12:16Z</time>
      </trkpt>
      <trkpt lat="43.55289" lon="2.37338">
        <ele>411</ele>
        <time>2016-10-20T14:12:19Z</time>
      </trkpt>
      <trkpt lat="43.55288" lon="2.3734">
        <ele>411</ele>
        <time>2016-10-20T14:12:21Z</time>
      </trkpt>
      <trkpt lat="43.55286" lon="2.37344">
        <ele>412</ele>
        <time>2016-10-20T14:12:23Z</time>
      </trkpt>
      <trkpt lat="43.55284" lon="2.37346">
        <ele>412</ele>
        <time>2016-10-20T14:12:25Z</time>
      </trkpt>
      <trkpt lat="43.55282" lon="2.37348">
        <ele>412</ele>
        <time>2016-10-20T14:12:28Z</time>
      </trkpt>
      <trkpt lat="43.5528" lon="2.37351">
        <ele>412</ele>
        <time>2016-10-20T14:12:30Z</time>
      </trkpt>
      <trkpt lat="43.55279" lon="2.37354">
        <ele>412</ele>
        <time>2016-10-20T14:12:32Z</time>
      </trkpt>
      <trkpt lat="43.55278" lon="2.37356">
        <ele>412</ele>
        <time>2016-10-20T14:12:35Z</time>
      </trkpt>
      <trkpt lat="43.55276" lon="2.3736">
        <ele>413</ele>
        <time>2016-10-20T14:12:37Z</time>
      </trkpt>
      <trkpt lat="43.55273" lon="2.37365">
        <ele>413</ele>
        <time>2016-10-20T14:12:42Z</time>
      </trkpt>
      <trkpt lat="43.55273" lon="2.37367">
        <ele>413</ele>
        <time>2016-10-20T14:12:44Z</time>
      </trkpt>
      <trkpt lat="43.55271" lon="2.37372">
        <ele>414</ele>
        <time>2016-10-20T14:12:46Z</time>
      </trkpt>
      <trkpt lat="43.55269" lon="2.37374">
        <ele>414</ele>
        <time>2016-10-20T14:12:48Z</time>
      </trkpt>
      <trkpt lat="43.55268" lon="2.37376">
        <ele>414</ele>
        <time>2016-10-20T14:12:51Z</time>
      </trkpt>
      <trkpt lat="43.55266" lon="2.37379">
        <ele>414</ele>
        <time>2016-10-20T14:12:53Z</time>
      </trkpt>
      <trkpt lat="43.55264" lon="2.37381">
        <ele>414</ele>
        <time>2016-10-20T14:12:55Z</time>
      </trkpt>
      <trkpt lat="43.55264" lon="2.37383">
        <ele>414</ele>
        <time>2016-10-20T14:12:58Z</time>
      </trkpt>
      <trkpt lat="43.55261" lon="2.37387">
        <ele>414</ele>
        <time>2016-10-20T14:13:00Z</time>
      </trkpt>
      <trkpt lat="43.5526" lon="2.3739">
        <ele>414</ele>
        <time>2016-10-20T14:13:02Z</time>
      </trkpt>
      <trkpt lat="43.55259" lon="2.37392">
        <ele>414</ele>
        <time>2016-10-20T14:13:05Z</time>
      </trkpt>
      <trkpt lat="43.55258" lon="2.37394">
        <ele>414</ele>
        <time>2016-10-20T14:13:07Z</time>
      </trkpt>
      <trkpt lat="43.55256" lon="2.37398">
        <ele>414</ele>
        <time>2016-10-20T14:13:09Z</time>
      </trkpt>
      <trkpt lat="43.55255" lon="2.374">
        <ele>415</ele>
        <time>2016-10-20T14:13:11Z</time>
      </trkpt>
      <trkpt lat="43.55253" lon="2.37403">
        <ele>415</ele>
        <time>2016-10-20T14:13:14Z</time>
      </trkpt>
      <trkpt lat="43.55251" lon="2.37407">
        <ele>415</ele>
        <time>2016-10-20T14:13:16Z</time>
      </trkpt>
      <trkpt lat="43.5525" lon="2.37409">
        <ele>415</ele>
        <time>2016-10-20T14:13:18Z</time>
      </trkpt>
      <trkpt lat="43.55248" lon="2.37411">
        <ele>415</ele>
        <time>2016-10-20T14:13:21Z</time>
      </trkpt>
      <trkpt lat="43.55247" lon="2.37413">
        <ele>415</ele>
        <time>2016-10-20T14:13:23Z</time>
      </trkpt>
      <trkpt lat="43.55246" lon="2.37416">
        <ele>415</ele>
        <time>2016-10-20T14:13:25Z</time>
      </trkpt>
      <trkpt lat="43.55244" lon="2.37418">
        <ele>415</ele>
        <time>2016-10-20T14:13:27Z</time>
      </trkpt>
      <trkpt lat="43.55243" lon="2.3742">
        <ele>415</ele>
        <time>2016-10-20T14:13:30Z</time>
      </trkpt>
      <trkpt lat="43.55241" lon="2.37423">
        <ele>415</ele>
        <time>2016-10-20T14:13:32Z</time>
      </trkpt>
      <trkpt lat="43.55239" lon="2.37425">
        <ele>415</ele>
        <time>2016-10-20T14:13:34Z</time>
      </trkpt>
      <trkpt lat="43.55238" lon="2.37428">
        <ele>415</ele>
        <time>2016-10-20T14:13:37Z</time>
      </trkpt>
      <trkpt lat="43.55237" lon="2.37431">
        <ele>415</ele>
        <time>2016-10-20T14:13:39Z</time>
      </trkpt>
      <trkpt lat="43.55235" lon="2.37434">
        <ele>415</ele>
        <time>2016-10-20T14:13:41Z</time>
      </trkpt>
      <trkpt lat="43.55234" lon="2.37436">
        <ele>415</ele>
        <time>2016-10-20T14:13:43Z</time>
      </trkpt>
      <trkpt lat="43.55232" lon="2.37439">
        <ele>415</ele>
        <time>2016-10-20T14:13:46Z</time>
      </trkpt>
      <trkpt lat="43.5523" lon="2.37443">
        <ele>416</ele>
        <time>2016-10-20T14:13:48Z</time>
      </trkpt>
      <trkpt lat="43.55228" lon="2.37445">
        <ele>415</ele>
        <time>2016-10-20T14:13:50Z</time>
      </trkpt>
      <trkpt lat="43.55227" lon="2.37447">
        <ele>415</ele>
        <time>2016-10-20T14:13:53Z</time>
      </trkpt>
      <trkpt lat="43.55225" lon="2.37451">
        <ele>415</ele>
        <time>2016-10-20T14:13:55Z</time>
      </trkpt>
      <trkpt lat="43.55224" lon="2.37453">
        <ele>415</ele>
        <time>2016-10-20T14:13:57Z</time>
      </trkpt>
      <trkpt lat="43.55222" lon="2.37456">
        <ele>415</ele>
        <time>2016-10-20T14:14:00Z</time>
      </trkpt>
      <trkpt lat="43.55218" lon="2.37461">
        <ele>415</ele>
        <time>2016-10-20T14:14:04Z</time>
      </trkpt>
      <trkpt lat="43.55216" lon="2.37463">
        <ele>415</ele>
        <time>2016-10-20T14:14:06Z</time>
      </trkpt>
      <trkpt lat="43.55215" lon="2.37465">
        <ele>415</ele>
        <time>2016-10-20T14:14:09Z</time>
      </trkpt>
      <trkpt lat="43.55213" lon="2.37468">
        <ele>415</ele>
        <time>2016-10-20T14:14:11Z</time>
      </trkpt>
      <trkpt lat="43.55212" lon="2.37471">
        <ele>415</ele>
        <time>2016-10-20T14:14:13Z</time>
      </trkpt>
      <trkpt lat="43.5521" lon="2.37473">
        <ele>415</ele>
        <time>2016-10-20T14:14:16Z</time>
      </trkpt>
      <trkpt lat="43.55208" lon="2.37477">
        <ele>415</ele>
        <time>2016-10-20T14:14:18Z</time>
      </trkpt>
      <trkpt lat="43.55206" lon="2.37478">
        <ele>415</ele>
        <time>2016-10-20T14:14:20Z</time>
      </trkpt>
      <trkpt lat="43.55204" lon="2.3748">
        <ele>415</ele>
        <time>2016-10-20T14:14:23Z</time>
      </trkpt>
      <trkpt lat="43.55203" lon="2.37482">
        <ele>415</ele>
        <time>2016-10-20T14:14:25Z</time>
      </trkpt>
      <trkpt lat="43.55199" lon="2.37485">
        <ele>415</ele>
        <time>2016-10-20T14:14:27Z</time>
      </trkpt>
      <trkpt lat="43.55197" lon="2.37486">
        <ele>415</ele>
        <time>2016-10-20T14:14:29Z</time>
      </trkpt>
      <trkpt lat="43.55195" lon="2.37487">
        <ele>415</ele>
        <time>2016-10-20T14:14:32Z</time>
      </trkpt>
      <trkpt lat="43.55192" lon="2.37489">
        <ele>415</ele>
        <time>2016-10-20T14:14:34Z</time>
      </trkpt>
      <trkpt lat="43.5519" lon="2.37491">
        <ele>415</ele>
        <time>2016-10-20T14:14:36Z</time>
      </trkpt>
      <trkpt lat="43.55189" lon="2.37492">
        <ele>415</ele>
        <time>2016-10-20T14:14:39Z</time>
      </trkpt>
      <trkpt lat="43.55188" lon="2.37492">
        <ele>415</ele>
        <time>2016-10-20T14:14:41Z</time>
      </trkpt>
      <trkpt lat="43.55185" lon="2.37493">
        <ele>415</ele>
        <time>2016-10-20T14:14:43Z</time>
      </trkpt>
      <trkpt lat="43.55183" lon="2.37494">
        <ele>415</ele>
        <time>2016-10-20T14:14:45Z</time>
      </trkpt>
      <trkpt lat="43.55181" lon="2.37493">
        <ele>414</ele>
        <time>2016-10-20T14:14:48Z</time>
      </trkpt>
      <trkpt lat="43.55179" lon="2.37494">
        <ele>414</ele>
        <time>2016-10-20T14:14:50Z</time>
      </trkpt>
      <trkpt lat="43.55177" lon="2.37494">
        <ele>414</ele>
        <time>2016-10-20T14:14:52Z</time>
      </trkpt>
      <trkpt lat="43.55175" lon="2.37494">
        <ele>413</ele>
        <time>2016-10-20T14:14:55Z</time>
      </trkpt>
      <trkpt lat="43.55173" lon="2.37495">
        <ele>413</ele>
        <time>2016-10-20T14:14:57Z</time>
      </trkpt>
      <trkpt lat="43.5517" lon="2.37495">
        <ele>412</ele>
        <time>2016-10-20T14:14:59Z</time>
      </trkpt>
      <trkpt lat="43.55168" lon="2.37495">
        <ele>412</ele>
        <time>2016-10-20T14:15:01Z</time>
      </trkpt>
      <trkpt lat="43.55166" lon="2.37494">
        <ele>412</ele>
        <time>2016-10-20T14:15:04Z</time>
      </trkpt>
      <trkpt lat="43.55164" lon="2.37494">
        <ele>411</ele>
        <time>2016-10-20T14:15:06Z</time>
      </trkpt>
      <trkpt lat="43.55161" lon="2.37493">
        <ele>411</ele>
        <time>2016-10-20T14:15:08Z</time>
      </trkpt>
      <trkpt lat="43.5516" lon="2.37493">
        <ele>411</ele>
        <time>2016-10-20T14:15:11Z</time>
      </trkpt>
      <trkpt lat="43.55157" lon="2.37493">
        <ele>410</ele>
        <time>2016-10-20T14:15:13Z</time>
      </trkpt>
      <trkpt lat="43.55155" lon="2.37493">
        <ele>410</ele>
        <time>2016-10-20T14:15:15Z</time>
      </trkpt>
      <trkpt lat="43.55154" lon="2.37493">
        <ele>409</ele>
        <time>2016-10-20T14:15:18Z</time>
      </trkpt>
      <trkpt lat="43.55152" lon="2.37493">
        <ele>409</ele>
        <time>2016-10-20T14:15:20Z</time>
      </trkpt>
      <trkpt lat="43.55149" lon="2.37494">
        <ele>409</ele>
        <time>2016-10-20T14:15:22Z</time>
      </trkpt>
      <trkpt lat="43.55145" lon="2.37495">
        <ele>408</ele>
        <time>2016-10-20T14:15:27Z</time>
      </trkpt>
      <trkpt lat="43.55142" lon="2.37495">
        <ele>407</ele>
        <time>2016-10-20T14:15:29Z</time>
      </trkpt>
      <trkpt lat="43.5514" lon="2.37497">
        <ele>407</ele>
        <time>2016-10-20T14:15:31Z</time>
      </trkpt>
      <trkpt lat="43.55139" lon="2.37497">
        <ele>407</ele>
        <time>2016-10-20T14:15:34Z</time>
      </trkpt>
      <trkpt lat="43.55138" lon="2.37498">
        <ele>407</ele>
        <time>2016-10-20T14:15:36Z</time>
      </trkpt>
      <trkpt lat="43.55136" lon="2.37498">
        <ele>406</ele>
        <time>2016-10-20T14:15:38Z</time>
      </trkpt>
      <trkpt lat="43.55136" lon="2.37498">
        <ele>406</ele>
        <time>2016-10-20T14:15:40Z</time>
      </trkpt>
      <trkpt lat="43.55135" lon="2.37497">
        <ele>406</ele>
        <time>2016-10-20T14:15:43Z</time>
      </trkpt>
      <trkpt lat="43.55135" lon="2.37497">
        <ele>406</ele>
        <time>2016-10-20T14:15:45Z</time>
      </trkpt>
      <trkpt lat="43.55134" lon="2.37496">
        <ele>406</ele>
        <time>2016-10-20T14:15:47Z</time>
      </trkpt>
      <trkpt lat="43.55134" lon="2.37495">
        <ele>406</ele>
        <time>2016-10-20T14:15:50Z</time>
      </trkpt>
      <trkpt lat="43.55134" lon="2.37495">
        <ele>406</ele>
        <time>2016-10-20T14:15:52Z</time>
      </trkpt>
      <trkpt lat="43.55134" lon="2.37494">
        <ele>406</ele>
        <time>2016-10-20T14:15:54Z</time>
      </trkpt>
      <trkpt lat="43.55133" lon="2.37493">
        <ele>406</ele>
        <time>2016-10-20T14:15:57Z</time>
      </trkpt>
      <trkpt lat="43.55133" lon="2.37493">
        <ele>406</ele>
        <time>2016-10-20T14:15:59Z</time>
      </trkpt>
      <trkpt lat="43.55133" lon="2.37492">
        <ele>406</ele>
        <time>2016-10-20T14:16:01Z</time>
      </trkpt>
      <trkpt lat="43.55133" lon="2.37491">
        <ele>406</ele>
        <time>2016-10-20T14:16:03Z</time>
      </trkpt>
      <trkpt lat="43.55132" lon="2.37491">
        <ele>406</ele>
        <time>2016-10-20T14:16:06Z</time>
      </trkpt>
      <trkpt lat="43.55132" lon="2.3749">
        <ele>405</ele>
        <time>2016-10-20T14:16:08Z</time>
      </trkpt>
      <trkpt lat="43.55132" lon="2.3749">
        <ele>405</ele>
        <time>2016-10-20T14:16:10Z</time>
      </trkpt>
      <trkpt lat="43.55133" lon="2.3749">
        <ele>406</ele>
        <time>2016-10-20T14:16:13Z</time>
      </trkpt>
      <trkpt lat="43.55133" lon="2.37489">
        <ele>406</ele>
        <time>2016-10-20T14:16:15Z</time>
      </trkpt>
      <trkpt lat="43.55134" lon="2.37489">
        <ele>406</ele>
        <time>2016-10-20T14:16:17Z</time>
      </trkpt>
      <trkpt lat="43.55134" lon="2.37489">
        <ele>406</ele>
        <time>2016-10-20T14:16:19Z</time>
      </trkpt>
      <trkpt lat="43.55134" lon="2.37489">
        <ele>406</ele>
        <time>2016-10-20T14:16:22Z</time>
      </trkpt>
      <trkpt lat="43.55135" lon="2.37488">
        <ele>406</ele>
        <time>2016-10-20T14:16:24Z</time>
      </trkpt>
      <trkpt lat="43.55135" lon="2.37488">
        <ele>406</ele>
        <time>2016-10-20T14:16:26Z</time>
      </trkpt>
      <trkpt lat="43.55135" lon="2.37487">
        <ele>406</ele>
        <time>2016-10-20T14:16:29Z</time>
      </trkpt>
      <trkpt lat="43.55135" lon="2.37487">
        <ele>406</ele>
        <time>2016-10-20T14:16:31Z</time>
      </trkpt>
      <trkpt lat="43.55135" lon="2.37486">
        <ele>406</ele>
        <time>2016-10-20T14:16:33Z</time>
      </trkpt>
      <trkpt lat="43.55135" lon="2.37486">
        <ele>406</ele>
        <time>2016-10-20T14:16:36Z</time>
      </trkpt>
      <trkpt lat="43.55135" lon="2.37486">
        <ele>406</ele>
        <time>2016-10-20T14:16:38Z</time>
      </trkpt>
      <trkpt lat="43.55135" lon="2.37486">
        <ele>406</ele>
        <time>2016-10-20T14:16:40Z</time>
      </trkpt>
      <trkpt lat="43.55134" lon="2.37486">
        <ele>405</ele>
        <time>2016-10-20T14:16:42Z</time>
      </trkpt>
      <trkpt lat="43.55134" lon="2.37485">
        <ele>405</ele>
        <time>2016-10-20T14:16:45Z</time>
      </trkpt>
      <trkpt lat="43.55134" lon="2.37486">
        <ele>405</ele>
        <time>2016-10-20T14:16:49Z</time>
      </trkpt>
      <trkpt lat="43.55133" lon="2.37486">
        <ele>405</ele>
        <time>2016-10-20T14:16:52Z</time>
      </trkpt>
      <trkpt lat="43.55133" lon="2.37487">
        <ele>405</ele>
        <time>2016-10-20T14:16:54Z</time>
      </trkpt>
      <trkpt lat="43.55133" lon="2.37487">
        <ele>405</ele>
        <time>2016-10-20T14:16:56Z</time>
      </trkpt>
      <trkpt lat="43.55133" lon="2.37487">
        <ele>405</ele>
        <time>2016-10-20T14:16:58Z</time>
      </trkpt>
      <trkpt lat="43.55133" lon="2.37487">
        <ele>405</ele>
        <time>2016-10-20T14:17:01Z</time>
      </trkpt>
      <trkpt lat="43.55133" lon="2.37487">
        <ele>405</ele>
        <time>2016-10-20T14:17:03Z</time>
      </trkpt>
      <trkpt lat="43.55134" lon="2.37486">
        <ele>405</ele>
        <time>2016-10-20T14:17:05Z</time>
      </trkpt>
      <trkpt lat="43.55134" lon="2.37486">
        <ele>405</ele>
        <time>2016-10-20T14:17:08Z</time>
      </trkpt>
      <trkpt lat="43.55134" lon="2.37486">
        <ele>405</ele>
        <time>2016-10-20T14:17:10Z</time>
      </trkpt>
      <trkpt lat="43.55134" lon="2.37485">
        <ele>405</ele>
        <time>2016-10-20T14:17:12Z</time>
      </trkpt>
      <trkpt lat="43.55134" lon="2.37485">
        <ele>405</ele>
        <time>2016-10-20T14:17:15Z</time>
      </trkpt>
      <trkpt lat="43.55134" lon="2.37485">
        <ele>405</ele>
        <time>2016-10-20T14:17:17Z</time>
      </trkpt>
      <trkpt lat="43.55135" lon="2.37486">
        <ele>406</ele>
        <time>2016-10-20T14:17:19Z</time>
      </trkpt>
      <trkpt lat="43.55135" lon="2.37485">
        <ele>406</ele>
        <time>2016-10-20T14:17:21Z</time>
      </trkpt>
      <trkpt lat="43.55135" lon="2.37485">
        <ele>406</ele>
        <time>2016-10-20T14:17:24Z</time>
      </trkpt>
      <trkpt lat="43.55135" lon="2.37485">
        <ele>406</ele>
        <time>2016-10-20T14:17:26Z</time>
      </trkpt>
      <trkpt lat="43.55134" lon="2.37484">
        <ele>405</ele>
        <time>2016-10-20T14:17:28Z</time>
      </trkpt>
      <trkpt lat="43.55134" lon="2.37485">
        <ele>405</ele>
        <time>2016-10-20T14:17:31Z</time>
      </trkpt>
      <trkpt lat="43.55134" lon="2.37485">
        <ele>406</ele>
        <time>2016-10-20T14:17:33Z</time>
      </trkpt>
      <trkpt lat="43.55135" lon="2.37485">
        <ele>406</ele>
        <time>2016-10-20T14:17:35Z</time>
      </trkpt>
      <trkpt lat="43.55135" lon="2.37485">
        <ele>406</ele>
        <time>2016-10-20T14:17:37Z</time>
      </trkpt>
      <trkpt lat="43.55135" lon="2.37486">
        <ele>406</ele>
        <time>2016-10-20T14:17:40Z</time>
      </trkpt>
      <trkpt lat="43.55135" lon="2.37486">
        <ele>406</ele>
        <time>2016-10-20T14:17:42Z</time>
      </trkpt>
      <trkpt lat="43.55135" lon="2.37486">
        <ele>406</ele>
        <time>2016-10-20T14:17:44Z</time>
      </trkpt>
      <trkpt lat="43.55135" lon="2.37486">
        <ele>406</ele>
        <time>2016-10-20T14:17:47Z</time>
      </trkpt>
      <trkpt lat="43.55135" lon="2.37485">
        <ele>406</ele>
        <time>2016-10-20T14:17:49Z</time>
      </trkpt>
      <trkpt lat="43.55134" lon="2.37485">
        <ele>406</ele>
        <time>2016-10-20T14:17:51Z</time>
      </trkpt>
      <trkpt lat="43.55134" lon="2.37485">
        <ele>406</ele>
        <time>2016-10-20T14:17:54Z</time>
      </trkpt>
      <trkpt lat="43.55134" lon="2.37486">
        <ele>406</ele>
        <time>2016-10-20T14:17:56Z</time>
      </trkpt>
      <trkpt lat="43.55134" lon="2.37485">
        <ele>405</ele>
        <time>2016-10-20T14:17:58Z</time>
      </trkpt>
      <trkpt lat="43.55134" lon="2.37485">
        <ele>405</ele>
        <time>2016-10-20T14:18:00Z</time>
      </trkpt>
      <trkpt lat="43.55134" lon="2.37485">
        <ele>405</ele>
        <time>2016-10-20T14:18:03Z</time>
      </trkpt>
      <trkpt lat="43.55134" lon="2.37485">
        <ele>405</ele>
        <time>2016-10-20T14:18:05Z</time>
      </trkpt>
      <trkpt lat="43.55133" lon="2.37485">
        <ele>405</ele>
        <time>2016-10-20T14:18:07Z</time>
      </trkpt>
      <trkpt lat="43.55132" lon="2.37484">
        <ele>405</ele>
        <time>2016-10-20T14:18:12Z</time>
      </trkpt>
      <trkpt lat="43.55132" lon="2.37484">
        <ele>405</ele>
        <time>2016-10-20T14:18:14Z</time>
      </trkpt>
      <trkpt lat="43.55132" lon="2.37484">
        <ele>405</ele>
        <time>2016-10-20T14:18:17Z</time>
      </trkpt>
      <trkpt lat="43.55132" lon="2.37484">
        <ele>405</ele>
        <time>2016-10-20T14:18:19Z</time>
      </trkpt>
      <trkpt lat="43.55132" lon="2.37484">
        <ele>405</ele>
        <time>2016-10-20T14:18:21Z</time>
      </trkpt>
      <trkpt lat="43.55132" lon="2.37484">
        <ele>405</ele>
        <time>2016-10-20T14:18:23Z</time>
      </trkpt>
      <trkpt lat="43.55132" lon="2.37484">
        <ele>405</ele>
        <time>2016-10-20T14:18:26Z</time>
      </trkpt>
      <trkpt lat="43.55131" lon="2.37483">
        <ele>405</ele>
        <time>2016-10-20T14:18:28Z</time>
      </trkpt>
      <trkpt lat="43.55131" lon="2.37483">
        <ele>405</ele>
        <time>2016-10-20T14:18:30Z</time>
      </trkpt>
      <trkpt lat="43.55131" lon="2.37483">
        <ele>405</ele>
        <time>2016-10-20T14:18:33Z</time>
      </trkpt>
      <trkpt lat="43.55132" lon="2.37483">
        <ele>405</ele>
        <time>2016-10-20T14:18:35Z</time>
      </trkpt>
      <trkpt lat="43.55132" lon="2.37484">
        <ele>405</ele>
        <time>2016-10-20T14:18:37Z</time>
      </trkpt>
      <trkpt lat="43.55132" lon="2.37484">
        <ele>405</ele>
        <time>2016-10-20T14:18:39Z</time>
      </trkpt>
      <trkpt lat="43.55132" lon="2.37482">
        <ele>405</ele>
        <time>2016-10-20T14:18:42Z</time>
      </trkpt>
      <trkpt lat="43.55132" lon="2.3748">
        <ele>405</ele>
        <time>2016-10-20T14:18:44Z</time>
      </trkpt>
      <trkpt lat="43.55133" lon="2.37478">
        <ele>405</ele>
        <time>2016-10-20T14:18:46Z</time>
      </trkpt>
      <trkpt lat="43.55134" lon="2.37475">
        <ele>405</ele>
        <time>2016-10-20T14:18:49Z</time>
      </trkpt>
      <trkpt lat="43.55136" lon="2.37472">
        <ele>405</ele>
        <time>2016-10-20T14:18:51Z</time>
      </trkpt>
      <trkpt lat="43.55136" lon="2.37469">
        <ele>405</ele>
        <time>2016-10-20T14:18:53Z</time>
      </trkpt>
      <trkpt lat="43.55137" lon="2.37467">
        <ele>405</ele>
        <time>2016-10-20T14:18:56Z</time>
      </trkpt>
      <trkpt lat="43.55138" lon="2.37464">
        <ele>405</ele>
        <time>2016-10-20T14:18:58Z</time>
      </trkpt>
      <trkpt lat="43.55138" lon="2.3746">
        <ele>405</ele>
        <time>2016-10-20T14:19:00Z</time>
      </trkpt>
      <trkpt lat="43.55139" lon="2.37458">
        <ele>405</ele>
        <time>2016-10-20T14:19:02Z</time>
      </trkpt>
      <trkpt lat="43.55139" lon="2.37455">
        <ele>405</ele>
        <time>2016-10-20T14:19:05Z</time>
      </trkpt>
      <trkpt lat="43.55141" lon="2.37452">
        <ele>405</ele>
        <time>2016-10-20T14:19:07Z</time>
      </trkpt>
      <trkpt lat="43.55141" lon="2.37449">
        <ele>405</ele>
        <time>2016-10-20T14:19:09Z</time>
      </trkpt>
      <trkpt lat="43.55141" lon="2.37446">
        <ele>405</ele>
        <time>2016-10-20T14:19:12Z</time>
      </trkpt>
      <trkpt lat="43.55142" lon="2.37443">
        <ele>405</ele>
        <time>2016-10-20T14:19:14Z</time>
      </trkpt>
      <trkpt lat="43.55142" lon="2.37438">
        <ele>404</ele>
        <time>2016-10-20T14:19:16Z</time>
      </trkpt>
      <trkpt lat="43.55143" lon="2.37434">
        <ele>404</ele>
        <time>2016-10-20T14:19:18Z</time>
      </trkpt>
      <trkpt lat="43.55143" lon="2.37431">
        <ele>404</ele>
        <time>2016-10-20T14:19:21Z</time>
      </trkpt>
      <trkpt lat="43.55144" lon="2.37426">
        <ele>404</ele>
        <time>2016-10-20T14:19:23Z</time>
      </trkpt>
      <trkpt lat="43.55144" lon="2.37424">
        <ele>403</ele>
        <time>2016-10-20T14:19:25Z</time>
      </trkpt>
      <trkpt lat="43.55144" lon="2.37421">
        <ele>403</ele>
        <time>2016-10-20T14:19:28Z</time>
      </trkpt>
      <trkpt lat="43.55145" lon="2.37417">
        <ele>403</ele>
        <time>2016-10-20T14:19:30Z</time>
      </trkpt>
      <trkpt lat="43.55147" lon="2.37412">
        <ele>403</ele>
        <time>2016-10-20T14:19:35Z</time>
      </trkpt>
      <trkpt lat="43.55148" lon="2.37408">
        <ele>403</ele>
        <time>2016-10-20T14:19:37Z</time>
      </trkpt>
      <trkpt lat="43.55149" lon="2.37405">
        <ele>403</ele>
        <time>2016-10-20T14:19:39Z</time>
      </trkpt>
      <trkpt lat="43.5515" lon="2.37401">
        <ele>403</ele>
        <time>2016-10-20T14:19:42Z</time>
      </trkpt>
      <trkpt lat="43.5515" lon="2.37398">
        <ele>402</ele>
        <time>2016-10-20T14:19:44Z</time>
      </trkpt>
      <trkpt lat="43.5515" lon="2.37393">
        <ele>402</ele>
        <time>2016-10-20T14:19:46Z</time>
      </trkpt>
      <trkpt lat="43.55151" lon="2.3739">
        <ele>402</ele>
        <time>2016-10-20T14:19:48Z</time>
      </trkpt>
      <trkpt lat="43.55152" lon="2.37387">
        <ele>402</ele>
        <time>2016-10-20T14:19:51Z</time>
      </trkpt>
      <trkpt lat="43.55153" lon="2.37382">
        <ele>401</ele>
        <time>2016-10-20T14:19:53Z</time>
      </trkpt>
      <trkpt lat="43.55153" lon="2.37379">
        <ele>401</ele>
        <time>2016-10-20T14:19:55Z</time>
      </trkpt>
      <trkpt lat="43.55154" lon="2.37377">
        <ele>401</ele>
        <time>2016-10-20T14:19:58Z</time>
      </trkpt>
      <trkpt lat="43.55155" lon="2.37372">
        <ele>401</ele>
        <time>2016-10-20T14:20:00Z</time>
      </trkpt>
      <trkpt lat="43.55156" lon="2.3737">
        <ele>401</ele>
        <time>2016-10-20T14:20:02Z</time>
      </trkpt>
      <trkpt lat="43.55156" lon="2.37367">
        <ele>401</ele>
        <time>2016-10-20T14:20:05Z</time>
      </trkpt>
      <trkpt lat="43.55156" lon="2.37365">
        <ele>400</ele>
        <time>2016-10-20T14:20:07Z</time>
      </trkpt>
      <trkpt lat="43.55157" lon="2.3736">
        <ele>400</ele>
        <time>2016-10-20T14:20:09Z</time>
      </trkpt>
      <trkpt lat="43.55157" lon="2.37358">
        <ele>400</ele>
        <time>2016-10-20T14:20:11Z</time>
      </trkpt>
      <trkpt lat="43.55158" lon="2.37355">
        <ele>400</ele>
        <time>2016-10-20T14:20:14Z</time>
      </trkpt>
      <trkpt lat="43.55159" lon="2.37351">
        <ele>399</ele>
        <time>2016-10-20T14:20:16Z</time>
      </trkpt>
      <trkpt lat="43.55159" lon="2.37347">
        <ele>399</ele>
        <time>2016-10-20T14:20:18Z</time>
      </trkpt>
      <trkpt lat="43.55159" lon="2.37344">
        <ele>399</ele>
        <time>2016-10-20T14:20:21Z</time>
      </trkpt>
      <trkpt lat="43.5516" lon="2.37339">
        <ele>398</ele>
        <time>2016-10-20T14:20:23Z</time>
      </trkpt>
      <trkpt lat="43.5516" lon="2.37337">
        <ele>398</ele>
        <time>2016-10-20T14:20:25Z</time>
      </trkpt>
      <trkpt lat="43.55161" lon="2.37333">
        <ele>398</ele>
        <time>2016-10-20T14:20:28Z</time>
      </trkpt>
      <trkpt lat="43.55161" lon="2.3733">
        <ele>397</ele>
        <time>2016-10-20T14:20:30Z</time>
      </trkpt>
      <trkpt lat="43.55161" lon="2.37326">
        <ele>397</ele>
        <time>2016-10-20T14:20:32Z</time>
      </trkpt>
      <trkpt lat="43.55161" lon="2.37323">
        <ele>397</ele>
        <time>2016-10-20T14:20:34Z</time>
      </trkpt>
      <trkpt lat="43.55162" lon="2.3732">
        <ele>396</ele>
        <time>2016-10-20T14:20:37Z</time>
      </trkpt>
      <trkpt lat="43.55162" lon="2.37316">
        <ele>396</ele>
        <time>2016-10-20T14:20:39Z</time>
      </trkpt>
      <trkpt lat="43.55162" lon="2.37313">
        <ele>396</ele>
        <time>2016-10-20T14:20:41Z</time>
      </trkpt>
      <trkpt lat="43.55162" lon="2.3731">
        <ele>395</ele>
        <time>2016-10-20T14:20:44Z</time>
      </trkpt>
      <trkpt lat="43.55162" lon="2.37305">
        <ele>395</ele>
        <time>2016-10-20T14:20:46Z</time>
      </trkpt>
      <trkpt lat="43.55162" lon="2.37302">
        <ele>395</ele>
        <time>2016-10-20T14:20:48Z</time>
      </trkpt>
      <trkpt lat="43.55162" lon="2.37299">
        <ele>394</ele>
        <time>2016-10-20T14:20:51Z</time>
      </trkpt>
      <trkpt lat="43.55162" lon="2.37295">
        <ele>394</ele>
        <time>2016-10-20T14:20:53Z</time>
      </trkpt>
      <trkpt lat="43.55162" lon="2.37288">
        <ele>393</ele>
        <time>2016-10-20T14:20:58Z</time>
      </trkpt>
      <trkpt lat="43.55162" lon="2.37285">
        <ele>393</ele>
        <time>2016-10-20T14:21:00Z</time>
      </trkpt>
      <trkpt lat="43.55161" lon="2.3728">
        <ele>393</ele>
        <time>2016-10-20T14:21:02Z</time>
      </trkpt>
      <trkpt lat="43.55161" lon="2.37277">
        <ele>392</ele>
        <time>2016-10-20T14:21:04Z</time>
      </trkpt>
      <trkpt lat="43.5516" lon="2.37275">
        <ele>392</ele>
        <time>2016-10-20T14:21:07Z</time>
      </trkpt>
      <trkpt lat="43.55159" lon="2.3727">
        <ele>392</ele>
        <time>2016-10-20T14:21:09Z</time>
      </trkpt>
      <trkpt lat="43.55158" lon="2.37267">
        <ele>391</ele>
        <time>2016-10-20T14:21:11Z</time>
      </trkpt>
      <trkpt lat="43.55157" lon="2.37264">
        <ele>391</ele>
        <time>2016-10-20T14:21:14Z</time>
      </trkpt>
      <trkpt lat="43.55156" lon="2.37261">
        <ele>391</ele>
        <time>2016-10-20T14:21:16Z</time>
      </trkpt>
      <trkpt lat="43.55155" lon="2.37257">
        <ele>390</ele>
        <time>2016-10-20T14:21:18Z</time>
      </trkpt>
      <trkpt lat="43.55154" lon="2.37254">
        <ele>390</ele>
        <time>2016-10-20T14:21:20Z</time>
      </trkpt>
      <trkpt lat="43.55153" lon="2.37251">
        <ele>390</ele>
        <time>2016-10-20T14:21:23Z</time>
      </trkpt>
      <trkpt lat="43.55152" lon="2.37247">
        <ele>389</ele>
        <time>2016-10-20T14:21:25Z</time>
      </trkpt>
      <trkpt lat="43.55152" lon="2.37244">
        <ele>389</ele>
        <time>2016-10-20T14:21:27Z</time>
      </trkpt>
      <trkpt lat="43.55151" lon="2.37241">
        <ele>389</ele>
        <time>2016-10-20T14:21:30Z</time>
      </trkpt>
      <trkpt lat="43.5515" lon="2.37237">
        <ele>388</ele>
        <time>2016-10-20T14:21:32Z</time>
      </trkpt>
      <trkpt lat="43.55149" lon="2.37234">
        <ele>388</ele>
        <time>2016-10-20T14:21:34Z</time>
      </trkpt>
      <trkpt lat="43.55148" lon="2.37231">
        <ele>388</ele>
        <time>2016-10-20T14:21:37Z</time>
      </trkpt>
      <trkpt lat="43.55146" lon="2.37227">
        <ele>387</ele>
        <time>2016-10-20T14:21:39Z</time>
      </trkpt>
      <trkpt lat="43.55146" lon="2.37224">
        <ele>387</ele>
        <time>2016-10-20T14:21:41Z</time>
      </trkpt>
      <trkpt lat="43.55145" lon="2.37221">
        <ele>387</ele>
        <time>2016-10-20T14:21:44Z</time>
      </trkpt>
      <trkpt lat="43.55144" lon="2.37217">
        <ele>387</ele>
        <time>2016-10-20T14:21:46Z</time>
      </trkpt>
      <trkpt lat="43.55143" lon="2.37214">
        <ele>386</ele>
        <time>2016-10-20T14:21:48Z</time>
      </trkpt>
      <trkpt lat="43.55142" lon="2.37211">
        <ele>386</ele>
        <time>2016-10-20T14:21:51Z</time>
      </trkpt>
      <trkpt lat="43.55141" lon="2.37208">
        <ele>386</ele>
        <time>2016-10-20T14:21:53Z</time>
      </trkpt>
      <trkpt lat="43.5514" lon="2.37203">
        <ele>385</ele>
        <time>2016-10-20T14:21:55Z</time>
      </trkpt>
      <trkpt lat="43.55139" lon="2.372">
        <ele>385</ele>
        <time>2016-10-20T14:21:57Z</time>
      </trkpt>
      <trkpt lat="43.55139" lon="2.37197">
        <ele>385</ele>
        <time>2016-10-20T14:22:00Z</time>
      </trkpt>
      <trkpt lat="43.55138" lon="2.37193">
        <ele>385</ele>
        <time>2016-10-20T14:22:02Z</time>
      </trkpt>
      <trkpt lat="43.55136" lon="2.3719">
        <ele>384</ele>
        <time>2016-10-20T14:22:04Z</time>
      </trkpt>
      <trkpt lat="43.55136" lon="2.37187">
        <ele>384</ele>
        <time>2016-10-20T14:22:07Z</time>
      </trkpt>
      <trkpt lat="43.55134" lon="2.37182">
        <ele>384</ele>
        <time>2016-10-20T14:22:09Z</time>
      </trkpt>
      <trkpt lat="43.55133" lon="2.3718">
        <ele>383</ele>
        <time>2016-10-20T14:22:11Z</time>
      </trkpt>
      <trkpt lat="43.55132" lon="2.37177">
        <ele>383</ele>
        <time>2016-10-20T14:22:14Z</time>
      </trkpt>
      <trkpt lat="43.55132" lon="2.37174">
        <ele>383</ele>
        <time>2016-10-20T14:22:16Z</time>
      </trkpt>
      <trkpt lat="43.5513" lon="2.3717">
        <ele>383</ele>
        <time>2016-10-20T14:22:18Z</time>
      </trkpt>
      <trkpt lat="43.55128" lon="2.37164">
        <ele>382</ele>
        <time>2016-10-20T14:22:23Z</time>
      </trkpt>
      <trkpt lat="43.55126" lon="2.3716">
        <ele>382</ele>
        <time>2016-10-20T14:22:25Z</time>
      </trkpt>
      <trkpt lat="43.55125" lon="2.37157">
        <ele>382</ele>
        <time>2016-10-20T14:22:27Z</time>
      </trkpt>
      <trkpt lat="43.55125" lon="2.37154">
        <ele>381</ele>
        <time>2016-10-20T14:22:30Z</time>
      </trkpt>
      <trkpt lat="43.55123" lon="2.3715">
        <ele>381</ele>
        <time>2016-10-20T14:22:32Z</time>
      </trkpt>
      <trkpt lat="43.55122" lon="2.37147">
        <ele>381</ele>
        <time>2016-10-20T14:22:34Z</time>
      </trkpt>
      <trkpt lat="43.55121" lon="2.37144">
        <ele>381</ele>
        <time>2016-10-20T14:22:37Z</time>
      </trkpt>
      <trkpt lat="43.55121" lon="2.37142">
        <ele>381</ele>
        <time>2016-10-20T14:22:39Z</time>
      </trkpt>
      <trkpt lat="43.55119" lon="2.37137">
        <ele>380</ele>
        <time>2016-10-20T14:22:41Z</time>
      </trkpt>
      <trkpt lat="43.55118" lon="2.37134">
        <ele>380</ele>
        <time>2016-10-20T14:22:43Z</time>
      </trkpt>
      <trkpt lat="43.55116" lon="2.37131">
        <ele>380</ele>
        <time>2016-10-20T14:22:46Z</time>
      </trkpt>
      <trkpt lat="43.55114" lon="2.37127">
        <ele>379</ele>
        <time>2016-10-20T14:22:48Z</time>
      </trkpt>
      <trkpt lat="43.55113" lon="2.37124">
        <ele>379</ele>
        <time>2016-10-20T14:22:50Z</time>
      </trkpt>
      <trkpt lat="43.55112" lon="2.37122">
        <ele>379</ele>
        <time>2016-10-20T14:22:53Z</time>
      </trkpt>
      <trkpt lat="43.55109" lon="2.37118">
        <ele>379</ele>
        <time>2016-10-20T14:22:55Z</time>
      </trkpt>
      <trkpt lat="43.55108" lon="2.37115">
        <ele>378</ele>
        <time>2016-10-20T14:22:57Z</time>
      </trkpt>
      <trkpt lat="43.55107" lon="2.37113">
        <ele>378</ele>
        <time>2016-10-20T14:23:00Z</time>
      </trkpt>
      <trkpt lat="43.55105" lon="2.3711">
        <ele>378</ele>
        <time>2016-10-20T14:23:02Z</time>
      </trkpt>
      <trkpt lat="43.55103" lon="2.37107">
        <ele>378</ele>
        <time>2016-10-20T14:23:04Z</time>
      </trkpt>
      <trkpt lat="43.55101" lon="2.37104">
        <ele>378</ele>
        <time>2016-10-20T14:23:06Z</time>
      </trkpt>
      <trkpt lat="43.551" lon="2.37102">
        <ele>377</ele>
        <time>2016-10-20T14:23:09Z</time>
      </trkpt>
      <trkpt lat="43.55097" lon="2.37098">
        <ele>377</ele>
        <time>2016-10-20T14:23:11Z</time>
      </trkpt>
      <trkpt lat="43.55096" lon="2.37095">
        <ele>377</ele>
        <time>2016-10-20T14:23:13Z</time>
      </trkpt>
      <trkpt lat="43.55094" lon="2.37093">
        <ele>377</ele>
        <time>2016-10-20T14:23:16Z</time>
      </trkpt>
      <trkpt lat="43.55092" lon="2.37089">
        <ele>376</ele>
        <time>2016-10-20T14:23:18Z</time>
      </trkpt>
      <trkpt lat="43.55091" lon="2.37087">
        <ele>376</ele>
        <time>2016-10-20T14:23:20Z</time>
      </trkpt>
      <trkpt lat="43.55089" lon="2.37085">
        <ele>376</ele>
        <time>2016-10-20T14:23:23Z</time>
      </trkpt>
      <trkpt lat="43.55088" lon="2.37083">
        <ele>376</ele>
        <time>2016-10-20T14:23:25Z</time>
      </trkpt>
      <trkpt lat="43.55086" lon="2.37079">
        <ele>376</ele>
        <time>2016-10-20T14:23:27Z</time>
      </trkpt>
      <trkpt lat="43.55084" lon="2.37077">
        <ele>375</ele>
        <time>2016-10-20T14:23:29Z</time>
      </trkpt>
      <trkpt lat="43.55083" lon="2.37074">
        <ele>375</ele>
        <time>2016-10-20T14:23:32Z</time>
      </trkpt>
      <trkpt lat="43.55081" lon="2.37071">
        <ele>375</ele>
        <time>2016-10-20T14:23:34Z</time>
      </trkpt>
      <trkpt lat="43.55079" lon="2.37068">
        <ele>375</ele>
        <time>2016-10-20T14:23:36Z</time>
      </trkpt>
      <trkpt lat="43.55078" lon="2.37066">
        <ele>375</ele>
        <time>2016-10-20T14:23:39Z</time>
      </trkpt>
      <trkpt lat="43.55076" lon="2.37064">
        <ele>375</ele>
        <time>2016-10-20T14:23:41Z</time>
      </trkpt>
      <trkpt lat="43.55073" lon="2.37057">
        <ele>374</ele>
        <time>2016-10-20T14:23:45Z</time>
      </trkpt>
      <trkpt lat="43.55071" lon="2.37055">
        <ele>374</ele>
        <time>2016-10-20T14:23:48Z</time>
      </trkpt>
      <trkpt lat="43.55069" lon="2.37051">
        <ele>374</ele>
        <time>2016-10-20T14:23:50Z</time>
      </trkpt>
      <trkpt lat="43.55068" lon="2.37048">
        <ele>374</ele>
        <time>2016-10-20T14:23:52Z</time>
      </trkpt>
      <trkpt lat="43.55067" lon="2.37045">
        <ele>374</ele>
        <time>2016-10-20T14:23:55Z</time>
      </trkpt>
      <trkpt lat="43.55065" lon="2.37043">
        <ele>374</ele>
        <time>2016-10-20T14:23:57Z</time>
      </trkpt>
      <trkpt lat="43.55063" lon="2.37038">
        <ele>374</ele>
        <time>2016-10-20T14:23:59Z</time>
      </trkpt>
      <trkpt lat="43.55062" lon="2.37035">
        <ele>374</ele>
        <time>2016-10-20T14:24:01Z</time>
      </trkpt>
      <trkpt lat="43.55061" lon="2.37033">
        <ele>374</ele>
        <time>2016-10-20T14:24:04Z</time>
      </trkpt>
      <trkpt lat="43.5506" lon="2.37028">
        <ele>374</ele>
        <time>2016-10-20T14:24:06Z</time>
      </trkpt>
      <trkpt lat="43.55059" lon="2.37026">
        <ele>374</ele>
        <time>2016-10-20T14:24:08Z</time>
      </trkpt>
      <trkpt lat="43.55058" lon="2.37023">
        <ele>374</ele>
        <time>2016-10-20T14:24:11Z</time>
      </trkpt>
      <trkpt lat="43.55057" lon="2.3702">
        <ele>374</ele>
        <time>2016-10-20T14:24:13Z</time>
      </trkpt>
      <trkpt lat="43.55056" lon="2.37015">
        <ele>374</ele>
        <time>2016-10-20T14:24:15Z</time>
      </trkpt>
      <trkpt lat="43.55055" lon="2.37012">
        <ele>374</ele>
        <time>2016-10-20T14:24:17Z</time>
      </trkpt>
      <trkpt lat="43.55055" lon="2.37009">
        <ele>374</ele>
        <time>2016-10-20T14:24:20Z</time>
      </trkpt>
      <trkpt lat="43.55054" lon="2.37004">
        <ele>374</ele>
        <time>2016-10-20T14:24:22Z</time>
      </trkpt>
      <trkpt lat="43.55054" lon="2.37001">
        <ele>374</ele>
        <time>2016-10-20T14:24:24Z</time>
      </trkpt>
      <trkpt lat="43.55053" lon="2.36998">
        <ele>374</ele>
        <time>2016-10-20T14:24:27Z</time>
      </trkpt>
      <trkpt lat="43.55053" lon="2.36992">
        <ele>374</ele>
        <time>2016-10-20T14:24:29Z</time>
      </trkpt>
      <trkpt lat="43.55053" lon="2.36989">
        <ele>374</ele>
        <time>2016-10-20T14:24:31Z</time>
      </trkpt>
      <trkpt lat="43.55053" lon="2.36985">
        <ele>374</ele>
        <time>2016-10-20T14:24:34Z</time>
      </trkpt>
      <trkpt lat="43.55054" lon="2.36982">
        <ele>374</ele>
        <time>2016-10-20T14:24:36Z</time>
      </trkpt>
      <trkpt lat="43.55054" lon="2.36977">
        <ele>374</ele>
        <time>2016-10-20T14:24:38Z</time>
      </trkpt>
      <trkpt lat="43.55054" lon="2.36974">
        <ele>374</ele>
        <time>2016-10-20T14:24:40Z</time>
      </trkpt>
      <trkpt lat="43.55055" lon="2.36971">
        <ele>374</ele>
        <time>2016-10-20T14:24:43Z</time>
      </trkpt>
      <trkpt lat="43.55056" lon="2.36968">
        <ele>374</ele>
        <time>2016-10-20T14:24:45Z</time>
      </trkpt>
      <trkpt lat="43.55057" lon="2.36964">
        <ele>374</ele>
        <time>2016-10-20T14:24:47Z</time>
      </trkpt>
      <trkpt lat="43.55057" lon="2.36961">
        <ele>374</ele>
        <time>2016-10-20T14:24:50Z</time>
      </trkpt>
      <trkpt lat="43.55058" lon="2.36957">
        <ele>374</ele>
        <time>2016-10-20T14:24:52Z</time>
      </trkpt>
      <trkpt lat="43.55059" lon="2.36953">
        <ele>374</ele>
        <time>2016-10-20T14:24:54Z</time>
      </trkpt>
      <trkpt lat="43.5506" lon="2.3695">
        <ele>374</ele>
        <time>2016-10-20T14:24:57Z</time>
      </trkpt>
      <trkpt lat="43.55061" lon="2.36947">
        <ele>374</ele>
        <time>2016-10-20T14:24:59Z</time>
      </trkpt>
      <trkpt lat="43.55062" lon="2.36943">
        <ele>374</ele>
        <time>2016-10-20T14:25:01Z</time>
      </trkpt>
      <trkpt lat="43.55063" lon="2.36939">
        <ele>374</ele>
        <time>2016-10-20T14:25:03Z</time>
      </trkpt>
      <trkpt lat="43.55066" lon="2.36932">
        <ele>374</ele>
        <time>2016-10-20T14:25:08Z</time>
      </trkpt>
      <trkpt lat="43.55067" lon="2.36929">
        <ele>373</ele>
        <time>2016-10-20T14:25:10Z</time>
      </trkpt>
      <trkpt lat="43.55068" lon="2.36926">
        <ele>373</ele>
        <time>2016-10-20T14:25:13Z</time>
      </trkpt>
      <trkpt lat="43.55069" lon="2.36922">
        <ele>373</ele>
        <time>2016-10-20T14:25:15Z</time>
      </trkpt>
      <trkpt lat="43.55071" lon="2.36918">
        <ele>373</ele>
        <time>2016-10-20T14:25:17Z</time>
      </trkpt>
      <trkpt lat="43.55072" lon="2.36915">
        <ele>373</ele>
        <time>2016-10-20T14:25:20Z</time>
      </trkpt>
      <trkpt lat="43.55073" lon="2.36911">
        <ele>373</ele>
        <time>2016-10-20T14:25:22Z</time>
      </trkpt>
      <trkpt lat="43.55074" lon="2.36908">
        <ele>373</ele>
        <time>2016-10-20T14:25:24Z</time>
      </trkpt>
      <trkpt lat="43.55076" lon="2.36904">
        <ele>373</ele>
        <time>2016-10-20T14:25:27Z</time>
      </trkpt>
      <trkpt lat="43.55076" lon="2.36901">
        <ele>373</ele>
        <time>2016-10-20T14:25:29Z</time>
      </trkpt>
      <trkpt lat="43.55078" lon="2.36897">
        <ele>372</ele>
        <time>2016-10-20T14:25:31Z</time>
      </trkpt>
      <trkpt lat="43.5508" lon="2.36895">
        <ele>372</ele>
        <time>2016-10-20T14:25:33Z</time>
      </trkpt>
      <trkpt lat="43.55081" lon="2.36892">
        <ele>372</ele>
        <time>2016-10-20T14:25:36Z</time>
      </trkpt>
      <trkpt lat="43.55082" lon="2.36888">
        <ele>372</ele>
        <time>2016-10-20T14:25:38Z</time>
      </trkpt>
      <trkpt lat="43.55083" lon="2.36885">
        <ele>372</ele>
        <time>2016-10-20T14:25:40Z</time>
      </trkpt>
      <trkpt lat="43.55085" lon="2.36882">
        <ele>372</ele>
        <time>2016-10-20T14:25:43Z</time>
      </trkpt>
      <trkpt lat="43.55086" lon="2.36877">
        <ele>371</ele>
        <time>2016-10-20T14:25:45Z</time>
      </trkpt>
      <trkpt lat="43.55087" lon="2.36875">
        <ele>371</ele>
        <time>2016-10-20T14:25:47Z</time>
      </trkpt>
      <trkpt lat="43.55088" lon="2.36872">
        <ele>371</ele>
        <time>2016-10-20T14:25:50Z</time>
      </trkpt>
      <trkpt lat="43.55089" lon="2.36869">
        <ele>371</ele>
        <time>2016-10-20T14:25:52Z</time>
      </trkpt>
      <trkpt lat="43.55089" lon="2.36864">
        <ele>371</ele>
        <time>2016-10-20T14:25:54Z</time>
      </trkpt>
      <trkpt lat="43.5509" lon="2.36861">
        <ele>371</ele>
        <time>2016-10-20T14:25:56Z</time>
      </trkpt>
      <trkpt lat="43.55091" lon="2.36857">
        <ele>370</ele>
        <time>2016-10-20T14:25:59Z</time>
      </trkpt>
      <trkpt lat="43.55092" lon="2.36853">
        <ele>370</ele>
        <time>2016-10-20T14:26:01Z</time>
      </trkpt>
      <trkpt lat="43.55093" lon="2.36849">
        <ele>370</ele>
        <time>2016-10-20T14:26:03Z</time>
      </trkpt>
      <trkpt lat="43.55094" lon="2.36847">
        <ele>370</ele>
        <time>2016-10-20T14:26:06Z</time>
      </trkpt>
      <trkpt lat="43.55094" lon="2.36844">
        <ele>370</ele>
        <time>2016-10-20T14:26:08Z</time>
      </trkpt>
      <trkpt lat="43.55095" lon="2.36839">
        <ele>370</ele>
        <time>2016-10-20T14:26:10Z</time>
      </trkpt>
      <trkpt lat="43.55096" lon="2.36836">
        <ele>370</ele>
        <time>2016-10-20T14:26:12Z</time>
      </trkpt>
      <trkpt lat="43.55097" lon="2.36833">
        <ele>369</ele>
        <time>2016-10-20T14:26:15Z</time>
      </trkpt>
      <trkpt lat="43.55098" lon="2.36828">
        <ele>369</ele>
        <time>2016-10-20T14:26:17Z</time>
      </trkpt>
      <trkpt lat="43.55098" lon="2.36824">
        <ele>369</ele>
        <time>2016-10-20T14:26:19Z</time>
      </trkpt>
      <trkpt lat="43.55099" lon="2.36821">
        <ele>369</ele>
        <time>2016-10-20T14:26:22Z</time>
      </trkpt>
      <trkpt lat="43.551" lon="2.36816">
        <ele>369</ele>
        <time>2016-10-20T14:26:24Z</time>
      </trkpt>
      <trkpt lat="43.551" lon="2.36812">
        <ele>368</ele>
        <time>2016-10-20T14:26:26Z</time>
      </trkpt>
      <trkpt lat="43.55101" lon="2.36806">
        <ele>368</ele>
        <time>2016-10-20T14:26:31Z</time>
      </trkpt>
      <trkpt lat="43.55101" lon="2.36801">
        <ele>368</ele>
        <time>2016-10-20T14:26:33Z</time>
      </trkpt>
      <trkpt lat="43.55101" lon="2.36798">
        <ele>368</ele>
        <time>2016-10-20T14:26:35Z</time>
      </trkpt>
      <trkpt lat="43.55101" lon="2.36795">
        <ele>367</ele>
        <time>2016-10-20T14:26:38Z</time>
      </trkpt>
      <trkpt lat="43.55101" lon="2.36791">
        <ele>367</ele>
        <time>2016-10-20T14:26:40Z</time>
      </trkpt>
      <trkpt lat="43.551" lon="2.36788">
        <ele>367</ele>
        <time>2016-10-20T14:26:42Z</time>
      </trkpt>
      <trkpt lat="43.551" lon="2.36785">
        <ele>367</ele>
        <time>2016-10-20T14:26:45Z</time>
      </trkpt>
      <trkpt lat="43.55099" lon="2.3678">
        <ele>367</ele>
        <time>2016-10-20T14:26:47Z</time>
      </trkpt>
      <trkpt lat="43.55099" lon="2.36776">
        <ele>366</ele>
        <time>2016-10-20T14:26:49Z</time>
      </trkpt>
      <trkpt lat="43.55098" lon="2.36773">
        <ele>366</ele>
        <time>2016-10-20T14:26:52Z</time>
      </trkpt>
      <trkpt lat="43.55098" lon="2.3677">
        <ele>366</ele>
        <time>2016-10-20T14:26:54Z</time>
      </trkpt>
      <trkpt lat="43.55098" lon="2.36765">
        <ele>366</ele>
        <time>2016-10-20T14:26:56Z</time>
      </trkpt>
      <trkpt lat="43.55097" lon="2.36762">
        <ele>366</ele>
        <time>2016-10-20T14:26:58Z</time>
      </trkpt>
      <trkpt lat="43.55097" lon="2.3676">
        <ele>366</ele>
        <time>2016-10-20T14:27:01Z</time>
      </trkpt>
      <trkpt lat="43.55096" lon="2.36755">
        <ele>365</ele>
        <time>2016-10-20T14:27:03Z</time>
      </trkpt>
      <trkpt lat="43.55096" lon="2.36752">
        <ele>365</ele>
        <time>2016-10-20T14:27:05Z</time>
      </trkpt>
      <trkpt lat="43.55095" lon="2.36749">
        <ele>365</ele>
        <time>2016-10-20T14:27:08Z</time>
      </trkpt>
      <trkpt lat="43.55095" lon="2.36745">
        <ele>365</ele>
        <time>2016-10-20T14:27:10Z</time>
      </trkpt>
      <trkpt lat="43.55094" lon="2.3674">
        <ele>365</ele>
        <time>2016-10-20T14:27:12Z</time>
      </trkpt>
      <trkpt lat="43.55094" lon="2.36737">
        <ele>364</ele>
        <time>2016-10-20T14:27:14Z</time>
      </trkpt>
      <trkpt lat="43.55093" lon="2.36734">
        <ele>364</ele>
        <time>2016-10-20T14:27:17Z</time>
      </trkpt>
      <trkpt lat="43.55092" lon="2.36729">
        <ele>364</ele>
        <time>2016-10-20T14:27:19Z</time>
      </trkpt>
      <trkpt lat="43.55092" lon="2.36726">
        <ele>364</ele>
        <time>2016-10-20T14:27:21Z</time>
      </trkpt>
      <trkpt lat="43.55091" lon="2.36722">
        <ele>364</ele>
        <time>2016-10-20T14:27:24Z</time>
      </trkpt>
      <trkpt lat="43.55091" lon="2.36718">
        <ele>364</ele>
        <time>2016-10-20T14:27:26Z</time>
      </trkpt>
      <trkpt lat="43.5509" lon="2.36715">
        <ele>363</ele>
        <time>2016-10-20T14:27:28Z</time>
      </trkpt>
      <trkpt lat="43.55089" lon="2.36711">
        <ele>363</ele>
        <time>2016-10-20T14:27:31Z</time>
      </trkpt>
      <trkpt lat="43.55089" lon="2.36707">
        <ele>363</ele>
        <time>2016-10-20T14:27:33Z</time>
      </trkpt>
      <trkpt lat="43.55088" lon="2.36704">
        <ele>363</ele>
        <time>2016-10-20T14:27:35Z</time>
      </trkpt>
      <trkpt lat="43.55088" lon="2.367">
        <ele>363</ele>
        <time>2016-10-20T14:27:38Z</time>
      </trkpt>
      <trkpt lat="43.55087" lon="2.36697">
        <ele>363</ele>
        <time>2016-10-20T14:27:40Z</time>
      </trkpt>
      <trkpt lat="43.55087" lon="2.36693">
        <ele>362</ele>
        <time>2016-10-20T14:27:42Z</time>
      </trkpt>
      <trkpt lat="43.55086" lon="2.36689">
        <ele>362</ele>
        <time>2016-10-20T14:27:44Z</time>
      </trkpt>
      <trkpt lat="43.55085" lon="2.36686">
        <ele>362</ele>
        <time>2016-10-20T14:27:47Z</time>
      </trkpt>
      <trkpt lat="43.55084" lon="2.36681">
        <ele>362</ele>
        <time>2016-10-20T14:27:49Z</time>
      </trkpt>
      <trkpt lat="43.55083" lon="2.36675">
        <ele>362</ele>
        <time>2016-10-20T14:27:54Z</time>
      </trkpt>
      <trkpt lat="43.55083" lon="2.36672">
        <ele>362</ele>
        <time>2016-10-20T14:27:56Z</time>
      </trkpt>
      <trkpt lat="43.55082" lon="2.36667">
        <ele>361</ele>
        <time>2016-10-20T14:27:58Z</time>
      </trkpt>
      <trkpt lat="43.55082" lon="2.36664">
        <ele>361</ele>
        <time>2016-10-20T14:28:01Z</time>
      </trkpt>
      <trkpt lat="43.55081" lon="2.3666">
        <ele>361</ele>
        <time>2016-10-20T14:28:03Z</time>
      </trkpt>
      <trkpt lat="43.55081" lon="2.36656">
        <ele>361</ele>
        <time>2016-10-20T14:28:05Z</time>
      </trkpt>
      <trkpt lat="43.5508" lon="2.36653">
        <ele>361</ele>
        <time>2016-10-20T14:28:07Z</time>
      </trkpt>
      <trkpt lat="43.5508" lon="2.3665">
        <ele>361</ele>
        <time>2016-10-20T14:28:10Z</time>
      </trkpt>
      <trkpt lat="43.55079" lon="2.36645">
        <ele>361</ele>
        <time>2016-10-20T14:28:12Z</time>
      </trkpt>
      <trkpt lat="43.55079" lon="2.36641">
        <ele>361</ele>
        <time>2016-10-20T14:28:14Z</time>
      </trkpt>
      <trkpt lat="43.55078" lon="2.36638">
        <ele>361</ele>
        <time>2016-10-20T14:28:17Z</time>
      </trkpt>
      <trkpt lat="43.55078" lon="2.36635">
        <ele>361</ele>
        <time>2016-10-20T14:28:19Z</time>
      </trkpt>
      <trkpt lat="43.55077" lon="2.36631">
        <ele>361</ele>
        <time>2016-10-20T14:28:21Z</time>
      </trkpt>
      <trkpt lat="43.55077" lon="2.36627">
        <ele>360</ele>
        <time>2016-10-20T14:28:23Z</time>
      </trkpt>
      <trkpt lat="43.55076" lon="2.36624">
        <ele>360</ele>
        <time>2016-10-20T14:28:26Z</time>
      </trkpt>
      <trkpt lat="43.55076" lon="2.3662">
        <ele>360</ele>
        <time>2016-10-20T14:28:28Z</time>
      </trkpt>
      <trkpt lat="43.55075" lon="2.36617">
        <ele>360</ele>
        <time>2016-10-20T14:28:30Z</time>
      </trkpt>
      <trkpt lat="43.55074" lon="2.36613">
        <ele>360</ele>
        <time>2016-10-20T14:28:33Z</time>
      </trkpt>
      <trkpt lat="43.55073" lon="2.36609">
        <ele>360</ele>
        <time>2016-10-20T14:28:35Z</time>
      </trkpt>
      <trkpt lat="43.55072" lon="2.36606">
        <ele>360</ele>
        <time>2016-10-20T14:28:37Z</time>
      </trkpt>
      <trkpt lat="43.55071" lon="2.36603">
        <ele>360</ele>
        <time>2016-10-20T14:28:40Z</time>
      </trkpt>
      <trkpt lat="43.55071" lon="2.36599">
        <ele>360</ele>
        <time>2016-10-20T14:28:42Z</time>
      </trkpt>
      <trkpt lat="43.55069" lon="2.36595">
        <ele>360</ele>
        <time>2016-10-20T14:28:44Z</time>
      </trkpt>
      <trkpt lat="43.55068" lon="2.36591">
        <ele>360</ele>
        <time>2016-10-20T14:28:46Z</time>
      </trkpt>
      <trkpt lat="43.55067" lon="2.36588">
        <ele>359</ele>
        <time>2016-10-20T14:28:49Z</time>
      </trkpt>
      <trkpt lat="43.55066" lon="2.36583">
        <ele>359</ele>
        <time>2016-10-20T14:28:51Z</time>
      </trkpt>
      <trkpt lat="43.55065" lon="2.3658">
        <ele>359</ele>
        <time>2016-10-20T14:28:53Z</time>
      </trkpt>
      <trkpt lat="43.55064" lon="2.36577">
        <ele>359</ele>
        <time>2016-10-20T14:28:56Z</time>
      </trkpt>
      <trkpt lat="43.55062" lon="2.36572">
        <ele>359</ele>
        <time>2016-10-20T14:28:58Z</time>
      </trkpt>
      <trkpt lat="43.55061" lon="2.3657">
        <ele>359</ele>
        <time>2016-10-20T14:29:00Z</time>
      </trkpt>
      <trkpt lat="43.5506" lon="2.36567">
        <ele>359</ele>
        <time>2016-10-20T14:29:03Z</time>
      </trkpt>
      <trkpt lat="43.55059" lon="2.36564">
        <ele>359</ele>
        <time>2016-10-20T14:29:05Z</time>
      </trkpt>
      <trkpt lat="43.55058" lon="2.36559">
        <ele>359</ele>
        <time>2016-10-20T14:29:07Z</time>
      </trkpt>
      <trkpt lat="43.55057" lon="2.36556">
        <ele>359</ele>
        <time>2016-10-20T14:29:09Z</time>
      </trkpt>
      <trkpt lat="43.55056" lon="2.36553">
        <ele>359</ele>
        <time>2016-10-20T14:29:12Z</time>
      </trkpt>
      <trkpt lat="43.55054" lon="2.36546">
        <ele>359</ele>
        <time>2016-10-20T14:29:16Z</time>
      </trkpt>
      <trkpt lat="43.55053" lon="2.36543">
        <ele>359</ele>
        <time>2016-10-20T14:29:19Z</time>
      </trkpt>
      <trkpt lat="43.55052" lon="2.36539">
        <ele>359</ele>
        <time>2016-10-20T14:29:21Z</time>
      </trkpt>
      <trkpt lat="43.55051" lon="2.36536">
        <ele>359</ele>
        <time>2016-10-20T14:29:23Z</time>
      </trkpt>
      <trkpt lat="43.5505" lon="2.36533">
        <ele>359</ele>
        <time>2016-10-20T14:29:26Z</time>
      </trkpt>
      <trkpt lat="43.55049" lon="2.36531">
        <ele>359</ele>
        <time>2016-10-20T14:29:28Z</time>
      </trkpt>
      <trkpt lat="43.55047" lon="2.36527">
        <ele>359</ele>
        <time>2016-10-20T14:29:30Z</time>
      </trkpt>
      <trkpt lat="43.55046" lon="2.36524">
        <ele>359</ele>
        <time>2016-10-20T14:29:32Z</time>
      </trkpt>
      <trkpt lat="43.55045" lon="2.36521">
        <ele>359</ele>
        <time>2016-10-20T14:29:35Z</time>
      </trkpt>
      <trkpt lat="43.55043" lon="2.36518">
        <ele>358</ele>
        <time>2016-10-20T14:29:37Z</time>
      </trkpt>
      <trkpt lat="43.55041" lon="2.36515">
        <ele>358</ele>
        <time>2016-10-20T14:29:39Z</time>
      </trkpt>
      <trkpt lat="43.5504" lon="2.36513">
        <ele>358</ele>
        <time>2016-10-20T14:29:42Z</time>
      </trkpt>
      <trkpt lat="43.55037" lon="2.36509">
        <ele>358</ele>
        <time>2016-10-20T14:29:44Z</time>
      </trkpt>
      <trkpt lat="43.55036" lon="2.36506">
        <ele>358</ele>
        <time>2016-10-20T14:29:46Z</time>
      </trkpt>
      <trkpt lat="43.55034" lon="2.36503">
        <ele>358</ele>
        <time>2016-10-20T14:29:49Z</time>
      </trkpt>
      <trkpt lat="43.55032" lon="2.36499">
        <ele>358</ele>
        <time>2016-10-20T14:29:51Z</time>
      </trkpt>
      <trkpt lat="43.5503" lon="2.36496">
        <ele>358</ele>
        <time>2016-10-20T14:29:53Z</time>
      </trkpt>
      <trkpt lat="43.55028" lon="2.36494">
        <ele>358</ele>
        <time>2016-10-20T14:29:56Z</time>
      </trkpt>
      <trkpt lat="43.55027" lon="2.36491">
        <ele>358</ele>
        <time>2016-10-20T14:29:58Z</time>
      </trkpt>
      <trkpt lat="43.55024" lon="2.36487">
        <ele>358</ele>
        <time>2016-10-20T14:30:00Z</time>
      </trkpt>
      <trkpt lat="43.55023" lon="2.36484">
        <ele>358</ele>
        <time>2016-10-20T14:30:02Z</time>
      </trkpt>
      <trkpt lat="43.55021" lon="2.36482">
        <ele>358</ele>
        <time>2016-10-20T14:30:05Z</time>
      </trkpt>
      <trkpt lat="43.55019" lon="2.36478">
        <ele>358</ele>
        <time>2016-10-20T14:30:07Z</time>
      </trkpt>
      <trkpt lat="43.55018" lon="2.36475">
        <ele>358</ele>
        <time>2016-10-20T14:30:09Z</time>
      </trkpt>
      <trkpt lat="43.55016" lon="2.36472">
        <ele>358</ele>
        <time>2016-10-20T14:30:12Z</time>
      </trkpt>
      <trkpt lat="43.55015" lon="2.3647">
        <ele>358</ele>
        <time>2016-10-20T14:30:14Z</time>
      </trkpt>
      <trkpt lat="43.55012" lon="2.36467">
        <ele>358</ele>
        <time>2016-10-20T14:30:16Z</time>
      </trkpt>
      <trkpt lat="43.55011" lon="2.36464">
        <ele>358</ele>
        <time>2016-10-20T14:30:18Z</time>
      </trkpt>
      <trkpt lat="43.5501" lon="2.36462">
        <ele>358</ele>
        <time>2016-10-20T14:30:21Z</time>
      </trkpt>
      <trkpt lat="43.55009" lon="2.36458">
        <ele>358</ele>
        <time>2016-10-20T14:30:23Z</time>
      </trkpt>
      <trkpt lat="43.55007" lon="2.36456">
        <ele>358</ele>
        <time>2016-10-20T14:30:25Z</time>
      </trkpt>
      <trkpt lat="43.55006" lon="2.36453">
        <ele>358</ele>
        <time>2016-10-20T14:30:28Z</time>
      </trkpt>
      <trkpt lat="43.55005" lon="2.36451">
        <ele>358</ele>
        <time>2016-10-20T14:30:30Z</time>
      </trkpt>
      <trkpt lat="43.55004" lon="2.36448">
        <ele>358</ele>
        <time>2016-10-20T14:30:32Z</time>
      </trkpt>
      <trkpt lat="43.55002" lon="2.36446">
        <ele>359</ele>
        <time>2016-10-20T14:30:34Z</time>
      </trkpt>
      <trkpt lat="43.54999" lon="2.3644">
        <ele>359</ele>
        <time>2016-10-20T14:30:39Z</time>
      </trkpt>
      <trkpt lat="43.54998" lon="2.36438">
        <ele>359</ele>
        <time>2016-10-20T14:30:41Z</time>
      </trkpt>
      <trkpt lat="43.54997" lon="2.36436">
        <ele>359</ele>
        <time>2016-10-20T14:30:44Z</time>
      </trkpt>
      <trkpt lat="43.54996" lon="2.36434">
        <ele>359</ele>
        <time>2016-10-20T14:30:46Z</time>
      </trkpt>
      <trkpt lat="43.54994" lon="2.36431">
        <ele>359</ele>
        <time>2016-10-20T14:30:48Z</time>
      </trkpt>
      <trkpt lat="43.54993" lon="2.36429">
        <ele>359</ele>
        <time>2016-10-20T14:30:50Z</time>
      </trkpt>
      <trkpt lat="43.54992" lon="2.36427">
        <ele>359</ele>
        <time>2016-10-20T14:30:53Z</time>
      </trkpt>
      <trkpt lat="43.54991" lon="2.36424">
        <ele>359</ele>
        <time>2016-10-20T14:30:55Z</time>
      </trkpt>
      <trkpt lat="43.54989" lon="2.36422">
        <ele>359</ele>
        <time>2016-10-20T14:30:57Z</time>
      </trkpt>
      <trkpt lat="43.54988" lon="2.3642">
        <ele>359</ele>
        <time>2016-10-20T14:31:00Z</time>
      </trkpt>
      <trkpt lat="43.54988" lon="2.36419">
        <ele>360</ele>
        <time>2016-10-20T14:31:02Z</time>
      </trkpt>
      <trkpt lat="43.54987" lon="2.36417">
        <ele>360</ele>
        <time>2016-10-20T14:31:04Z</time>
      </trkpt>
      <trkpt lat="43.54986" lon="2.36417">
        <ele>360</ele>
        <time>2016-10-20T14:31:06Z</time>
      </trkpt>
      <trkpt lat="43.54986" lon="2.36417">
        <ele>360</ele>
        <time>2016-10-20T14:31:09Z</time>
      </trkpt>
      <trkpt lat="43.54986" lon="2.36417">
        <ele>360</ele>
        <time>2016-10-20T14:31:11Z</time>
      </trkpt>
      <trkpt lat="43.54986" lon="2.36417">
        <ele>360</ele>
        <time>2016-10-20T14:31:13Z</time>
      </trkpt>
      <trkpt lat="43.54986" lon="2.36417">
        <ele>360</ele>
        <time>2016-10-20T14:31:16Z</time>
      </trkpt>
      <trkpt lat="43.54985" lon="2.36417">
        <ele>360</ele>
        <time>2016-10-20T14:31:18Z</time>
      </trkpt>
      <trkpt lat="43.54983" lon="2.36415">
        <ele>360</ele>
        <time>2016-10-20T14:31:20Z</time>
      </trkpt>
      <trkpt lat="43.54982" lon="2.36413">
        <ele>360</ele>
        <time>2016-10-20T14:31:22Z</time>
      </trkpt>
      <trkpt lat="43.5498" lon="2.36411">
        <ele>360</ele>
        <time>2016-10-20T14:31:25Z</time>
      </trkpt>
      <trkpt lat="43.54979" lon="2.36408">
        <ele>360</ele>
        <time>2016-10-20T14:31:27Z</time>
      </trkpt>
      <trkpt lat="43.54978" lon="2.36407">
        <ele>360</ele>
        <time>2016-10-20T14:31:29Z</time>
      </trkpt>
      <trkpt lat="43.54978" lon="2.36406">
        <ele>360</ele>
        <time>2016-10-20T14:31:32Z</time>
      </trkpt>
      <trkpt lat="43.54977" lon="2.36406">
        <ele>360</ele>
        <time>2016-10-20T14:31:34Z</time>
      </trkpt>
      <trkpt lat="43.54977" lon="2.36406">
        <ele>360</ele>
        <time>2016-10-20T14:31:36Z</time>
      </trkpt>
      <trkpt lat="43.54975" lon="2.36404">
        <ele>360</ele>
        <time>2016-10-20T14:31:39Z</time>
      </trkpt>
      <trkpt lat="43.54973" lon="2.36402">
        <ele>360</ele>
        <time>2016-10-20T14:31:41Z</time>
      </trkpt>
      <trkpt lat="43.5497" lon="2.36398">
        <ele>361</ele>
        <time>2016-10-20T14:31:43Z</time>
      </trkpt>
      <trkpt lat="43.54968" lon="2.36396">
        <ele>361</ele>
        <time>2016-10-20T14:31:45Z</time>
      </trkpt>
      <trkpt lat="43.54967" lon="2.36393">
        <ele>361</ele>
        <time>2016-10-20T14:31:48Z</time>
      </trkpt>
      <trkpt lat="43.54964" lon="2.3639">
        <ele>361</ele>
        <time>2016-10-20T14:31:50Z</time>
      </trkpt>
      <trkpt lat="43.54963" lon="2.36387">
        <ele>361</ele>
        <time>2016-10-20T14:31:52Z</time>
      </trkpt>
      <trkpt lat="43.54961" lon="2.36385">
        <ele>361</ele>
        <time>2016-10-20T14:31:55Z</time>
      </trkpt>
      <trkpt lat="43.54959" lon="2.36382">
        <ele>361</ele>
        <time>2016-10-20T14:31:57Z</time>
      </trkpt>
      <trkpt lat="43.54955" lon="2.36379">
        <ele>362</ele>
        <time>2016-10-20T14:32:02Z</time>
      </trkpt>
      <trkpt lat="43.54954" lon="2.36377">
        <ele>362</ele>
        <time>2016-10-20T14:32:04Z</time>
      </trkpt>
      <trkpt lat="43.54951" lon="2.36375">
        <ele>362</ele>
        <time>2016-10-20T14:32:06Z</time>
      </trkpt>
      <trkpt lat="43.5495" lon="2.36373">
        <ele>362</ele>
        <time>2016-10-20T14:32:08Z</time>
      </trkpt>
      <trkpt lat="43.54948" lon="2.36371">
        <ele>362</ele>
        <time>2016-10-20T14:32:11Z</time>
      </trkpt>
      <trkpt lat="43.54946" lon="2.36369">
        <ele>362</ele>
        <time>2016-10-20T14:32:13Z</time>
      </trkpt>
      <trkpt lat="43.54944" lon="2.36367">
        <ele>362</ele>
        <time>2016-10-20T14:32:15Z</time>
      </trkpt>
      <trkpt lat="43.54942" lon="2.36366">
        <ele>363</ele>
        <time>2016-10-20T14:32:18Z</time>
      </trkpt>
      <trkpt lat="43.5494" lon="2.36363">
        <ele>363</ele>
        <time>2016-10-20T14:32:20Z</time>
      </trkpt>
      <trkpt lat="43.54938" lon="2.36362">
        <ele>363</ele>
        <time>2016-10-20T14:32:22Z</time>
      </trkpt>
      <trkpt lat="43.54937" lon="2.36361">
        <ele>363</ele>
        <time>2016-10-20T14:32:25Z</time>
      </trkpt>
      <trkpt lat="43.54937" lon="2.36361">
        <ele>363</ele>
        <time>2016-10-20T14:32:27Z</time>
      </trkpt>
      <trkpt lat="43.54934" lon="2.36359">
        <ele>363</ele>
        <time>2016-10-20T14:32:29Z</time>
      </trkpt>
      <trkpt lat="43.54932" lon="2.36356">
        <ele>363</ele>
        <time>2016-10-20T14:32:31Z</time>
      </trkpt>
      <trkpt lat="43.5493" lon="2.36354">
        <ele>364</ele>
        <time>2016-10-20T14:32:34Z</time>
      </trkpt>
      <trkpt lat="43.54927" lon="2.36352">
        <ele>364</ele>
        <time>2016-10-20T14:32:36Z</time>
      </trkpt>
      <trkpt lat="43.54925" lon="2.36349">
        <ele>364</ele>
        <time>2016-10-20T14:32:38Z</time>
      </trkpt>
      <trkpt lat="43.54923" lon="2.36348">
        <ele>364</ele>
        <time>2016-10-20T14:32:41Z</time>
      </trkpt>
      <trkpt lat="43.5492" lon="2.36346">
        <ele>364</ele>
        <time>2016-10-20T14:32:43Z</time>
      </trkpt>
      <trkpt lat="43.54917" lon="2.36344">
        <ele>365</ele>
        <time>2016-10-20T14:32:45Z</time>
      </trkpt>
      <trkpt lat="43.54915" lon="2.36342">
        <ele>365</ele>
        <time>2016-10-20T14:32:48Z</time>
      </trkpt>
      <trkpt lat="43.54913" lon="2.36341">
        <ele>365</ele>
        <time>2016-10-20T14:32:50Z</time>
      </trkpt>
      <trkpt lat="43.5491" lon="2.36339">
        <ele>365</ele>
        <time>2016-10-20T14:32:52Z</time>
      </trkpt>
      <trkpt lat="43.54908" lon="2.36338">
        <ele>365</ele>
        <time>2016-10-20T14:32:54Z</time>
      </trkpt>
      <trkpt lat="43.54906" lon="2.36336">
        <ele>365</ele>
        <time>2016-10-20T14:32:57Z</time>
      </trkpt>
      <trkpt lat="43.54904" lon="2.36334">
        <ele>365</ele>
        <time>2016-10-20T14:32:59Z</time>
      </trkpt>
      <trkpt lat="43.54903" lon="2.36332">
        <ele>365</ele>
        <time>2016-10-20T14:33:01Z</time>
      </trkpt>
      <trkpt lat="43.549" lon="2.36331">
        <ele>365</ele>
        <time>2016-10-20T14:33:04Z</time>
      </trkpt>
      <trkpt lat="43.54898" lon="2.36329">
        <ele>365</ele>
        <time>2016-10-20T14:33:06Z</time>
      </trkpt>
      <trkpt lat="43.54895" lon="2.36327">
        <ele>365</ele>
        <time>2016-10-20T14:33:08Z</time>
      </trkpt>
      <trkpt lat="43.54893" lon="2.36326">
        <ele>365</ele>
        <time>2016-10-20T14:33:10Z</time>
      </trkpt>
      <trkpt lat="43.54892" lon="2.36324">
        <ele>365</ele>
        <time>2016-10-20T14:33:13Z</time>
      </trkpt>
      <trkpt lat="43.54889" lon="2.36321">
        <ele>365</ele>
        <time>2016-10-20T14:33:15Z</time>
      </trkpt>
      <trkpt lat="43.54887" lon="2.3632">
        <ele>365</ele>
        <time>2016-10-20T14:33:17Z</time>
      </trkpt>
      <trkpt lat="43.54885" lon="2.36318">
        <ele>365</ele>
        <time>2016-10-20T14:33:20Z</time>
      </trkpt>
      <trkpt lat="43.54881" lon="2.36314">
        <ele>365</ele>
        <time>2016-10-20T14:33:24Z</time>
      </trkpt>
      <trkpt lat="43.54879" lon="2.36312">
        <ele>365</ele>
        <time>2016-10-20T14:33:26Z</time>
      </trkpt>
      <trkpt lat="43.54877" lon="2.36311">
        <ele>365</ele>
        <time>2016-10-20T14:33:29Z</time>
      </trkpt>
      <trkpt lat="43.54875" lon="2.36309">
        <ele>365</ele>
        <time>2016-10-20T14:33:31Z</time>
      </trkpt>
      <trkpt lat="43.54874" lon="2.36308">
        <ele>365</ele>
        <time>2016-10-20T14:33:33Z</time>
      </trkpt>
      <trkpt lat="43.54872" lon="2.36306">
        <ele>366</ele>
        <time>2016-10-20T14:33:36Z</time>
      </trkpt>
      <trkpt lat="43.5487" lon="2.36305">
        <ele>366</ele>
        <time>2016-10-20T14:33:38Z</time>
      </trkpt>
      <trkpt lat="43.54868" lon="2.36302">
        <ele>366</ele>
        <time>2016-10-20T14:33:40Z</time>
      </trkpt>
      <trkpt lat="43.54866" lon="2.363">
        <ele>366</ele>
        <time>2016-10-20T14:33:42Z</time>
      </trkpt>
      <trkpt lat="43.54864" lon="2.36299">
        <ele>366</ele>
        <time>2016-10-20T14:33:45Z</time>
      </trkpt>
      <trkpt lat="43.54862" lon="2.36296">
        <ele>366</ele>
        <time>2016-10-20T14:33:47Z</time>
      </trkpt>
      <trkpt lat="43.5486" lon="2.36294">
        <ele>366</ele>
        <time>2016-10-20T14:33:49Z</time>
      </trkpt>
      <trkpt lat="43.54858" lon="2.36293">
        <ele>366</ele>
        <time>2016-10-20T14:33:52Z</time>
      </trkpt>
      <trkpt lat="43.54856" lon="2.36292">
        <ele>366</ele>
        <time>2016-10-20T14:33:54Z</time>
      </trkpt>
      <trkpt lat="43.54854" lon="2.36289">
        <ele>366</ele>
        <time>2016-10-20T14:33:56Z</time>
      </trkpt>
      <trkpt lat="43.54852" lon="2.36288">
        <ele>366</ele>
        <time>2016-10-20T14:33:58Z</time>
      </trkpt>
      <trkpt lat="43.54851" lon="2.36286">
        <ele>366</ele>
        <time>2016-10-20T14:34:01Z</time>
      </trkpt>
      <trkpt lat="43.54848" lon="2.36284">
        <ele>366</ele>
        <time>2016-10-20T14:34:03Z</time>
      </trkpt>
      <trkpt lat="43.54847" lon="2.36283">
        <ele>366</ele>
        <time>2016-10-20T14:34:05Z</time>
      </trkpt>
      <trkpt lat="43.54846" lon="2.36282">
        <ele>366</ele>
        <time>2016-10-20T14:34:08Z</time>
      </trkpt>
      <trkpt lat="43.54844" lon="2.3628">
        <ele>366</ele>
        <time>2016-10-20T14:34:10Z</time>
      </trkpt>
      <trkpt lat="43.54842" lon="2.36278">
        <ele>366</ele>
        <time>2016-10-20T14:34:12Z</time>
      </trkpt>
      <trkpt lat="43.54841" lon="2.36277">
        <ele>366</ele>
        <time>2016-10-20T14:34:15Z</time>
      </trkpt>
      <trkpt lat="43.54839" lon="2.36275">
        <ele>365</ele>
        <time>2016-10-20T14:34:17Z</time>
      </trkpt>
      <trkpt lat="43.54837" lon="2.36273">
        <ele>365</ele>
        <time>2016-10-20T14:34:19Z</time>
      </trkpt>
      <trkpt lat="43.54836" lon="2.36272">
        <ele>365</ele>
        <time>2016-10-20T14:34:21Z</time>
      </trkpt>
      <trkpt lat="43.54834" lon="2.36271">
        <ele>364</ele>
        <time>2016-10-20T14:34:24Z</time>
      </trkpt>
      <trkpt lat="43.54832" lon="2.36268">
        <ele>364</ele>
        <time>2016-10-20T14:34:26Z</time>
      </trkpt>
      <trkpt lat="43.54831" lon="2.36266">
        <ele>364</ele>
        <time>2016-10-20T14:34:28Z</time>
      </trkpt>
      <trkpt lat="43.5483" lon="2.36264">
        <ele>364</ele>
        <time>2016-10-20T14:34:31Z</time>
      </trkpt>
      <trkpt lat="43.54829" lon="2.36263">
        <ele>364</ele>
        <time>2016-10-20T14:34:33Z</time>
      </trkpt>
      <trkpt lat="43.54827" lon="2.3626">
        <ele>363</ele>
        <time>2016-10-20T14:34:35Z</time>
      </trkpt>
      <trkpt lat="43.54826" lon="2.36258">
        <ele>363</ele>
        <time>2016-10-20T14:34:37Z</time>
      </trkpt>
      <trkpt lat="43.54825" lon="2.36255">
        <ele>363</ele>
        <time>2016-10-20T14:34:40Z</time>
      </trkpt>
      <trkpt lat="43.54823" lon="2.36251">
        <ele>363</ele>
        <time>2016-10-20T14:34:42Z</time>
      </trkpt>
      <trkpt lat="43.54822" lon="2.36245">
        <ele>362</ele>
        <time>2016-10-20T14:34:47Z</time>
      </trkpt>
      <trkpt lat="43.54822" lon="2.36241">
        <ele>362</ele>
        <time>2016-10-20T14:34:49Z</time>
      </trkpt>
      <trkpt lat="43.54822" lon="2.36239">
        <ele>362</ele>
        <time>2016-10-20T14:34:51Z</time>
      </trkpt>
      <trkpt lat="43.54821" lon="2.36236">
        <ele>362</ele>
        <time>2016-10-20T14:34:54Z</time>
      </trkpt>
      <trkpt lat="43.54821" lon="2.36233">
        <ele>362</ele>
        <time>2016-10-20T14:34:56Z</time>
      </trkpt>
      <trkpt lat="43.54821" lon="2.36229">
        <ele>362</ele>
        <time>2016-10-20T14:34:58Z</time>
      </trkpt>
      <trkpt lat="43.54821" lon="2.36227">
        <ele>362</ele>
        <time>2016-10-20T14:35:00Z</time>
      </trkpt>
      <trkpt lat="43.54821" lon="2.36224">
        <ele>362</ele>
        <time>2016-10-20T14:35:03Z</time>
      </trkpt>
      <trkpt lat="43.54821" lon="2.3622">
        <ele>362</ele>
        <time>2016-10-20T14:35:05Z</time>
      </trkpt>
      <trkpt lat="43.54821" lon="2.36217">
        <ele>362</ele>
        <time>2016-10-20T14:35:07Z</time>
      </trkpt>
      <trkpt lat="43.54821" lon="2.36214">
        <ele>362</ele>
        <time>2016-10-20T14:35:10Z</time>
      </trkpt>
      <trkpt lat="43.5482" lon="2.36211">
        <ele>362</ele>
        <time>2016-10-20T14:35:12Z</time>
      </trkpt>
      <trkpt lat="43.54819" lon="2.36206">
        <ele>362</ele>
        <time>2016-10-20T14:35:14Z</time>
      </trkpt>
      <trkpt lat="43.54819" lon="2.36204">
        <ele>362</ele>
        <time>2016-10-20T14:35:16Z</time>
      </trkpt>
      <trkpt lat="43.54819" lon="2.36201">
        <ele>362</ele>
        <time>2016-10-20T14:35:19Z</time>
      </trkpt>
      <trkpt lat="43.54819" lon="2.36197">
        <ele>361</ele>
        <time>2016-10-20T14:35:21Z</time>
      </trkpt>
      <trkpt lat="43.54819" lon="2.36193">
        <ele>361</ele>
        <time>2016-10-20T14:35:23Z</time>
      </trkpt>
      <trkpt lat="43.54818" lon="2.3619">
        <ele>361</ele>
        <time>2016-10-20T14:35:26Z</time>
      </trkpt>
      <trkpt lat="43.54817" lon="2.36185">
        <ele>361</ele>
        <time>2016-10-20T14:35:28Z</time>
      </trkpt>
      <trkpt lat="43.54816" lon="2.36181">
        <ele>361</ele>
        <time>2016-10-20T14:35:30Z</time>
      </trkpt>
      <trkpt lat="43.54815" lon="2.36177">
        <ele>361</ele>
        <time>2016-10-20T14:35:33Z</time>
      </trkpt>
      <trkpt lat="43.54815" lon="2.36173">
        <ele>361</ele>
        <time>2016-10-20T14:35:35Z</time>
      </trkpt>
      <trkpt lat="43.54814" lon="2.36168">
        <ele>360</ele>
        <time>2016-10-20T14:35:37Z</time>
      </trkpt>
      <trkpt lat="43.54814" lon="2.36164">
        <ele>360</ele>
        <time>2016-10-20T14:35:39Z</time>
      </trkpt>
      <trkpt lat="43.54813" lon="2.36161">
        <ele>360</ele>
        <time>2016-10-20T14:35:42Z</time>
      </trkpt>
      <trkpt lat="43.54813" lon="2.36156">
        <ele>360</ele>
        <time>2016-10-20T14:35:44Z</time>
      </trkpt>
      <trkpt lat="43.54813" lon="2.36152">
        <ele>360</ele>
        <time>2016-10-20T14:35:46Z</time>
      </trkpt>
      <trkpt lat="43.54813" lon="2.36149">
        <ele>360</ele>
        <time>2016-10-20T14:35:49Z</time>
      </trkpt>
      <trkpt lat="43.54813" lon="2.36146">
        <ele>360</ele>
        <time>2016-10-20T14:35:51Z</time>
      </trkpt>
      <trkpt lat="43.54812" lon="2.36141">
        <ele>360</ele>
        <time>2016-10-20T14:35:53Z</time>
      </trkpt>
      <trkpt lat="43.54812" lon="2.36138">
        <ele>360</ele>
        <time>2016-10-20T14:35:55Z</time>
      </trkpt>
      <trkpt lat="43.54812" lon="2.36135">
        <ele>360</ele>
        <time>2016-10-20T14:35:58Z</time>
      </trkpt>
      <trkpt lat="43.54812" lon="2.36132">
        <ele>360</ele>
        <time>2016-10-20T14:36:00Z</time>
      </trkpt>
      <trkpt lat="43.54812" lon="2.36128">
        <ele>360</ele>
        <time>2016-10-20T14:36:02Z</time>
      </trkpt>
      <trkpt lat="43.54812" lon="2.36124">
        <ele>360</ele>
        <time>2016-10-20T14:36:04Z</time>
      </trkpt>
      <trkpt lat="43.54811" lon="2.36117">
        <ele>359</ele>
        <time>2016-10-20T14:36:09Z</time>
      </trkpt>
      <trkpt lat="43.5481" lon="2.36115">
        <ele>359</ele>
        <time>2016-10-20T14:36:11Z</time>
      </trkpt>
      <trkpt lat="43.5481" lon="2.36112">
        <ele>359</ele>
        <time>2016-10-20T14:36:14Z</time>
      </trkpt>
      <trkpt lat="43.5481" lon="2.36109">
        <ele>359</ele>
        <time>2016-10-20T14:36:16Z</time>
      </trkpt>
      <trkpt lat="43.5481" lon="2.36104">
        <ele>359</ele>
        <time>2016-10-20T14:36:18Z</time>
      </trkpt>
      <trkpt lat="43.54809" lon="2.36101">
        <ele>359</ele>
        <time>2016-10-20T14:36:20Z</time>
      </trkpt>
      <trkpt lat="43.54809" lon="2.36098">
        <ele>359</ele>
        <time>2016-10-20T14:36:23Z</time>
      </trkpt>
      <trkpt lat="43.54809" lon="2.36094">
        <ele>359</ele>
        <time>2016-10-20T14:36:25Z</time>
      </trkpt>
      <trkpt lat="43.54809" lon="2.36091">
        <ele>359</ele>
        <time>2016-10-20T14:36:27Z</time>
      </trkpt>
      <trkpt lat="43.54808" lon="2.36088">
        <ele>358</ele>
        <time>2016-10-20T14:36:30Z</time>
      </trkpt>
      <trkpt lat="43.54808" lon="2.36085">
        <ele>358</ele>
        <time>2016-10-20T14:36:32Z</time>
      </trkpt>
      <trkpt lat="43.54807" lon="2.3608">
        <ele>358</ele>
        <time>2016-10-20T14:36:34Z</time>
      </trkpt>
      <trkpt lat="43.54807" lon="2.36078">
        <ele>358</ele>
        <time>2016-10-20T14:36:36Z</time>
      </trkpt>
      <trkpt lat="43.54807" lon="2.36075">
        <ele>358</ele>
        <time>2016-10-20T14:36:39Z</time>
      </trkpt>
      <trkpt lat="43.54806" lon="2.36072">
        <ele>358</ele>
        <time>2016-10-20T14:36:41Z</time>
      </trkpt>
      <trkpt lat="43.54805" lon="2.3607">
        <ele>358</ele>
        <time>2016-10-20T14:36:43Z</time>
      </trkpt>
      <trkpt lat="43.54804" lon="2.36067">
        <ele>358</ele>
        <time>2016-10-20T14:36:46Z</time>
      </trkpt>
      <trkpt lat="43.54803" lon="2.36065">
        <ele>357</ele>
        <time>2016-10-20T14:36:48Z</time>
      </trkpt>
      <trkpt lat="43.54801" lon="2.36061">
        <ele>357</ele>
        <time>2016-10-20T14:36:50Z</time>
      </trkpt>
      <trkpt lat="43.54799" lon="2.36058">
        <ele>357</ele>
        <time>2016-10-20T14:36:52Z</time>
      </trkpt>
      <trkpt lat="43.54798" lon="2.36056">
        <ele>357</ele>
        <time>2016-10-20T14:36:55Z</time>
      </trkpt>
      <trkpt lat="43.54795" lon="2.36053">
        <ele>356</ele>
        <time>2016-10-20T14:36:57Z</time>
      </trkpt>
      <trkpt lat="43.54794" lon="2.36051">
        <ele>356</ele>
        <time>2016-10-20T14:36:59Z</time>
      </trkpt>
      <trkpt lat="43.54792" lon="2.36049">
        <ele>356</ele>
        <time>2016-10-20T14:37:02Z</time>
      </trkpt>
      <trkpt lat="43.5479" lon="2.36047">
        <ele>356</ele>
        <time>2016-10-20T14:37:04Z</time>
      </trkpt>
      <trkpt lat="43.54788" lon="2.36045">
        <ele>356</ele>
        <time>2016-10-20T14:37:06Z</time>
      </trkpt>
      <trkpt lat="43.54787" lon="2.36043">
        <ele>355</ele>
        <time>2016-10-20T14:37:08Z</time>
      </trkpt>
      <trkpt lat="43.54785" lon="2.36041">
        <ele>355</ele>
        <time>2016-10-20T14:37:11Z</time>
      </trkpt>
      <trkpt lat="43.54782" lon="2.36038">
        <ele>355</ele>
        <time>2016-10-20T14:37:13Z</time>
      </trkpt>
      <trkpt lat="43.5478" lon="2.36036">
        <ele>355</ele>
        <time>2016-10-20T14:37:15Z</time>
      </trkpt>
      <trkpt lat="43.54779" lon="2.36035">
        <ele>355</ele>
        <time>2016-10-20T14:37:18Z</time>
      </trkpt>
      <trkpt lat="43.54776" lon="2.36031">
        <ele>354</ele>
        <time>2016-10-20T14:37:20Z</time>
      </trkpt>
      <trkpt lat="43.54775" lon="2.36029">
        <ele>354</ele>
        <time>2016-10-20T14:37:22Z</time>
      </trkpt>
      <trkpt lat="43.54773" lon="2.36028">
        <ele>354</ele>
        <time>2016-10-20T14:37:25Z</time>
      </trkpt>
      <trkpt lat="43.54772" lon="2.36025">
        <ele>354</ele>
        <time>2016-10-20T14:37:27Z</time>
      </trkpt>
      <trkpt lat="43.54768" lon="2.36021">
        <ele>354</ele>
        <time>2016-10-20T14:37:31Z</time>
      </trkpt>
      <trkpt lat="43.54767" lon="2.36019">
        <ele>353</ele>
        <time>2016-10-20T14:37:34Z</time>
      </trkpt>
      <trkpt lat="43.54764" lon="2.36017">
        <ele>353</ele>
        <time>2016-10-20T14:37:36Z</time>
      </trkpt>
      <trkpt lat="43.54762" lon="2.36015">
        <ele>353</ele>
        <time>2016-10-20T14:37:38Z</time>
      </trkpt>
      <trkpt lat="43.54761" lon="2.36013">
        <ele>353</ele>
        <time>2016-10-20T14:37:41Z</time>
      </trkpt>
      <trkpt lat="43.54758" lon="2.36012">
        <ele>353</ele>
        <time>2016-10-20T14:37:43Z</time>
      </trkpt>
      <trkpt lat="43.54756" lon="2.36009">
        <ele>352</ele>
        <time>2016-10-20T14:37:45Z</time>
      </trkpt>
      <trkpt lat="43.54754" lon="2.36007">
        <ele>352</ele>
        <time>2016-10-20T14:37:47Z</time>
      </trkpt>
      <trkpt lat="43.54752" lon="2.36005">
        <ele>352</ele>
        <time>2016-10-20T14:37:50Z</time>
      </trkpt>
      <trkpt lat="43.54749" lon="2.36002">
        <ele>352</ele>
        <time>2016-10-20T14:37:52Z</time>
      </trkpt>
      <trkpt lat="43.54747" lon="2.36">
        <ele>352</ele>
        <time>2016-10-20T14:37:54Z</time>
      </trkpt>
      <trkpt lat="43.54745" lon="2.35998">
        <ele>352</ele>
        <time>2016-10-20T14:37:57Z</time>
      </trkpt>
      <trkpt lat="43.54743" lon="2.35996">
        <ele>351</ele>
        <time>2016-10-20T14:37:59Z</time>
      </trkpt>
      <trkpt lat="43.54741" lon="2.35994">
        <ele>351</ele>
        <time>2016-10-20T14:38:01Z</time>
      </trkpt>
      <trkpt lat="43.5474" lon="2.35992">
        <ele>351</ele>
        <time>2016-10-20T14:38:03Z</time>
      </trkpt>
      <trkpt lat="43.54738" lon="2.3599">
        <ele>351</ele>
        <time>2016-10-20T14:38:06Z</time>
      </trkpt>
      <trkpt lat="43.54736" lon="2.35987">
        <ele>351</ele>
        <time>2016-10-20T14:38:08Z</time>
      </trkpt>
      <trkpt lat="43.54734" lon="2.35986">
        <ele>351</ele>
        <time>2016-10-20T14:38:10Z</time>
      </trkpt>
      <trkpt lat="43.54733" lon="2.35984">
        <ele>350</ele>
        <time>2016-10-20T14:38:13Z</time>
      </trkpt>
      <trkpt lat="43.54731" lon="2.35982">
        <ele>350</ele>
        <time>2016-10-20T14:38:15Z</time>
      </trkpt>
      <trkpt lat="43.54729" lon="2.3598">
        <ele>350</ele>
        <time>2016-10-20T14:38:17Z</time>
      </trkpt>
      <trkpt lat="43.54728" lon="2.35977">
        <ele>350</ele>
        <time>2016-10-20T14:38:19Z</time>
      </trkpt>
      <trkpt lat="43.54728" lon="2.35977">
        <ele>350</ele>
        <time>2016-10-20T14:38:22Z</time>
      </trkpt>
      <trkpt lat="43.54728" lon="2.35976">
        <ele>350</ele>
        <time>2016-10-20T14:38:24Z</time>
      </trkpt>
      <trkpt lat="43.54728" lon="2.35975">
        <ele>350</ele>
        <time>2016-10-20T14:38:26Z</time>
      </trkpt>
      <trkpt lat="43.54728" lon="2.35974">
        <ele>350</ele>
        <time>2016-10-20T14:38:29Z</time>
      </trkpt>
      <trkpt lat="43.54728" lon="2.35975">
        <ele>350</ele>
        <time>2016-10-20T14:38:31Z</time>
      </trkpt>
      <trkpt lat="43.54728" lon="2.35974">
        <ele>350</ele>
        <time>2016-10-20T14:38:33Z</time>
      </trkpt>
      <trkpt lat="43.54728" lon="2.35974">
        <ele>350</ele>
        <time>2016-10-20T14:38:35Z</time>
      </trkpt>
      <trkpt lat="43.54727" lon="2.35974">
        <ele>350</ele>
        <time>2016-10-20T14:38:38Z</time>
      </trkpt>
      <trkpt lat="43.54726" lon="2.35972">
        <ele>350</ele>
        <time>2016-10-20T14:38:40Z</time>
      </trkpt>
      <trkpt lat="43.54724" lon="2.35972">
        <ele>350</ele>
        <time>2016-10-20T14:38:42Z</time>
      </trkpt>
      <trkpt lat="43.54723" lon="2.35971">
        <ele>349</ele>
        <time>2016-10-20T14:38:45Z</time>
      </trkpt>
      <trkpt lat="43.54721" lon="2.3597">
        <ele>349</ele>
        <time>2016-10-20T14:38:47Z</time>
      </trkpt>
      <trkpt lat="43.54718" lon="2.35968">
        <ele>349</ele>
        <time>2016-10-20T14:38:49Z</time>
      </trkpt>
      <trkpt lat="43.54717" lon="2.35967">
        <ele>349</ele>
        <time>2016-10-20T14:38:51Z</time>
      </trkpt>
      <trkpt lat="43.54713" lon="2.35963">
        <ele>349</ele>
        <time>2016-10-20T14:38:56Z</time>
      </trkpt>
      <trkpt lat="43.54712" lon="2.35961">
        <ele>349</ele>
        <time>2016-10-20T14:38:58Z</time>
      </trkpt>
      <trkpt lat="43.5471" lon="2.35959">
        <ele>349</ele>
        <time>2016-10-20T14:39:01Z</time>
      </trkpt>
      <trkpt lat="43.54709" lon="2.35957">
        <ele>349</ele>
        <time>2016-10-20T14:39:03Z</time>
      </trkpt>
      <trkpt lat="43.54707" lon="2.35954">
        <ele>349</ele>
        <time>2016-10-20T14:39:05Z</time>
      </trkpt>
      <trkpt lat="43.54706" lon="2.35952">
        <ele>349</ele>
        <time>2016-10-20T14:39:07Z</time>
      </trkpt>
      <trkpt lat="43.54704" lon="2.3595">
        <ele>348</ele>
        <time>2016-10-20T14:39:10Z</time>
      </trkpt>
      <trkpt lat="43.54701" lon="2.35947">
        <ele>348</ele>
        <time>2016-10-20T14:39:12Z</time>
      </trkpt>
      <trkpt lat="43.547" lon="2.35945">
        <ele>348</ele>
        <time>2016-10-20T14:39:14Z</time>
      </trkpt>
      <trkpt lat="43.54698" lon="2.35943">
        <ele>348</ele>
        <time>2016-10-20T14:39:17Z</time>
      </trkpt>
      <trkpt lat="43.54696" lon="2.35941">
        <ele>348</ele>
        <time>2016-10-20T14:39:19Z</time>
      </trkpt>
      <trkpt lat="43.54693" lon="2.35938">
        <ele>348</ele>
        <time>2016-10-20T14:39:21Z</time>
      </trkpt>
      <trkpt lat="43.54692" lon="2.35936">
        <ele>348</ele>
        <time>2016-10-20T14:39:23Z</time>
      </trkpt>
      <trkpt lat="43.5469" lon="2.35934">
        <ele>348</ele>
        <time>2016-10-20T14:39:26Z</time>
      </trkpt>
      <trkpt lat="43.54687" lon="2.35931">
        <ele>347</ele>
        <time>2016-10-20T14:39:28Z</time>
      </trkpt>
      <trkpt lat="43.54685" lon="2.35929">
        <ele>347</ele>
        <time>2016-10-20T14:39:30Z</time>
      </trkpt>
      <trkpt lat="43.54684" lon="2.35927">
        <ele>347</ele>
        <time>2016-10-20T14:39:33Z</time>
      </trkpt>
      <trkpt lat="43.54682" lon="2.35926">
        <ele>347</ele>
        <time>2016-10-20T14:39:35Z</time>
      </trkpt>
      <trkpt lat="43.54679" lon="2.35923">
        <ele>347</ele>
        <time>2016-10-20T14:39:37Z</time>
      </trkpt>
      <trkpt lat="43.54677" lon="2.35921">
        <ele>347</ele>
        <time>2016-10-20T14:39:39Z</time>
      </trkpt>
      <trkpt lat="43.54675" lon="2.35919">
        <ele>347</ele>
        <time>2016-10-20T14:39:42Z</time>
      </trkpt>
      <trkpt lat="43.54673" lon="2.35916">
        <ele>347</ele>
        <time>2016-10-20T14:39:44Z</time>
      </trkpt>
      <trkpt lat="43.54671" lon="2.35914">
        <ele>347</ele>
        <time>2016-10-20T14:39:46Z</time>
      </trkpt>
      <trkpt lat="43.5467" lon="2.35913">
        <ele>347</ele>
        <time>2016-10-20T14:39:49Z</time>
      </trkpt>
      <trkpt lat="43.54667" lon="2.3591">
        <ele>346</ele>
        <time>2016-10-20T14:39:51Z</time>
      </trkpt>
      <trkpt lat="43.54666" lon="2.35908">
        <ele>346</ele>
        <time>2016-10-20T14:39:53Z</time>
      </trkpt>
      <trkpt lat="43.54664" lon="2.35906">
        <ele>346</ele>
        <time>2016-10-20T14:39:56Z</time>
      </trkpt>
      <trkpt lat="43.54662" lon="2.35904">
        <ele>346</ele>
        <time>2016-10-20T14:39:58Z</time>
      </trkpt>
      <trkpt lat="43.5466" lon="2.35901">
        <ele>346</ele>
        <time>2016-10-20T14:40:00Z</time>
      </trkpt>
      <trkpt lat="43.54658" lon="2.359">
        <ele>346</ele>
        <time>2016-10-20T14:40:02Z</time>
      </trkpt>
      <trkpt lat="43.54656" lon="2.35898">
        <ele>346</ele>
        <time>2016-10-20T14:40:05Z</time>
      </trkpt>
      <trkpt lat="43.54654" lon="2.35895">
        <ele>346</ele>
        <time>2016-10-20T14:40:07Z</time>
      </trkpt>
      <trkpt lat="43.54652" lon="2.35894">
        <ele>346</ele>
        <time>2016-10-20T14:40:09Z</time>
      </trkpt>
      <trkpt lat="43.5465" lon="2.35892">
        <ele>346</ele>
        <time>2016-10-20T14:40:12Z</time>
      </trkpt>
      <trkpt lat="43.54647" lon="2.35888">
        <ele>346</ele>
        <time>2016-10-20T14:40:14Z</time>
      </trkpt>
      <trkpt lat="43.54643" lon="2.35884">
        <ele>346</ele>
        <time>2016-10-20T14:40:19Z</time>
      </trkpt>
      <trkpt lat="43.54641" lon="2.35882">
        <ele>346</ele>
        <time>2016-10-20T14:40:21Z</time>
      </trkpt>
      <trkpt lat="43.54639" lon="2.35879">
        <ele>346</ele>
        <time>2016-10-20T14:40:23Z</time>
      </trkpt>
      <trkpt lat="43.54637" lon="2.35876">
        <ele>346</ele>
        <time>2016-10-20T14:40:25Z</time>
      </trkpt>
      <trkpt lat="43.54636" lon="2.35874">
        <ele>346</ele>
        <time>2016-10-20T14:40:28Z</time>
      </trkpt>
      <trkpt lat="43.54634" lon="2.35871">
        <ele>346</ele>
        <time>2016-10-20T14:40:30Z</time>
      </trkpt>
      <trkpt lat="43.54632" lon="2.35868">
        <ele>346</ele>
        <time>2016-10-20T14:40:32Z</time>
      </trkpt>
      <trkpt lat="43.5463" lon="2.35866">
        <ele>346</ele>
        <time>2016-10-20T14:40:35Z</time>
      </trkpt>
      <trkpt lat="43.54629" lon="2.35863">
        <ele>346</ele>
        <time>2016-10-20T14:40:37Z</time>
      </trkpt>
      <trkpt lat="43.54626" lon="2.35859">
        <ele>346</ele>
        <time>2016-10-20T14:40:39Z</time>
      </trkpt>
      <trkpt lat="43.54625" lon="2.35856">
        <ele>346</ele>
        <time>2016-10-20T14:40:41Z</time>
      </trkpt>
      <trkpt lat="43.54623" lon="2.35854">
        <ele>346</ele>
        <time>2016-10-20T14:40:44Z</time>
      </trkpt>
      <trkpt lat="43.54621" lon="2.3585">
        <ele>346</ele>
        <time>2016-10-20T14:40:46Z</time>
      </trkpt>
      <trkpt lat="43.54619" lon="2.35848">
        <ele>346</ele>
        <time>2016-10-20T14:40:48Z</time>
      </trkpt>
      <trkpt lat="43.54617" lon="2.35845">
        <ele>346</ele>
        <time>2016-10-20T14:40:51Z</time>
      </trkpt>
      <trkpt lat="43.54616" lon="2.35843">
        <ele>346</ele>
        <time>2016-10-20T14:40:53Z</time>
      </trkpt>
      <trkpt lat="43.54613" lon="2.35839">
        <ele>346</ele>
        <time>2016-10-20T14:40:55Z</time>
      </trkpt>
      <trkpt lat="43.54612" lon="2.35837">
        <ele>346</ele>
        <time>2016-10-20T14:40:57Z</time>
      </trkpt>
      <trkpt lat="43.5461" lon="2.35835">
        <ele>346</ele>
        <time>2016-10-20T14:41:00Z</time>
      </trkpt>
      <trkpt lat="43.54608" lon="2.35832">
        <ele>346</ele>
        <time>2016-10-20T14:41:02Z</time>
      </trkpt>
      <trkpt lat="43.54606" lon="2.35829">
        <ele>346</ele>
        <time>2016-10-20T14:41:04Z</time>
      </trkpt>
      <trkpt lat="43.54605" lon="2.35827">
        <ele>346</ele>
        <time>2016-10-20T14:41:07Z</time>
      </trkpt>
      <trkpt lat="43.54604" lon="2.35824">
        <ele>346</ele>
        <time>2016-10-20T14:41:09Z</time>
      </trkpt>
      <trkpt lat="43.54603" lon="2.35824">
        <ele>346</ele>
        <time>2016-10-20T14:41:11Z</time>
      </trkpt>
      <trkpt lat="43.54603" lon="2.35824">
        <ele>346</ele>
        <time>2016-10-20T14:41:13Z</time>
      </trkpt>
      <trkpt lat="43.54601" lon="2.35825">
        <ele>346</ele>
        <time>2016-10-20T14:41:16Z</time>
      </trkpt>
      <trkpt lat="43.54598" lon="2.35826">
        <ele>346</ele>
        <time>2016-10-20T14:41:18Z</time>
      </trkpt>
      <trkpt lat="43.54596" lon="2.35828">
        <ele>347</ele>
        <time>2016-10-20T14:41:20Z</time>
      </trkpt>
      <trkpt lat="43.54595" lon="2.3583">
        <ele>347</ele>
        <time>2016-10-20T14:41:23Z</time>
      </trkpt>
      <trkpt lat="43.54594" lon="2.35832">
        <ele>347</ele>
        <time>2016-10-20T14:41:25Z</time>
      </trkpt>
      <trkpt lat="43.54592" lon="2.35835">
        <ele>347</ele>
        <time>2016-10-20T14:41:27Z</time>
      </trkpt>
      <trkpt lat="43.5459" lon="2.35838">
        <ele>347</ele>
        <time>2016-10-20T14:41:29Z</time>
      </trkpt>
      <trkpt lat="43.54589" lon="2.3584">
        <ele>347</ele>
        <time>2016-10-20T14:41:32Z</time>
      </trkpt>
      <trkpt lat="43.54587" lon="2.35843">
        <ele>347</ele>
        <time>2016-10-20T14:41:34Z</time>
      </trkpt>
      <trkpt lat="43.54586" lon="2.35846">
        <ele>347</ele>
        <time>2016-10-20T14:41:36Z</time>
      </trkpt>
      <trkpt lat="43.54583" lon="2.35851">
        <ele>347</ele>
        <time>2016-10-20T14:41:41Z</time>
      </trkpt>
      <trkpt lat="43.54581" lon="2.35854">
        <ele>348</ele>
        <time>2016-10-20T14:41:43Z</time>
      </trkpt>
      <trkpt lat="43.54579" lon="2.35856">
        <ele>348</ele>
        <time>2016-10-20T14:41:45Z</time>
      </trkpt>
      <trkpt lat="43.54577" lon="2.35858">
        <ele>348</ele>
        <time>2016-10-20T14:41:48Z</time>
      </trkpt>
      <trkpt lat="43.54574" lon="2.35861">
        <ele>348</ele>
        <time>2016-10-20T14:41:50Z</time>
      </trkpt>
      <trkpt lat="43.54572" lon="2.35863">
        <ele>348</ele>
        <time>2016-10-20T14:41:52Z</time>
      </trkpt>
      <trkpt lat="43.5457" lon="2.35865">
        <ele>348</ele>
        <time>2016-10-20T14:41:55Z</time>
      </trkpt>
      <trkpt lat="43.54568" lon="2.35867">
        <ele>348</ele>
        <time>2016-10-20T14:41:57Z</time>
      </trkpt>
      <trkpt lat="43.54565" lon="2.35869">
        <ele>348</ele>
        <time>2016-10-20T14:41:59Z</time>
      </trkpt>
      <trkpt lat="43.54563" lon="2.35871">
        <ele>348</ele>
        <time>2016-10-20T14:42:01Z</time>
      </trkpt>
      <trkpt lat="43.54561" lon="2.35873">
        <ele>348</ele>
        <time>2016-10-20T14:42:04Z</time>
      </trkpt>
      <trkpt lat="43.54558" lon="2.35875">
        <ele>348</ele>
        <time>2016-10-20T14:42:06Z</time>
      </trkpt>
      <trkpt lat="43.54556" lon="2.35877">
        <ele>348</ele>
        <time>2016-10-20T14:42:08Z</time>
      </trkpt>
      <trkpt lat="43.54553" lon="2.35878">
        <ele>348</ele>
        <time>2016-10-20T14:42:11Z</time>
      </trkpt>
      <trkpt lat="43.54551" lon="2.3588">
        <ele>348</ele>
        <time>2016-10-20T14:42:13Z</time>
      </trkpt>
      <trkpt lat="43.54548" lon="2.35882">
        <ele>348</ele>
        <time>2016-10-20T14:42:15Z</time>
      </trkpt>
      <trkpt lat="43.54546" lon="2.35884">
        <ele>348</ele>
        <time>2016-10-20T14:42:17Z</time>
      </trkpt>
      <trkpt lat="43.54544" lon="2.35885">
        <ele>348</ele>
        <time>2016-10-20T14:42:20Z</time>
      </trkpt>
      <trkpt lat="43.54541" lon="2.35888">
        <ele>348</ele>
        <time>2016-10-20T14:42:22Z</time>
      </trkpt>
      <trkpt lat="43.54539" lon="2.35889">
        <ele>348</ele>
        <time>2016-10-20T14:42:24Z</time>
      </trkpt>
      <trkpt lat="43.54536" lon="2.35891">
        <ele>347</ele>
        <time>2016-10-20T14:42:27Z</time>
      </trkpt>
      <trkpt lat="43.54534" lon="2.35893">
        <ele>347</ele>
        <time>2016-10-20T14:42:29Z</time>
      </trkpt>
      <trkpt lat="43.5453" lon="2.35895">
        <ele>347</ele>
        <time>2016-10-20T14:42:31Z</time>
      </trkpt>
      <trkpt lat="43.54528" lon="2.35896">
        <ele>347</ele>
        <time>2016-10-20T14:42:33Z</time>
      </trkpt>
      <trkpt lat="43.54525" lon="2.35897">
        <ele>347</ele>
        <time>2016-10-20T14:42:36Z</time>
      </trkpt>
      <trkpt lat="43.54522" lon="2.35899">
        <ele>347</ele>
        <time>2016-10-20T14:42:38Z</time>
      </trkpt>
      <trkpt lat="43.5452" lon="2.359">
        <ele>347</ele>
        <time>2016-10-20T14:42:40Z</time>
      </trkpt>
      <trkpt lat="43.54517" lon="2.35902">
        <ele>347</ele>
        <time>2016-10-20T14:42:43Z</time>
      </trkpt>
      <trkpt lat="43.54515" lon="2.35903">
        <ele>347</ele>
        <time>2016-10-20T14:42:45Z</time>
      </trkpt>
      <trkpt lat="43.54512" lon="2.35905">
        <ele>347</ele>
        <time>2016-10-20T14:42:47Z</time>
      </trkpt>
      <trkpt lat="43.5451" lon="2.35906">
        <ele>347</ele>
        <time>2016-10-20T14:42:49Z</time>
      </trkpt>
      <trkpt lat="43.54507" lon="2.35906">
        <ele>347</ele>
        <time>2016-10-20T14:42:52Z</time>
      </trkpt>
      <trkpt lat="43.54504" lon="2.35907">
        <ele>347</ele>
        <time>2016-10-20T14:42:54Z</time>
      </trkpt>
      <trkpt lat="43.54502" lon="2.35908">
        <ele>347</ele>
        <time>2016-10-20T14:42:56Z</time>
      </trkpt>
      <trkpt lat="43.545" lon="2.35909">
        <ele>347</ele>
        <time>2016-10-20T14:42:59Z</time>
      </trkpt>
      <trkpt lat="43.54494" lon="2.35909">
        <ele>347</ele>
        <time>2016-10-20T14:43:03Z</time>
      </trkpt>
      <trkpt lat="43.54492" lon="2.3591">
        <ele>347</ele>
        <time>2016-10-20T14:43:05Z</time>
      </trkpt>
      <trkpt lat="43.54489" lon="2.35911">
        <ele>347</ele>
        <time>2016-10-20T14:43:08Z</time>
      </trkpt>
      <trkpt lat="43.54486" lon="2.35911">
        <ele>347</ele>
        <time>2016-10-20T14:43:10Z</time>
      </trkpt>
      <trkpt lat="43.54483" lon="2.35911">
        <ele>348</ele>
        <time>2016-10-20T14:43:12Z</time>
      </trkpt>
      <trkpt lat="43.54481" lon="2.35912">
        <ele>348</ele>
        <time>2016-10-20T14:43:15Z</time>
      </trkpt>
      <trkpt lat="43.54479" lon="2.35912">
        <ele>348</ele>
        <time>2016-10-20T14:43:17Z</time>
      </trkpt>
      <trkpt lat="43.54476" lon="2.35913">
        <ele>348</ele>
        <time>2016-10-20T14:43:19Z</time>
      </trkpt>
      <trkpt lat="43.54474" lon="2.35913">
        <ele>348</ele>
        <time>2016-10-20T14:43:21Z</time>
      </trkpt>
      <trkpt lat="43.54471" lon="2.35914">
        <ele>348</ele>
        <time>2016-10-20T14:43:24Z</time>
      </trkpt>
      <trkpt lat="43.54468" lon="2.35915">
        <ele>348</ele>
        <time>2016-10-20T14:43:26Z</time>
      </trkpt>
      <trkpt lat="43.54466" lon="2.35915">
        <ele>348</ele>
        <time>2016-10-20T14:43:28Z</time>
      </trkpt>
      <trkpt lat="43.54463" lon="2.35915">
        <ele>349</ele>
        <time>2016-10-20T14:43:31Z</time>
      </trkpt>
      <trkpt lat="43.54461" lon="2.35916">
        <ele>349</ele>
        <time>2016-10-20T14:43:33Z</time>
      </trkpt>
      <trkpt lat="43.54457" lon="2.35916">
        <ele>349</ele>
        <time>2016-10-20T14:43:35Z</time>
      </trkpt>
      <trkpt lat="43.54455" lon="2.35916">
        <ele>349</ele>
        <time>2016-10-20T14:43:37Z</time>
      </trkpt>
      <trkpt lat="43.54452" lon="2.35917">
        <ele>349</ele>
        <time>2016-10-20T14:43:40Z</time>
      </trkpt>
      <trkpt lat="43.54449" lon="2.35917">
        <ele>350</ele>
        <time>2016-10-20T14:43:42Z</time>
      </trkpt>
      <trkpt lat="43.54446" lon="2.35917">
        <ele>350</ele>
        <time>2016-10-20T14:43:44Z</time>
      </trkpt>
      <trkpt lat="43.54444" lon="2.35917">
        <ele>350</ele>
        <time>2016-10-20T14:43:47Z</time>
      </trkpt>
      <trkpt lat="43.54441" lon="2.35917">
        <ele>350</ele>
        <time>2016-10-20T14:43:49Z</time>
      </trkpt>
      <trkpt lat="43.54438" lon="2.35917">
        <ele>350</ele>
        <time>2016-10-20T14:43:51Z</time>
      </trkpt>
      <trkpt lat="43.54436" lon="2.35917">
        <ele>351</ele>
        <time>2016-10-20T14:43:53Z</time>
      </trkpt>
      <trkpt lat="43.54434" lon="2.35917">
        <ele>351</ele>
        <time>2016-10-20T14:43:56Z</time>
      </trkpt>
      <trkpt lat="43.54432" lon="2.35918">
        <ele>351</ele>
        <time>2016-10-20T14:43:58Z</time>
      </trkpt>
      <trkpt lat="43.54428" lon="2.35919">
        <ele>351</ele>
        <time>2016-10-20T14:44:00Z</time>
      </trkpt>
      <trkpt lat="43.54426" lon="2.3592">
        <ele>351</ele>
        <time>2016-10-20T14:44:02Z</time>
      </trkpt>
      <trkpt lat="43.54424" lon="2.35921">
        <ele>351</ele>
        <time>2016-10-20T14:44:05Z</time>
      </trkpt>
      <trkpt lat="43.54421" lon="2.35923">
        <ele>351</ele>
        <time>2016-10-20T14:44:07Z</time>
      </trkpt>
      <trkpt lat="43.54419" lon="2.35924">
        <ele>351</ele>
        <time>2016-10-20T14:44:09Z</time>
      </trkpt>
      <trkpt lat="43.54418" lon="2.35925">
        <ele>351</ele>
        <time>2016-10-20T14:44:12Z</time>
      </trkpt>
      <trkpt lat="43.54415" lon="2.35927">
        <ele>350</ele>
        <time>2016-10-20T14:44:14Z</time>
      </trkpt>
      <trkpt lat="43.54412" lon="2.35929">
        <ele>350</ele>
        <time>2016-10-20T14:44:16Z</time>
      </trkpt>
      <trkpt lat="43.5441" lon="2.3593">
        <ele>350</ele>
        <time>2016-10-20T14:44:18Z</time>
      </trkpt>
      <trkpt lat="43.54408" lon="2.35932">
        <ele>350</ele>
        <time>2016-10-20T14:44:21Z</time>
      </trkpt>
      <trkpt lat="43.54403" lon="2.35935">
        <ele>350</ele>
        <time>2016-10-20T14:44:25Z</time>
      </trkpt>
      <trkpt lat="43.54401" lon="2.35936">
        <ele>350</ele>
        <time>2016-10-20T14:44:28Z</time>
      </trkpt>
      <trkpt lat="43.54399" lon="2.35937">
        <ele>350</ele>
        <time>2016-10-20T14:44:30Z</time>
      </trkpt>
      <trkpt lat="43.54396" lon="2.35939">
        <ele>350</ele>
        <time>2016-10-20T14:44:32Z</time>
      </trkpt>
      <trkpt lat="43.54394" lon="2.35941">
        <ele>350</ele>
        <time>2016-10-20T14:44:34Z</time>
      </trkpt>
      <trkpt lat="43.54393" lon="2.35942">
        <ele>350</ele>
        <time>2016-10-20T14:44:37Z</time>
      </trkpt>
      <trkpt lat="43.5439" lon="2.35945">
        <ele>349</ele>
        <time>2016-10-20T14:44:39Z</time>
      </trkpt>
      <trkpt lat="43.54388" lon="2.35947">
        <ele>349</ele>
        <time>2016-10-20T14:44:41Z</time>
      </trkpt>
      <trkpt lat="43.54387" lon="2.35949">
        <ele>349</ele>
        <time>2016-10-20T14:44:44Z</time>
      </trkpt>
      <trkpt lat="43.54384" lon="2.35951">
        <ele>349</ele>
        <time>2016-10-20T14:44:46Z</time>
      </trkpt>
      <trkpt lat="43.54383" lon="2.35952">
        <ele>349</ele>
        <time>2016-10-20T14:44:48Z</time>
      </trkpt>
      <trkpt lat="43.54381" lon="2.35953">
        <ele>349</ele>
        <time>2016-10-20T14:44:51Z</time>
      </trkpt>
      <trkpt lat="43.54379" lon="2.35955">
        <ele>349</ele>
        <time>2016-10-20T14:44:53Z</time>
      </trkpt>
      <trkpt lat="43.54376" lon="2.35957">
        <ele>349</ele>
        <time>2016-10-20T14:44:55Z</time>
      </trkpt>
      <trkpt lat="43.54374" lon="2.35958">
        <ele>349</ele>
        <time>2016-10-20T14:44:57Z</time>
      </trkpt>
      <trkpt lat="43.54373" lon="2.35959">
        <ele>349</ele>
        <time>2016-10-20T14:45:00Z</time>
      </trkpt>
      <trkpt lat="43.54371" lon="2.3596">
        <ele>349</ele>
        <time>2016-10-20T14:45:02Z</time>
      </trkpt>
      <trkpt lat="43.5437" lon="2.35961">
        <ele>349</ele>
        <time>2016-10-20T14:45:04Z</time>
      </trkpt>
      <trkpt lat="43.54369" lon="2.35961">
        <ele>349</ele>
        <time>2016-10-20T14:45:07Z</time>
      </trkpt>
      <trkpt lat="43.54366" lon="2.35963">
        <ele>349</ele>
        <time>2016-10-20T14:45:09Z</time>
      </trkpt>
      <trkpt lat="43.54364" lon="2.35965">
        <ele>349</ele>
        <time>2016-10-20T14:45:11Z</time>
      </trkpt>
      <trkpt lat="43.54363" lon="2.35966">
        <ele>349</ele>
        <time>2016-10-20T14:45:14Z</time>
      </trkpt>
      <trkpt lat="43.54361" lon="2.35967">
        <ele>349</ele>
        <time>2016-10-20T14:45:16Z</time>
      </trkpt>
      <trkpt lat="43.54358" lon="2.35969">
        <ele>349</ele>
        <time>2016-10-20T14:45:18Z</time>
      </trkpt>
      <trkpt lat="43.54356" lon="2.3597">
        <ele>349</ele>
        <time>2016-10-20T14:45:20Z</time>
      </trkpt>
      <trkpt lat="43.54354" lon="2.35972">
        <ele>349</ele>
        <time>2016-10-20T14:45:23Z</time>
      </trkpt>
      <trkpt lat="43.54352" lon="2.35973">
        <ele>349</ele>
        <time>2016-10-20T14:45:25Z</time>
      </trkpt>
      <trkpt lat="43.5435" lon="2.35974">
        <ele>349</ele>
        <time>2016-10-20T14:45:27Z</time>
      </trkpt>
      <trkpt lat="43.54348" lon="2.35975">
        <ele>349</ele>
        <time>2016-10-20T14:45:30Z</time>
      </trkpt>
      <trkpt lat="43.54345" lon="2.35975">
        <ele>349</ele>
        <time>2016-10-20T14:45:32Z</time>
      </trkpt>
      <trkpt lat="43.54342" lon="2.35976">
        <ele>349</ele>
        <time>2016-10-20T14:45:34Z</time>
      </trkpt>
      <trkpt lat="43.5434" lon="2.35976">
        <ele>349</ele>
        <time>2016-10-20T14:45:37Z</time>
      </trkpt>
      <trkpt lat="43.54338" lon="2.35976">
        <ele>349</ele>
        <time>2016-10-20T14:45:39Z</time>
      </trkpt>
      <trkpt lat="43.54335" lon="2.35976">
        <ele>349</ele>
        <time>2016-10-20T14:45:41Z</time>
      </trkpt>
      <trkpt lat="43.54333" lon="2.35975">
        <ele>349</ele>
        <time>2016-10-20T14:45:43Z</time>
      </trkpt>
      <trkpt lat="43.54326" lon="2.35975">
        <ele>349</ele>
        <time>2016-10-20T14:45:48Z</time>
      </trkpt>
      <trkpt lat="43.54324" lon="2.35974">
        <ele>350</ele>
        <time>2016-10-20T14:45:50Z</time>
      </trkpt>
      <trkpt lat="43.54322" lon="2.35974">
        <ele>350</ele>
        <time>2016-10-20T14:45:53Z</time>
      </trkpt>
      <trkpt lat="43.54319" lon="2.35974">
        <ele>350</ele>
        <time>2016-10-20T14:45:55Z</time>
      </trkpt>
      <trkpt lat="43.54316" lon="2.35973">
        <ele>350</ele>
        <time>2016-10-20T14:45:57Z</time>
      </trkpt>
      <trkpt lat="43.54314" lon="2.35973">
        <ele>350</ele>
        <time>2016-10-20T14:45:59Z</time>
      </trkpt>
      <trkpt lat="43.54312" lon="2.35973">
        <ele>350</ele>
        <time>2016-10-20T14:46:02Z</time>
      </trkpt>
      <trkpt lat="43.54307" lon="2.35972">
        <ele>350</ele>
        <time>2016-10-20T14:46:04Z</time>
      </trkpt>
      <trkpt lat="43.54305" lon="2.35971">
        <ele>350</ele>
        <time>2016-10-20T14:46:06Z</time>
      </trkpt>
      <trkpt lat="43.54303" lon="2.3597">
        <ele>351</ele>
        <time>2016-10-20T14:46:09Z</time>
      </trkpt>
      <trkpt lat="43.543" lon="2.35969">
        <ele>351</ele>
        <time>2016-10-20T14:46:11Z</time>
      </trkpt>
      <trkpt lat="43.54298" lon="2.35968">
        <ele>351</ele>
        <time>2016-10-20T14:46:13Z</time>
      </trkpt>
      <trkpt lat="43.54295" lon="2.35967">
        <ele>351</ele>
        <time>2016-10-20T14:46:16Z</time>
      </trkpt>
      <trkpt lat="43.54293" lon="2.35967">
        <ele>351</ele>
        <time>2016-10-20T14:46:18Z</time>
      </trkpt>
      <trkpt lat="43.5429" lon="2.35967">
        <ele>351</ele>
        <time>2016-10-20T14:46:20Z</time>
      </trkpt>
      <trkpt lat="43.54289" lon="2.35967">
        <ele>351</ele>
        <time>2016-10-20T14:46:22Z</time>
      </trkpt>
      <trkpt lat="43.54287" lon="2.35967">
        <ele>351</ele>
        <time>2016-10-20T14:46:25Z</time>
      </trkpt>
      <trkpt lat="43.54284" lon="2.35966">
        <ele>350</ele>
        <time>2016-10-20T14:46:27Z</time>
      </trkpt>
      <trkpt lat="43.54282" lon="2.35967">
        <ele>350</ele>
        <time>2016-10-20T14:46:29Z</time>
      </trkpt>
      <trkpt lat="43.5428" lon="2.35967">
        <ele>350</ele>
        <time>2016-10-20T14:46:32Z</time>
      </trkpt>
      <trkpt lat="43.54278" lon="2.35967">
        <ele>350</ele>
        <time>2016-10-20T14:46:34Z</time>
      </trkpt>
      <trkpt lat="43.54275" lon="2.35967">
        <ele>350</ele>
        <time>2016-10-20T14:46:36Z</time>
      </trkpt>
      <trkpt lat="43.54274" lon="2.35967">
        <ele>350</ele>
        <time>2016-10-20T14:46:38Z</time>
      </trkpt>
      <trkpt lat="43.54272" lon="2.35968">
        <ele>350</ele>
        <time>2016-10-20T14:46:41Z</time>
      </trkpt>
      <trkpt lat="43.54269" lon="2.35968">
        <ele>350</ele>
        <time>2016-10-20T14:46:43Z</time>
      </trkpt>
      <trkpt lat="43.54267" lon="2.35968">
        <ele>350</ele>
        <time>2016-10-20T14:46:45Z</time>
      </trkpt>
      <trkpt lat="43.54265" lon="2.35968">
        <ele>350</ele>
        <time>2016-10-20T14:46:48Z</time>
      </trkpt>
      <trkpt lat="43.54263" lon="2.35968">
        <ele>349</ele>
        <time>2016-10-20T14:46:50Z</time>
      </trkpt>
      <trkpt lat="43.54261" lon="2.35968">
        <ele>349</ele>
        <time>2016-10-20T14:46:52Z</time>
      </trkpt>
      <trkpt lat="43.54259" lon="2.35968">
        <ele>349</ele>
        <time>2016-10-20T14:46:54Z</time>
      </trkpt>
      <trkpt lat="43.54256" lon="2.35967">
        <ele>349</ele>
        <time>2016-10-20T14:46:57Z</time>
      </trkpt>
      <trkpt lat="43.54252" lon="2.35966">
        <ele>349</ele>
        <time>2016-10-20T14:46:59Z</time>
      </trkpt>
      <trkpt lat="43.5425" lon="2.35966">
        <ele>349</ele>
        <time>2016-10-20T14:47:01Z</time>
      </trkpt>
      <trkpt lat="43.54248" lon="2.35966">
        <ele>349</ele>
        <time>2016-10-20T14:47:04Z</time>
      </trkpt>
      <trkpt lat="43.54246" lon="2.35966">
        <ele>349</ele>
        <time>2016-10-20T14:47:06Z</time>
      </trkpt>
      <trkpt lat="43.54241" lon="2.35966">
        <ele>348</ele>
        <time>2016-10-20T14:47:10Z</time>
      </trkpt>
      <trkpt lat="43.54238" lon="2.35966">
        <ele>348</ele>
        <time>2016-10-20T14:47:13Z</time>
      </trkpt>
      <trkpt lat="43.54236" lon="2.35966">
        <ele>348</ele>
        <time>2016-10-20T14:47:15Z</time>
      </trkpt>
      <trkpt lat="43.54233" lon="2.35966">
        <ele>348</ele>
        <time>2016-10-20T14:47:17Z</time>
      </trkpt>
      <trkpt lat="43.54231" lon="2.35967">
        <ele>348</ele>
        <time>2016-10-20T14:47:20Z</time>
      </trkpt>
      <trkpt lat="43.54228" lon="2.35967">
        <ele>348</ele>
        <time>2016-10-20T14:47:22Z</time>
      </trkpt>
      <trkpt lat="43.54227" lon="2.35968">
        <ele>348</ele>
        <time>2016-10-20T14:47:24Z</time>
      </trkpt>
      <trkpt lat="43.54225" lon="2.35968">
        <ele>348</ele>
        <time>2016-10-20T14:47:27Z</time>
      </trkpt>
      <trkpt lat="43.54223" lon="2.35969">
        <ele>347</ele>
        <time>2016-10-20T14:47:29Z</time>
      </trkpt>
      <trkpt lat="43.54221" lon="2.35969">
        <ele>347</ele>
        <time>2016-10-20T14:47:31Z</time>
      </trkpt>
      <trkpt lat="43.54219" lon="2.35969">
        <ele>347</ele>
        <time>2016-10-20T14:47:33Z</time>
      </trkpt>
      <trkpt lat="43.54218" lon="2.35969">
        <ele>347</ele>
        <time>2016-10-20T14:47:36Z</time>
      </trkpt>
      <trkpt lat="43.54214" lon="2.35968">
        <ele>346</ele>
        <time>2016-10-20T14:47:38Z</time>
      </trkpt>
      <trkpt lat="43.54212" lon="2.35968">
        <ele>346</ele>
        <time>2016-10-20T14:47:40Z</time>
      </trkpt>
      <trkpt lat="43.5421" lon="2.35968">
        <ele>346</ele>
        <time>2016-10-20T14:47:43Z</time>
      </trkpt>
      <trkpt lat="43.54208" lon="2.35968">
        <ele>346</ele>
        <time>2016-10-20T14:47:45Z</time>
      </trkpt>
      <trkpt lat="43.54204" lon="2.35968">
        <ele>345</ele>
        <time>2016-10-20T14:47:47Z</time>
      </trkpt>
      <trkpt lat="43.54202" lon="2.35968">
        <ele>345</ele>
        <time>2016-10-20T14:47:49Z</time>
      </trkpt>
      <trkpt lat="43.542" lon="2.35968">
        <ele>345</ele>
        <time>2016-10-20T14:47:52Z</time>
      </trkpt>
      <trkpt lat="43.54196" lon="2.35968">
        <ele>344</ele>
        <time>2016-10-20T14:47:54Z</time>
      </trkpt>
      <trkpt lat="43.54194" lon="2.35969">
        <ele>344</ele>
        <time>2016-10-20T14:47:56Z</time>
      </trkpt>
      <trkpt lat="43.54191" lon="2.3597">
        <ele>344</ele>
        <time>2016-10-20T14:47:59Z</time>
      </trkpt>
      <trkpt lat="43.54189" lon="2.3597">
        <ele>343</ele>
        <time>2016-10-20T14:48:01Z</time>
      </trkpt>
      <trkpt lat="43.54186" lon="2.35971">
        <ele>343</ele>
        <time>2016-10-20T14:48:03Z</time>
      </trkpt>
      <trkpt lat="43.54184" lon="2.35972">
        <ele>343</ele>
        <time>2016-10-20T14:48:05Z</time>
      </trkpt>
      <trkpt lat="43.54182" lon="2.35972">
        <ele>343</ele>
        <time>2016-10-20T14:48:08Z</time>
      </trkpt>
      <trkpt lat="43.54179" lon="2.35973">
        <ele>342</ele>
        <time>2016-10-20T14:48:10Z</time>
      </trkpt>
      <trkpt lat="43.54177" lon="2.35973">
        <ele>342</ele>
        <time>2016-10-20T14:48:12Z</time>
      </trkpt>
      <trkpt lat="43.54175" lon="2.35973">
        <ele>342</ele>
        <time>2016-10-20T14:48:15Z</time>
      </trkpt>
      <trkpt lat="43.54173" lon="2.35973">
        <ele>342</ele>
        <time>2016-10-20T14:48:17Z</time>
      </trkpt>
      <trkpt lat="43.54169" lon="2.35973">
        <ele>341</ele>
        <time>2016-10-20T14:48:19Z</time>
      </trkpt>
      <trkpt lat="43.54167" lon="2.35972">
        <ele>341</ele>
        <time>2016-10-20T14:48:21Z</time>
      </trkpt>
      <trkpt lat="43.54165" lon="2.3597">
        <ele>341</ele>
        <time>2016-10-20T14:48:24Z</time>
      </trkpt>
      <trkpt lat="43.54162" lon="2.35968">
        <ele>340</ele>
        <time>2016-10-20T14:48:26Z</time>
      </trkpt>
      <trkpt lat="43.5416" lon="2.35965">
        <ele>340</ele>
        <time>2016-10-20T14:48:28Z</time>
      </trkpt>
      <trkpt lat="43.54154" lon="2.35961">
        <ele>339</ele>
        <time>2016-10-20T14:48:33Z</time>
      </trkpt>
      <trkpt lat="43.54151" lon="2.35961">
        <ele>339</ele>
        <time>2016-10-20T14:48:35Z</time>
      </trkpt>
      <trkpt lat="43.54149" lon="2.3596">
        <ele>339</ele>
        <time>2016-10-20T14:48:38Z</time>
      </trkpt>
      <trkpt lat="43.54146" lon="2.3596">
        <ele>338</ele>
        <time>2016-10-20T14:48:40Z</time>
      </trkpt>
      <trkpt lat="43.54142" lon="2.35958">
        <ele>338</ele>
        <time>2016-10-20T14:48:42Z</time>
      </trkpt>
      <trkpt lat="43.5414" lon="2.35957">
        <ele>338</ele>
        <time>2016-10-20T14:48:44Z</time>
      </trkpt>
      <trkpt lat="43.54138" lon="2.35957">
        <ele>338</ele>
        <time>2016-10-20T14:48:47Z</time>
      </trkpt>
      <trkpt lat="43.54134" lon="2.35956">
        <ele>337</ele>
        <time>2016-10-20T14:48:49Z</time>
      </trkpt>
      <trkpt lat="43.54132" lon="2.35955">
        <ele>337</ele>
        <time>2016-10-20T14:48:51Z</time>
      </trkpt>
      <trkpt lat="43.54129" lon="2.35954">
        <ele>337</ele>
        <time>2016-10-20T14:48:54Z</time>
      </trkpt>
      <trkpt lat="43.54127" lon="2.35954">
        <ele>336</ele>
        <time>2016-10-20T14:48:56Z</time>
      </trkpt>
      <trkpt lat="43.54123" lon="2.35953">
        <ele>336</ele>
        <time>2016-10-20T14:48:58Z</time>
      </trkpt>
      <trkpt lat="43.54121" lon="2.35952">
        <ele>336</ele>
        <time>2016-10-20T14:49:00Z</time>
      </trkpt>
      <trkpt lat="43.54119" lon="2.35951">
        <ele>336</ele>
        <time>2016-10-20T14:49:03Z</time>
      </trkpt>
      <trkpt lat="43.54115" lon="2.3595">
        <ele>335</ele>
        <time>2016-10-20T14:49:05Z</time>
      </trkpt>
      <trkpt lat="43.54113" lon="2.3595">
        <ele>335</ele>
        <time>2016-10-20T14:49:07Z</time>
      </trkpt>
      <trkpt lat="43.54111" lon="2.35949">
        <ele>335</ele>
        <time>2016-10-20T14:49:10Z</time>
      </trkpt>
      <trkpt lat="43.54109" lon="2.35949">
        <ele>335</ele>
        <time>2016-10-20T14:49:12Z</time>
      </trkpt>
      <trkpt lat="43.54106" lon="2.35947">
        <ele>334</ele>
        <time>2016-10-20T14:49:14Z</time>
      </trkpt>
      <trkpt lat="43.54104" lon="2.35947">
        <ele>334</ele>
        <time>2016-10-20T14:49:17Z</time>
      </trkpt>
      <trkpt lat="43.54102" lon="2.35946">
        <ele>334</ele>
        <time>2016-10-20T14:49:19Z</time>
      </trkpt>
      <trkpt lat="43.54099" lon="2.35945">
        <ele>334</ele>
        <time>2016-10-20T14:49:21Z</time>
      </trkpt>
      <trkpt lat="43.54097" lon="2.35945">
        <ele>334</ele>
        <time>2016-10-20T14:49:23Z</time>
      </trkpt>
      <trkpt lat="43.54095" lon="2.35944">
        <ele>333</ele>
        <time>2016-10-20T14:49:26Z</time>
      </trkpt>
      <trkpt lat="43.54091" lon="2.35944">
        <ele>333</ele>
        <time>2016-10-20T14:49:28Z</time>
      </trkpt>
      <trkpt lat="43.54089" lon="2.35943">
        <ele>333</ele>
        <time>2016-10-20T14:49:30Z</time>
      </trkpt>
      <trkpt lat="43.54087" lon="2.35942">
        <ele>333</ele>
        <time>2016-10-20T14:49:33Z</time>
      </trkpt>
      <trkpt lat="43.54084" lon="2.35942">
        <ele>333</ele>
        <time>2016-10-20T14:49:35Z</time>
      </trkpt>
      <trkpt lat="43.54081" lon="2.35941">
        <ele>333</ele>
        <time>2016-10-20T14:49:37Z</time>
      </trkpt>
      <trkpt lat="43.54079" lon="2.3594">
        <ele>332</ele>
        <time>2016-10-20T14:49:39Z</time>
      </trkpt>
      <trkpt lat="43.54076" lon="2.3594">
        <ele>332</ele>
        <time>2016-10-20T14:49:42Z</time>
      </trkpt>
      <trkpt lat="43.54074" lon="2.35939">
        <ele>332</ele>
        <time>2016-10-20T14:49:44Z</time>
      </trkpt>
      <trkpt lat="43.54071" lon="2.35938">
        <ele>332</ele>
        <time>2016-10-20T14:49:46Z</time>
      </trkpt>
      <trkpt lat="43.54068" lon="2.35937">
        <ele>332</ele>
        <time>2016-10-20T14:49:48Z</time>
      </trkpt>
      <trkpt lat="43.54066" lon="2.35937">
        <ele>332</ele>
        <time>2016-10-20T14:49:51Z</time>
      </trkpt>
      <trkpt lat="43.5406" lon="2.35935">
        <ele>332</ele>
        <time>2016-10-20T14:49:55Z</time>
      </trkpt>
      <trkpt lat="43.54058" lon="2.35934">
        <ele>332</ele>
        <time>2016-10-20T14:49:58Z</time>
      </trkpt>
      <trkpt lat="43.54056" lon="2.35934">
        <ele>332</ele>
        <time>2016-10-20T14:50:00Z</time>
      </trkpt>
      <trkpt lat="43.54053" lon="2.35933">
        <ele>331</ele>
        <time>2016-10-20T14:50:02Z</time>
      </trkpt>
      <trkpt lat="43.54051" lon="2.35933">
        <ele>331</ele>
        <time>2016-10-20T14:50:04Z</time>
      </trkpt>
      <trkpt lat="43.54048" lon="2.35932">
        <ele>331</ele>
        <time>2016-10-20T14:50:07Z</time>
      </trkpt>
      <trkpt lat="43.54045" lon="2.35931">
        <ele>331</ele>
        <time>2016-10-20T14:50:09Z</time>
      </trkpt>
      <trkpt lat="43.54043" lon="2.3593">
        <ele>331</ele>
        <time>2016-10-20T14:50:11Z</time>
      </trkpt>
      <trkpt lat="43.54041" lon="2.35929">
        <ele>331</ele>
        <time>2016-10-20T14:50:14Z</time>
      </trkpt>
      <trkpt lat="43.54038" lon="2.35928">
        <ele>331</ele>
        <time>2016-10-20T14:50:16Z</time>
      </trkpt>
      <trkpt lat="43.54036" lon="2.35928">
        <ele>331</ele>
        <time>2016-10-20T14:50:18Z</time>
      </trkpt>
      <trkpt lat="43.54034" lon="2.35927">
        <ele>331</ele>
        <time>2016-10-20T14:50:21Z</time>
      </trkpt>
      <trkpt lat="43.54031" lon="2.35927">
        <ele>330</ele>
        <time>2016-10-20T14:50:23Z</time>
      </trkpt>
      <trkpt lat="43.54028" lon="2.35926">
        <ele>330</ele>
        <time>2016-10-20T14:50:25Z</time>
      </trkpt>
      <trkpt lat="43.54025" lon="2.35925">
        <ele>330</ele>
        <time>2016-10-20T14:50:27Z</time>
      </trkpt>
      <trkpt lat="43.54023" lon="2.35925">
        <ele>330</ele>
        <time>2016-10-20T14:50:30Z</time>
      </trkpt>
      <trkpt lat="43.5402" lon="2.35924">
        <ele>330</ele>
        <time>2016-10-20T14:50:32Z</time>
      </trkpt>
      <trkpt lat="43.54018" lon="2.35923">
        <ele>330</ele>
        <time>2016-10-20T14:50:34Z</time>
      </trkpt>
      <trkpt lat="43.54015" lon="2.35922">
        <ele>330</ele>
        <time>2016-10-20T14:50:37Z</time>
      </trkpt>
      <trkpt lat="43.54013" lon="2.35922">
        <ele>330</ele>
        <time>2016-10-20T14:50:39Z</time>
      </trkpt>
      <trkpt lat="43.5401" lon="2.35921">
        <ele>329</ele>
        <time>2016-10-20T14:50:41Z</time>
      </trkpt>
      <trkpt lat="43.54007" lon="2.35921">
        <ele>329</ele>
        <time>2016-10-20T14:50:43Z</time>
      </trkpt>
      <trkpt lat="43.54005" lon="2.3592">
        <ele>329</ele>
        <time>2016-10-20T14:50:46Z</time>
      </trkpt>
      <trkpt lat="43.54001" lon="2.35919">
        <ele>329</ele>
        <time>2016-10-20T14:50:48Z</time>
      </trkpt>
      <trkpt lat="43.53999" lon="2.35919">
        <ele>329</ele>
        <time>2016-10-20T14:50:50Z</time>
      </trkpt>
      <trkpt lat="43.53997" lon="2.35918">
        <ele>329</ele>
        <time>2016-10-20T14:50:53Z</time>
      </trkpt>
      <trkpt lat="43.53995" lon="2.35917">
        <ele>329</ele>
        <time>2016-10-20T14:50:55Z</time>
      </trkpt>
      <trkpt lat="43.53991" lon="2.35917">
        <ele>329</ele>
        <time>2016-10-20T14:50:57Z</time>
      </trkpt>
      <trkpt lat="43.5399" lon="2.35917">
        <ele>329</ele>
        <time>2016-10-20T14:50:59Z</time>
      </trkpt>
      <trkpt lat="43.53988" lon="2.35916">
        <ele>328</ele>
        <time>2016-10-20T14:51:02Z</time>
      </trkpt>
      <trkpt lat="43.53988" lon="2.35916">
        <ele>328</ele>
        <time>2016-10-20T14:51:04Z</time>
      </trkpt>
      <trkpt lat="43.53987" lon="2.35916">
        <ele>328</ele>
        <time>2016-10-20T14:51:06Z</time>
      </trkpt>
      <trkpt lat="43.53987" lon="2.35916">
        <ele>328</ele>
        <time>2016-10-20T14:51:09Z</time>
      </trkpt>
      <trkpt lat="43.53987" lon="2.35916">
        <ele>328</ele>
        <time>2016-10-20T14:51:11Z</time>
      </trkpt>
      <trkpt lat="43.53987" lon="2.35916">
        <ele>328</ele>
        <time>2016-10-20T14:51:13Z</time>
      </trkpt>
      <trkpt lat="43.53987" lon="2.35914">
        <ele>328</ele>
        <time>2016-10-20T14:51:18Z</time>
      </trkpt>
      <trkpt lat="43.53987" lon="2.35911">
        <ele>328</ele>
        <time>2016-10-20T14:51:20Z</time>
      </trkpt>
      <trkpt lat="43.53988" lon="2.3591">
        <ele>328</ele>
        <time>2016-10-20T14:51:22Z</time>
      </trkpt>
      <trkpt lat="43.53989" lon="2.35909">
        <ele>328</ele>
        <time>2016-10-20T14:51:25Z</time>
      </trkpt>
      <trkpt lat="43.5399" lon="2.35907">
        <ele>328</ele>
        <time>2016-10-20T14:51:27Z</time>
      </trkpt>
      <trkpt lat="43.53989" lon="2.35907">
        <ele>328</ele>
        <time>2016-10-20T14:51:29Z</time>
      </trkpt>
      <trkpt lat="43.53989" lon="2.35907">
        <ele>328</ele>
        <time>2016-10-20T14:51:31Z</time>
      </trkpt>
      <trkpt lat="43.53989" lon="2.35907">
        <ele>328</ele>
        <time>2016-10-20T14:51:34Z</time>
      </trkpt>
      <trkpt lat="43.53989" lon="2.35907">
        <ele>328</ele>
        <time>2016-10-20T14:51:36Z</time>
      </trkpt>
      <trkpt lat="43.5399" lon="2.35907">
        <ele>328</ele>
        <time>2016-10-20T14:51:38Z</time>
      </trkpt>
      <trkpt lat="43.5399" lon="2.35906">
        <ele>328</ele>
        <time>2016-10-20T14:51:41Z</time>
      </trkpt>
      <trkpt lat="43.5399" lon="2.35906">
        <ele>328</ele>
        <time>2016-10-20T14:51:43Z</time>
      </trkpt>
      <trkpt lat="43.5399" lon="2.35906">
        <ele>328</ele>
        <time>2016-10-20T14:51:45Z</time>
      </trkpt>
      <trkpt lat="43.53991" lon="2.35905">
        <ele>328</ele>
        <time>2016-10-20T14:51:48Z</time>
      </trkpt>
      <trkpt lat="43.53992" lon="2.35904">
        <ele>328</ele>
        <time>2016-10-20T14:51:50Z</time>
      </trkpt>
      <trkpt lat="43.53994" lon="2.35902">
        <ele>328</ele>
        <time>2016-10-20T14:51:52Z</time>
      </trkpt>
      <trkpt lat="43.53995" lon="2.359">
        <ele>328</ele>
        <time>2016-10-20T14:51:54Z</time>
      </trkpt>
      <trkpt lat="43.53995" lon="2.35898">
        <ele>329</ele>
        <time>2016-10-20T14:51:57Z</time>
      </trkpt>
      <trkpt lat="43.53997" lon="2.35895">
        <ele>329</ele>
        <time>2016-10-20T14:51:59Z</time>
      </trkpt>
      <trkpt lat="43.53999" lon="2.35893">
        <ele>329</ele>
        <time>2016-10-20T14:52:01Z</time>
      </trkpt>
      <trkpt lat="43.54" lon="2.35892">
        <ele>329</ele>
        <time>2016-10-20T14:52:04Z</time>
      </trkpt>
      <trkpt lat="43.54002" lon="2.3589">
        <ele>329</ele>
        <time>2016-10-20T14:52:06Z</time>
      </trkpt>
      <trkpt lat="43.54004" lon="2.35888">
        <ele>329</ele>
        <time>2016-10-20T14:52:08Z</time>
      </trkpt>
      <trkpt lat="43.54005" lon="2.35886">
        <ele>329</ele>
        <time>2016-10-20T14:52:11Z</time>
      </trkpt>
      <trkpt lat="43.54007" lon="2.35884">
        <ele>329</ele>
        <time>2016-10-20T14:52:13Z</time>
      </trkpt>
      <trkpt lat="43.5401" lon="2.35881">
        <ele>329</ele>
        <time>2016-10-20T14:52:15Z</time>
      </trkpt>
      <trkpt lat="43.54011" lon="2.3588">
        <ele>329</ele>
        <time>2016-10-20T14:52:17Z</time>
      </trkpt>
      <trkpt lat="43.54013" lon="2.35878">
        <ele>329</ele>
        <time>2016-10-20T14:52:20Z</time>
      </trkpt>
      <trkpt lat="43.54015" lon="2.35875">
        <ele>329</ele>
        <time>2016-10-20T14:52:22Z</time>
      </trkpt>
      <trkpt lat="43.54016" lon="2.35873">
        <ele>329</ele>
        <time>2016-10-20T14:52:24Z</time>
      </trkpt>
      <trkpt lat="43.54017" lon="2.35871">
        <ele>329</ele>
        <time>2016-10-20T14:52:27Z</time>
      </trkpt>
      <trkpt lat="43.5402" lon="2.35869">
        <ele>329</ele>
        <time>2016-10-20T14:52:29Z</time>
      </trkpt>
      <trkpt lat="43.54021" lon="2.35867">
        <ele>329</ele>
        <time>2016-10-20T14:52:31Z</time>
      </trkpt>
      <trkpt lat="43.54022" lon="2.35865">
        <ele>329</ele>
        <time>2016-10-20T14:52:34Z</time>
      </trkpt>
      <trkpt lat="43.54024" lon="2.35864">
        <ele>329</ele>
        <time>2016-10-20T14:52:36Z</time>
      </trkpt>
      <trkpt lat="43.54028" lon="2.3586">
        <ele>329</ele>
        <time>2016-10-20T14:52:40Z</time>
      </trkpt>
      <trkpt lat="43.54029" lon="2.35857">
        <ele>329</ele>
        <time>2016-10-20T14:52:43Z</time>
      </trkpt>
      <trkpt lat="43.54031" lon="2.35854">
        <ele>329</ele>
        <time>2016-10-20T14:52:45Z</time>
      </trkpt>
      <trkpt lat="43.54033" lon="2.35852">
        <ele>328</ele>
        <time>2016-10-20T14:52:47Z</time>
      </trkpt>
      <trkpt lat="43.54035" lon="2.3585">
        <ele>328</ele>
        <time>2016-10-20T14:52:50Z</time>
      </trkpt>
      <trkpt lat="43.54036" lon="2.35848">
        <ele>328</ele>
        <time>2016-10-20T14:52:52Z</time>
      </trkpt>
      <trkpt lat="43.54038" lon="2.35845">
        <ele>328</ele>
        <time>2016-10-20T14:52:54Z</time>
      </trkpt>
      <trkpt lat="43.5404" lon="2.35843">
        <ele>328</ele>
        <time>2016-10-20T14:52:57Z</time>
      </trkpt>
      <trkpt lat="43.54042" lon="2.35841">
        <ele>328</ele>
        <time>2016-10-20T14:52:59Z</time>
      </trkpt>
      <trkpt lat="43.54043" lon="2.35838">
        <ele>328</ele>
        <time>2016-10-20T14:53:01Z</time>
      </trkpt>
      <trkpt lat="43.54045" lon="2.35836">
        <ele>327</ele>
        <time>2016-10-20T14:53:04Z</time>
      </trkpt>
      <trkpt lat="43.54046" lon="2.35834">
        <ele>327</ele>
        <time>2016-10-20T14:53:06Z</time>
      </trkpt>
      <trkpt lat="43.54049" lon="2.35831">
        <ele>327</ele>
        <time>2016-10-20T14:53:08Z</time>
      </trkpt>
      <trkpt lat="43.5405" lon="2.35829">
        <ele>327</ele>
        <time>2016-10-20T14:53:10Z</time>
      </trkpt>
      <trkpt lat="43.54052" lon="2.35827">
        <ele>327</ele>
        <time>2016-10-20T14:53:13Z</time>
      </trkpt>
      <trkpt lat="43.54054" lon="2.35824">
        <ele>327</ele>
        <time>2016-10-20T14:53:15Z</time>
      </trkpt>
      <trkpt lat="43.54056" lon="2.35822">
        <ele>327</ele>
        <time>2016-10-20T14:53:17Z</time>
      </trkpt>
      <trkpt lat="43.54058" lon="2.3582">
        <ele>326</ele>
        <time>2016-10-20T14:53:20Z</time>
      </trkpt>
      <trkpt lat="43.54059" lon="2.35819">
        <ele>326</ele>
        <time>2016-10-20T14:53:22Z</time>
      </trkpt>
      <trkpt lat="43.54062" lon="2.35816">
        <ele>326</ele>
        <time>2016-10-20T14:53:24Z</time>
      </trkpt>
      <trkpt lat="43.54064" lon="2.35814">
        <ele>326</ele>
        <time>2016-10-20T14:53:26Z</time>
      </trkpt>
      <trkpt lat="43.54065" lon="2.35812">
        <ele>326</ele>
        <time>2016-10-20T14:53:29Z</time>
      </trkpt>
      <trkpt lat="43.54068" lon="2.35809">
        <ele>326</ele>
        <time>2016-10-20T14:53:31Z</time>
      </trkpt>
      <trkpt lat="43.5407" lon="2.35807">
        <ele>326</ele>
        <time>2016-10-20T14:53:33Z</time>
      </trkpt>
      <trkpt lat="43.54071" lon="2.35805">
        <ele>325</ele>
        <time>2016-10-20T14:53:36Z</time>
      </trkpt>
      <trkpt lat="43.54073" lon="2.35803">
        <ele>325</ele>
        <time>2016-10-20T14:53:38Z</time>
      </trkpt>
      <trkpt lat="43.54075" lon="2.358">
        <ele>325</ele>
        <time>2016-10-20T14:53:40Z</time>
      </trkpt>
      <trkpt lat="43.54077" lon="2.35799">
        <ele>325</ele>
        <time>2016-10-20T14:53:42Z</time>
      </trkpt>
      <trkpt lat="43.54079" lon="2.35797">
        <ele>325</ele>
        <time>2016-10-20T14:53:45Z</time>
      </trkpt>
      <trkpt lat="43.54082" lon="2.35794">
        <ele>325</ele>
        <time>2016-10-20T14:53:47Z</time>
      </trkpt>
      <trkpt lat="43.54083" lon="2.35792">
        <ele>325</ele>
        <time>2016-10-20T14:53:49Z</time>
      </trkpt>
      <trkpt lat="43.54085" lon="2.3579">
        <ele>325</ele>
        <time>2016-10-20T14:53:52Z</time>
      </trkpt>
      <trkpt lat="43.54086" lon="2.35789">
        <ele>325</ele>
        <time>2016-10-20T14:53:54Z</time>
      </trkpt>
      <trkpt lat="43.54089" lon="2.35786">
        <ele>324</ele>
        <time>2016-10-20T14:53:56Z</time>
      </trkpt>
      <trkpt lat="43.5409" lon="2.35785">
        <ele>324</ele>
        <time>2016-10-20T14:53:58Z</time>
      </trkpt>
      <trkpt lat="43.54092" lon="2.35783">
        <ele>324</ele>
        <time>2016-10-20T14:54:01Z</time>
      </trkpt>
      <trkpt lat="43.54096" lon="2.35779">
        <ele>324</ele>
        <time>2016-10-20T14:54:05Z</time>
      </trkpt>
      <trkpt lat="43.54098" lon="2.35777">
        <ele>324</ele>
        <time>2016-10-20T14:54:08Z</time>
      </trkpt>
      <trkpt lat="43.54099" lon="2.35776">
        <ele>324</ele>
        <time>2016-10-20T14:54:10Z</time>
      </trkpt>
      <trkpt lat="43.54101" lon="2.35774">
        <ele>324</ele>
        <time>2016-10-20T14:54:12Z</time>
      </trkpt>
      <trkpt lat="43.54103" lon="2.35772">
        <ele>324</ele>
        <time>2016-10-20T14:54:14Z</time>
      </trkpt>
      <trkpt lat="43.54105" lon="2.35771">
        <ele>324</ele>
        <time>2016-10-20T14:54:17Z</time>
      </trkpt>
      <trkpt lat="43.54107" lon="2.35769">
        <ele>324</ele>
        <time>2016-10-20T14:54:19Z</time>
      </trkpt>
      <trkpt lat="43.54108" lon="2.35767">
        <ele>324</ele>
        <time>2016-10-20T14:54:21Z</time>
      </trkpt>
      <trkpt lat="43.54109" lon="2.35766">
        <ele>324</ele>
        <time>2016-10-20T14:54:24Z</time>
      </trkpt>
      <trkpt lat="43.5411" lon="2.35765">
        <ele>324</ele>
        <time>2016-10-20T14:54:26Z</time>
      </trkpt>
      <trkpt lat="43.54113" lon="2.35762">
        <ele>324</ele>
        <time>2016-10-20T14:54:28Z</time>
      </trkpt>
      <trkpt lat="43.54114" lon="2.3576">
        <ele>324</ele>
        <time>2016-10-20T14:54:30Z</time>
      </trkpt>
      <trkpt lat="43.54116" lon="2.35758">
        <ele>324</ele>
        <time>2016-10-20T14:54:33Z</time>
      </trkpt>
      <trkpt lat="43.54118" lon="2.35756">
        <ele>324</ele>
        <time>2016-10-20T14:54:35Z</time>
      </trkpt>
      <trkpt lat="43.5412" lon="2.35755">
        <ele>325</ele>
        <time>2016-10-20T14:54:37Z</time>
      </trkpt>
      <trkpt lat="43.54121" lon="2.35753">
        <ele>325</ele>
        <time>2016-10-20T14:54:40Z</time>
      </trkpt>
      <trkpt lat="43.54123" lon="2.35751">
        <ele>325</ele>
        <time>2016-10-20T14:54:42Z</time>
      </trkpt>
      <trkpt lat="43.54125" lon="2.35748">
        <ele>325</ele>
        <time>2016-10-20T14:54:44Z</time>
      </trkpt>
      <trkpt lat="43.54126" lon="2.35747">
        <ele>325</ele>
        <time>2016-10-20T14:54:46Z</time>
      </trkpt>
      <trkpt lat="43.54129" lon="2.35745">
        <ele>325</ele>
        <time>2016-10-20T14:54:49Z</time>
      </trkpt>
      <trkpt lat="43.54131" lon="2.35743">
        <ele>325</ele>
        <time>2016-10-20T14:54:51Z</time>
      </trkpt>
      <trkpt lat="43.54132" lon="2.35742">
        <ele>325</ele>
        <time>2016-10-20T14:54:53Z</time>
      </trkpt>
      <trkpt lat="43.54134" lon="2.35741">
        <ele>325</ele>
        <time>2016-10-20T14:54:56Z</time>
      </trkpt>
      <trkpt lat="43.54135" lon="2.3574">
        <ele>325</ele>
        <time>2016-10-20T14:54:58Z</time>
      </trkpt>
      <trkpt lat="43.54137" lon="2.35739">
        <ele>325</ele>
        <time>2016-10-20T14:55:00Z</time>
      </trkpt>
      <trkpt lat="43.54139" lon="2.35738">
        <ele>325</ele>
        <time>2016-10-20T14:55:02Z</time>
      </trkpt>
      <trkpt lat="43.5414" lon="2.35737">
        <ele>325</ele>
        <time>2016-10-20T14:55:05Z</time>
      </trkpt>
      <trkpt lat="43.54142" lon="2.35736">
        <ele>325</ele>
        <time>2016-10-20T14:55:07Z</time>
      </trkpt>
      <trkpt lat="43.54143" lon="2.35735">
        <ele>325</ele>
        <time>2016-10-20T14:55:09Z</time>
      </trkpt>
      <trkpt lat="43.54145" lon="2.35733">
        <ele>325</ele>
        <time>2016-10-20T14:55:12Z</time>
      </trkpt>
      <trkpt lat="43.54146" lon="2.35733">
        <ele>325</ele>
        <time>2016-10-20T14:55:14Z</time>
      </trkpt>
      <trkpt lat="43.54148" lon="2.3573">
        <ele>325</ele>
        <time>2016-10-20T14:55:16Z</time>
      </trkpt>
      <trkpt lat="43.5415" lon="2.35729">
        <ele>326</ele>
        <time>2016-10-20T14:55:18Z</time>
      </trkpt>
      <trkpt lat="43.54152" lon="2.35727">
        <ele>326</ele>
        <time>2016-10-20T14:55:21Z</time>
      </trkpt>
      <trkpt lat="43.54153" lon="2.35723">
        <ele>326</ele>
        <time>2016-10-20T14:55:23Z</time>
      </trkpt>
      <trkpt lat="43.54156" lon="2.35718">
        <ele>326</ele>
        <time>2016-10-20T14:55:28Z</time>
      </trkpt>
      <trkpt lat="43.54157" lon="2.35716">
        <ele>326</ele>
        <time>2016-10-20T14:55:30Z</time>
      </trkpt>
      <trkpt lat="43.54158" lon="2.35711">
        <ele>326</ele>
        <time>2016-10-20T14:55:32Z</time>
      </trkpt>
      <trkpt lat="43.54159" lon="2.35709">
        <ele>326</ele>
        <time>2016-10-20T14:55:34Z</time>
      </trkpt>
      <trkpt lat="43.5416" lon="2.35706">
        <ele>326</ele>
        <time>2016-10-20T14:55:37Z</time>
      </trkpt>
      <trkpt lat="43.54161" lon="2.35703">
        <ele>327</ele>
        <time>2016-10-20T14:55:39Z</time>
      </trkpt>
      <trkpt lat="43.54162" lon="2.357">
        <ele>327</ele>
        <time>2016-10-20T14:55:41Z</time>
      </trkpt>
      <trkpt lat="43.54162" lon="2.35697">
        <ele>327</ele>
        <time>2016-10-20T14:55:44Z</time>
      </trkpt>
      <trkpt lat="43.54163" lon="2.35694">
        <ele>327</ele>
        <time>2016-10-20T14:55:46Z</time>
      </trkpt>
      <trkpt lat="43.54164" lon="2.3569">
        <ele>327</ele>
        <time>2016-10-20T14:55:48Z</time>
      </trkpt>
      <trkpt lat="43.54165" lon="2.35687">
        <ele>327</ele>
        <time>2016-10-20T14:55:50Z</time>
      </trkpt>
      <trkpt lat="43.54166" lon="2.35685">
        <ele>327</ele>
        <time>2016-10-20T14:55:53Z</time>
      </trkpt>
      <trkpt lat="43.54167" lon="2.35682">
        <ele>327</ele>
        <time>2016-10-20T14:55:55Z</time>
      </trkpt>
      <trkpt lat="43.54167" lon="2.3568">
        <ele>327</ele>
        <time>2016-10-20T14:55:57Z</time>
      </trkpt>
      <trkpt lat="43.54167" lon="2.35677">
        <ele>327</ele>
        <time>2016-10-20T14:56:00Z</time>
      </trkpt>
      <trkpt lat="43.54169" lon="2.35676">
        <ele>328</ele>
        <time>2016-10-20T14:56:02Z</time>
      </trkpt>
      <trkpt lat="43.5417" lon="2.35672">
        <ele>328</ele>
        <time>2016-10-20T14:56:04Z</time>
      </trkpt>
      <trkpt lat="43.54171" lon="2.3567">
        <ele>328</ele>
        <time>2016-10-20T14:56:06Z</time>
      </trkpt>
      <trkpt lat="43.54171" lon="2.35668">
        <ele>328</ele>
        <time>2016-10-20T14:56:09Z</time>
      </trkpt>
      <trkpt lat="43.54172" lon="2.35665">
        <ele>328</ele>
        <time>2016-10-20T14:56:11Z</time>
      </trkpt>
      <trkpt lat="43.54171" lon="2.35663">
        <ele>328</ele>
        <time>2016-10-20T14:56:13Z</time>
      </trkpt>
      <trkpt lat="43.54172" lon="2.35661">
        <ele>328</ele>
        <time>2016-10-20T14:56:16Z</time>
      </trkpt>
      <trkpt lat="43.54172" lon="2.35659">
        <ele>328</ele>
        <time>2016-10-20T14:56:18Z</time>
      </trkpt>
      <trkpt lat="43.54172" lon="2.35656">
        <ele>328</ele>
        <time>2016-10-20T14:56:20Z</time>
      </trkpt>
      <trkpt lat="43.54174" lon="2.35655">
        <ele>328</ele>
        <time>2016-10-20T14:56:22Z</time>
      </trkpt>
      <trkpt lat="43.54174" lon="2.35652">
        <ele>328</ele>
        <time>2016-10-20T14:56:25Z</time>
      </trkpt>
      <trkpt lat="43.54176" lon="2.35649">
        <ele>328</ele>
        <time>2016-10-20T14:56:27Z</time>
      </trkpt>
      <trkpt lat="43.54177" lon="2.35647">
        <ele>328</ele>
        <time>2016-10-20T14:56:29Z</time>
      </trkpt>
      <trkpt lat="43.54178" lon="2.35644">
        <ele>328</ele>
        <time>2016-10-20T14:56:32Z</time>
      </trkpt>
      <trkpt lat="43.54179" lon="2.35642">
        <ele>328</ele>
        <time>2016-10-20T14:56:34Z</time>
      </trkpt>
      <trkpt lat="43.5418" lon="2.35638">
        <ele>328</ele>
        <time>2016-10-20T14:56:36Z</time>
      </trkpt>
      <trkpt lat="43.54182" lon="2.35636">
        <ele>328</ele>
        <time>2016-10-20T14:56:38Z</time>
      </trkpt>
      <trkpt lat="43.54183" lon="2.35635">
        <ele>328</ele>
        <time>2016-10-20T14:56:41Z</time>
      </trkpt>
      <trkpt lat="43.54185" lon="2.35631">
        <ele>329</ele>
        <time>2016-10-20T14:56:43Z</time>
      </trkpt>
      <trkpt lat="43.54187" lon="2.3563">
        <ele>329</ele>
        <time>2016-10-20T14:56:45Z</time>
      </trkpt>
      <trkpt lat="43.5419" lon="2.35626">
        <ele>329</ele>
        <time>2016-10-20T14:56:50Z</time>
      </trkpt>
      <trkpt lat="43.54191" lon="2.35624">
        <ele>329</ele>
        <time>2016-10-20T14:56:52Z</time>
      </trkpt>
      <trkpt lat="43.54192" lon="2.35622">
        <ele>329</ele>
        <time>2016-10-20T14:56:55Z</time>
      </trkpt>
      <trkpt lat="43.54194" lon="2.35621">
        <ele>329</ele>
        <time>2016-10-20T14:56:57Z</time>
      </trkpt>
      <trkpt lat="43.54196" lon="2.35618">
        <ele>329</ele>
        <time>2016-10-20T14:56:59Z</time>
      </trkpt>
      <trkpt lat="43.54197" lon="2.35616">
        <ele>329</ele>
        <time>2016-10-20T14:57:01Z</time>
      </trkpt>
      <trkpt lat="43.54198" lon="2.35614">
        <ele>329</ele>
        <time>2016-10-20T14:57:04Z</time>
      </trkpt>
      <trkpt lat="43.54201" lon="2.35611">
        <ele>329</ele>
        <time>2016-10-20T14:57:06Z</time>
      </trkpt>
      <trkpt lat="43.54202" lon="2.35609">
        <ele>329</ele>
        <time>2016-10-20T14:57:08Z</time>
      </trkpt>
      <trkpt lat="43.54204" lon="2.35607">
        <ele>330</ele>
        <time>2016-10-20T14:57:11Z</time>
      </trkpt>
      <trkpt lat="43.54206" lon="2.35605">
        <ele>330</ele>
        <time>2016-10-20T14:57:13Z</time>
      </trkpt>
      <trkpt lat="43.54208" lon="2.35602">
        <ele>330</ele>
        <time>2016-10-20T14:57:15Z</time>
      </trkpt>
      <trkpt lat="43.5421" lon="2.356">
        <ele>330</ele>
        <time>2016-10-20T14:57:17Z</time>
      </trkpt>
      <trkpt lat="43.54212" lon="2.35598">
        <ele>330</ele>
        <time>2016-10-20T14:57:20Z</time>
      </trkpt>
      <trkpt lat="43.54214" lon="2.35595">
        <ele>330</ele>
        <time>2016-10-20T14:57:22Z</time>
      </trkpt>
      <trkpt lat="43.54215" lon="2.35592">
        <ele>330</ele>
        <time>2016-10-20T14:57:24Z</time>
      </trkpt>
      <trkpt lat="43.54217" lon="2.3559">
        <ele>330</ele>
        <time>2016-10-20T14:57:27Z</time>
      </trkpt>
      <trkpt lat="43.54218" lon="2.35588">
        <ele>330</ele>
        <time>2016-10-20T14:57:29Z</time>
      </trkpt>
      <trkpt lat="43.54221" lon="2.35585">
        <ele>330</ele>
        <time>2016-10-20T14:57:31Z</time>
      </trkpt>
      <trkpt lat="43.54222" lon="2.35583">
        <ele>330</ele>
        <time>2016-10-20T14:57:33Z</time>
      </trkpt>
      <trkpt lat="43.54224" lon="2.35582">
        <ele>330</ele>
        <time>2016-10-20T14:57:36Z</time>
      </trkpt>
      <trkpt lat="43.54227" lon="2.3558">
        <ele>331</ele>
        <time>2016-10-20T14:57:38Z</time>
      </trkpt>
      <trkpt lat="43.54228" lon="2.35578">
        <ele>330</ele>
        <time>2016-10-20T14:57:40Z</time>
      </trkpt>
      <trkpt lat="43.54229" lon="2.35576">
        <ele>330</ele>
        <time>2016-10-20T14:57:43Z</time>
      </trkpt>
      <trkpt lat="43.5423" lon="2.35575">
        <ele>330</ele>
        <time>2016-10-20T14:57:45Z</time>
      </trkpt>
      <trkpt lat="43.54232" lon="2.35572">
        <ele>330</ele>
        <time>2016-10-20T14:57:47Z</time>
      </trkpt>
      <trkpt lat="43.54233" lon="2.3557">
        <ele>330</ele>
        <time>2016-10-20T14:57:49Z</time>
      </trkpt>
      <trkpt lat="43.54235" lon="2.35568">
        <ele>330</ele>
        <time>2016-10-20T14:57:52Z</time>
      </trkpt>
      <trkpt lat="43.54237" lon="2.35565">
        <ele>330</ele>
        <time>2016-10-20T14:57:54Z</time>
      </trkpt>
      <trkpt lat="43.54237" lon="2.35564">
        <ele>330</ele>
        <time>2016-10-20T14:57:56Z</time>
      </trkpt>
      <trkpt lat="43.54238" lon="2.35564">
        <ele>330</ele>
        <time>2016-10-20T14:57:59Z</time>
      </trkpt>
      <trkpt lat="43.54238" lon="2.35563">
        <ele>330</ele>
        <time>2016-10-20T14:58:01Z</time>
      </trkpt>
      <trkpt lat="43.54238" lon="2.35562">
        <ele>330</ele>
        <time>2016-10-20T14:58:03Z</time>
      </trkpt>
      <trkpt lat="43.54239" lon="2.35561">
        <ele>330</ele>
        <time>2016-10-20T14:58:05Z</time>
      </trkpt>
      <trkpt lat="43.5424" lon="2.3556">
        <ele>330</ele>
        <time>2016-10-20T14:58:08Z</time>
      </trkpt>
      <trkpt lat="43.54241" lon="2.35558">
        <ele>330</ele>
        <time>2016-10-20T14:58:12Z</time>
      </trkpt>
      <trkpt lat="43.54242" lon="2.35557">
        <ele>330</ele>
        <time>2016-10-20T14:58:15Z</time>
      </trkpt>
      <trkpt lat="43.54243" lon="2.35556">
        <ele>330</ele>
        <time>2016-10-20T14:58:17Z</time>
      </trkpt>
      <trkpt lat="43.54245" lon="2.35555">
        <ele>330</ele>
        <time>2016-10-20T14:58:19Z</time>
      </trkpt>
      <trkpt lat="43.54246" lon="2.35555">
        <ele>330</ele>
        <time>2016-10-20T14:58:21Z</time>
      </trkpt>
      <trkpt lat="43.54246" lon="2.35554">
        <ele>330</ele>
        <time>2016-10-20T14:58:24Z</time>
      </trkpt>
      <trkpt lat="43.54248" lon="2.35552">
        <ele>330</ele>
        <time>2016-10-20T14:58:26Z</time>
      </trkpt>
      <trkpt lat="43.5425" lon="2.3555">
        <ele>330</ele>
        <time>2016-10-20T14:58:28Z</time>
      </trkpt>
      <trkpt lat="43.54251" lon="2.35549">
        <ele>330</ele>
        <time>2016-10-20T14:58:31Z</time>
      </trkpt>
      <trkpt lat="43.54252" lon="2.35548">
        <ele>330</ele>
        <time>2016-10-20T14:58:33Z</time>
      </trkpt>
      <trkpt lat="43.54254" lon="2.35546">
        <ele>330</ele>
        <time>2016-10-20T14:58:35Z</time>
      </trkpt>
      <trkpt lat="43.54255" lon="2.35545">
        <ele>330</ele>
        <time>2016-10-20T14:58:37Z</time>
      </trkpt>
      <trkpt lat="43.54256" lon="2.35543">
        <ele>330</ele>
        <time>2016-10-20T14:58:40Z</time>
      </trkpt>
      <trkpt lat="43.54258" lon="2.35541">
        <ele>330</ele>
        <time>2016-10-20T14:58:42Z</time>
      </trkpt>
      <trkpt lat="43.5426" lon="2.3554">
        <ele>331</ele>
        <time>2016-10-20T14:58:44Z</time>
      </trkpt>
      <trkpt lat="43.54261" lon="2.3554">
        <ele>331</ele>
        <time>2016-10-20T14:58:47Z</time>
      </trkpt>
      <trkpt lat="43.54262" lon="2.35539">
        <ele>331</ele>
        <time>2016-10-20T14:58:49Z</time>
      </trkpt>
      <trkpt lat="43.54264" lon="2.35537">
        <ele>331</ele>
        <time>2016-10-20T14:58:51Z</time>
      </trkpt>
      <trkpt lat="43.54265" lon="2.35536">
        <ele>331</ele>
        <time>2016-10-20T14:58:53Z</time>
      </trkpt>
      <trkpt lat="43.54267" lon="2.35535">
        <ele>331</ele>
        <time>2016-10-20T14:58:56Z</time>
      </trkpt>
      <trkpt lat="43.54268" lon="2.35534">
        <ele>331</ele>
        <time>2016-10-20T14:58:58Z</time>
      </trkpt>
      <trkpt lat="43.54269" lon="2.35533">
        <ele>331</ele>
        <time>2016-10-20T14:59:00Z</time>
      </trkpt>
      <trkpt lat="43.5427" lon="2.35532">
        <ele>331</ele>
        <time>2016-10-20T14:59:03Z</time>
      </trkpt>
      <trkpt lat="43.5427" lon="2.35532">
        <ele>331</ele>
        <time>2016-10-20T14:59:05Z</time>
      </trkpt>
      <trkpt lat="43.54272" lon="2.3553">
        <ele>331</ele>
        <time>2016-10-20T14:59:07Z</time>
      </trkpt>
      <trkpt lat="43.54274" lon="2.35529">
        <ele>331</ele>
        <time>2016-10-20T14:59:09Z</time>
      </trkpt>
      <trkpt lat="43.54275" lon="2.35528">
        <ele>331</ele>
        <time>2016-10-20T14:59:12Z</time>
      </trkpt>
      <trkpt lat="43.54278" lon="2.35525">
        <ele>331</ele>
        <time>2016-10-20T14:59:14Z</time>
      </trkpt>
      <trkpt lat="43.54279" lon="2.35523">
        <ele>331</ele>
        <time>2016-10-20T14:59:16Z</time>
      </trkpt>
      <trkpt lat="43.5428" lon="2.35522">
        <ele>331</ele>
        <time>2016-10-20T14:59:19Z</time>
      </trkpt>
      <trkpt lat="43.54281" lon="2.3552">
        <ele>331</ele>
        <time>2016-10-20T14:59:21Z</time>
      </trkpt>
      <trkpt lat="43.54283" lon="2.35518">
        <ele>331</ele>
        <time>2016-10-20T14:59:23Z</time>
      </trkpt>
      <trkpt lat="43.54285" lon="2.35517">
        <ele>331</ele>
        <time>2016-10-20T14:59:25Z</time>
      </trkpt>
      <trkpt lat="43.54287" lon="2.35515">
        <ele>331</ele>
        <time>2016-10-20T14:59:28Z</time>
      </trkpt>
      <trkpt lat="43.54289" lon="2.35515">
        <ele>331</ele>
        <time>2016-10-20T14:59:30Z</time>
      </trkpt>
      <trkpt lat="43.54292" lon="2.35513">
        <ele>331</ele>
        <time>2016-10-20T14:59:34Z</time>
      </trkpt>
      <trkpt lat="43.54294" lon="2.35512">
        <ele>331</ele>
        <time>2016-10-20T14:59:37Z</time>
      </trkpt>
      <trkpt lat="43.54297" lon="2.35511">
        <ele>331</ele>
        <time>2016-10-20T14:59:39Z</time>
      </trkpt>
      <trkpt lat="43.54299" lon="2.3551">
        <ele>332</ele>
        <time>2016-10-20T14:59:41Z</time>
      </trkpt>
      <trkpt lat="43.543" lon="2.35509">
        <ele>332</ele>
        <time>2016-10-20T14:59:44Z</time>
      </trkpt>
      <trkpt lat="43.54301" lon="2.35508">
        <ele>332</ele>
        <time>2016-10-20T14:59:46Z</time>
      </trkpt>
      <trkpt lat="43.54303" lon="2.35507">
        <ele>332</ele>
        <time>2016-10-20T14:59:48Z</time>
      </trkpt>
      <trkpt lat="43.54305" lon="2.35505">
        <ele>332</ele>
        <time>2016-10-20T14:59:50Z</time>
      </trkpt>
      <trkpt lat="43.54306" lon="2.35504">
        <ele>332</ele>
        <time>2016-10-20T14:59:53Z</time>
      </trkpt>
      <trkpt lat="43.54309" lon="2.35503">
        <ele>332</ele>
        <time>2016-10-20T14:59:55Z</time>
      </trkpt>
      <trkpt lat="43.5431" lon="2.35502">
        <ele>332</ele>
        <time>2016-10-20T14:59:57Z</time>
      </trkpt>
      <trkpt lat="43.54311" lon="2.35501">
        <ele>332</ele>
        <time>2016-10-20T15:00:00Z</time>
      </trkpt>
      <trkpt lat="43.54313" lon="2.35501">
        <ele>332</ele>
        <time>2016-10-20T15:00:02Z</time>
      </trkpt>
      <trkpt lat="43.54314" lon="2.355">
        <ele>332</ele>
        <time>2016-10-20T15:00:04Z</time>
      </trkpt>
      <trkpt lat="43.54316" lon="2.35499">
        <ele>332</ele>
        <time>2016-10-20T15:00:06Z</time>
      </trkpt>
      <trkpt lat="43.54317" lon="2.35498">
        <ele>332</ele>
        <time>2016-10-20T15:00:09Z</time>
      </trkpt>
      <trkpt lat="43.54319" lon="2.35497">
        <ele>333</ele>
        <time>2016-10-20T15:00:11Z</time>
      </trkpt>
      <trkpt lat="43.5432" lon="2.35497">
        <ele>333</ele>
        <time>2016-10-20T15:00:13Z</time>
      </trkpt>
      <trkpt lat="43.54321" lon="2.35497">
        <ele>333</ele>
        <time>2016-10-20T15:00:16Z</time>
      </trkpt>
      <trkpt lat="43.54322" lon="2.35496">
        <ele>333</ele>
        <time>2016-10-20T15:00:18Z</time>
      </trkpt>
      <trkpt lat="43.54325" lon="2.35496">
        <ele>333</ele>
        <time>2016-10-20T15:00:20Z</time>
      </trkpt>
      <trkpt lat="43.54326" lon="2.35494">
        <ele>333</ele>
        <time>2016-10-20T15:00:22Z</time>
      </trkpt>
      <trkpt lat="43.54328" lon="2.35493">
        <ele>333</ele>
        <time>2016-10-20T15:00:25Z</time>
      </trkpt>
      <trkpt lat="43.5433" lon="2.35492">
        <ele>333</ele>
        <time>2016-10-20T15:00:27Z</time>
      </trkpt>
      <trkpt lat="43.54332" lon="2.3549">
        <ele>333</ele>
        <time>2016-10-20T15:00:29Z</time>
      </trkpt>
      <trkpt lat="43.54334" lon="2.35489">
        <ele>334</ele>
        <time>2016-10-20T15:00:31Z</time>
      </trkpt>
      <trkpt lat="43.54336" lon="2.35487">
        <ele>334</ele>
        <time>2016-10-20T15:00:34Z</time>
      </trkpt>
      <trkpt lat="43.54338" lon="2.35485">
        <ele>334</ele>
        <time>2016-10-20T15:00:36Z</time>
      </trkpt>
      <trkpt lat="43.5434" lon="2.35484">
        <ele>334</ele>
        <time>2016-10-20T15:00:38Z</time>
      </trkpt>
      <trkpt lat="43.54341" lon="2.35482">
        <ele>334</ele>
        <time>2016-10-20T15:00:41Z</time>
      </trkpt>
      <trkpt lat="43.54343" lon="2.35481">
        <ele>334</ele>
        <time>2016-10-20T15:00:43Z</time>
      </trkpt>
      <trkpt lat="43.54344" lon="2.35479">
        <ele>334</ele>
        <time>2016-10-20T15:00:45Z</time>
      </trkpt>
      <trkpt lat="43.54345" lon="2.35478">
        <ele>334</ele>
        <time>2016-10-20T15:00:48Z</time>
      </trkpt>
      <trkpt lat="43.54346" lon="2.35476">
        <ele>334</ele>
        <time>2016-10-20T15:00:50Z</time>
      </trkpt>
      <trkpt lat="43.54347" lon="2.35474">
        <ele>334</ele>
        <time>2016-10-20T15:00:52Z</time>
      </trkpt>
      <trkpt lat="43.54349" lon="2.35471">
        <ele>334</ele>
        <time>2016-10-20T15:00:57Z</time>
      </trkpt>
      <trkpt lat="43.5435" lon="2.35469">
        <ele>334</ele>
        <time>2016-10-20T15:00:59Z</time>
      </trkpt>
      <trkpt lat="43.54351" lon="2.35467">
        <ele>334</ele>
        <time>2016-10-20T15:01:01Z</time>
      </trkpt>
      <trkpt lat="43.54352" lon="2.35466">
        <ele>334</ele>
        <time>2016-10-20T15:01:04Z</time>
      </trkpt>
      <trkpt lat="43.54353" lon="2.35464">
        <ele>334</ele>
        <time>2016-10-20T15:01:06Z</time>
      </trkpt>
      <trkpt lat="43.54354" lon="2.35461">
        <ele>334</ele>
        <time>2016-10-20T15:01:08Z</time>
      </trkpt>
      <trkpt lat="43.54355" lon="2.35459">
        <ele>334</ele>
        <time>2016-10-20T15:01:10Z</time>
      </trkpt>
      <trkpt lat="43.54356" lon="2.35458">
        <ele>334</ele>
        <time>2016-10-20T15:01:13Z</time>
      </trkpt>
      <trkpt lat="43.54358" lon="2.35456">
        <ele>334</ele>
        <time>2016-10-20T15:01:15Z</time>
      </trkpt>
      <trkpt lat="43.54359" lon="2.35453">
        <ele>334</ele>
        <time>2016-10-20T15:01:17Z</time>
      </trkpt>
      <trkpt lat="43.5436" lon="2.35452">
        <ele>334</ele>
        <time>2016-10-20T15:01:20Z</time>
      </trkpt>
      <trkpt lat="43.54362" lon="2.3545">
        <ele>334</ele>
        <time>2016-10-20T15:01:22Z</time>
      </trkpt>
      <trkpt lat="43.54363" lon="2.35446">
        <ele>334</ele>
        <time>2016-10-20T15:01:24Z</time>
      </trkpt>
      <trkpt lat="43.54364" lon="2.35445">
        <ele>334</ele>
        <time>2016-10-20T15:01:26Z</time>
      </trkpt>
      <trkpt lat="43.54365" lon="2.35444">
        <ele>334</ele>
        <time>2016-10-20T15:01:29Z</time>
      </trkpt>
      <trkpt lat="43.54366" lon="2.3544">
        <ele>333</ele>
        <time>2016-10-20T15:01:31Z</time>
      </trkpt>
      <trkpt lat="43.54366" lon="2.35438">
        <ele>333</ele>
        <time>2016-10-20T15:01:33Z</time>
      </trkpt>
      <trkpt lat="43.54367" lon="2.35436">
        <ele>333</ele>
        <time>2016-10-20T15:01:36Z</time>
      </trkpt>
      <trkpt lat="43.54368" lon="2.35434">
        <ele>333</ele>
        <time>2016-10-20T15:01:38Z</time>
      </trkpt>
      <trkpt lat="43.54369" lon="2.35432">
        <ele>333</ele>
        <time>2016-10-20T15:01:40Z</time>
      </trkpt>
      <trkpt lat="43.5437" lon="2.3543">
        <ele>333</ele>
        <time>2016-10-20T15:01:42Z</time>
      </trkpt>
      <trkpt lat="43.54371" lon="2.35428">
        <ele>333</ele>
        <time>2016-10-20T15:01:45Z</time>
      </trkpt>
      <trkpt lat="43.54372" lon="2.35426">
        <ele>333</ele>
        <time>2016-10-20T15:01:47Z</time>
      </trkpt>
      <trkpt lat="43.54373" lon="2.35424">
        <ele>333</ele>
        <time>2016-10-20T15:01:49Z</time>
      </trkpt>
      <trkpt lat="43.54373" lon="2.35421">
        <ele>333</ele>
        <time>2016-10-20T15:01:52Z</time>
      </trkpt>
      <trkpt lat="43.54374" lon="2.35417">
        <ele>333</ele>
        <time>2016-10-20T15:01:54Z</time>
      </trkpt>
      <trkpt lat="43.54375" lon="2.35415">
        <ele>333</ele>
        <time>2016-10-20T15:01:56Z</time>
      </trkpt>
      <trkpt lat="43.54376" lon="2.35413">
        <ele>333</ele>
        <time>2016-10-20T15:01:59Z</time>
      </trkpt>
      <trkpt lat="43.54377" lon="2.3541">
        <ele>333</ele>
        <time>2016-10-20T15:02:01Z</time>
      </trkpt>
      <trkpt lat="43.54377" lon="2.35407">
        <ele>332</ele>
        <time>2016-10-20T15:02:03Z</time>
      </trkpt>
      <trkpt lat="43.54377" lon="2.35405">
        <ele>332</ele>
        <time>2016-10-20T15:02:05Z</time>
      </trkpt>
      <trkpt lat="43.54378" lon="2.35403">
        <ele>332</ele>
        <time>2016-10-20T15:02:08Z</time>
      </trkpt>
      <trkpt lat="43.54379" lon="2.354">
        <ele>332</ele>
        <time>2016-10-20T15:02:10Z</time>
      </trkpt>
      <trkpt lat="43.5438" lon="2.35398">
        <ele>332</ele>
        <time>2016-10-20T15:02:12Z</time>
      </trkpt>
      <trkpt lat="43.5438" lon="2.35396">
        <ele>332</ele>
        <time>2016-10-20T15:02:15Z</time>
      </trkpt>
      <trkpt lat="43.5438" lon="2.35389">
        <ele>331</ele>
        <time>2016-10-20T15:02:19Z</time>
      </trkpt>
      <trkpt lat="43.54381" lon="2.35386">
        <ele>331</ele>
        <time>2016-10-20T15:02:21Z</time>
      </trkpt>
      <trkpt lat="43.54382" lon="2.35384">
        <ele>331</ele>
        <time>2016-10-20T15:02:24Z</time>
      </trkpt>
      <trkpt lat="43.54382" lon="2.3538">
        <ele>331</ele>
        <time>2016-10-20T15:02:26Z</time>
      </trkpt>
      <trkpt lat="43.54383" lon="2.35378">
        <ele>331</ele>
        <time>2016-10-20T15:02:28Z</time>
      </trkpt>
      <trkpt lat="43.54384" lon="2.35375">
        <ele>331</ele>
        <time>2016-10-20T15:02:31Z</time>
      </trkpt>
      <trkpt lat="43.54384" lon="2.35372">
        <ele>331</ele>
        <time>2016-10-20T15:02:33Z</time>
      </trkpt>
      <trkpt lat="43.54384" lon="2.35369">
        <ele>331</ele>
        <time>2016-10-20T15:02:35Z</time>
      </trkpt>
      <trkpt lat="43.54385" lon="2.35366">
        <ele>331</ele>
        <time>2016-10-20T15:02:38Z</time>
      </trkpt>
      <trkpt lat="43.54386" lon="2.35363">
        <ele>331</ele>
        <time>2016-10-20T15:02:40Z</time>
      </trkpt>
      <trkpt lat="43.54387" lon="2.35359">
        <ele>331</ele>
        <time>2016-10-20T15:02:42Z</time>
      </trkpt>
      <trkpt lat="43.54388" lon="2.35357">
        <ele>331</ele>
        <time>2016-10-20T15:02:44Z</time>
      </trkpt>
      <trkpt lat="43.54389" lon="2.35354">
        <ele>331</ele>
        <time>2016-10-20T15:02:47Z</time>
      </trkpt>
      <trkpt lat="43.54391" lon="2.35351">
        <ele>331</ele>
        <time>2016-10-20T15:02:49Z</time>
      </trkpt>
      <trkpt lat="43.54392" lon="2.35349">
        <ele>331</ele>
        <time>2016-10-20T15:02:51Z</time>
      </trkpt>
      <trkpt lat="43.54393" lon="2.35346">
        <ele>331</ele>
        <time>2016-10-20T15:02:54Z</time>
      </trkpt>
      <trkpt lat="43.54393" lon="2.35344">
        <ele>331</ele>
        <time>2016-10-20T15:02:56Z</time>
      </trkpt>
      <trkpt lat="43.54394" lon="2.3534">
        <ele>331</ele>
        <time>2016-10-20T15:02:58Z</time>
      </trkpt>
      <trkpt lat="43.54395" lon="2.35338">
        <ele>331</ele>
        <time>2016-10-20T15:03:01Z</time>
      </trkpt>
      <trkpt lat="43.54396" lon="2.35336">
        <ele>331</ele>
        <time>2016-10-20T15:03:03Z</time>
      </trkpt>
      <trkpt lat="43.54397" lon="2.35332">
        <ele>331</ele>
        <time>2016-10-20T15:03:05Z</time>
      </trkpt>
      <trkpt lat="43.54398" lon="2.3533">
        <ele>331</ele>
        <time>2016-10-20T15:03:07Z</time>
      </trkpt>
      <trkpt lat="43.54398" lon="2.35327">
        <ele>331</ele>
        <time>2016-10-20T15:03:10Z</time>
      </trkpt>
      <trkpt lat="43.544" lon="2.35324">
        <ele>331</ele>
        <time>2016-10-20T15:03:12Z</time>
      </trkpt>
      <trkpt lat="43.544" lon="2.35322">
        <ele>331</ele>
        <time>2016-10-20T15:03:14Z</time>
      </trkpt>
      <trkpt lat="43.544" lon="2.35319">
        <ele>331</ele>
        <time>2016-10-20T15:03:17Z</time>
      </trkpt>
      <trkpt lat="43.54401" lon="2.35317">
        <ele>331</ele>
        <time>2016-10-20T15:03:19Z</time>
      </trkpt>
      <trkpt lat="43.54402" lon="2.35313">
        <ele>331</ele>
        <time>2016-10-20T15:03:21Z</time>
      </trkpt>
      <trkpt lat="43.54404" lon="2.35311">
        <ele>331</ele>
        <time>2016-10-20T15:03:23Z</time>
      </trkpt>
      <trkpt lat="43.54405" lon="2.35309">
        <ele>331</ele>
        <time>2016-10-20T15:03:26Z</time>
      </trkpt>
      <trkpt lat="43.54406" lon="2.35306">
        <ele>331</ele>
        <time>2016-10-20T15:03:28Z</time>
      </trkpt>
      <trkpt lat="43.54407" lon="2.35304">
        <ele>331</ele>
        <time>2016-10-20T15:03:30Z</time>
      </trkpt>
      <trkpt lat="43.54408" lon="2.35303">
        <ele>331</ele>
        <time>2016-10-20T15:03:33Z</time>
      </trkpt>
      <trkpt lat="43.5441" lon="2.353">
        <ele>332</ele>
        <time>2016-10-20T15:03:35Z</time>
      </trkpt>
      <trkpt lat="43.54411" lon="2.35298">
        <ele>332</ele>
        <time>2016-10-20T15:03:37Z</time>
      </trkpt>
      <trkpt lat="43.54414" lon="2.35292">
        <ele>332</ele>
        <time>2016-10-20T15:03:42Z</time>
      </trkpt>
      <trkpt lat="43.54415" lon="2.35289">
        <ele>332</ele>
        <time>2016-10-20T15:03:44Z</time>
      </trkpt>
      <trkpt lat="43.54416" lon="2.35286">
        <ele>332</ele>
        <time>2016-10-20T15:03:46Z</time>
      </trkpt>
      <trkpt lat="43.54417" lon="2.35284">
        <ele>332</ele>
        <time>2016-10-20T15:03:49Z</time>
      </trkpt>
      <trkpt lat="43.54418" lon="2.35281">
        <ele>332</ele>
        <time>2016-10-20T15:03:51Z</time>
      </trkpt>
      <trkpt lat="43.5442" lon="2.35278">
        <ele>332</ele>
        <time>2016-10-20T15:03:53Z</time>
      </trkpt>
      <trkpt lat="43.54421" lon="2.35276">
        <ele>332</ele>
        <time>2016-10-20T15:03:56Z</time>
      </trkpt>
      <trkpt lat="43.54422" lon="2.35274">
        <ele>332</ele>
        <time>2016-10-20T15:03:58Z</time>
      </trkpt>
      <trkpt lat="43.54424" lon="2.3527">
        <ele>332</ele>
        <time>2016-10-20T15:04:00Z</time>
      </trkpt>
      <trkpt lat="43.54425" lon="2.35268">
        <ele>332</ele>
        <time>2016-10-20T15:04:02Z</time>
      </trkpt>
      <trkpt lat="43.54426" lon="2.35266">
        <ele>332</ele>
        <time>2016-10-20T15:04:05Z</time>
      </trkpt>
      <trkpt lat="43.54428" lon="2.35263">
        <ele>333</ele>
        <time>2016-10-20T15:04:07Z</time>
      </trkpt>
      <trkpt lat="43.54429" lon="2.35262">
        <ele>333</ele>
        <time>2016-10-20T15:04:09Z</time>
      </trkpt>
      <trkpt lat="43.5443" lon="2.3526">
        <ele>333</ele>
        <time>2016-10-20T15:04:12Z</time>
      </trkpt>
      <trkpt lat="43.54432" lon="2.35257">
        <ele>333</ele>
        <time>2016-10-20T15:04:14Z</time>
      </trkpt>
      <trkpt lat="43.54433" lon="2.35255">
        <ele>333</ele>
        <time>2016-10-20T15:04:16Z</time>
      </trkpt>
      <trkpt lat="43.54434" lon="2.35252">
        <ele>333</ele>
        <time>2016-10-20T15:04:19Z</time>
      </trkpt>
      <trkpt lat="43.54436" lon="2.3525">
        <ele>333</ele>
        <time>2016-10-20T15:04:21Z</time>
      </trkpt>
      <trkpt lat="43.54438" lon="2.35248">
        <ele>333</ele>
        <time>2016-10-20T15:04:23Z</time>
      </trkpt>
      <trkpt lat="43.5444" lon="2.35246">
        <ele>333</ele>
        <time>2016-10-20T15:04:25Z</time>
      </trkpt>
      <trkpt lat="43.54441" lon="2.35244">
        <ele>333</ele>
        <time>2016-10-20T15:04:28Z</time>
      </trkpt>
      <trkpt lat="43.54442" lon="2.3524">
        <ele>333</ele>
        <time>2016-10-20T15:04:30Z</time>
      </trkpt>
      <trkpt lat="43.54444" lon="2.35238">
        <ele>333</ele>
        <time>2016-10-20T15:04:32Z</time>
      </trkpt>
      <trkpt lat="43.54445" lon="2.35236">
        <ele>333</ele>
        <time>2016-10-20T15:04:35Z</time>
      </trkpt>
      <trkpt lat="43.54446" lon="2.35235">
        <ele>333</ele>
        <time>2016-10-20T15:04:37Z</time>
      </trkpt>
      <trkpt lat="43.54449" lon="2.35231">
        <ele>333</ele>
        <time>2016-10-20T15:04:39Z</time>
      </trkpt>
      <trkpt lat="43.54449" lon="2.35229">
        <ele>333</ele>
        <time>2016-10-20T15:04:41Z</time>
      </trkpt>
      <trkpt lat="43.5445" lon="2.35226">
        <ele>333</ele>
        <time>2016-10-20T15:04:44Z</time>
      </trkpt>
      <trkpt lat="43.54451" lon="2.35223">
        <ele>333</ele>
        <time>2016-10-20T15:04:46Z</time>
      </trkpt>
      <trkpt lat="43.54451" lon="2.35221">
        <ele>333</ele>
        <time>2016-10-20T15:04:48Z</time>
      </trkpt>
      <trkpt lat="43.54451" lon="2.35219">
        <ele>333</ele>
        <time>2016-10-20T15:04:51Z</time>
      </trkpt>
      <trkpt lat="43.54452" lon="2.35217">
        <ele>333</ele>
        <time>2016-10-20T15:04:53Z</time>
      </trkpt>
      <trkpt lat="43.54454" lon="2.35214">
        <ele>333</ele>
        <time>2016-10-20T15:04:55Z</time>
      </trkpt>
      <trkpt lat="43.54455" lon="2.35212">
        <ele>333</ele>
        <time>2016-10-20T15:04:57Z</time>
      </trkpt>
      <trkpt lat="43.54456" lon="2.3521">
        <ele>333</ele>
        <time>2016-10-20T15:05:00Z</time>
      </trkpt>
      <trkpt lat="43.5446" lon="2.35203">
        <ele>333</ele>
        <time>2016-10-20T15:05:04Z</time>
      </trkpt>
      <trkpt lat="43.54462" lon="2.35201">
        <ele>333</ele>
        <time>2016-10-20T15:05:07Z</time>
      </trkpt>
      <trkpt lat="43.54463" lon="2.35197">
        <ele>333</ele>
        <time>2016-10-20T15:05:09Z</time>
      </trkpt>
      <trkpt lat="43.54465" lon="2.35194">
        <ele>333</ele>
        <time>2016-10-20T15:05:11Z</time>
      </trkpt>
      <trkpt lat="43.54467" lon="2.35191">
        <ele>333</ele>
        <time>2016-10-20T15:05:14Z</time>
      </trkpt>
      <trkpt lat="43.54468" lon="2.35189">
        <ele>333</ele>
        <time>2016-10-20T15:05:16Z</time>
      </trkpt>
      <trkpt lat="43.5447" lon="2.35186">
        <ele>334</ele>
        <time>2016-10-20T15:05:18Z</time>
      </trkpt>
      <trkpt lat="43.54471" lon="2.35183">
        <ele>334</ele>
        <time>2016-10-20T15:05:20Z</time>
      </trkpt>
      <trkpt lat="43.54471" lon="2.35181">
        <ele>333</ele>
        <time>2016-10-20T15:05:23Z</time>
      </trkpt>
      <trkpt lat="43.54472" lon="2.35177">
        <ele>333</ele>
        <time>2016-10-20T15:05:25Z</time>
      </trkpt>
      <trkpt lat="43.54473" lon="2.35175">
        <ele>333</ele>
        <time>2016-10-20T15:05:27Z</time>
      </trkpt>
      <trkpt lat="43.54474" lon="2.35172">
        <ele>333</ele>
        <time>2016-10-20T15:05:30Z</time>
      </trkpt>
      <trkpt lat="43.54475" lon="2.3517">
        <ele>333</ele>
        <time>2016-10-20T15:05:32Z</time>
      </trkpt>
      <trkpt lat="43.54477" lon="2.35167">
        <ele>333</ele>
        <time>2016-10-20T15:05:34Z</time>
      </trkpt>
      <trkpt lat="43.54478" lon="2.35164">
        <ele>333</ele>
        <time>2016-10-20T15:05:36Z</time>
      </trkpt>
      <trkpt lat="43.54479" lon="2.35162">
        <ele>333</ele>
        <time>2016-10-20T15:05:39Z</time>
      </trkpt>
      <trkpt lat="43.54481" lon="2.3516">
        <ele>333</ele>
        <time>2016-10-20T15:05:41Z</time>
      </trkpt>
      <trkpt lat="43.54483" lon="2.35157">
        <ele>333</ele>
        <time>2016-10-20T15:05:43Z</time>
      </trkpt>
      <trkpt lat="43.54484" lon="2.35155">
        <ele>333</ele>
        <time>2016-10-20T15:05:45Z</time>
      </trkpt>
      <trkpt lat="43.54485" lon="2.35153">
        <ele>333</ele>
        <time>2016-10-20T15:05:48Z</time>
      </trkpt>
      <trkpt lat="43.54487" lon="2.35149">
        <ele>333</ele>
        <time>2016-10-20T15:05:50Z</time>
      </trkpt>
      <trkpt lat="43.54488" lon="2.35147">
        <ele>333</ele>
        <time>2016-10-20T15:05:52Z</time>
      </trkpt>
      <trkpt lat="43.54489" lon="2.35145">
        <ele>333</ele>
        <time>2016-10-20T15:05:55Z</time>
      </trkpt>
      <trkpt lat="43.54491" lon="2.35142">
        <ele>333</ele>
        <time>2016-10-20T15:05:57Z</time>
      </trkpt>
      <trkpt lat="43.54492" lon="2.35139">
        <ele>333</ele>
        <time>2016-10-20T15:05:59Z</time>
      </trkpt>
      <trkpt lat="43.54493" lon="2.35137">
        <ele>333</ele>
        <time>2016-10-20T15:06:01Z</time>
      </trkpt>
      <trkpt lat="43.54494" lon="2.35135">
        <ele>333</ele>
        <time>2016-10-20T15:06:04Z</time>
      </trkpt>
      <trkpt lat="43.54496" lon="2.35132">
        <ele>333</ele>
        <time>2016-10-20T15:06:06Z</time>
      </trkpt>
      <trkpt lat="43.54498" lon="2.3513">
        <ele>333</ele>
        <time>2016-10-20T15:06:08Z</time>
      </trkpt>
      <trkpt lat="43.54499" lon="2.35128">
        <ele>333</ele>
        <time>2016-10-20T15:06:11Z</time>
      </trkpt>
      <trkpt lat="43.545" lon="2.35126">
        <ele>333</ele>
        <time>2016-10-20T15:06:13Z</time>
      </trkpt>
      <trkpt lat="43.54502" lon="2.35124">
        <ele>332</ele>
        <time>2016-10-20T15:06:15Z</time>
      </trkpt>
      <trkpt lat="43.54504" lon="2.35122">
        <ele>332</ele>
        <time>2016-10-20T15:06:17Z</time>
      </trkpt>
      <trkpt lat="43.54505" lon="2.3512">
        <ele>332</ele>
        <time>2016-10-20T15:06:20Z</time>
      </trkpt>
      <trkpt lat="43.54507" lon="2.35117">
        <ele>332</ele>
        <time>2016-10-20T15:06:22Z</time>
      </trkpt>
      <trkpt lat="43.54511" lon="2.35114">
        <ele>332</ele>
        <time>2016-10-20T15:06:27Z</time>
      </trkpt>
      <trkpt lat="43.54512" lon="2.35111">
        <ele>331</ele>
        <time>2016-10-20T15:06:29Z</time>
      </trkpt>
      <trkpt lat="43.54514" lon="2.35109">
        <ele>331</ele>
        <time>2016-10-20T15:06:31Z</time>
      </trkpt>
      <trkpt lat="43.54515" lon="2.35107">
        <ele>331</ele>
        <time>2016-10-20T15:06:34Z</time>
      </trkpt>
      <trkpt lat="43.54516" lon="2.35105">
        <ele>331</ele>
        <time>2016-10-20T15:06:36Z</time>
      </trkpt>
      <trkpt lat="43.54518" lon="2.35103">
        <ele>331</ele>
        <time>2016-10-20T15:06:38Z</time>
      </trkpt>
      <trkpt lat="43.5452" lon="2.35101">
        <ele>331</ele>
        <time>2016-10-20T15:06:40Z</time>
      </trkpt>
      <trkpt lat="43.54521" lon="2.35099">
        <ele>331</ele>
        <time>2016-10-20T15:06:43Z</time>
      </trkpt>
      <trkpt lat="43.54524" lon="2.35096">
        <ele>331</ele>
        <time>2016-10-20T15:06:45Z</time>
      </trkpt>
      <trkpt lat="43.54525" lon="2.35095">
        <ele>331</ele>
        <time>2016-10-20T15:06:47Z</time>
      </trkpt>
      <trkpt lat="43.54527" lon="2.35094">
        <ele>331</ele>
        <time>2016-10-20T15:06:50Z</time>
      </trkpt>
      <trkpt lat="43.54528" lon="2.35092">
        <ele>330</ele>
        <time>2016-10-20T15:06:52Z</time>
      </trkpt>
      <trkpt lat="43.5453" lon="2.35089">
        <ele>330</ele>
        <time>2016-10-20T15:06:54Z</time>
      </trkpt>
      <trkpt lat="43.54532" lon="2.35086">
        <ele>330</ele>
        <time>2016-10-20T15:06:56Z</time>
      </trkpt>
      <trkpt lat="43.54534" lon="2.35084">
        <ele>330</ele>
        <time>2016-10-20T15:06:59Z</time>
      </trkpt>
      <trkpt lat="43.54536" lon="2.35082">
        <ele>330</ele>
        <time>2016-10-20T15:07:01Z</time>
      </trkpt>
      <trkpt lat="43.54538" lon="2.35081">
        <ele>330</ele>
        <time>2016-10-20T15:07:03Z</time>
      </trkpt>
      <trkpt lat="43.5454" lon="2.35079">
        <ele>330</ele>
        <time>2016-10-20T15:07:06Z</time>
      </trkpt>
      <trkpt lat="43.54542" lon="2.35077">
        <ele>330</ele>
        <time>2016-10-20T15:07:08Z</time>
      </trkpt>
      <trkpt lat="43.54545" lon="2.35075">
        <ele>330</ele>
        <time>2016-10-20T15:07:10Z</time>
      </trkpt>
      <trkpt lat="43.54547" lon="2.35074">
        <ele>330</ele>
        <time>2016-10-20T15:07:12Z</time>
      </trkpt>
      <trkpt lat="43.54549" lon="2.35074">
        <ele>330</ele>
        <time>2016-10-20T15:07:15Z</time>
      </trkpt>
      <trkpt lat="43.54552" lon="2.35074">
        <ele>330</ele>
        <time>2016-10-20T15:07:17Z</time>
      </trkpt>
      <trkpt lat="43.54554" lon="2.35073">
        <ele>330</ele>
        <time>2016-10-20T15:07:19Z</time>
      </trkpt>
      <trkpt lat="43.54555" lon="2.35074">
        <ele>330</ele>
        <time>2016-10-20T15:07:22Z</time>
      </trkpt>
      <trkpt lat="43.54556" lon="2.35072">
        <ele>330</ele>
        <time>2016-10-20T15:07:24Z</time>
      </trkpt>
      <trkpt lat="43.54557" lon="2.35068">
        <ele>330</ele>
        <time>2016-10-20T15:07:26Z</time>
      </trkpt>
      <trkpt lat="43.54557" lon="2.35066">
        <ele>330</ele>
        <time>2016-10-20T15:07:28Z</time>
      </trkpt>
      <trkpt lat="43.54558" lon="2.35063">
        <ele>330</ele>
        <time>2016-10-20T15:07:31Z</time>
      </trkpt>
      <trkpt lat="43.54559" lon="2.3506">
        <ele>330</ele>
        <time>2016-10-20T15:07:33Z</time>
      </trkpt>
      <trkpt lat="43.54559" lon="2.35059">
        <ele>330</ele>
        <time>2016-10-20T15:07:35Z</time>
      </trkpt>
      <trkpt lat="43.54559" lon="2.35057">
        <ele>330</ele>
        <time>2016-10-20T15:07:38Z</time>
      </trkpt>
      <trkpt lat="43.54559" lon="2.35054">
        <ele>330</ele>
        <time>2016-10-20T15:07:40Z</time>
      </trkpt>
      <trkpt lat="43.5456" lon="2.35051">
        <ele>330</ele>
        <time>2016-10-20T15:07:42Z</time>
      </trkpt>
      <trkpt lat="43.54561" lon="2.35049">
        <ele>330</ele>
        <time>2016-10-20T15:07:44Z</time>
      </trkpt>
      <trkpt lat="43.54563" lon="2.35044">
        <ele>330</ele>
        <time>2016-10-20T15:07:49Z</time>
      </trkpt>
      <trkpt lat="43.54564" lon="2.35041">
        <ele>330</ele>
        <time>2016-10-20T15:07:51Z</time>
      </trkpt>
      <trkpt lat="43.54565" lon="2.35039">
        <ele>330</ele>
        <time>2016-10-20T15:07:54Z</time>
      </trkpt>
      <trkpt lat="43.54566" lon="2.35038">
        <ele>330</ele>
        <time>2016-10-20T15:07:56Z</time>
      </trkpt>
      <trkpt lat="43.54566" lon="2.35033">
        <ele>330</ele>
        <time>2016-10-20T15:07:58Z</time>
      </trkpt>
      <trkpt lat="43.54567" lon="2.35031">
        <ele>329</ele>
        <time>2016-10-20T15:08:00Z</time>
      </trkpt>
      <trkpt lat="43.54568" lon="2.35028">
        <ele>329</ele>
        <time>2016-10-20T15:08:03Z</time>
      </trkpt>
      <trkpt lat="43.54569" lon="2.35023">
        <ele>329</ele>
        <time>2016-10-20T15:08:05Z</time>
      </trkpt>
      <trkpt lat="43.5457" lon="2.3502">
        <ele>329</ele>
        <time>2016-10-20T15:08:07Z</time>
      </trkpt>
      <trkpt lat="43.54571" lon="2.35018">
        <ele>329</ele>
        <time>2016-10-20T15:08:10Z</time>
      </trkpt>
      <trkpt lat="43.54572" lon="2.35015">
        <ele>329</ele>
        <time>2016-10-20T15:08:12Z</time>
      </trkpt>
      <trkpt lat="43.54573" lon="2.35011">
        <ele>328</ele>
        <time>2016-10-20T15:08:14Z</time>
      </trkpt>
      <trkpt lat="43.54574" lon="2.35007">
        <ele>328</ele>
        <time>2016-10-20T15:08:16Z</time>
      </trkpt>
      <trkpt lat="43.54574" lon="2.35004">
        <ele>328</ele>
        <time>2016-10-20T15:08:19Z</time>
      </trkpt>
      <trkpt lat="43.54576" lon="2.34999">
        <ele>328</ele>
        <time>2016-10-20T15:08:21Z</time>
      </trkpt>
      <trkpt lat="43.54576" lon="2.34997">
        <ele>328</ele>
        <time>2016-10-20T15:08:23Z</time>
      </trkpt>
      <trkpt lat="43.54577" lon="2.34994">
        <ele>327</ele>
        <time>2016-10-20T15:08:26Z</time>
      </trkpt>
      <trkpt lat="43.54577" lon="2.34993">
        <ele>327</ele>
        <time>2016-10-20T15:08:28Z</time>
      </trkpt>
      <trkpt lat="43.54577" lon="2.34993">
        <ele>327</ele>
        <time>2016-10-20T15:08:30Z</time>
      </trkpt>
      <trkpt lat="43.54577" lon="2.34993">
        <ele>327</ele>
        <time>2016-10-20T15:08:33Z</time>
      </trkpt>
      <trkpt lat="43.54577" lon="2.34993">
        <ele>327</ele>
        <time>2016-10-20T15:08:35Z</time>
      </trkpt>
      <trkpt lat="43.54577" lon="2.34993">
        <ele>327</ele>
        <time>2016-10-20T15:08:37Z</time>
      </trkpt>
      <trkpt lat="43.54578" lon="2.34993">
        <ele>327</ele>
        <time>2016-10-20T15:08:39Z</time>
      </trkpt>
      <trkpt lat="43.54578" lon="2.34992">
        <ele>327</ele>
        <time>2016-10-20T15:08:42Z</time>
      </trkpt>
      <trkpt lat="43.54578" lon="2.34993">
        <ele>327</ele>
        <time>2016-10-20T15:08:44Z</time>
      </trkpt>
      <trkpt lat="43.54578" lon="2.34993">
        <ele>327</ele>
        <time>2016-10-20T15:08:46Z</time>
      </trkpt>
      <trkpt lat="43.54578" lon="2.34993">
        <ele>327</ele>
        <time>2016-10-20T15:08:49Z</time>
      </trkpt>
      <trkpt lat="43.54578" lon="2.34993">
        <ele>327</ele>
        <time>2016-10-20T15:08:51Z</time>
      </trkpt>
      <trkpt lat="43.54578" lon="2.34993">
        <ele>327</ele>
        <time>2016-10-20T15:08:53Z</time>
      </trkpt>
      <trkpt lat="43.54579" lon="2.34993">
        <ele>327</ele>
        <time>2016-10-20T15:08:55Z</time>
      </trkpt>
      <trkpt lat="43.54579" lon="2.34993">
        <ele>327</ele>
        <time>2016-10-20T15:08:58Z</time>
      </trkpt>
      <trkpt lat="43.54579" lon="2.34993">
        <ele>327</ele>
        <time>2016-10-20T15:09:00Z</time>
      </trkpt>
      <trkpt lat="43.5458" lon="2.34992">
        <ele>327</ele>
        <time>2016-10-20T15:09:02Z</time>
      </trkpt>
      <trkpt lat="43.5458" lon="2.34992">
        <ele>327</ele>
        <time>2016-10-20T15:09:05Z</time>
      </trkpt>
      <trkpt lat="43.5458" lon="2.34992">
        <ele>327</ele>
        <time>2016-10-20T15:09:07Z</time>
      </trkpt>
      <trkpt lat="43.5458" lon="2.34992">
        <ele>327</ele>
        <time>2016-10-20T15:09:09Z</time>
      </trkpt>
    </trkseg>
  </trk>
</gpx>